<?xml version='1.0' encoding='UTF-8'?><gpx version="1.1" creator="JPX - https://github.com/jenetics/jpx" xmlns="http://www.topografix.com/GPX/1/1"><trk><trkseg><trkpt lat="45.09886333434883" lon="8.290817053311864"><ele>201.0</ele><time>2026-04-25T15:16:19Z</time></trkpt><trkpt lat="45.098800512778794" lon="8.290744254910004"><ele>201.0</ele><time>2026-04-25T15:16:21Z</time></trkpt><trkpt lat="45.0987095673497" lon="8.290650153055728"><ele>201.0</ele><time>2026-04-25T15:16:23Z</time></trkpt><trkpt lat="45.09860871557592" lon="8.29057818651784"><ele>201.0</ele><time>2026-04-25T15:16:25Z</time></trkpt><trkpt lat="45.09854606234014" lon="8.290558527700298"><ele>201.0</ele><time>2026-04-25T15:16:26Z</time></trkpt><trkpt lat="45.09842723890305" lon="8.290545234965254"><ele>198.5</ele><time>2026-04-25T15:16:28Z</time></trkpt><trkpt lat="45.09832191437369" lon="8.290555084905362"><ele>196.0</ele><time>2026-04-25T15:16:30Z</time></trkpt><trkpt lat="45.09822626479808" lon="8.290562687092157"><ele>193.5</ele><time>2026-04-25T15:16:31.999Z</time></trkpt><trkpt lat="45.09815590233843" lon="8.29056827947668"><ele>191.0</ele><time>2026-04-25T15:16:33.999Z</time></trkpt><trkpt lat="45.09809484789896" lon="8.290888040472746"><ele>195.4</ele><time>2026-04-25T15:16:35.999Z</time></trkpt><trkpt lat="45.09805486596901" lon="8.290981406811836"><ele>199.8</ele><time>2026-04-25T15:16:36.999Z</time></trkpt><trkpt lat="45.09800562736581" lon="8.291075246522592"><ele>204.20000000000002</ele><time>2026-04-25T15:16:37.999Z</time></trkpt><trkpt lat="45.09795750804099" lon="8.291190788049565"><ele>208.60000000000002</ele><time>2026-04-25T15:16:38.999Z</time></trkpt><trkpt lat="45.097894504025625" lon="8.291296696098197"><ele>213.0</ele><time>2026-04-25T15:16:39.999Z</time></trkpt><trkpt lat="45.09784060844743" lon="8.29141432795335"><ele>210.60000000000002</ele><time>2026-04-25T15:16:40.999Z</time></trkpt><trkpt lat="45.09779847371874" lon="8.291558532930724"><ele>208.20000000000002</ele><time>2026-04-25T15:16:41.999Z</time></trkpt><trkpt lat="45.09774758502746" lon="8.291692792215294"><ele>205.8</ele><time>2026-04-25T15:16:42.999Z</time></trkpt><trkpt lat="45.09770219787067" lon="8.291811610487944"><ele>203.4</ele><time>2026-04-25T15:16:43.999Z</time></trkpt><trkpt lat="45.09765762058717" lon="8.291942508936513"><ele>201.0</ele><time>2026-04-25T15:16:44.999Z</time></trkpt><trkpt lat="45.097603870020244" lon="8.292095972603986"><ele>201.0</ele><time>2026-04-25T15:16:45.999Z</time></trkpt><trkpt lat="45.09753995732326" lon="8.292244951080251"><ele>201.0</ele><time>2026-04-25T15:16:46.999Z</time></trkpt><trkpt lat="45.09747612770389" lon="8.29239337095004"><ele>201.0</ele><time>2026-04-25T15:16:47.999Z</time></trkpt><trkpt lat="45.09741294263996" lon="8.292536061714204"><ele>201.0</ele><time>2026-04-25T15:16:48.999Z</time></trkpt><trkpt lat="45.09735711362087" lon="8.292661163229472"><ele>201.8</ele><time>2026-04-25T15:16:49.999Z</time></trkpt><trkpt lat="45.097295635621734" lon="8.29276927204064"><ele>202.60000000000002</ele><time>2026-04-25T15:16:50.999Z</time></trkpt><trkpt lat="45.09723900168655" lon="8.29289540969565"><ele>203.4</ele><time>2026-04-25T15:16:51.999Z</time></trkpt><trkpt lat="45.097185228816414" lon="8.293038159270807"><ele>204.2</ele><time>2026-04-25T15:16:52.999Z</time></trkpt><trkpt lat="45.09712250903103" lon="8.293161444409076"><ele>205.0</ele><time>2026-04-25T15:16:53.999Z</time></trkpt><trkpt lat="45.09706376219823" lon="8.2932655959719"><ele>205.0</ele><time>2026-04-25T15:16:54.999Z</time></trkpt><trkpt lat="45.09702887148965" lon="8.293361126635327"><ele>205.0</ele><time>2026-04-25T15:16:55.999Z</time></trkpt><trkpt lat="45.09701701621687" lon="8.293490515173982"><ele>205.0</ele><time>2026-04-25T15:16:56.999Z</time></trkpt><trkpt lat="45.097027300026" lon="8.29364277108568"><ele>205.0</ele><time>2026-04-25T15:16:57.999Z</time></trkpt><trkpt lat="45.097069026780865" lon="8.293800309019577"><ele>205.0</ele><time>2026-04-25T15:16:58.999Z</time></trkpt><trkpt lat="45.097110815923976" lon="8.293954965969112"><ele>205.5</ele><time>2026-04-25T15:16:59.999Z</time></trkpt><trkpt lat="45.09716449437507" lon="8.294132552017585"><ele>206.0</ele><time>2026-04-25T15:17:00.999Z</time></trkpt><trkpt lat="45.097239768295346" lon="8.294297047142585"><ele>206.5</ele><time>2026-04-25T15:17:01.999Z</time></trkpt><trkpt lat="45.097331755548176" lon="8.294450283278984"><ele>207.0</ele><time>2026-04-25T15:17:02.999Z</time></trkpt><trkpt lat="45.0974131513536" lon="8.294582123204856"><ele>204.2</ele><time>2026-04-25T15:17:03.999Z</time></trkpt><trkpt lat="45.09747612952514" lon="8.294707730187348"><ele>201.39999999999998</ele><time>2026-04-25T15:17:04.999Z</time></trkpt><trkpt lat="45.097534940475576" lon="8.294807272430967"><ele>198.60000000000002</ele><time>2026-04-25T15:17:05.999Z</time></trkpt><trkpt lat="45.0975801145621" lon="8.29488134554"><ele>195.8</ele><time>2026-04-25T15:17:06.999Z</time></trkpt><trkpt lat="45.09762766957599" lon="8.2949680058671"><ele>193.0</ele><time>2026-04-25T15:17:08.999Z</time></trkpt><trkpt lat="45.09762075877697" lon="8.295159467411"><ele>193.0</ele><time>2026-04-25T15:17:10.999Z</time></trkpt><trkpt lat="45.097592215539635" lon="8.295281677203029"><ele>193.0</ele><time>2026-04-25T15:17:11.999Z</time></trkpt><trkpt lat="45.09755426360403" lon="8.295412682168683"><ele>193.0</ele><time>2026-04-25T15:17:12.999Z</time></trkpt><trkpt lat="45.09751108807133" lon="8.295551411158387"><ele>193.0</ele><time>2026-04-25T15:17:13.999Z</time></trkpt><trkpt lat="45.09745785755052" lon="8.295687273130214"><ele>193.0</ele><time>2026-04-25T15:17:14.999Z</time></trkpt><trkpt lat="45.09741661132875" lon="8.295817450717793"><ele>193.83333333333331</ele><time>2026-04-25T15:17:15.999Z</time></trkpt><trkpt lat="45.09737892725271" lon="8.295922699649369"><ele>194.66666666666666</ele><time>2026-04-25T15:17:16.999Z</time></trkpt><trkpt lat="45.09734688082512" lon="8.29602978775128"><ele>195.5</ele><time>2026-04-25T15:17:17.999Z</time></trkpt><trkpt lat="45.09731750206699" lon="8.296148542469155"><ele>196.33333333333331</ele><time>2026-04-25T15:17:18.999Z</time></trkpt><trkpt lat="45.097287052680144" lon="8.296245951712772"><ele>197.16666666666666</ele><time>2026-04-25T15:17:19.999Z</time></trkpt><trkpt lat="45.09725439443933" lon="8.296331728746626"><ele>198.0</ele><time>2026-04-25T15:17:20.999Z</time></trkpt><trkpt lat="45.09722006487645" lon="8.296422969590601"><ele>198.0</ele><time>2026-04-25T15:17:21.999Z</time></trkpt><trkpt lat="45.09719332194011" lon="8.29650629858346"><ele>198.0</ele><time>2026-04-25T15:17:22.999Z</time></trkpt><trkpt lat="45.097162922572736" lon="8.296669059382221"><ele>198.0</ele><time>2026-04-25T15:17:24.999Z</time></trkpt><trkpt lat="45.09714137947849" lon="8.296853228533775"><ele>198.0</ele><time>2026-04-25T15:17:26.999Z</time></trkpt><trkpt lat="45.09713005887117" lon="8.29697327809011"><ele>198.0</ele><time>2026-04-25T15:17:27.999Z</time></trkpt><trkpt lat="45.09701171012087" lon="8.297086942569232"><ele>198.0</ele><time>2026-04-25T15:17:28.999Z</time></trkpt><trkpt lat="45.096953775755914" lon="8.29721574284375"><ele>198.0</ele><time>2026-04-25T15:17:29.999Z</time></trkpt><trkpt lat="45.096883732674236" lon="8.297376315874438"><ele>198.0</ele><time>2026-04-25T15:17:30.999Z</time></trkpt><trkpt lat="45.0968154194456" lon="8.297543954408523"><ele>198.0</ele><time>2026-04-25T15:17:31.999Z</time></trkpt><trkpt lat="45.09675217628343" lon="8.297677633749853"><ele>196.2</ele><time>2026-04-25T15:17:32.999Z</time></trkpt><trkpt lat="45.09669206606244" lon="8.297828283213553"><ele>194.4</ele><time>2026-04-25T15:17:33.999Z</time></trkpt><trkpt lat="45.09664721646961" lon="8.297957049434954"><ele>192.6</ele><time>2026-04-25T15:17:34.999Z</time></trkpt><trkpt lat="45.09660381915766" lon="8.298070888288965"><ele>190.79999999999998</ele><time>2026-04-25T15:17:35.999Z</time></trkpt><trkpt lat="45.096569486719645" lon="8.298157155085125"><ele>189.0</ele><time>2026-04-25T15:17:36.999Z</time></trkpt><trkpt lat="45.09651642111393" lon="8.298243803951474"><ele>185.25</ele><time>2026-04-25T15:17:38.999Z</time></trkpt><trkpt lat="45.096405590266436" lon="8.298223656378026"><ele>181.5</ele><time>2026-04-25T15:17:40.999Z</time></trkpt><trkpt lat="45.09631492602086" lon="8.298161755252002"><ele>177.75</ele><time>2026-04-25T15:17:41.999Z</time></trkpt><trkpt lat="45.09619528897914" lon="8.298102449401478"><ele>174.0</ele><time>2026-04-25T15:17:42.999Z</time></trkpt><trkpt lat="45.096060643355734" lon="8.298087321459134"><ele>174.0</ele><time>2026-04-25T15:17:43.999Z</time></trkpt><trkpt lat="45.09592729847058" lon="8.298141438860839"><ele>174.0</ele><time>2026-04-25T15:17:45Z</time></trkpt><trkpt lat="45.0957730655967" lon="8.298200710597863"><ele>174.0</ele><time>2026-04-25T15:17:46Z</time></trkpt><trkpt lat="45.09560786662692" lon="8.298278426036878"><ele>175.75</ele><time>2026-04-25T15:17:47Z</time></trkpt><trkpt lat="45.09545916362582" lon="8.298339006309467"><ele>177.5</ele><time>2026-04-25T15:17:48Z</time></trkpt><trkpt lat="45.095320472809526" lon="8.298388114190706"><ele>179.25</ele><time>2026-04-25T15:17:49Z</time></trkpt><trkpt lat="45.09518606765044" lon="8.2984347294167"><ele>181.0</ele><time>2026-04-25T15:17:50Z</time></trkpt><trkpt lat="45.09506501133478" lon="8.298470525938932"><ele>181.0</ele><time>2026-04-25T15:17:51Z</time></trkpt><trkpt lat="45.094962233891216" lon="8.298504865754085"><ele>181.0</ele><time>2026-04-25T15:17:52Z</time></trkpt><trkpt lat="45.09487908984106" lon="8.298537756455863"><ele>181.0</ele><time>2026-04-25T15:17:53Z</time></trkpt><trkpt lat="45.0948174946476" lon="8.298609397276806"><ele>181.0</ele><time>2026-04-25T15:17:55Z</time></trkpt><trkpt lat="45.09480205005557" lon="8.298750908407293"><ele>181.0</ele><time>2026-04-25T15:17:57Z</time></trkpt><trkpt lat="45.094775394081836" lon="8.298861103236849"><ele>183.0</ele><time>2026-04-25T15:17:58Z</time></trkpt><trkpt lat="45.094742917828135" lon="8.298965546729448"><ele>185.0</ele><time>2026-04-25T15:17:59Z</time></trkpt><trkpt lat="45.09470810333518" lon="8.299110691428336"><ele>187.0</ele><time>2026-04-25T15:18:01Z</time></trkpt><trkpt lat="45.09465983058818" lon="8.299278000586312"><ele>189.0</ele><time>2026-04-25T15:18:03Z</time></trkpt><trkpt lat="45.094639259691625" lon="8.299381401672779"><ele>191.0</ele><time>2026-04-25T15:18:04Z</time></trkpt><trkpt lat="45.09461447835962" lon="8.299489507506056"><ele>191.0</ele><time>2026-04-25T15:18:05Z</time></trkpt><trkpt lat="45.09459155257079" lon="8.299577794656383"><ele>191.0</ele><time>2026-04-25T15:18:06Z</time></trkpt><trkpt lat="45.09454117929922" lon="8.299726973708543"><ele>191.0</ele><time>2026-04-25T15:18:08Z</time></trkpt><trkpt lat="45.094465039066066" lon="8.299860775114631"><ele>191.0</ele><time>2026-04-25T15:18:10Z</time></trkpt><trkpt lat="45.09441311041164" lon="8.299919092070901"><ele>191.0</ele><time>2026-04-25T15:18:11Z</time></trkpt><trkpt lat="45.09433318626076" lon="8.299984704089004"><ele>191.0</ele><time>2026-04-25T15:18:13Z</time></trkpt><trkpt lat="45.094249457506585" lon="8.30001280580662"><ele>191.0</ele><time>2026-04-25T15:18:16Z</time></trkpt><trkpt lat="45.094202164454906" lon="8.299921780717359"><ele>191.0</ele><time>2026-04-25T15:18:18Z</time></trkpt><trkpt lat="45.09417057199092" lon="8.299738491438129"><ele>191.0</ele><time>2026-04-25T15:18:20Z</time></trkpt><trkpt lat="45.09416564259299" lon="8.299618095621351"><ele>191.0</ele><time>2026-04-25T15:18:21Z</time></trkpt><trkpt lat="45.09415515194249" lon="8.299505254846594"><ele>190.5</ele><time>2026-04-25T15:18:22Z</time></trkpt><trkpt lat="45.09408490645178" lon="8.299415024147992"><ele>190.0</ele><time>2026-04-25T15:18:23Z</time></trkpt><trkpt lat="45.09406689135051" lon="8.299316039626213"><ele>189.5</ele><time>2026-04-25T15:18:24Z</time></trkpt><trkpt lat="45.094046438403595" lon="8.299206003735728"><ele>189.0</ele><time>2026-04-25T15:18:24.999Z</time></trkpt><trkpt lat="45.094026369641405" lon="8.299104108791385"><ele>188.5</ele><time>2026-04-25T15:18:25.999Z</time></trkpt><trkpt lat="45.094004087614486" lon="8.298992488549029"><ele>188.0</ele><time>2026-04-25T15:18:26.999Z</time></trkpt><trkpt lat="45.093981673780114" lon="8.298880205502023"><ele>188.0</ele><time>2026-04-25T15:18:27.999Z</time></trkpt><trkpt lat="45.09395745158524" lon="8.298789850757773"><ele>188.0</ele><time>2026-04-25T15:18:28.999Z</time></trkpt><trkpt lat="45.09392812776611" lon="8.298668390983037"><ele>188.0</ele><time>2026-04-25T15:18:29.999Z</time></trkpt><trkpt lat="45.09390302273486" lon="8.29855193489162"><ele>188.0</ele><time>2026-04-25T15:18:30.999Z</time></trkpt><trkpt lat="45.09388010267993" lon="8.298442126706227"><ele>188.0</ele><time>2026-04-25T15:18:31.999Z</time></trkpt><trkpt lat="45.09385798784368" lon="8.29833421187024"><ele>188.0</ele><time>2026-04-25T15:18:32.999Z</time></trkpt><trkpt lat="45.093836717003384" lon="8.298222264001161"><ele>188.0</ele><time>2026-04-25T15:18:33.999Z</time></trkpt><trkpt lat="45.09381492651092" lon="8.298107581913106"><ele>188.0</ele><time>2026-04-25T15:18:34.999Z</time></trkpt><trkpt lat="45.093794444991055" lon="8.297991816677559"><ele>188.0</ele><time>2026-04-25T15:18:35.999Z</time></trkpt><trkpt lat="45.093776297892596" lon="8.297883939929209"><ele>188.0</ele><time>2026-04-25T15:18:36.999Z</time></trkpt><trkpt lat="45.09375582758975" lon="8.297745385658265"><ele>188.0</ele><time>2026-04-25T15:18:37.999Z</time></trkpt><trkpt lat="45.09373936999301" lon="8.297625431740018"><ele>188.0</ele><time>2026-04-25T15:18:38.999Z</time></trkpt><trkpt lat="45.09372601846557" lon="8.297510998577977"><ele>190.33333333333331</ele><time>2026-04-25T15:18:39.999Z</time></trkpt><trkpt lat="45.09370636978877" lon="8.297399504657825"><ele>192.66666666666666</ele><time>2026-04-25T15:18:40.999Z</time></trkpt><trkpt lat="45.093684140403006" lon="8.297286485784165"><ele>195.0</ele><time>2026-04-25T15:18:41.999Z</time></trkpt><trkpt lat="45.0936587402031" lon="8.297170792773318"><ele>197.33333333333331</ele><time>2026-04-25T15:18:42.999Z</time></trkpt><trkpt lat="45.09362887133801" lon="8.297034745976317"><ele>199.66666666666666</ele><time>2026-04-25T15:18:43.999Z</time></trkpt><trkpt lat="45.0935993247789" lon="8.296900488172168"><ele>202.0</ele><time>2026-04-25T15:18:44.999Z</time></trkpt><trkpt lat="45.093569712570854" lon="8.2967662320323"><ele>204.8</ele><time>2026-04-25T15:18:45.999Z</time></trkpt><trkpt lat="45.09354096687184" lon="8.29663235819148"><ele>207.6</ele><time>2026-04-25T15:18:46.999Z</time></trkpt><trkpt lat="45.093514224630496" lon="8.296505170591828"><ele>210.40000000000003</ele><time>2026-04-25T15:18:47.999Z</time></trkpt><trkpt lat="45.09348852846504" lon="8.296381031269373"><ele>213.20000000000002</ele><time>2026-04-25T15:18:48.999Z</time></trkpt><trkpt lat="45.09346360125462" lon="8.296257967421061"><ele>216.0</ele><time>2026-04-25T15:18:49.999Z</time></trkpt><trkpt lat="45.09343871790442" lon="8.296135119895027"><ele>218.60000000000002</ele><time>2026-04-25T15:18:50.999Z</time></trkpt><trkpt lat="45.09341133427062" lon="8.295995611794075"><ele>221.20000000000002</ele><time>2026-04-25T15:18:51.999Z</time></trkpt><trkpt lat="45.093388650265986" lon="8.295874038840154"><ele>223.79999999999998</ele><time>2026-04-25T15:18:52.999Z</time></trkpt><trkpt lat="45.09336762901034" lon="8.295762609880107"><ele>226.39999999999998</ele><time>2026-04-25T15:18:53.999Z</time></trkpt><trkpt lat="45.0933404049746" lon="8.295625064887444"><ele>229.0</ele><time>2026-04-25T15:18:54.999Z</time></trkpt><trkpt lat="45.09330698874539" lon="8.295486830611006"><ele>231.25</ele><time>2026-04-25T15:18:55.999Z</time></trkpt><trkpt lat="45.09325058229547" lon="8.295324406689481"><ele>233.5</ele><time>2026-04-25T15:18:56.999Z</time></trkpt><trkpt lat="45.09318072510823" lon="8.295236273865838"><ele>235.75</ele><time>2026-04-25T15:18:57.999Z</time></trkpt><trkpt lat="45.09312892463125" lon="8.29513321849501"><ele>238.0</ele><time>2026-04-25T15:18:58.999Z</time></trkpt><trkpt lat="45.093300511716905" lon="8.294805792064484"><ele>240.2</ele><time>2026-04-25T15:18:59.999Z</time></trkpt><trkpt lat="45.09327628071369" lon="8.294682200853398"><ele>242.4</ele><time>2026-04-25T15:19:00.999Z</time></trkpt><trkpt lat="45.0932468568848" lon="8.294548130181415"><ele>244.59999999999997</ele><time>2026-04-25T15:19:01.999Z</time></trkpt><trkpt lat="45.093223897026974" lon="8.294414240038128"><ele>246.79999999999998</ele><time>2026-04-25T15:19:02.999Z</time></trkpt><trkpt lat="45.09320009747729" lon="8.294287533755174"><ele>249.0</ele><time>2026-04-25T15:19:03.999Z</time></trkpt><trkpt lat="45.093172405172524" lon="8.29416202195508"><ele>245.79999999999998</ele><time>2026-04-25T15:19:04.999Z</time></trkpt><trkpt lat="45.093138488944945" lon="8.294024373376569"><ele>242.59999999999997</ele><time>2026-04-25T15:19:05.999Z</time></trkpt><trkpt lat="45.09314588826522" lon="8.293902260174809"><ele>239.4</ele><time>2026-04-25T15:19:06.999Z</time></trkpt><trkpt lat="45.093135144706785" lon="8.2937886509143"><ele>236.2</ele><time>2026-04-25T15:19:07.999Z</time></trkpt><trkpt lat="45.093128353381864" lon="8.293664376494618"><ele>233.0</ele><time>2026-04-25T15:19:08.999Z</time></trkpt><trkpt lat="45.09311825996816" lon="8.293525804139218"><ele>233.0</ele><time>2026-04-25T15:19:09.999Z</time></trkpt><trkpt lat="45.09313374530872" lon="8.293359972773334"><ele>233.0</ele><time>2026-04-25T15:19:10.999Z</time></trkpt><trkpt lat="45.09311900653171" lon="8.293221972483149"><ele>233.0</ele><time>2026-04-25T15:19:11.999Z</time></trkpt><trkpt lat="45.09311190590618" lon="8.293095618660042"><ele>233.0</ele><time>2026-04-25T15:19:12.999Z</time></trkpt><trkpt lat="45.09308957619935" lon="8.29297343637743"><ele>233.0</ele><time>2026-04-25T15:19:13.999Z</time></trkpt><trkpt lat="45.09304594616048" lon="8.292888642622916"><ele>234.83333333333334</ele><time>2026-04-25T15:19:14.999Z</time></trkpt><trkpt lat="45.09302416318123" lon="8.292777605590347"><ele>236.66666666666669</ele><time>2026-04-25T15:19:15.999Z</time></trkpt><trkpt lat="45.09301668183542" lon="8.292655945415879"><ele>238.5</ele><time>2026-04-25T15:19:16.999Z</time></trkpt><trkpt lat="45.092994273890234" lon="8.292548244164102"><ele>240.33333333333331</ele><time>2026-04-25T15:19:17.999Z</time></trkpt><trkpt lat="45.09298196390948" lon="8.292405463016722"><ele>242.16666666666666</ele><time>2026-04-25T15:19:18.999Z</time></trkpt><trkpt lat="45.09295914930454" lon="8.292281509792918"><ele>244.0</ele><time>2026-04-25T15:19:19.999Z</time></trkpt><trkpt lat="45.09291994038816" lon="8.292156886220955"><ele>245.66666666666666</ele><time>2026-04-25T15:19:20.999Z</time></trkpt><trkpt lat="45.09291274792163" lon="8.292043975247624"><ele>247.33333333333331</ele><time>2026-04-25T15:19:21.999Z</time></trkpt><trkpt lat="45.0928972299755" lon="8.291932278825021"><ele>249.0</ele><time>2026-04-25T15:19:22.999Z</time></trkpt><trkpt lat="45.09289690714059" lon="8.291821696814948"><ele>250.66666666666669</ele><time>2026-04-25T15:19:23.999Z</time></trkpt><trkpt lat="45.092905619441694" lon="8.291717169620254"><ele>252.33333333333334</ele><time>2026-04-25T15:19:24.999Z</time></trkpt><trkpt lat="45.09293123565233" lon="8.291608266665465"><ele>254.0</ele><time>2026-04-25T15:19:25.999Z</time></trkpt><trkpt lat="45.09298314518193" lon="8.291447786109359"><ele>256.2</ele><time>2026-04-25T15:19:27.999Z</time></trkpt><trkpt lat="45.09298702105904" lon="8.291341075366596"><ele>258.4</ele><time>2026-04-25T15:19:28.999Z</time></trkpt><trkpt lat="45.09302192393893" lon="8.291202598389175"><ele>260.6</ele><time>2026-04-25T15:19:30.999Z</time></trkpt><trkpt lat="45.09300835029924" lon="8.291078960893724"><ele>262.8</ele><time>2026-04-25T15:19:32.999Z</time></trkpt><trkpt lat="45.09299460212233" lon="8.290943052070137"><ele>265.0</ele><time>2026-04-25T15:19:34.999Z</time></trkpt><trkpt lat="45.09294338423697" lon="8.290763467308663"><ele>265.0</ele><time>2026-04-25T15:19:36.999Z</time></trkpt><trkpt lat="45.09292870546969" lon="8.290662314016231"><ele>265.0</ele><time>2026-04-25T15:19:37.999Z</time></trkpt><trkpt lat="45.09290187379126" lon="8.290557495440956"><ele>265.0</ele><time>2026-04-25T15:19:38.999Z</time></trkpt><trkpt lat="45.092870864005945" lon="8.290445559380025"><ele>265.0</ele><time>2026-04-25T15:19:40.999Z</time></trkpt><trkpt lat="45.09282218528082" lon="8.29033312291766"><ele>265.0</ele><time>2026-04-25T15:19:42.999Z</time></trkpt><trkpt lat="45.09277306474907" lon="8.290198162972981"><ele>265.0</ele><time>2026-04-25T15:19:44.999Z</time></trkpt><trkpt lat="45.092723422690135" lon="8.290122743612782"><ele>266.8333333333333</ele><time>2026-04-25T15:19:48.999Z</time></trkpt><trkpt lat="45.09268736422725" lon="8.290032107556538"><ele>268.66666666666663</ele><time>2026-04-25T15:19:51.999Z</time></trkpt><trkpt lat="45.09262187744139" lon="8.289903194732839"><ele>270.5</ele><time>2026-04-25T15:19:53.999Z</time></trkpt><trkpt lat="45.09257925717029" lon="8.289808776919728"><ele>272.3333333333333</ele><time>2026-04-25T15:19:54.999Z</time></trkpt><trkpt lat="45.092534274925484" lon="8.289698700290996"><ele>274.1666666666667</ele><time>2026-04-25T15:19:56.999Z</time></trkpt><trkpt lat="45.09260341652596" lon="8.289619212282695"><ele>276.0</ele><time>2026-04-25T15:19:59.999Z</time></trkpt><trkpt lat="45.09267991787046" lon="8.289576378703348"><ele>276.0</ele><time>2026-04-25T15:20:00.999Z</time></trkpt><trkpt lat="45.09274383988924" lon="8.28950617728639"><ele>276.0</ele><time>2026-04-25T15:20:01.999Z</time></trkpt><trkpt lat="45.09285572949664" lon="8.289446794239039"><ele>276.0</ele><time>2026-04-25T15:20:03.999Z</time></trkpt><trkpt lat="45.092958475533734" lon="8.289402363524829"><ele>276.0</ele><time>2026-04-25T15:20:05.999Z</time></trkpt><trkpt lat="45.09301943825242" lon="8.289370682096827"><ele>276.0</ele><time>2026-04-25T15:20:06.999Z</time></trkpt><trkpt lat="45.09309747572759" lon="8.28934064161223"><ele>276.0</ele><time>2026-04-25T15:20:07.999Z</time></trkpt><trkpt lat="45.093209083249896" lon="8.289286196396825"><ele>276.0</ele><time>2026-04-25T15:20:09.999Z</time></trkpt><trkpt lat="45.0932761228935" lon="8.289234785074834"><ele>276.0</ele><time>2026-04-25T15:20:10.999Z</time></trkpt><trkpt lat="45.09334321518101" lon="8.289168337776221"><ele>276.0</ele><time>2026-04-25T15:20:11.999Z</time></trkpt><trkpt lat="45.09340513639937" lon="8.289094643051722"><ele>276.0</ele><time>2026-04-25T15:20:12.999Z</time></trkpt><trkpt lat="45.093444290151474" lon="8.28901318233939"><ele>276.0</ele><time>2026-04-25T15:20:13.999Z</time></trkpt><trkpt lat="45.09348759633904" lon="8.288927908538025"><ele>275.1666666666667</ele><time>2026-04-25T15:20:14.999Z</time></trkpt><trkpt lat="45.093548924911524" lon="8.28883052531812"><ele>274.3333333333333</ele><time>2026-04-25T15:20:15.999Z</time></trkpt><trkpt lat="45.09360676757658" lon="8.288745612502503"><ele>273.5</ele><time>2026-04-25T15:20:16.999Z</time></trkpt><trkpt lat="45.093604068740476" lon="8.288626526648518"><ele>272.66666666666663</ele><time>2026-04-25T15:20:18.999Z</time></trkpt><trkpt lat="45.09357585173778" lon="8.288539635610743"><ele>271.8333333333333</ele><time>2026-04-25T15:20:19.999Z</time></trkpt><trkpt lat="45.093560060418255" lon="8.28838080714108"><ele>271.0</ele><time>2026-04-25T15:20:21.999Z</time></trkpt><trkpt lat="45.09351734288701" lon="8.288260640910199"><ele>271.0</ele><time>2026-04-25T15:20:23.999Z</time></trkpt><trkpt lat="45.09349626650067" lon="8.288173233590781"><ele>271.0</ele><time>2026-04-25T15:20:24.999Z</time></trkpt><trkpt lat="45.093491609930204" lon="8.288080792047978"><ele>271.0</ele><time>2026-04-25T15:20:25.999Z</time></trkpt><trkpt lat="45.09347112383512" lon="8.287944578084051"><ele>271.0</ele><time>2026-04-25T15:20:27.999Z</time></trkpt><trkpt lat="45.09339543900565" lon="8.287863076571435"><ele>271.0</ele><time>2026-04-25T15:20:29.999Z</time></trkpt><trkpt lat="45.09331431911848" lon="8.28783587070884"><ele>271.0</ele><time>2026-04-25T15:20:30.999Z</time></trkpt><trkpt lat="45.09323954286421" lon="8.287810057898506"><ele>267.5</ele><time>2026-04-25T15:20:31.999Z</time></trkpt><trkpt lat="45.09317946751395" lon="8.287766823550054"><ele>264.0</ele><time>2026-04-25T15:20:32.999Z</time></trkpt><trkpt lat="45.09311414037383" lon="8.287704178061377"><ele>260.5</ele><time>2026-04-25T15:20:33.999Z</time></trkpt><trkpt lat="45.0930692249858" lon="8.28762251414695"><ele>257.0</ele><time>2026-04-25T15:20:35.999Z</time></trkpt><trkpt lat="45.092955875514306" lon="8.287535318894777"><ele>253.49999999999997</ele><time>2026-04-25T15:20:37.999Z</time></trkpt><trkpt lat="45.092910933736974" lon="8.287439825532996"><ele>250.0</ele><time>2026-04-25T15:20:38.999Z</time></trkpt><trkpt lat="45.09286467452434" lon="8.287330416444279"><ele>247.83333333333331</ele><time>2026-04-25T15:20:39.999Z</time></trkpt><trkpt lat="45.092841452371125" lon="8.28723165421157"><ele>245.66666666666666</ele><time>2026-04-25T15:20:40.999Z</time></trkpt><trkpt lat="45.092827717863535" lon="8.287133190716236"><ele>243.5</ele><time>2026-04-25T15:20:41.999Z</time></trkpt><trkpt lat="45.092817900378535" lon="8.287044954404728"><ele>241.33333333333331</ele><time>2026-04-25T15:20:42.999Z</time></trkpt><trkpt lat="45.09275060037668" lon="8.286975537667262"><ele>239.16666666666666</ele><time>2026-04-25T15:20:44.999Z</time></trkpt><trkpt lat="45.092705951663184" lon="8.28709357258766"><ele>237.0</ele><time>2026-04-25T15:20:46.999Z</time></trkpt><trkpt lat="45.09269511101071" lon="8.287188891984798"><ele>237.0</ele><time>2026-04-25T15:20:47.999Z</time></trkpt><trkpt lat="45.0927029400884" lon="8.287287334097226"><ele>237.0</ele><time>2026-04-25T15:20:49.999Z</time></trkpt><trkpt lat="45.0926740641328" lon="8.287383001987275"><ele>237.0</ele><time>2026-04-25T15:20:51.999Z</time></trkpt><trkpt lat="45.092602007165375" lon="8.287364762520552"><ele>237.0</ele><time>2026-04-25T15:20:53.999Z</time></trkpt><trkpt lat="45.09260267443629" lon="8.287208621596369"><ele>237.0</ele><time>2026-04-25T15:20:55.999Z</time></trkpt><trkpt lat="45.09256213894669" lon="8.287062045575865"><ele>237.0</ele><time>2026-04-25T15:20:57.999Z</time></trkpt><trkpt lat="45.09253322614657" lon="8.286957013917815"><ele>237.0</ele><time>2026-04-25T15:20:58.999Z</time></trkpt><trkpt lat="45.09248474081889" lon="8.286800504592064"><ele>237.0</ele><time>2026-04-25T15:21:00.999Z</time></trkpt><trkpt lat="45.09251063270515" lon="8.28665014348591"><ele>237.0</ele><time>2026-04-25T15:21:02.999Z</time></trkpt><trkpt lat="45.09255352875609" lon="8.286566463344862"><ele>237.0</ele><time>2026-04-25T15:21:04.999Z</time></trkpt><trkpt lat="45.092724669479615" lon="8.286534759046106"><ele>237.0</ele><time>2026-04-25T15:21:08.999Z</time></trkpt><trkpt lat="45.09282574325702" lon="8.286512672802843"><ele>237.0</ele><time>2026-04-25T15:21:10.999Z</time></trkpt><trkpt lat="45.09291829957793" lon="8.286456867588099"><ele>237.0</ele><time>2026-04-25T15:21:12.999Z</time></trkpt><trkpt lat="45.093006040577436" lon="8.286430454086505"><ele>237.0</ele><time>2026-04-25T15:21:14.999Z</time></trkpt><trkpt lat="45.09309596296223" lon="8.286459136340563"><ele>237.0</ele><time>2026-04-25T15:21:16.999Z</time></trkpt><trkpt lat="45.09317396499802" lon="8.286461798064165"><ele>236.0</ele><time>2026-04-25T15:21:18.999Z</time></trkpt><trkpt lat="45.093296992595" lon="8.286479802934005"><ele>235.0</ele><time>2026-04-25T15:21:22.999Z</time></trkpt><trkpt lat="45.09338832524908" lon="8.286469898212118"><ele>234.0</ele><time>2026-04-25T15:21:24.999Z</time></trkpt><trkpt lat="45.09347694117798" lon="8.286416838459123"><ele>233.0</ele><time>2026-04-25T15:21:26.999Z</time></trkpt><trkpt lat="45.09356928841588" lon="8.286343623481322"><ele>232.0</ele><time>2026-04-25T15:21:28.999Z</time></trkpt><trkpt lat="45.09363542310784" lon="8.286260632576683"><ele>227.33333333333331</ele><time>2026-04-25T15:21:31.999Z</time></trkpt><trkpt lat="45.09368550082361" lon="8.286182100835479"><ele>222.66666666666666</ele><time>2026-04-25T15:21:33.999Z</time></trkpt><trkpt lat="45.09373768001016" lon="8.286090313688211"><ele>218.0</ele><time>2026-04-25T15:21:35.999Z</time></trkpt><trkpt lat="45.09380201928538" lon="8.286008209449518"><ele>213.33333333333331</ele><time>2026-04-25T15:21:38.999Z</time></trkpt><trkpt lat="45.093868273791315" lon="8.285922890779242"><ele>208.66666666666666</ele><time>2026-04-25T15:21:41.999Z</time></trkpt><trkpt lat="45.093950954630685" lon="8.285843072799356"><ele>204.0</ele><time>2026-04-25T15:21:45.999Z</time></trkpt><trkpt lat="45.09402872419846" lon="8.285796563039352"><ele>204.0</ele><time>2026-04-25T15:21:48.999Z</time></trkpt><trkpt lat="45.09409154096858" lon="8.285751876186445"><ele>204.0</ele><time>2026-04-25T15:21:50.999Z</time></trkpt><trkpt lat="45.094193613855175" lon="8.28568306201286"><ele>204.0</ele><time>2026-04-25T15:21:52.999Z</time></trkpt><trkpt lat="45.09428206728091" lon="8.285619096495575"><ele>204.0</ele><time>2026-04-25T15:21:54.999Z</time></trkpt><trkpt lat="45.09429787971253" lon="8.285492113000084"><ele>204.0</ele><time>2026-04-25T15:21:57.999Z</time></trkpt><trkpt lat="45.09426225675662" lon="8.285381134753434"><ele>201.66666666666666</ele><time>2026-04-25T15:22:00.999Z</time></trkpt><trkpt lat="45.09422055240745" lon="8.285298148005745"><ele>199.33333333333334</ele><time>2026-04-25T15:22:03.999Z</time></trkpt><trkpt lat="45.094173961480315" lon="8.285209098405824"><ele>197.0</ele><time>2026-04-25T15:22:06.999Z</time></trkpt><trkpt lat="45.09414677986196" lon="8.285115357526097"><ele>194.66666666666669</ele><time>2026-04-25T15:22:10.999Z</time></trkpt><trkpt lat="45.09409316947245" lon="8.285046168588812"><ele>192.33333333333334</ele><time>2026-04-25T15:22:12.999Z</time></trkpt><trkpt lat="45.09412157963506" lon="8.284946994535405"><ele>190.0</ele><time>2026-04-25T15:22:14.999Z</time></trkpt><trkpt lat="45.09408271678899" lon="8.284803891647659"><ele>190.16666666666669</ele><time>2026-04-25T15:22:16.999Z</time></trkpt><trkpt lat="45.094121113001165" lon="8.284690070743538"><ele>190.33333333333334</ele><time>2026-04-25T15:22:17.999Z</time></trkpt><trkpt lat="45.094171165207804" lon="8.284600728035802"><ele>190.5</ele><time>2026-04-25T15:22:18.999Z</time></trkpt><trkpt lat="45.09423909351477" lon="8.284544378238838"><ele>190.66666666666666</ele><time>2026-04-25T15:22:19.999Z</time></trkpt><trkpt lat="45.094320166039154" lon="8.284493927423712"><ele>190.83333333333331</ele><time>2026-04-25T15:22:20.999Z</time></trkpt><trkpt lat="45.09440258886135" lon="8.284476572070322"><ele>191.0</ele><time>2026-04-25T15:22:21.999Z</time></trkpt><trkpt lat="45.09449004921293" lon="8.284441827217302"><ele>191.0</ele><time>2026-04-25T15:22:22.999Z</time></trkpt><trkpt lat="45.094553440670005" lon="8.284444882346028"><ele>191.0</ele><time>2026-04-25T15:22:35.999Z</time></trkpt><trkpt lat="45.094424591688714" lon="8.284236945564794"><ele>191.0</ele><time>2026-04-25T15:22:39.999Z</time></trkpt><trkpt lat="45.09434572113482" lon="8.284196163675194"><ele>191.0</ele><time>2026-04-25T15:22:40.999Z</time></trkpt><trkpt lat="45.09426321413921" lon="8.284181486598554"><ele>191.0</ele><time>2026-04-25T15:22:41.999Z</time></trkpt><trkpt lat="45.094177101131336" lon="8.284176513136764"><ele>191.8</ele><time>2026-04-25T15:22:42.999Z</time></trkpt><trkpt lat="45.094083705538594" lon="8.284183178778527"><ele>192.60000000000002</ele><time>2026-04-25T15:22:43.999Z</time></trkpt><trkpt lat="45.09398506826488" lon="8.284192133819095"><ele>193.4</ele><time>2026-04-25T15:22:44.999Z</time></trkpt><trkpt lat="45.09388045010231" lon="8.284208276340191"><ele>194.2</ele><time>2026-04-25T15:22:45.999Z</time></trkpt><trkpt lat="45.09376624773036" lon="8.284210180406768"><ele>195.0</ele><time>2026-04-25T15:22:46.999Z</time></trkpt><trkpt lat="45.0936705992709" lon="8.284199771642152"><ele>195.0</ele><time>2026-04-25T15:22:47.999Z</time></trkpt><trkpt lat="45.09356814045733" lon="8.284218925356948"><ele>195.0</ele><time>2026-04-25T15:22:48.999Z</time></trkpt><trkpt lat="45.09346006021279" lon="8.284255446092493"><ele>195.0</ele><time>2026-04-25T15:22:49.999Z</time></trkpt><trkpt lat="45.09335415994442" lon="8.284293559614138"><ele>195.0</ele><time>2026-04-25T15:22:50.999Z</time></trkpt><trkpt lat="45.093237245365195" lon="8.284328066867237"><ele>195.0</ele><time>2026-04-25T15:22:51.999Z</time></trkpt><trkpt lat="45.09312238976473" lon="8.284349816198441"><ele>198.0</ele><time>2026-04-25T15:22:52.999Z</time></trkpt><trkpt lat="45.09301461335805" lon="8.284374732035763"><ele>201.0</ele><time>2026-04-25T15:22:53.999Z</time></trkpt><trkpt lat="45.09290621519217" lon="8.284399959609289"><ele>204.0</ele><time>2026-04-25T15:22:54.999Z</time></trkpt><trkpt lat="45.09278907213612" lon="8.28442566854048"><ele>207.0</ele><time>2026-04-25T15:22:55.999Z</time></trkpt><trkpt lat="45.092679545013326" lon="8.284443114687978"><ele>210.0</ele><time>2026-04-25T15:22:56.999Z</time></trkpt><trkpt lat="45.09256742232577" lon="8.284491725865056"><ele>210.0</ele><time>2026-04-25T15:22:57.999Z</time></trkpt><trkpt lat="45.09245071176038" lon="8.284499267113882"><ele>210.0</ele><time>2026-04-25T15:22:58.999Z</time></trkpt><trkpt lat="45.09235399855644" lon="8.284506742913774"><ele>210.0</ele><time>2026-04-25T15:22:59.999Z</time></trkpt><trkpt lat="45.09226215382561" lon="8.284497458185804"><ele>210.0</ele><time>2026-04-25T15:23:00.999Z</time></trkpt><trkpt lat="45.09217980360636" lon="8.284446960009365"><ele>210.0</ele><time>2026-04-25T15:23:01.999Z</time></trkpt><trkpt lat="45.09211653281923" lon="8.284393157233728"><ele>210.0</ele><time>2026-04-25T15:23:02.999Z</time></trkpt><trkpt lat="45.09206494921671" lon="8.284297805958554"><ele>210.0</ele><time>2026-04-25T15:23:03.999Z</time></trkpt><trkpt lat="45.09217426806925" lon="8.284238978175848"><ele>210.0</ele><time>2026-04-25T15:23:08.999Z</time></trkpt><trkpt lat="45.092256578808176" lon="8.284280554511772"><ele>210.0</ele><time>2026-04-25T15:23:09.999Z</time></trkpt><trkpt lat="45.092331189469924" lon="8.284294147211915"><ele>210.0</ele><time>2026-04-25T15:23:10.999Z</time></trkpt><trkpt lat="45.09239458243349" lon="8.284257266259422"><ele>210.0</ele><time>2026-04-25T15:23:11.999Z</time></trkpt><trkpt lat="45.0924620521958" lon="8.284194965081866"><ele>210.0</ele><time>2026-04-25T15:23:12.999Z</time></trkpt><trkpt lat="45.092519235363056" lon="8.284094315133405"><ele>210.0</ele><time>2026-04-25T15:23:13.999Z</time></trkpt><trkpt lat="45.09259932851786" lon="8.283995214084289"><ele>210.0</ele><time>2026-04-25T15:23:14.999Z</time></trkpt><trkpt lat="45.09268310026301" lon="8.283887181845188"><ele>210.0</ele><time>2026-04-25T15:23:15.999Z</time></trkpt><trkpt lat="45.09277373982296" lon="8.283794767055898"><ele>210.0</ele><time>2026-04-25T15:23:16.999Z</time></trkpt><trkpt lat="45.09285190150949" lon="8.283711939437467"><ele>212.0</ele><time>2026-04-25T15:23:17.999Z</time></trkpt><trkpt lat="45.092948978636564" lon="8.283650566948408"><ele>214.0</ele><time>2026-04-25T15:23:18.999Z</time></trkpt><trkpt lat="45.09303942666356" lon="8.2835523517255"><ele>216.0</ele><time>2026-04-25T15:23:19.999Z</time></trkpt><trkpt lat="45.0931118640797" lon="8.283459062063631"><ele>218.0</ele><time>2026-04-25T15:23:20.999Z</time></trkpt><trkpt lat="45.09319424642678" lon="8.283395191680318"><ele>220.0</ele><time>2026-04-25T15:23:21.999Z</time></trkpt><trkpt lat="45.0932647778465" lon="8.28330955476216"><ele>220.0</ele><time>2026-04-25T15:23:22.999Z</time></trkpt><trkpt lat="45.093337836709374" lon="8.2832220607688"><ele>220.0</ele><time>2026-04-25T15:23:23.999Z</time></trkpt><trkpt lat="45.09340456375321" lon="8.283137934594086"><ele>220.0</ele><time>2026-04-25T15:23:24.999Z</time></trkpt><trkpt lat="45.093479283319596" lon="8.283050651591445"><ele>220.0</ele><time>2026-04-25T15:23:25.999Z</time></trkpt><trkpt lat="45.09355364021164" lon="8.282968683251271"><ele>220.0</ele><time>2026-04-25T15:23:26.999Z</time></trkpt><trkpt lat="45.09361924800183" lon="8.2828841436698"><ele>227.0</ele><time>2026-04-25T15:23:27.999Z</time></trkpt><trkpt lat="45.09368768413383" lon="8.282799868627157"><ele>234.0</ele><time>2026-04-25T15:23:28.999Z</time></trkpt><trkpt lat="45.09375978106298" lon="8.282712539403915"><ele>241.0</ele><time>2026-04-25T15:23:29.999Z</time></trkpt><trkpt lat="45.09382904205289" lon="8.282630156637069"><ele>248.0</ele><time>2026-04-25T15:23:30.999Z</time></trkpt><trkpt lat="45.09393380040969" lon="8.282569330868435"><ele>255.0</ele><time>2026-04-25T15:23:31.999Z</time></trkpt><trkpt lat="45.094022246758456" lon="8.282514412704657"><ele>255.0</ele><time>2026-04-25T15:23:32.999Z</time></trkpt><trkpt lat="45.09408394913325" lon="8.282457517216349"><ele>255.0</ele><time>2026-04-25T15:23:33.999Z</time></trkpt><trkpt lat="45.094176609429844" lon="8.282409824350147"><ele>255.0</ele><time>2026-04-25T15:23:34.999Z</time></trkpt><trkpt lat="45.09429168933194" lon="8.282370322937398"><ele>255.0</ele><time>2026-04-25T15:23:35.999Z</time></trkpt><trkpt lat="45.094400444908544" lon="8.282350724469602"><ele>255.0</ele><time>2026-04-25T15:23:36.999Z</time></trkpt><trkpt lat="45.0945092739784" lon="8.282388517195747"><ele>249.4</ele><time>2026-04-25T15:23:37.999Z</time></trkpt><trkpt lat="45.09459171980123" lon="8.282383085600314"><ele>243.8</ele><time>2026-04-25T15:23:38.999Z</time></trkpt><trkpt lat="45.09467853567663" lon="8.282369602484016"><ele>238.2</ele><time>2026-04-25T15:23:39.999Z</time></trkpt><trkpt lat="45.09478117138566" lon="8.282369078012541"><ele>232.6</ele><time>2026-04-25T15:23:40.999Z</time></trkpt><trkpt lat="45.09487712490525" lon="8.282362903199113"><ele>227.0</ele><time>2026-04-25T15:23:41.999Z</time></trkpt><trkpt lat="45.094964755972576" lon="8.282369895088948"><ele>225.16666666666669</ele><time>2026-04-25T15:23:42.999Z</time></trkpt><trkpt lat="45.095059908294346" lon="8.28233809703656"><ele>223.33333333333334</ele><time>2026-04-25T15:23:43.999Z</time></trkpt><trkpt lat="45.09515301846846" lon="8.282327769319325"><ele>221.5</ele><time>2026-04-25T15:23:44.999Z</time></trkpt><trkpt lat="45.09523633822506" lon="8.282296823962486"><ele>219.66666666666669</ele><time>2026-04-25T15:23:45.999Z</time></trkpt><trkpt lat="45.09530566458807" lon="8.282327765300458"><ele>217.83333333333334</ele><time>2026-04-25T15:23:46.998Z</time></trkpt><trkpt lat="45.09536429525075" lon="8.282362475616877"><ele>216.0</ele><time>2026-04-25T15:23:47.998Z</time></trkpt><trkpt lat="45.0954402004073" lon="8.282339127788386"><ele>216.0</ele><time>2026-04-25T15:23:48.998Z</time></trkpt><trkpt lat="45.095510941524964" lon="8.282299139071325"><ele>216.0</ele><time>2026-04-25T15:23:49.998Z</time></trkpt><trkpt lat="45.09558636333932" lon="8.282258334500206"><ele>216.0</ele><time>2026-04-25T15:23:50.998Z</time></trkpt><trkpt lat="45.095657977342576" lon="8.282209720372265"><ele>216.0</ele><time>2026-04-25T15:23:51.999Z</time></trkpt><trkpt lat="45.095740263662414" lon="8.282159029439638"><ele>216.0</ele><time>2026-04-25T15:23:52.999Z</time></trkpt><trkpt lat="45.09580686085351" lon="8.282073582471346"><ele>216.0</ele><time>2026-04-25T15:23:54.999Z</time></trkpt><trkpt lat="45.09581492799083" lon="8.281937098913604"><ele>218.60000000000002</ele><time>2026-04-25T15:23:56.999Z</time></trkpt><trkpt lat="45.095829195241635" lon="8.281812484871775"><ele>221.20000000000002</ele><time>2026-04-25T15:23:57.999Z</time></trkpt><trkpt lat="45.09581680854801" lon="8.281683279318308"><ele>223.79999999999998</ele><time>2026-04-25T15:23:58.999Z</time></trkpt><trkpt lat="45.09579223474619" lon="8.281542672706621"><ele>226.39999999999998</ele><time>2026-04-25T15:23:59.999Z</time></trkpt><trkpt lat="45.09574802435468" lon="8.281422211416869"><ele>229.0</ele><time>2026-04-25T15:24:00.999Z</time></trkpt><trkpt lat="45.0956998086392" lon="8.281304524622879"><ele>231.79999999999998</ele><time>2026-04-25T15:24:01.999Z</time></trkpt><trkpt lat="45.09564494553047" lon="8.281199931072514"><ele>234.59999999999997</ele><time>2026-04-25T15:24:02.999Z</time></trkpt><trkpt lat="45.0955842586211" lon="8.281097217517155"><ele>237.4</ele><time>2026-04-25T15:24:03.999Z</time></trkpt><trkpt lat="45.095520768306244" lon="8.280992331252275"><ele>240.2</ele><time>2026-04-25T15:24:04.999Z</time></trkpt><trkpt lat="45.09545083028389" lon="8.280909617925012"><ele>243.0</ele><time>2026-04-25T15:24:05.999Z</time></trkpt><trkpt lat="45.0953769912045" lon="8.280866678284772"><ele>243.0</ele><time>2026-04-25T15:24:06.999Z</time></trkpt><trkpt lat="45.09534136125963" lon="8.28073521241769"><ele>243.0</ele><time>2026-04-25T15:24:08.999Z</time></trkpt><trkpt lat="45.09538604338382" lon="8.280659428922496"><ele>243.0</ele><time>2026-04-25T15:24:09.999Z</time></trkpt><trkpt lat="45.09549544206351" lon="8.280647420833665"><ele>243.0</ele><time>2026-04-25T15:24:11.999Z</time></trkpt><trkpt lat="45.09557340815025" lon="8.280723120090832"><ele>243.0</ele><time>2026-04-25T15:24:12.999Z</time></trkpt><trkpt lat="45.095660615361176" lon="8.280764697086115"><ele>243.0</ele><time>2026-04-25T15:24:13.999Z</time></trkpt><trkpt lat="45.09575114218796" lon="8.280804351710046"><ele>243.0</ele><time>2026-04-25T15:24:14.999Z</time></trkpt><trkpt lat="45.09582610616543" lon="8.280812144837679"><ele>243.0</ele><time>2026-04-25T15:24:15.999Z</time></trkpt><trkpt lat="45.09594052190565" lon="8.280771518167734"><ele>243.0</ele><time>2026-04-25T15:24:17.999Z</time></trkpt><trkpt lat="45.09602567821508" lon="8.280693040690831"><ele>243.0</ele><time>2026-04-25T15:24:19.999Z</time></trkpt><trkpt lat="45.09605710180827" lon="8.280610833620731"><ele>241.5</ele><time>2026-04-25T15:24:20.999Z</time></trkpt><trkpt lat="45.09614697593876" lon="8.280629061113892"><ele>240.0</ele><time>2026-04-25T15:24:22.999Z</time></trkpt><trkpt lat="45.0962868353008" lon="8.28079815858149"><ele>238.5</ele><time>2026-04-25T15:24:24.999Z</time></trkpt><trkpt lat="45.0963525916202" lon="8.280863003000071"><ele>237.0</ele><time>2026-04-25T15:24:25.999Z</time></trkpt><trkpt lat="45.09645919993641" lon="8.28085400201221"><ele>237.0</ele><time>2026-04-25T15:24:26.999Z</time></trkpt><trkpt lat="45.096557241321875" lon="8.280762379294979"><ele>237.0</ele><time>2026-04-25T15:24:28Z</time></trkpt><trkpt lat="45.09663005550957" lon="8.280686145238423"><ele>237.0</ele><time>2026-04-25T15:24:29Z</time></trkpt><trkpt lat="45.09670165466562" lon="8.280681863263833"><ele>237.0</ele><time>2026-04-25T15:24:30Z</time></trkpt><trkpt lat="45.09682393186313" lon="8.280654511539591"><ele>237.0</ele><time>2026-04-25T15:24:33Z</time></trkpt><trkpt lat="45.09694508336219" lon="8.280658897405209"><ele>236.39999999999998</ele><time>2026-04-25T15:24:35Z</time></trkpt><trkpt lat="45.09706584484647" lon="8.280692201504111"><ele>235.79999999999998</ele><time>2026-04-25T15:24:37Z</time></trkpt><trkpt lat="45.09714478385404" lon="8.280717922613102"><ele>235.2</ele><time>2026-04-25T15:24:38Z</time></trkpt><trkpt lat="45.097215183762586" lon="8.280749989036696"><ele>234.6</ele><time>2026-04-25T15:24:39Z</time></trkpt><trkpt lat="45.0972962545516" lon="8.28079690011076"><ele>234.0</ele><time>2026-04-25T15:24:40Z</time></trkpt><trkpt lat="45.09740655960434" lon="8.280823809524207"><ele>233.39999999999998</ele><time>2026-04-25T15:24:41Z</time></trkpt><trkpt lat="45.09749411984396" lon="8.280842811115622"><ele>232.79999999999998</ele><time>2026-04-25T15:24:42Z</time></trkpt><trkpt lat="45.097573689000676" lon="8.280857206470774"><ele>232.20000000000002</ele><time>2026-04-25T15:24:43Z</time></trkpt><trkpt lat="45.09765295418992" lon="8.280868633306293"><ele>231.60000000000002</ele><time>2026-04-25T15:24:44Z</time></trkpt><trkpt lat="45.097728235029436" lon="8.280878404844403"><ele>231.0</ele><time>2026-04-25T15:24:45Z</time></trkpt><trkpt lat="45.0976891074815" lon="8.281579727737382"><ele>228.4</ele><time>2026-04-25T15:24:46Z</time></trkpt><trkpt lat="45.097784347852475" lon="8.281654768995832"><ele>225.8</ele><time>2026-04-25T15:24:47Z</time></trkpt><trkpt lat="45.09788420445593" lon="8.281723442991364"><ele>223.20000000000002</ele><time>2026-04-25T15:24:48Z</time></trkpt><trkpt lat="45.09796726417186" lon="8.281792641824897"><ele>220.60000000000002</ele><time>2026-04-25T15:24:49Z</time></trkpt><trkpt lat="45.09804271583181" lon="8.281858553922506"><ele>218.0</ele><time>2026-04-25T15:24:50Z</time></trkpt><trkpt lat="45.09811994679777" lon="8.281873000617221"><ele>218.00000000000003</ele><time>2026-04-25T15:24:51Z</time></trkpt><trkpt lat="45.098203932568545" lon="8.281945483452699"><ele>218.0</ele><time>2026-04-25T15:24:52Z</time></trkpt><trkpt lat="45.098273613485055" lon="8.282014656209498"><ele>218.0</ele><time>2026-04-25T15:24:53Z</time></trkpt><trkpt lat="45.098332675168535" lon="8.282101608802593"><ele>218.0</ele><time>2026-04-25T15:24:54Z</time></trkpt><trkpt lat="45.09839783332837" lon="8.282166569301703"><ele>218.00000000000003</ele><time>2026-04-25T15:24:55Z</time></trkpt><trkpt lat="45.0984778970776" lon="8.282187736500767"><ele>218.0</ele><time>2026-04-25T15:24:56Z</time></trkpt><trkpt lat="45.09857060673116" lon="8.28218186519339"><ele>215.5</ele><time>2026-04-25T15:24:57Z</time></trkpt><trkpt lat="45.09869650867505" lon="8.282157555208894"><ele>213.0</ele><time>2026-04-25T15:24:58Z</time></trkpt><trkpt lat="45.09884410095871" lon="8.28213176804699"><ele>210.5</ele><time>2026-04-25T15:24:59Z</time></trkpt><trkpt lat="45.098958346290885" lon="8.282096765142468"><ele>208.0</ele><time>2026-04-25T15:25:00Z</time></trkpt><trkpt lat="45.099055818106955" lon="8.28205898239765"><ele>206.2</ele><time>2026-04-25T15:25:01Z</time></trkpt><trkpt lat="45.099120681424985" lon="8.282008737466496"><ele>204.4</ele><time>2026-04-25T15:25:02Z</time></trkpt><trkpt lat="45.09918132058768" lon="8.281848202386115"><ele>202.6</ele><time>2026-04-25T15:25:04Z</time></trkpt><trkpt lat="45.099187292434124" lon="8.28172212588668"><ele>200.79999999999998</ele><time>2026-04-25T15:25:05Z</time></trkpt><trkpt lat="45.09920593895467" lon="8.281590479464029"><ele>199.0</ele><time>2026-04-25T15:25:06Z</time></trkpt><trkpt lat="45.09922699540073" lon="8.281393617333048"><ele>198.99999999999997</ele><time>2026-04-25T15:25:07Z</time></trkpt><trkpt lat="45.09923133102574" lon="8.281271711308174"><ele>199.0</ele><time>2026-04-25T15:25:08Z</time></trkpt><trkpt lat="45.09923560189532" lon="8.281165257791846"><ele>199.0</ele><time>2026-04-25T15:25:10Z</time></trkpt><trkpt lat="45.099211339659895" lon="8.281076894069038"><ele>199.0</ele><time>2026-04-25T15:25:12Z</time></trkpt><trkpt lat="45.09915207657108" lon="8.280953026617313"><ele>198.99999999999997</ele><time>2026-04-25T15:25:14Z</time></trkpt><trkpt lat="45.09912671597586" lon="8.280850695173285"><ele>199.0</ele><time>2026-04-25T15:25:15Z</time></trkpt><trkpt lat="45.099119553477905" lon="8.280757255561438"><ele>198.99999999999997</ele><time>2026-04-25T15:25:16Z</time></trkpt><trkpt lat="45.09914595363067" lon="8.280673948422606"><ele>199.0</ele><time>2026-04-25T15:25:17Z</time></trkpt><trkpt lat="45.099164654650444" lon="8.28056952954663"><ele>199.0</ele><time>2026-04-25T15:25:18Z</time></trkpt><trkpt lat="45.09916943025742" lon="8.280453644136381"><ele>199.0</ele><time>2026-04-25T15:25:19Z</time></trkpt><trkpt lat="45.099224810749234" lon="8.280304685710542"><ele>198.99999999999997</ele><time>2026-04-25T15:25:21Z</time></trkpt><trkpt lat="45.09929735940166" lon="8.28024293702218"><ele>199.0</ele><time>2026-04-25T15:25:22Z</time></trkpt><trkpt lat="45.099367881107575" lon="8.280149508863456"><ele>200.83333333333331</ele><time>2026-04-25T15:25:23Z</time></trkpt><trkpt lat="45.09940462034083" lon="8.280040416483692"><ele>202.66666666666666</ele><time>2026-04-25T15:25:24Z</time></trkpt><trkpt lat="45.099423760301725" lon="8.279939002968696"><ele>204.5</ele><time>2026-04-25T15:25:25Z</time></trkpt><trkpt lat="45.099448289110775" lon="8.279840019773134"><ele>206.33333333333331</ele><time>2026-04-25T15:25:26Z</time></trkpt><trkpt lat="45.09945989275009" lon="8.279738753378338"><ele>208.16666666666666</ele><time>2026-04-25T15:25:27Z</time></trkpt><trkpt lat="45.09946315004282" lon="8.27959631374013"><ele>210.0</ele><time>2026-04-25T15:25:29Z</time></trkpt><trkpt lat="45.099536936678845" lon="8.279476334987992"><ele>213.0</ele><time>2026-04-25T15:25:31Z</time></trkpt><trkpt lat="45.09959462056451" lon="8.27941409951286"><ele>216.0</ele><time>2026-04-25T15:25:32Z</time></trkpt><trkpt lat="45.09965891901211" lon="8.279335276936527"><ele>219.0</ele><time>2026-04-25T15:25:33Z</time></trkpt><trkpt lat="45.099699350979115" lon="8.279258508056348"><ele>222.0</ele><time>2026-04-25T15:25:34Z</time></trkpt><trkpt lat="45.099703739399324" lon="8.279169155304045"><ele>225.0</ele><time>2026-04-25T15:25:35Z</time></trkpt><trkpt lat="45.0997429288342" lon="8.279075415287599"><ele>228.0</ele><time>2026-04-25T15:25:40Z</time></trkpt><trkpt lat="45.099770384428446" lon="8.27895969106424"><ele>225.8</ele><time>2026-04-25T15:25:42Z</time></trkpt><trkpt lat="45.09988629998325" lon="8.278835236077336"><ele>223.60000000000002</ele><time>2026-04-25T15:25:44Z</time></trkpt><trkpt lat="45.09994827815712" lon="8.278779671329971"><ele>221.39999999999998</ele><time>2026-04-25T15:25:45Z</time></trkpt><trkpt lat="45.10000891856407" lon="8.278596564295228"><ele>219.2</ele><time>2026-04-25T15:25:47Z</time></trkpt><trkpt lat="45.10003835962173" lon="8.278490837815328"><ele>217.0</ele><time>2026-04-25T15:25:48Z</time></trkpt><trkpt lat="45.10008235780695" lon="8.278406608722856"><ele>216.99999999999997</ele><time>2026-04-25T15:25:49Z</time></trkpt><trkpt lat="45.100135680072135" lon="8.278342552069608"><ele>217.0</ele><time>2026-04-25T15:25:50Z</time></trkpt><trkpt lat="45.10020914395495" lon="8.27830885498741"><ele>217.0</ele><time>2026-04-25T15:25:51Z</time></trkpt><trkpt lat="45.10029099687918" lon="8.278306172803918"><ele>217.0</ele><time>2026-04-25T15:25:52Z</time></trkpt><trkpt lat="45.10037088188369" lon="8.278320983295176"><ele>216.99999999999997</ele><time>2026-04-25T15:25:52.999Z</time></trkpt><trkpt lat="45.100452562024294" lon="8.278299540628396"><ele>217.0</ele><time>2026-04-25T15:25:53.999Z</time></trkpt><trkpt lat="45.100527364821204" lon="8.278229337258676"><ele>217.0</ele><time>2026-04-25T15:25:54.999Z</time></trkpt><trkpt lat="45.10059610132289" lon="8.278134564560503"><ele>217.0</ele><time>2026-04-25T15:25:55.999Z</time></trkpt><trkpt lat="45.10067226854264" lon="8.278022151087887"><ele>217.0</ele><time>2026-04-25T15:25:56.999Z</time></trkpt><trkpt lat="45.100767400254114" lon="8.277887626144919"><ele>217.0</ele><time>2026-04-25T15:25:57.999Z</time></trkpt><trkpt lat="45.10084251446131" lon="8.277768273450206"><ele>217.25</ele><time>2026-04-25T15:25:58.999Z</time></trkpt><trkpt lat="45.10090930715848" lon="8.277639633514719"><ele>217.5</ele><time>2026-04-25T15:25:59.999Z</time></trkpt><trkpt lat="45.10096906301668" lon="8.277515820702684"><ele>217.75</ele><time>2026-04-25T15:26:00.999Z</time></trkpt><trkpt lat="45.10103917787254" lon="8.277389318632599"><ele>218.0</ele><time>2026-04-25T15:26:01.999Z</time></trkpt><trkpt lat="45.101120227849385" lon="8.277262251499764"><ele>218.0</ele><time>2026-04-25T15:26:02.999Z</time></trkpt><trkpt lat="45.101187412816834" lon="8.277146078924025"><ele>218.0</ele><time>2026-04-25T15:26:03.999Z</time></trkpt><trkpt lat="45.10126308544167" lon="8.277023189271883"><ele>218.0</ele><time>2026-04-25T15:26:04.999Z</time></trkpt><trkpt lat="45.10134229306478" lon="8.27690087117767"><ele>218.0</ele><time>2026-04-25T15:26:05.999Z</time></trkpt><trkpt lat="45.1014208865188" lon="8.276779880411075"><ele>218.0</ele><time>2026-04-25T15:26:06.999Z</time></trkpt><trkpt lat="45.10149888754965" lon="8.276654532175826"><ele>218.0</ele><time>2026-04-25T15:26:07.999Z</time></trkpt><trkpt lat="45.10156750763277" lon="8.276542728442807"><ele>218.0</ele><time>2026-04-25T15:26:08.999Z</time></trkpt><trkpt lat="45.10160733033115" lon="8.276456639848352"><ele>218.0</ele><time>2026-04-25T15:26:09.999Z</time></trkpt><trkpt lat="45.1016776716315" lon="8.276287839655103"><ele>218.0</ele><time>2026-04-25T15:26:11.999Z</time></trkpt><trkpt lat="45.10172019872726" lon="8.276178889336856"><ele>218.8</ele><time>2026-04-25T15:26:12.999Z</time></trkpt><trkpt lat="45.101760361282615" lon="8.276057658543289"><ele>219.60000000000002</ele><time>2026-04-25T15:26:13.999Z</time></trkpt><trkpt lat="45.1017913727907" lon="8.27594149623473"><ele>220.39999999999998</ele><time>2026-04-25T15:26:15Z</time></trkpt><trkpt lat="45.10181472387712" lon="8.275835816574435"><ele>221.2</ele><time>2026-04-25T15:26:16Z</time></trkpt><trkpt lat="45.1018565857126" lon="8.275702551927507"><ele>222.0</ele><time>2026-04-25T15:26:17Z</time></trkpt><trkpt lat="45.10191032721345" lon="8.275595963411401"><ele>222.39999999999998</ele><time>2026-04-25T15:26:18Z</time></trkpt><trkpt lat="45.101968024464654" lon="8.275499537276765"><ele>222.79999999999998</ele><time>2026-04-25T15:26:19Z</time></trkpt><trkpt lat="45.10202577611285" lon="8.275410459076268"><ele>223.2</ele><time>2026-04-25T15:26:20Z</time></trkpt><trkpt lat="45.10207690642636" lon="8.275331119011005"><ele>223.6</ele><time>2026-04-25T15:26:21Z</time></trkpt><trkpt lat="45.102178930034384" lon="8.275275251999924"><ele>224.0</ele><time>2026-04-25T15:26:23Z</time></trkpt><trkpt lat="45.10230123910016" lon="8.275332674356994"><ele>224.00000000000003</ele><time>2026-04-25T15:26:25Z</time></trkpt><trkpt lat="45.10236665231162" lon="8.275387340166581"><ele>224.0</ele><time>2026-04-25T15:26:26Z</time></trkpt><trkpt lat="45.102443584783636" lon="8.275385586815908"><ele>224.0</ele><time>2026-04-25T15:26:29Z</time></trkpt><trkpt lat="45.10248205192546" lon="8.27529057667334"><ele>224.0</ele><time>2026-04-25T15:26:30Z</time></trkpt><trkpt lat="45.1025295815717" lon="8.275190866442149"><ele>224.00000000000003</ele><time>2026-04-25T15:26:31Z</time></trkpt><trkpt lat="45.10257348944087" lon="8.27507649966562"><ele>224.0</ele><time>2026-04-25T15:26:32Z</time></trkpt><trkpt lat="45.10263247057395" lon="8.274967380048569"><ele>226.16666666666669</ele><time>2026-04-25T15:26:33Z</time></trkpt><trkpt lat="45.10267932864378" lon="8.27485254830654"><ele>228.33333333333334</ele><time>2026-04-25T15:26:34Z</time></trkpt><trkpt lat="45.10270623700975" lon="8.274746838501764"><ele>230.5</ele><time>2026-04-25T15:26:35Z</time></trkpt><trkpt lat="45.10269551039954" lon="8.2746482843342"><ele>232.66666666666669</ele><time>2026-04-25T15:26:36Z</time></trkpt><trkpt lat="45.10265094845214" lon="8.274553948154082"><ele>234.83333333333334</ele><time>2026-04-25T15:26:37Z</time></trkpt><trkpt lat="45.10257756342252" lon="8.27448883500137"><ele>237.0</ele><time>2026-04-25T15:26:38Z</time></trkpt><trkpt lat="45.10252904382125" lon="8.274406725443903"><ele>236.1428571428571</ele><time>2026-04-25T15:26:39Z</time></trkpt><trkpt lat="45.10248139878472" lon="8.274316656831502"><ele>235.28571428571428</ele><time>2026-04-25T15:26:40Z</time></trkpt><trkpt lat="45.102440765349634" lon="8.274216110935976"><ele>234.42857142857142</ele><time>2026-04-25T15:26:41Z</time></trkpt><trkpt lat="45.10241729709107" lon="8.274122621704914"><ele>233.57142857142856</ele><time>2026-04-25T15:26:42Z</time></trkpt><trkpt lat="45.10240684289137" lon="8.274026401119244"><ele>232.71428571428572</ele><time>2026-04-25T15:26:43Z</time></trkpt><trkpt lat="45.10241611253913" lon="8.273928947113054"><ele>231.85714285714286</ele><time>2026-04-25T15:26:44Z</time></trkpt><trkpt lat="45.102427023764285" lon="8.2738308923696"><ele>231.0</ele><time>2026-04-25T15:26:45Z</time></trkpt><trkpt lat="45.10244496922082" lon="8.273721975119686"><ele>234.20000000000002</ele><time>2026-04-25T15:26:46Z</time></trkpt><trkpt lat="45.10244452785423" lon="8.273610222990554"><ele>237.40000000000003</ele><time>2026-04-25T15:26:47Z</time></trkpt><trkpt lat="45.1024699707183" lon="8.273468044832708"><ele>240.6</ele><time>2026-04-25T15:26:48Z</time></trkpt><trkpt lat="45.10246612633152" lon="8.273304076490604"><ele>243.8</ele><time>2026-04-25T15:26:49Z</time></trkpt><trkpt lat="45.102447748994656" lon="8.273136066478049"><ele>247.0</ele><time>2026-04-25T15:26:50Z</time></trkpt><trkpt lat="45.102416651012774" lon="8.27297915507738"><ele>246.0</ele><time>2026-04-25T15:26:51Z</time></trkpt><trkpt lat="45.102318333193374" lon="8.2728973922833"><ele>245.0</ele><time>2026-04-25T15:26:52Z</time></trkpt><trkpt lat="45.10225283275233" lon="8.272654457916083"><ele>244.0</ele><time>2026-04-25T15:26:53Z</time></trkpt><trkpt lat="45.10223280872772" lon="8.272498696587137"><ele>243.0</ele><time>2026-04-25T15:26:54Z</time></trkpt><trkpt lat="45.102205921793875" lon="8.272340568677686"><ele>245.0</ele><time>2026-04-25T15:26:55Z</time></trkpt><trkpt lat="45.10217441909285" lon="8.272204192945443"><ele>247.0</ele><time>2026-04-25T15:26:56Z</time></trkpt><trkpt lat="45.102127068051196" lon="8.272055923804968"><ele>249.0</ele><time>2026-04-25T15:26:57Z</time></trkpt><trkpt lat="45.10208538990749" lon="8.271932215012455"><ele>251.0</ele><time>2026-04-25T15:26:58Z</time></trkpt><trkpt lat="45.10204416082936" lon="8.271809839347073"><ele>253.0</ele><time>2026-04-25T15:26:59Z</time></trkpt><trkpt lat="45.10200468146714" lon="8.271692657215906"><ele>252.99999999999997</ele><time>2026-04-25T15:27:00Z</time></trkpt><trkpt lat="45.10196011378477" lon="8.27159425714104"><ele>253.0</ele><time>2026-04-25T15:27:01Z</time></trkpt><trkpt lat="45.10197701451805" lon="8.271455548409472"><ele>253.0</ele><time>2026-04-25T15:27:21Z</time></trkpt><trkpt lat="45.10205704349086" lon="8.271390270324485"><ele>253.0</ele><time>2026-04-25T15:27:22Z</time></trkpt><trkpt lat="45.102132143340064" lon="8.271368032132747"><ele>252.99999999999997</ele><time>2026-04-25T15:27:23Z</time></trkpt><trkpt lat="45.10221218925516" lon="8.271368069879351"><ele>253.0</ele><time>2026-04-25T15:27:24Z</time></trkpt><trkpt lat="45.10227893250494" lon="8.271363337214476"><ele>255.0</ele><time>2026-04-25T15:27:25Z</time></trkpt><trkpt lat="45.102349899289145" lon="8.27137467853707"><ele>257.0</ele><time>2026-04-25T15:27:27Z</time></trkpt><trkpt lat="45.10242947222996" lon="8.27136100043224"><ele>259.0</ele><time>2026-04-25T15:27:30Z</time></trkpt><trkpt lat="45.102509328693365" lon="8.271346154043849"><ele>261.0</ele><time>2026-04-25T15:27:32Z</time></trkpt><trkpt lat="45.10258966957102" lon="8.271331623585139"><ele>263.0</ele><time>2026-04-25T15:27:34Z</time></trkpt><trkpt lat="45.10272557012082" lon="8.271314881574535"><ele>263.0</ele><time>2026-04-25T15:27:36Z</time></trkpt><trkpt lat="45.10279435737243" lon="8.271271564913329"><ele>263.0</ele><time>2026-04-25T15:27:37Z</time></trkpt><trkpt lat="45.102849384063035" lon="8.271216866053788"><ele>263.0</ele><time>2026-04-25T15:27:38Z</time></trkpt><trkpt lat="45.10289660202772" lon="8.271152158975278"><ele>263.0</ele><time>2026-04-25T15:27:39Z</time></trkpt><trkpt lat="45.10293213937135" lon="8.271074388579173"><ele>263.0</ele><time>2026-04-25T15:27:40Z</time></trkpt><trkpt lat="45.102988735177604" lon="8.270901597810173"><ele>263.0</ele><time>2026-04-25T15:27:42Z</time></trkpt><trkpt lat="45.10298731426403" lon="8.27081058979671"><ele>263.0</ele><time>2026-04-25T15:27:43Z</time></trkpt><trkpt lat="45.102980991657155" lon="8.270714678245428"><ele>263.0</ele><time>2026-04-25T15:27:44Z</time></trkpt><trkpt lat="45.102956160924265" lon="8.270618201206084"><ele>263.0</ele><time>2026-04-25T15:27:45Z</time></trkpt><trkpt lat="45.10293769991693" lon="8.270507337873317"><ele>263.0</ele><time>2026-04-25T15:27:46Z</time></trkpt><trkpt lat="45.102961289733756" lon="8.27039622014298"><ele>263.0</ele><time>2026-04-25T15:27:47Z</time></trkpt><trkpt lat="45.10296678379239" lon="8.270270154752748"><ele>263.0</ele><time>2026-04-25T15:27:48Z</time></trkpt><trkpt lat="45.102996596906166" lon="8.27018310607129"><ele>261.1666666666667</ele><time>2026-04-25T15:27:49Z</time></trkpt><trkpt lat="45.10303414215125" lon="8.270091505094499"><ele>259.33333333333337</ele><time>2026-04-25T15:27:50Z</time></trkpt><trkpt lat="45.10311483642536" lon="8.269985188116092"><ele>257.5</ele><time>2026-04-25T15:27:51Z</time></trkpt><trkpt lat="45.103189828448656" lon="8.269896812870527"><ele>255.66666666666669</ele><time>2026-04-25T15:27:53Z</time></trkpt><trkpt lat="45.10323120167106" lon="8.269829383279458"><ele>253.83333333333334</ele><time>2026-04-25T15:27:59Z</time></trkpt><trkpt lat="45.10327784816791" lon="8.269749963829247"><ele>252.0</ele><time>2026-04-25T15:28:01Z</time></trkpt><trkpt lat="45.10327756111499" lon="8.269571995113386"><ele>252.0</ele><time>2026-04-25T15:28:03Z</time></trkpt><trkpt lat="45.10326979448235" lon="8.269448597381677"><ele>252.0</ele><time>2026-04-25T15:28:04Z</time></trkpt><trkpt lat="45.103278972431696" lon="8.269339887252364"><ele>252.0</ele><time>2026-04-25T15:28:05Z</time></trkpt><trkpt lat="45.10328314042477" lon="8.269250769712666"><ele>252.0</ele><time>2026-04-25T15:28:06Z</time></trkpt><trkpt lat="45.10334187430279" lon="8.269161555145187"><ele>252.0</ele><time>2026-04-25T15:28:08Z</time></trkpt><trkpt lat="45.10341552706531" lon="8.26912224069968"><ele>252.0</ele><time>2026-04-25T15:28:09Z</time></trkpt><trkpt lat="45.10351112318244" lon="8.269120727614748"><ele>252.0</ele><time>2026-04-25T15:28:10Z</time></trkpt><trkpt lat="45.103615991972624" lon="8.269146148576622"><ele>252.0</ele><time>2026-04-25T15:28:11Z</time></trkpt><trkpt lat="45.10370517624364" lon="8.26912295128691"><ele>252.0</ele><time>2026-04-25T15:28:12Z</time></trkpt><trkpt lat="45.103811606034036" lon="8.26904242319694"><ele>252.0</ele><time>2026-04-25T15:28:13Z</time></trkpt><trkpt lat="45.103887399682144" lon="8.268971835179421"><ele>252.0</ele><time>2026-04-25T15:28:14Z</time></trkpt><trkpt lat="45.10393578863771" lon="8.26887406646339"><ele>254.8</ele><time>2026-04-25T15:28:15Z</time></trkpt><trkpt lat="45.10396068453643" lon="8.268786273666406"><ele>257.6</ele><time>2026-04-25T15:28:16Z</time></trkpt><trkpt lat="45.103943898680356" lon="8.268663284359691"><ele>260.40000000000003</ele><time>2026-04-25T15:28:17Z</time></trkpt><trkpt lat="45.10392834035771" lon="8.268523747950477"><ele>263.2</ele><time>2026-04-25T15:28:18Z</time></trkpt><trkpt lat="45.10391370536651" lon="8.268358362124014"><ele>266.0</ele><time>2026-04-25T15:28:19Z</time></trkpt><trkpt lat="45.103880659277294" lon="8.26817229612178"><ele>265.40000000000003</ele><time>2026-04-25T15:28:20Z</time></trkpt><trkpt lat="45.103863302738404" lon="8.26798574992335"><ele>264.8</ele><time>2026-04-25T15:28:21Z</time></trkpt><trkpt lat="45.10384096214609" lon="8.267886101836199"><ele>264.20000000000005</ele><time>2026-04-25T15:28:22Z</time></trkpt><trkpt lat="45.1038017351633" lon="8.267811557790598"><ele>263.6</ele><time>2026-04-25T15:28:23Z</time></trkpt><trkpt lat="45.10374028088715" lon="8.267752562275486"><ele>263.0</ele><time>2026-04-25T15:28:24Z</time></trkpt><trkpt lat="45.10365065912895" lon="8.267666894706627"><ele>263.0</ele><time>2026-04-25T15:28:25Z</time></trkpt><trkpt lat="45.103570028243425" lon="8.267575671531432"><ele>263.0</ele><time>2026-04-25T15:28:26Z</time></trkpt><trkpt lat="45.103499248826544" lon="8.267507167469072"><ele>263.0</ele><time>2026-04-25T15:28:27Z</time></trkpt><trkpt lat="45.10345040961018" lon="8.267410752022366"><ele>263.0</ele><time>2026-04-25T15:28:28Z</time></trkpt><trkpt lat="45.10339207126828" lon="8.267258450693648"><ele>263.0</ele><time>2026-04-25T15:28:29Z</time></trkpt><trkpt lat="45.10337194900441" lon="8.26716026725929"><ele>262.5</ele><time>2026-04-25T15:28:30Z</time></trkpt><trkpt lat="45.10339211324446" lon="8.267066628988385"><ele>262.0</ele><time>2026-04-25T15:28:31Z</time></trkpt><trkpt lat="45.10342605954818" lon="8.266983468825384"><ele>261.5</ele><time>2026-04-25T15:28:32Z</time></trkpt><trkpt lat="45.1034053429631" lon="8.266893019888366"><ele>261.0</ele><time>2026-04-25T15:28:33Z</time></trkpt><trkpt lat="45.10335779026169" lon="8.26680919336548"><ele>260.5</ele><time>2026-04-25T15:28:34Z</time></trkpt><trkpt lat="45.10327838013828" lon="8.266757641206121"><ele>260.0</ele><time>2026-04-25T15:28:35Z</time></trkpt><trkpt lat="45.10319159674086" lon="8.266718705111243"><ele>265.4</ele><time>2026-04-25T15:28:36Z</time></trkpt><trkpt lat="45.10307290420483" lon="8.266689658480978"><ele>270.8</ele><time>2026-04-25T15:28:37Z</time></trkpt><trkpt lat="45.103003119019895" lon="8.266625642698227"><ele>276.2</ele><time>2026-04-25T15:28:38Z</time></trkpt><trkpt lat="45.10293341389317" lon="8.266526090177981"><ele>281.6</ele><time>2026-04-25T15:28:39Z</time></trkpt><trkpt lat="45.1028740082761" lon="8.266415216518594"><ele>287.0</ele><time>2026-04-25T15:28:40Z</time></trkpt><trkpt lat="45.102806361153284" lon="8.266361727700316"><ele>287.0</ele><time>2026-04-25T15:28:41Z</time></trkpt><trkpt lat="45.1027356001059" lon="8.266216786860157"><ele>287.0</ele><time>2026-04-25T15:28:43Z</time></trkpt><trkpt lat="45.10273217098224" lon="8.266084089179724"><ele>287.0</ele><time>2026-04-25T15:28:44Z</time></trkpt><trkpt lat="45.102695394265524" lon="8.265961430193403"><ele>287.0</ele><time>2026-04-25T15:28:45Z</time></trkpt><trkpt lat="45.10272596215824" lon="8.26584318355209"><ele>287.0</ele><time>2026-04-25T15:28:47Z</time></trkpt><trkpt lat="45.10281787980067" lon="8.265839388767034"><ele>287.0</ele><time>2026-04-25T15:28:48Z</time></trkpt><trkpt lat="45.102915354053444" lon="8.265876859004242"><ele>287.0</ele><time>2026-04-25T15:28:49Z</time></trkpt><trkpt lat="45.10302285996029" lon="8.265914376070691"><ele>287.0</ele><time>2026-04-25T15:28:50Z</time></trkpt><trkpt lat="45.103096065460846" lon="8.265979263306912"><ele>287.0</ele><time>2026-04-25T15:28:51Z</time></trkpt><trkpt lat="45.10316898176085" lon="8.26598309090691"><ele>287.0</ele><time>2026-04-25T15:28:52Z</time></trkpt><trkpt lat="45.103234166110866" lon="8.265976910597836"><ele>287.0</ele><time>2026-04-25T15:28:53Z</time></trkpt><trkpt lat="45.10331612716226" lon="8.265883487300759"><ele>285.0</ele><time>2026-04-25T15:28:54Z</time></trkpt><trkpt lat="45.10341037610436" lon="8.265818690696232"><ele>283.0</ele><time>2026-04-25T15:28:55Z</time></trkpt><trkpt lat="45.103500891017" lon="8.265758073112345"><ele>281.0</ele><time>2026-04-25T15:28:56Z</time></trkpt><trkpt lat="45.10358055021831" lon="8.265712983153739"><ele>279.0</ele><time>2026-04-25T15:28:57Z</time></trkpt><trkpt lat="45.1036612166184" lon="8.26569562728165"><ele>277.0</ele><time>2026-04-25T15:28:58Z</time></trkpt><trkpt lat="45.103728244805346" lon="8.265652747231389"><ele>275.0</ele><time>2026-04-25T15:28:59Z</time></trkpt><trkpt lat="45.10379244916216" lon="8.265587579301386"><ele>276.83333333333337</ele><time>2026-04-25T15:29:00Z</time></trkpt><trkpt lat="45.1038363937659" lon="8.265481371026471"><ele>278.6666666666667</ele><time>2026-04-25T15:29:01Z</time></trkpt><trkpt lat="45.103885201811025" lon="8.265393585253824"><ele>280.5</ele><time>2026-04-25T15:29:02Z</time></trkpt><trkpt lat="45.10395289023" lon="8.265327339363486"><ele>282.3333333333333</ele><time>2026-04-25T15:29:03Z</time></trkpt><trkpt lat="45.104012941552874" lon="8.265298079916459"><ele>284.16666666666663</ele><time>2026-04-25T15:29:04Z</time></trkpt><trkpt lat="45.10408939360211" lon="8.265268531727985"><ele>286.0</ele><time>2026-04-25T15:29:05Z</time></trkpt><trkpt lat="45.104169273885226" lon="8.265279219243624"><ele>286.0</ele><time>2026-04-25T15:29:06Z</time></trkpt><trkpt lat="45.104262182330444" lon="8.265317609321855"><ele>286.0</ele><time>2026-04-25T15:29:07Z</time></trkpt><trkpt lat="45.10433749127735" lon="8.265387067185271"><ele>286.0</ele><time>2026-04-25T15:29:08Z</time></trkpt><trkpt lat="45.10443314509325" lon="8.265399764754157"><ele>286.0</ele><time>2026-04-25T15:29:09Z</time></trkpt><trkpt lat="45.10454685321169" lon="8.265336262243828"><ele>286.0</ele><time>2026-04-25T15:29:11Z</time></trkpt><trkpt lat="45.1046025413537" lon="8.265235159187768"><ele>286.0</ele><time>2026-04-25T15:29:12Z</time></trkpt><trkpt lat="45.10464411149698" lon="8.265130867134733"><ele>286.0</ele><time>2026-04-25T15:29:13Z</time></trkpt><trkpt lat="45.10470228967786" lon="8.265082428313878"><ele>286.0</ele><time>2026-04-25T15:29:14Z</time></trkpt><trkpt lat="45.10477649976871" lon="8.265074146887896"><ele>286.0</ele><time>2026-04-25T15:29:15Z</time></trkpt><trkpt lat="45.10485170175251" lon="8.265056531432618"><ele>286.0</ele><time>2026-04-25T15:29:16Z</time></trkpt><trkpt lat="45.10497369327885" lon="8.26488957123834"><ele>286.8</ele><time>2026-04-25T15:29:18Z</time></trkpt><trkpt lat="45.10501190500189" lon="8.26477133677482"><ele>287.6</ele><time>2026-04-25T15:29:19Z</time></trkpt><trkpt lat="45.105022111272866" lon="8.264633477654343"><ele>288.4</ele><time>2026-04-25T15:29:20Z</time></trkpt><trkpt lat="45.10500965783505" lon="8.264504060380483"><ele>289.2</ele><time>2026-04-25T15:29:21Z</time></trkpt><trkpt lat="45.104993208668915" lon="8.264391932131332"><ele>290.0</ele><time>2026-04-25T15:29:22Z</time></trkpt><trkpt lat="45.10491038253416" lon="8.264302186915673"><ele>290.0</ele><time>2026-04-25T15:29:23Z</time></trkpt><trkpt lat="45.10486889064566" lon="8.264200361083915"><ele>290.0</ele><time>2026-04-25T15:29:24Z</time></trkpt><trkpt lat="45.10481477574995" lon="8.264093075793859"><ele>290.0</ele><time>2026-04-25T15:29:25Z</time></trkpt><trkpt lat="45.10477638773516" lon="8.263968210808137"><ele>290.0</ele><time>2026-04-25T15:29:26Z</time></trkpt><trkpt lat="45.10475041612302" lon="8.263845100871878"><ele>290.0</ele><time>2026-04-25T15:29:27Z</time></trkpt><trkpt lat="45.104674298649634" lon="8.263734335392881"><ele>288.8</ele><time>2026-04-25T15:29:28Z</time></trkpt><trkpt lat="45.10461698732995" lon="8.263608811140152"><ele>287.6</ele><time>2026-04-25T15:29:29.001Z</time></trkpt><trkpt lat="45.104557884678606" lon="8.263488289475466"><ele>286.4</ele><time>2026-04-25T15:29:30.001Z</time></trkpt><trkpt lat="45.1045050911692" lon="8.263396871195734"><ele>285.2</ele><time>2026-04-25T15:29:31.001Z</time></trkpt><trkpt lat="45.104429835468174" lon="8.263311266139867"><ele>284.0</ele><time>2026-04-25T15:29:32.001Z</time></trkpt><trkpt lat="45.10433278325985" lon="8.263242550670181"><ele>284.0</ele><time>2026-04-25T15:29:33.001Z</time></trkpt><trkpt lat="45.104230861520186" lon="8.263179154630183"><ele>284.0</ele><time>2026-04-25T15:29:34.001Z</time></trkpt><trkpt lat="45.10414147590098" lon="8.263151077828114"><ele>284.0</ele><time>2026-04-25T15:29:35.001Z</time></trkpt><trkpt lat="45.10407311233133" lon="8.262992749112454"><ele>284.0</ele><time>2026-04-25T15:29:37.001Z</time></trkpt><trkpt lat="45.1041324556149" lon="8.262898072672346"><ele>284.0</ele><time>2026-04-25T15:29:38.001Z</time></trkpt><trkpt lat="45.10421837318232" lon="8.26279737302309"><ele>284.5</ele><time>2026-04-25T15:29:39.001Z</time></trkpt><trkpt lat="45.10433685504139" lon="8.262709050466416"><ele>285.0</ele><time>2026-04-25T15:29:40.001Z</time></trkpt><trkpt lat="45.1044660141824" lon="8.262643183818104"><ele>285.5</ele><time>2026-04-25T15:29:41.001Z</time></trkpt><trkpt lat="45.10458431468437" lon="8.26255090042183"><ele>286.0</ele><time>2026-04-25T15:29:42.001Z</time></trkpt><trkpt lat="45.104680950581866" lon="8.262447481929652"><ele>286.0</ele><time>2026-04-25T15:29:43.001Z</time></trkpt><trkpt lat="45.10478745114364" lon="8.262333202440796"><ele>286.0</ele><time>2026-04-25T15:29:44.001Z</time></trkpt><trkpt lat="45.104867339380526" lon="8.262241417889141"><ele>286.0</ele><time>2026-04-25T15:29:45.001Z</time></trkpt><trkpt lat="45.10493829013854" lon="8.262146604580876"><ele>286.0</ele><time>2026-04-25T15:29:46.001Z</time></trkpt><trkpt lat="45.10500395115507" lon="8.262036361343002"><ele>286.0</ele><time>2026-04-25T15:29:47.001Z</time></trkpt><trkpt lat="45.10504683350875" lon="8.261932536806098"><ele>283.16666666666663</ele><time>2026-04-25T15:29:48.001Z</time></trkpt><trkpt lat="45.105108656975446" lon="8.26182983415496"><ele>280.3333333333333</ele><time>2026-04-25T15:29:49.001Z</time></trkpt><trkpt lat="45.10517090761982" lon="8.26173671846199"><ele>277.5</ele><time>2026-04-25T15:29:50.001Z</time></trkpt><trkpt lat="45.10522674007915" lon="8.261653472140624"><ele>274.6666666666667</ele><time>2026-04-25T15:29:51.001Z</time></trkpt><trkpt lat="45.10527537727249" lon="8.261569085206924"><ele>271.83333333333337</ele><time>2026-04-25T15:29:52.001Z</time></trkpt><trkpt lat="45.10528699081691" lon="8.26147573036175"><ele>269.0</ele><time>2026-04-25T15:29:53.001Z</time></trkpt><trkpt lat="45.10530246896547" lon="8.261384404052173"><ele>269.0</ele><time>2026-04-25T15:29:54.001Z</time></trkpt><trkpt lat="45.10538463729206" lon="8.261320044042558"><ele>269.0</ele><time>2026-04-25T15:29:56.001Z</time></trkpt><trkpt lat="45.10549404217193" lon="8.261365617362395"><ele>269.0</ele><time>2026-04-25T15:29:58.001Z</time></trkpt><trkpt lat="45.105555412002495" lon="8.261461066164848"><ele>269.0</ele><time>2026-04-25T15:30:00.001Z</time></trkpt><trkpt lat="45.1056167461421" lon="8.261619411428095"><ele>269.0</ele><time>2026-04-25T15:30:02.001Z</time></trkpt><trkpt lat="45.10561569673977" lon="8.261809065310079"><ele>268.57142857142856</ele><time>2026-04-25T15:30:04.001Z</time></trkpt><trkpt lat="45.10559865538538" lon="8.261898440924776"><ele>268.14285714285717</ele><time>2026-04-25T15:30:05Z</time></trkpt><trkpt lat="45.105593658261505" lon="8.261995342401788"><ele>267.7142857142857</ele><time>2026-04-25T15:30:06Z</time></trkpt><trkpt lat="45.105588340273805" lon="8.262115966992049"><ele>267.2857142857143</ele><time>2026-04-25T15:30:07Z</time></trkpt><trkpt lat="45.10555181055892" lon="8.262206778872397"><ele>266.8571428571429</ele><time>2026-04-25T15:30:08Z</time></trkpt><trkpt lat="45.10553164814175" lon="8.262301355028399"><ele>266.42857142857144</ele><time>2026-04-25T15:30:09Z</time></trkpt><trkpt lat="45.105525831334845" lon="8.262402757708857"><ele>266.0</ele><time>2026-04-25T15:30:10Z</time></trkpt><trkpt lat="45.10551035516723" lon="8.262529578559988"><ele>263.6</ele><time>2026-04-25T15:30:11Z</time></trkpt><trkpt lat="45.10552575073435" lon="8.26265544914434"><ele>261.20000000000005</ele><time>2026-04-25T15:30:12Z</time></trkpt><trkpt lat="45.10558042707005" lon="8.262822755832646"><ele>258.79999999999995</ele><time>2026-04-25T15:30:14Z</time></trkpt><trkpt lat="45.10572089005654" lon="8.262867060364716"><ele>256.4</ele><time>2026-04-25T15:30:16Z</time></trkpt><trkpt lat="45.10578586943612" lon="8.262834171960082"><ele>254.0</ele><time>2026-04-25T15:30:17Z</time></trkpt><trkpt lat="45.105881451546836" lon="8.262730713535548"><ele>250.83333333333334</ele><time>2026-04-25T15:30:19Z</time></trkpt><trkpt lat="45.10592310062988" lon="8.26264297116743"><ele>247.66666666666669</ele><time>2026-04-25T15:30:20Z</time></trkpt><trkpt lat="45.105943422245545" lon="8.262543138360659"><ele>244.5</ele><time>2026-04-25T15:30:21Z</time></trkpt><trkpt lat="45.105969837388564" lon="8.262432295634834"><ele>241.33333333333331</ele><time>2026-04-25T15:30:22Z</time></trkpt><trkpt lat="45.10598548245985" lon="8.26225938328883"><ele>238.16666666666666</ele><time>2026-04-25T15:30:24Z</time></trkpt><trkpt lat="45.105995442933654" lon="8.262170979218952"><ele>235.0</ele><time>2026-04-25T15:30:25Z</time></trkpt><trkpt lat="45.10600661031761" lon="8.262076012764958"><ele>235.0</ele><time>2026-04-25T15:30:26Z</time></trkpt><trkpt lat="45.106030589341636" lon="8.26198831556123"><ele>235.0</ele><time>2026-04-25T15:30:27Z</time></trkpt><trkpt lat="45.10609390182888" lon="8.261888919057514"><ele>235.0</ele><time>2026-04-25T15:30:28Z</time></trkpt><trkpt lat="45.10613965703585" lon="8.261821816423598"><ele>235.0</ele><time>2026-04-25T15:30:29Z</time></trkpt><trkpt lat="45.106264647902854" lon="8.26176790816058"><ele>235.0</ele><time>2026-04-25T15:30:31Z</time></trkpt><trkpt lat="45.10636346433557" lon="8.261687968990183"><ele>234.99999999999997</ele><time>2026-04-25T15:30:33Z</time></trkpt><trkpt lat="45.10643408196536" lon="8.261575859732803"><ele>235.0</ele><time>2026-04-25T15:30:35Z</time></trkpt><trkpt lat="45.10644926345316" lon="8.261486073903995"><ele>235.0</ele><time>2026-04-25T15:30:36Z</time></trkpt><trkpt lat="45.10649112324843" lon="8.261392435365886"><ele>235.0</ele><time>2026-04-25T15:30:37Z</time></trkpt><trkpt lat="45.10652754526569" lon="8.261262622962349"><ele>234.99999999999997</ele><time>2026-04-25T15:30:38Z</time></trkpt><trkpt lat="45.106537599273466" lon="8.261168273959663"><ele>235.0</ele><time>2026-04-25T15:30:39Z</time></trkpt><trkpt lat="45.10653069759563" lon="8.261077786534845"><ele>234.49999999999997</ele><time>2026-04-25T15:30:40Z</time></trkpt><trkpt lat="45.10652097406871" lon="8.260967885566119"><ele>234.0</ele><time>2026-04-25T15:30:41Z</time></trkpt><trkpt lat="45.10651021565486" lon="8.260842974957406"><ele>233.5</ele><time>2026-04-25T15:30:42Z</time></trkpt><trkpt lat="45.10649809825238" lon="8.260734070905073"><ele>233.0</ele><time>2026-04-25T15:30:43Z</time></trkpt><trkpt lat="45.106474873610104" lon="8.260622433229297"><ele>232.49999999999997</ele><time>2026-04-25T15:30:44Z</time></trkpt><trkpt lat="45.106511305353166" lon="8.260514534231621"><ele>232.0</ele><time>2026-04-25T15:30:45Z</time></trkpt><trkpt lat="45.10658977826921" lon="8.260397741063358"><ele>223.6</ele><time>2026-04-25T15:30:46Z</time></trkpt><trkpt lat="45.10666442593345" lon="8.260282363532495"><ele>215.2</ele><time>2026-04-25T15:30:47Z</time></trkpt><trkpt lat="45.10672179502978" lon="8.260174903087947"><ele>206.8</ele><time>2026-04-25T15:30:48Z</time></trkpt><trkpt lat="45.10676122355961" lon="8.260063901832519"><ele>198.4</ele><time>2026-04-25T15:30:49Z</time></trkpt><trkpt lat="45.1067955588822" lon="8.259943161439702"><ele>190.0</ele><time>2026-04-25T15:30:50Z</time></trkpt><trkpt lat="45.106821237133225" lon="8.259789273140834"><ele>187.75</ele><time>2026-04-25T15:30:51Z</time></trkpt><trkpt lat="45.106871099513505" lon="8.259613206745138"><ele>185.5</ele><time>2026-04-25T15:30:52Z</time></trkpt><trkpt lat="45.106909001545176" lon="8.25946180405309"><ele>183.25</ele><time>2026-04-25T15:30:53Z</time></trkpt><trkpt lat="45.106943620274784" lon="8.259301114145535"><ele>181.0</ele><time>2026-04-25T15:30:54Z</time></trkpt><trkpt lat="45.1069896346823" lon="8.259148006083148"><ele>181.0</ele><time>2026-04-25T15:30:55Z</time></trkpt><trkpt lat="45.10704931465028" lon="8.259016473215329"><ele>181.0</ele><time>2026-04-25T15:30:56Z</time></trkpt><trkpt lat="45.10711507218612" lon="8.258908323170628"><ele>181.0</ele><time>2026-04-25T15:30:57Z</time></trkpt><trkpt lat="45.107196638470604" lon="8.258798549734898"><ele>181.0</ele><time>2026-04-25T15:30:58Z</time></trkpt><trkpt lat="45.107272411689294" lon="8.25868193890616"><ele>181.0</ele><time>2026-04-25T15:30:59Z</time></trkpt><trkpt lat="45.107372366351" lon="8.258559566805456"><ele>178.20000000000002</ele><time>2026-04-25T15:31:00Z</time></trkpt><trkpt lat="45.10741841537387" lon="8.258479062523525"><ele>175.4</ele><time>2026-04-25T15:31:01Z</time></trkpt><trkpt lat="45.107486451028294" lon="8.258374014422582"><ele>172.6</ele><time>2026-04-25T15:31:02Z</time></trkpt><trkpt lat="45.107554540099365" lon="8.258273606576845"><ele>169.8</ele><time>2026-04-25T15:31:03Z</time></trkpt><trkpt lat="45.10763136600365" lon="8.258165170153486"><ele>167.0</ele><time>2026-04-25T15:31:04Z</time></trkpt><trkpt lat="45.107690189907714" lon="8.258011639186252"><ele>166.25</ele><time>2026-04-25T15:31:05Z</time></trkpt><trkpt lat="45.10774856153558" lon="8.257850565996039"><ele>165.5</ele><time>2026-04-25T15:31:06Z</time></trkpt><trkpt lat="45.10782157764842" lon="8.257698028607967"><ele>164.75</ele><time>2026-04-25T15:31:07Z</time></trkpt><trkpt lat="45.107892345358685" lon="8.257554802580602"><ele>164.0</ele><time>2026-04-25T15:31:08Z</time></trkpt><trkpt lat="45.10794253960325" lon="8.25744449817456"><ele>164.0</ele><time>2026-04-25T15:31:09.001Z</time></trkpt><trkpt lat="45.107988008376395" lon="8.257340179235852"><ele>164.0</ele><time>2026-04-25T15:31:10.001Z</time></trkpt><trkpt lat="45.108031302268934" lon="8.25721941600909"><ele>164.0</ele><time>2026-04-25T15:31:11.001Z</time></trkpt><trkpt lat="45.10805270809813" lon="8.25710569532547"><ele>164.0</ele><time>2026-04-25T15:31:12.001Z</time></trkpt><trkpt lat="45.108058085897625" lon="8.256996518896914"><ele>164.0</ele><time>2026-04-25T15:31:13.001Z</time></trkpt><trkpt lat="45.10807802959265" lon="8.256909610461182"><ele>164.0</ele><time>2026-04-25T15:31:14.001Z</time></trkpt><trkpt lat="45.10811490883354" lon="8.256814649928963"><ele>164.6</ele><time>2026-04-25T15:31:16.001Z</time></trkpt><trkpt lat="45.10806504788001" lon="8.256710170837986"><ele>165.2</ele><time>2026-04-25T15:31:18.001Z</time></trkpt><trkpt lat="45.107915061310614" lon="8.256561718579299"><ele>165.79999999999998</ele><time>2026-04-25T15:32:07.001Z</time></trkpt><trkpt lat="45.10785991675637" lon="8.256468106057751"><ele>166.39999999999998</ele><time>2026-04-25T15:32:08.001Z</time></trkpt><trkpt lat="45.10784491479637" lon="8.256360422168347"><ele>167.0</ele><time>2026-04-25T15:32:09.001Z</time></trkpt><trkpt lat="45.10780807755223" lon="8.256276608614739"><ele>167.0</ele><time>2026-04-25T15:32:10.001Z</time></trkpt><trkpt lat="45.107631925876014" lon="8.256192876791943"><ele>167.0</ele><time>2026-04-25T15:32:12.001Z</time></trkpt><trkpt lat="45.10752715098554" lon="8.256153229754647"><ele>167.0</ele><time>2026-04-25T15:32:13.001Z</time></trkpt><trkpt lat="45.10742103874049" lon="8.256098239443832"><ele>167.0</ele><time>2026-04-25T15:32:14.001Z</time></trkpt><trkpt lat="45.1073162127695" lon="8.256025278675976"><ele>167.0</ele><time>2026-04-25T15:32:15.001Z</time></trkpt><trkpt lat="45.10721180329346" lon="8.255932922008906"><ele>167.0</ele><time>2026-04-25T15:32:16.001Z</time></trkpt><trkpt lat="45.107110757917354" lon="8.255834867419228"><ele>167.0</ele><time>2026-04-25T15:32:17.001Z</time></trkpt><trkpt lat="45.10701978790433" lon="8.25570089935955"><ele>167.0</ele><time>2026-04-25T15:32:18.001Z</time></trkpt><trkpt lat="45.106919800060034" lon="8.255570970056578"><ele>166.5</ele><time>2026-04-25T15:32:19.001Z</time></trkpt><trkpt lat="45.106833009990254" lon="8.255423536201796"><ele>166.0</ele><time>2026-04-25T15:32:20.001Z</time></trkpt><trkpt lat="45.106749877771556" lon="8.255267361306018"><ele>165.5</ele><time>2026-04-25T15:32:21.001Z</time></trkpt><trkpt lat="45.10665701540733" lon="8.255121523575376"><ele>165.0</ele><time>2026-04-25T15:32:22.001Z</time></trkpt><trkpt lat="45.10654983581" lon="8.254998052001673"><ele>165.0</ele><time>2026-04-25T15:32:23Z</time></trkpt><trkpt lat="45.10642460559301" lon="8.254886833659707"><ele>165.0</ele><time>2026-04-25T15:32:24Z</time></trkpt><trkpt lat="45.106302685462154" lon="8.254778598464936"><ele>165.0</ele><time>2026-04-25T15:32:25Z</time></trkpt><trkpt lat="45.10618454881394" lon="8.254666569499538"><ele>165.0</ele><time>2026-04-25T15:32:26Z</time></trkpt><trkpt lat="45.10605906981617" lon="8.254552485376854"><ele>165.75</ele><time>2026-04-25T15:32:27Z</time></trkpt><trkpt lat="45.10593902131282" lon="8.2544348163078"><ele>166.5</ele><time>2026-04-25T15:32:28Z</time></trkpt><trkpt lat="45.10581995312392" lon="8.25431969041815"><ele>167.25</ele><time>2026-04-25T15:32:29Z</time></trkpt><trkpt lat="45.10569653652431" lon="8.254202212333084"><ele>168.0</ele><time>2026-04-25T15:32:30Z</time></trkpt><trkpt lat="45.10557412677312" lon="8.254085688908512"><ele>168.0</ele><time>2026-04-25T15:32:31Z</time></trkpt><trkpt lat="45.10544694905183" lon="8.253968147215469"><ele>168.0</ele><time>2026-04-25T15:32:32Z</time></trkpt><trkpt lat="45.10532422400955" lon="8.25384903873442"><ele>168.0</ele><time>2026-04-25T15:32:33Z</time></trkpt><trkpt lat="45.10520347022275" lon="8.253729780461763"><ele>168.0</ele><time>2026-04-25T15:32:34Z</time></trkpt><trkpt lat="45.105082312199976" lon="8.2536096416957"><ele>168.25</ele><time>2026-04-25T15:32:35Z</time></trkpt><trkpt lat="45.10496103978912" lon="8.253493379022872"><ele>168.5</ele><time>2026-04-25T15:32:36Z</time></trkpt><trkpt lat="45.104839955524994" lon="8.253383485464191"><ele>168.75</ele><time>2026-04-25T15:32:37Z</time></trkpt><trkpt lat="45.10472075844699" lon="8.253266080737372"><ele>169.0</ele><time>2026-04-25T15:32:38Z</time></trkpt><trkpt lat="45.10459425303117" lon="8.253152002373753"><ele>170.0</ele><time>2026-04-25T15:32:39Z</time></trkpt><trkpt lat="45.10448574092724" lon="8.253037123177911"><ele>171.0</ele><time>2026-04-25T15:32:40Z</time></trkpt><trkpt lat="45.10436337911497" lon="8.252923189293782"><ele>172.0</ele><time>2026-04-25T15:32:41Z</time></trkpt><trkpt lat="45.10424833464754" lon="8.252822288432712"><ele>173.0</ele><time>2026-04-25T15:32:42Z</time></trkpt><trkpt lat="45.10414528419936" lon="8.25273216815336"><ele>173.25</ele><time>2026-04-25T15:32:43Z</time></trkpt><trkpt lat="45.10406177180812" lon="8.252655155449055"><ele>173.5</ele><time>2026-04-25T15:32:44Z</time></trkpt><trkpt lat="45.10399875230961" lon="8.252590491773722"><ele>173.75</ele><time>2026-04-25T15:32:45Z</time></trkpt><trkpt lat="45.10392957674313" lon="8.25248499062448"><ele>174.0</ele><time>2026-04-25T15:32:47Z</time></trkpt><trkpt lat="45.10401759281053" lon="8.252196211084769"><ele>175.5</ele><time>2026-04-25T15:32:50Z</time></trkpt><trkpt lat="45.104061389631845" lon="8.251985472696134"><ele>177.0</ele><time>2026-04-25T15:32:51Z</time></trkpt><trkpt lat="45.1041032416879" lon="8.251779420088715"><ele>178.5</ele><time>2026-04-25T15:32:52Z</time></trkpt><trkpt lat="45.104125825231264" lon="8.25162221848516"><ele>180.0</ele><time>2026-04-25T15:32:53Z</time></trkpt><trkpt lat="45.104117649116716" lon="8.251521467462476"><ele>183.0</ele><time>2026-04-25T15:32:54Z</time></trkpt><trkpt lat="45.10403832960342" lon="8.25138210739444"><ele>186.0</ele><time>2026-04-25T15:32:56Z</time></trkpt><trkpt lat="45.10397814591617" lon="8.25131067786836"><ele>189.0</ele><time>2026-04-25T15:32:57Z</time></trkpt><trkpt lat="45.103903790688186" lon="8.251209502964157"><ele>192.0</ele><time>2026-04-25T15:32:58Z</time></trkpt><trkpt lat="45.10382148074198" lon="8.251096962773577"><ele>195.0</ele><time>2026-04-25T15:32:59Z</time></trkpt><trkpt lat="45.103705182124806" lon="8.250951598038272"><ele>195.0</ele><time>2026-04-25T15:33:00Z</time></trkpt><trkpt lat="45.10360830105284" lon="8.250798073635202"><ele>195.0</ele><time>2026-04-25T15:33:01Z</time></trkpt><trkpt lat="45.10351340138902" lon="8.25063070011473"><ele>195.0</ele><time>2026-04-25T15:33:02.001Z</time></trkpt><trkpt lat="45.103406133829075" lon="8.250434951120535"><ele>195.4</ele><time>2026-04-25T15:33:03.001Z</time></trkpt><trkpt lat="45.10331760291103" lon="8.250260961573094"><ele>195.8</ele><time>2026-04-25T15:33:04.001Z</time></trkpt><trkpt lat="45.10324588555577" lon="8.250125918242372"><ele>196.2</ele><time>2026-04-25T15:33:05.001Z</time></trkpt><trkpt lat="45.10319204225706" lon="8.250015679703797"><ele>196.6</ele><time>2026-04-25T15:33:06.001Z</time></trkpt><trkpt lat="45.103148358919015" lon="8.249947538120662"><ele>197.0</ele><time>2026-04-25T15:33:08.001Z</time></trkpt><trkpt lat="45.103059675656375" lon="8.250010919249243"><ele>197.0</ele><time>2026-04-25T15:33:11.001Z</time></trkpt><trkpt lat="45.10298181947445" lon="8.25004400718924"><ele>197.0</ele><time>2026-04-25T15:33:12.001Z</time></trkpt><trkpt lat="45.1028911157411" lon="8.250052692947419"><ele>197.0</ele><time>2026-04-25T15:33:13.001Z</time></trkpt><trkpt lat="45.10279453414308" lon="8.24997546447639"><ele>197.0</ele><time>2026-04-25T15:33:14.001Z</time></trkpt><trkpt lat="45.10269817680616" lon="8.249868686504291"><ele>197.0</ele><time>2026-04-25T15:33:15.001Z</time></trkpt><trkpt lat="45.10258537220163" lon="8.249794751686917"><ele>197.0</ele><time>2026-04-25T15:33:16.001Z</time></trkpt><trkpt lat="45.102468773873085" lon="8.249719597671918"><ele>197.0</ele><time>2026-04-25T15:33:17.001Z</time></trkpt><trkpt lat="45.10236930589597" lon="8.249656819400407"><ele>197.0</ele><time>2026-04-25T15:33:18.001Z</time></trkpt><trkpt lat="45.102285348955554" lon="8.249596232707182"><ele>197.0</ele><time>2026-04-25T15:33:19.001Z</time></trkpt><trkpt lat="45.10222197010838" lon="8.249561757267683"><ele>197.0</ele><time>2026-04-25T15:33:20.001Z</time></trkpt><trkpt lat="45.102143986791845" lon="8.24960324212916"><ele>197.0</ele><time>2026-04-25T15:33:22.001Z</time></trkpt><trkpt lat="45.10209990107777" lon="8.249732218843075"><ele>197.0</ele><time>2026-04-25T15:33:24.001Z</time></trkpt><trkpt lat="45.10208501591267" lon="8.249826807596216"><ele>197.0</ele><time>2026-04-25T15:33:25.001Z</time></trkpt><trkpt lat="45.10201504650628" lon="8.249835872686768"><ele>197.0</ele><time>2026-04-25T15:33:27.001Z</time></trkpt><trkpt lat="45.10193316720478" lon="8.249809770940683"><ele>197.0</ele><time>2026-04-25T15:33:29.001Z</time></trkpt><trkpt lat="45.10187239826291" lon="8.24997715386068"><ele>195.5</ele><time>2026-04-25T15:33:30.001Z</time></trkpt><trkpt lat="45.10181114383034" lon="8.250100315309204"><ele>194.0</ele><time>2026-04-25T15:33:31.001Z</time></trkpt><trkpt lat="45.10176480647936" lon="8.250271771186378"><ele>192.5</ele><time>2026-04-25T15:33:32.001Z</time></trkpt><trkpt lat="45.10169379148955" lon="8.250399660046941"><ele>191.0</ele><time>2026-04-25T15:33:33.001Z</time></trkpt><trkpt lat="45.101636083928064" lon="8.250524654525199"><ele>189.16666666666666</ele><time>2026-04-25T15:33:34.001Z</time></trkpt><trkpt lat="45.10157515019479" lon="8.250627044230697"><ele>187.33333333333331</ele><time>2026-04-25T15:33:35.001Z</time></trkpt><trkpt lat="45.101515789032305" lon="8.250722982009536"><ele>185.5</ele><time>2026-04-25T15:33:36.001Z</time></trkpt><trkpt lat="45.101459329558715" lon="8.250815894916421"><ele>183.66666666666666</ele><time>2026-04-25T15:33:37.001Z</time></trkpt><trkpt lat="45.10140292368886" lon="8.250898832880955"><ele>181.83333333333334</ele><time>2026-04-25T15:33:38.001Z</time></trkpt><trkpt lat="45.10133343266803" lon="8.250954234486661"><ele>180.0</ele><time>2026-04-25T15:33:39.001Z</time></trkpt><trkpt lat="45.101253142262465" lon="8.25098047969186"><ele>180.0</ele><time>2026-04-25T15:33:40.001Z</time></trkpt><trkpt lat="45.10116854811174" lon="8.251029842128355"><ele>180.0</ele><time>2026-04-25T15:33:41.001Z</time></trkpt><trkpt lat="45.10109210294943" lon="8.251115087391925"><ele>180.0</ele><time>2026-04-25T15:33:42.001Z</time></trkpt><trkpt lat="45.10101155427796" lon="8.251186737264083"><ele>180.0</ele><time>2026-04-25T15:33:43.001Z</time></trkpt><trkpt lat="45.10092863608404" lon="8.251265315561223"><ele>180.0</ele><time>2026-04-25T15:33:44.001Z</time></trkpt><trkpt lat="45.1008540272777" lon="8.251336216226422"><ele>180.0</ele><time>2026-04-25T15:33:45.001Z</time></trkpt><trkpt lat="45.100783622762975" lon="8.251400728715979"><ele>180.0</ele><time>2026-04-25T15:33:46.001Z</time></trkpt><trkpt lat="45.10070283493271" lon="8.251436807377797"><ele>180.0</ele><time>2026-04-25T15:33:47.001Z</time></trkpt><trkpt lat="45.10063546567366" lon="8.251459976805833"><ele>180.0</ele><time>2026-04-25T15:33:48.001Z</time></trkpt><trkpt lat="45.100571854369065" lon="8.251457896672203"><ele>180.0</ele><time>2026-04-25T15:33:49.001Z</time></trkpt><trkpt lat="45.10050115254653" lon="8.251453274150876"><ele>180.0</ele><time>2026-04-25T15:33:50.001Z</time></trkpt><trkpt lat="45.1004244131991" lon="8.251450031638596"><ele>180.0</ele><time>2026-04-25T15:33:51.001Z</time></trkpt><trkpt lat="45.10035946889251" lon="8.251443377922337"><ele>180.25</ele><time>2026-04-25T15:33:52.001Z</time></trkpt><trkpt lat="45.10024851615366" lon="8.251439035536457"><ele>180.5</ele><time>2026-04-25T15:33:54.001Z</time></trkpt><trkpt lat="45.100142368278156" lon="8.25138802172679"><ele>180.75</ele><time>2026-04-25T15:33:56.001Z</time></trkpt><trkpt lat="45.10002025969332" lon="8.251348483930707"><ele>181.0</ele><time>2026-04-25T15:33:58.001Z</time></trkpt><trkpt lat="45.09999372833821" lon="8.251112925938738"><ele>181.0</ele><time>2026-04-25T15:33:59.001Z</time></trkpt><trkpt lat="45.0999584898982" lon="8.251012180316447"><ele>181.0</ele><time>2026-04-25T15:34:00.001Z</time></trkpt><trkpt lat="45.09993466433096" lon="8.250900513659246"><ele>181.0</ele><time>2026-04-25T15:34:01.001Z</time></trkpt><trkpt lat="45.09992926003156" lon="8.250786687580359"><ele>181.0</ele><time>2026-04-25T15:34:02.001Z</time></trkpt><trkpt lat="45.099942413001706" lon="8.250673676371695"><ele>181.0</ele><time>2026-04-25T15:34:03.001Z</time></trkpt><trkpt lat="45.09995285297469" lon="8.250556397061452"><ele>181.0</ele><time>2026-04-25T15:34:04.001Z</time></trkpt><trkpt lat="45.09994563411574" lon="8.250452518914017"><ele>180.60000000000002</ele><time>2026-04-25T15:34:05.001Z</time></trkpt><trkpt lat="45.09991751214115" lon="8.250372507833841"><ele>180.2</ele><time>2026-04-25T15:34:06.001Z</time></trkpt><trkpt lat="45.09981586737956" lon="8.25026346566851"><ele>179.8</ele><time>2026-04-25T15:34:08.001Z</time></trkpt><trkpt lat="45.09976720146991" lon="8.250182095920717"><ele>179.39999999999998</ele><time>2026-04-25T15:34:09.001Z</time></trkpt><trkpt lat="45.099727102376754" lon="8.25008015534801"><ele>179.0</ele><time>2026-04-25T15:34:10.001Z</time></trkpt><trkpt lat="45.09968416695434" lon="8.249940967425182"><ele>180.2</ele><time>2026-04-25T15:34:11.001Z</time></trkpt><trkpt lat="45.09963771871716" lon="8.249804829369285"><ele>181.39999999999998</ele><time>2026-04-25T15:34:12.001Z</time></trkpt><trkpt lat="45.09958128460095" lon="8.249720697240472"><ele>182.6</ele><time>2026-04-25T15:34:13.001Z</time></trkpt><trkpt lat="45.09951376588559" lon="8.249684998484328"><ele>183.8</ele><time>2026-04-25T15:34:14.001Z</time></trkpt><trkpt lat="45.099376351127844" lon="8.249679132513428"><ele>185.0</ele><time>2026-04-25T15:34:16.001Z</time></trkpt><trkpt lat="45.099295441950595" lon="8.249643923713068"><ele>185.0</ele><time>2026-04-25T15:34:17Z</time></trkpt><trkpt lat="45.0992088758618" lon="8.249592084782305"><ele>185.0</ele><time>2026-04-25T15:34:18Z</time></trkpt><trkpt lat="45.09912183731794" lon="8.249522617998768"><ele>185.0</ele><time>2026-04-25T15:34:19Z</time></trkpt><trkpt lat="45.09905615410373" lon="8.249456367545289"><ele>185.0</ele><time>2026-04-25T15:34:20Z</time></trkpt><trkpt lat="45.09900996264316" lon="8.249363721715364"><ele>185.0</ele><time>2026-04-25T15:34:21Z</time></trkpt><trkpt lat="45.09899631340277" lon="8.249272860580525"><ele>185.0</ele><time>2026-04-25T15:34:22Z</time></trkpt><trkpt lat="45.098995913707846" lon="8.249170310571357"><ele>185.33333333333331</ele><time>2026-04-25T15:34:23Z</time></trkpt><trkpt lat="45.098999657016236" lon="8.249044523829205"><ele>185.66666666666666</ele><time>2026-04-25T15:34:24Z</time></trkpt><trkpt lat="45.09902269981607" lon="8.248920564877142"><ele>186.0</ele><time>2026-04-25T15:34:25Z</time></trkpt><trkpt lat="45.09901597908978" lon="8.248812520047876"><ele>186.33333333333334</ele><time>2026-04-25T15:34:26Z</time></trkpt><trkpt lat="45.09898440627507" lon="8.248696701185665"><ele>186.66666666666669</ele><time>2026-04-25T15:34:27Z</time></trkpt><trkpt lat="45.09895732843309" lon="8.248587717097834"><ele>187.0</ele><time>2026-04-25T15:34:28Z</time></trkpt><trkpt lat="45.09895496111283" lon="8.248474237818144"><ele>187.0</ele><time>2026-04-25T15:34:29Z</time></trkpt><trkpt lat="45.09895909802121" lon="8.248366272293701"><ele>187.0</ele><time>2026-04-25T15:34:30Z</time></trkpt><trkpt lat="45.09897371392836" lon="8.248262814746678"><ele>187.0</ele><time>2026-04-25T15:34:31Z</time></trkpt><trkpt lat="45.09898769986906" lon="8.248154968930537"><ele>187.0</ele><time>2026-04-25T15:34:32Z</time></trkpt><trkpt lat="45.098995423114715" lon="8.248057811652046"><ele>187.0</ele><time>2026-04-25T15:34:33Z</time></trkpt><trkpt lat="45.098994948996285" lon="8.247964319763105"><ele>187.0</ele><time>2026-04-25T15:34:35Z</time></trkpt><trkpt lat="45.09894498418207" lon="8.247884907801774"><ele>187.0</ele><time>2026-04-25T15:34:38Z</time></trkpt><trkpt lat="45.09888506859442" lon="8.247818447373962"><ele>186.83333333333334</ele><time>2026-04-25T15:34:40Z</time></trkpt><trkpt lat="45.09879477659315" lon="8.247745018655912"><ele>186.66666666666669</ele><time>2026-04-25T15:34:42Z</time></trkpt><trkpt lat="45.09873293226219" lon="8.247698429815198"><ele>186.5</ele><time>2026-04-25T15:34:43Z</time></trkpt><trkpt lat="45.09866637678615" lon="8.247621383053145"><ele>186.33333333333334</ele><time>2026-04-25T15:34:44Z</time></trkpt><trkpt lat="45.098589921447164" lon="8.24754698921933"><ele>186.16666666666666</ele><time>2026-04-25T15:34:45Z</time></trkpt><trkpt lat="45.098527913359895" lon="8.247493634531855"><ele>186.0</ele><time>2026-04-25T15:34:46Z</time></trkpt><trkpt lat="45.098480846828316" lon="8.247433799221838"><ele>186.0</ele><time>2026-04-25T15:34:47Z</time></trkpt><trkpt lat="45.098404814465034" lon="8.247326508786701"><ele>186.0</ele><time>2026-04-25T15:34:49Z</time></trkpt><trkpt lat="45.09836671658271" lon="8.247251451260777"><ele>186.0</ele><time>2026-04-25T15:34:51Z</time></trkpt><trkpt lat="45.09826837129165" lon="8.247201794762102"><ele>186.0</ele><time>2026-04-25T15:34:53Z</time></trkpt><trkpt lat="45.098188943291326" lon="8.247194998896509"><ele>186.0</ele><time>2026-04-25T15:34:54Z</time></trkpt><trkpt lat="45.09809402992993" lon="8.247198759281861"><ele>187.0</ele><time>2026-04-25T15:34:55Z</time></trkpt><trkpt lat="45.09799140037997" lon="8.247184672450405"><ele>188.0</ele><time>2026-04-25T15:34:56Z</time></trkpt><trkpt lat="45.0978848007173" lon="8.24715191056575"><ele>189.0</ele><time>2026-04-25T15:34:57Z</time></trkpt><trkpt lat="45.097767772797376" lon="8.24711262049357"><ele>190.0</ele><time>2026-04-25T15:34:58Z</time></trkpt><trkpt lat="45.09765606031221" lon="8.247068676611402"><ele>191.0</ele><time>2026-04-25T15:34:59Z</time></trkpt><trkpt lat="45.09756419021208" lon="8.247008935040006"><ele>191.0</ele><time>2026-04-25T15:35:00Z</time></trkpt><trkpt lat="45.09747416895879" lon="8.246912684692395"><ele>191.0</ele><time>2026-04-25T15:35:01Z</time></trkpt><trkpt lat="45.09739157813024" lon="8.246784544443388"><ele>191.0</ele><time>2026-04-25T15:35:02Z</time></trkpt><trkpt lat="45.09729722324521" lon="8.246641031026758"><ele>191.0</ele><time>2026-04-25T15:35:03Z</time></trkpt><trkpt lat="45.097194538212335" lon="8.246512406529096"><ele>193.5</ele><time>2026-04-25T15:35:04Z</time></trkpt><trkpt lat="45.09708012620726" lon="8.246378071823967"><ele>196.0</ele><time>2026-04-25T15:35:05Z</time></trkpt><trkpt lat="45.0969822232122" lon="8.246251691470063"><ele>198.5</ele><time>2026-04-25T15:35:06Z</time></trkpt><trkpt lat="45.0968912755915" lon="8.246131516495156"><ele>201.0</ele><time>2026-04-25T15:35:07Z</time></trkpt><trkpt lat="45.09680867012752" lon="8.246018498341831"><ele>201.0</ele><time>2026-04-25T15:35:08Z</time></trkpt><trkpt lat="45.096732100812865" lon="8.245894674303052"><ele>201.0</ele><time>2026-04-25T15:35:09Z</time></trkpt><trkpt lat="45.09665346362339" lon="8.245768699328844"><ele>201.0</ele><time>2026-04-25T15:35:10Z</time></trkpt><trkpt lat="45.09656975330387" lon="8.245695290768335"><ele>201.0</ele><time>2026-04-25T15:35:11Z</time></trkpt><trkpt lat="45.09649027314278" lon="8.24567291920844"><ele>201.0</ele><time>2026-04-25T15:35:12Z</time></trkpt><trkpt lat="45.096406681633326" lon="8.245671877448963"><ele>201.5</ele><time>2026-04-25T15:35:13Z</time></trkpt><trkpt lat="45.09630024306736" lon="8.24568056126121"><ele>202.0</ele><time>2026-04-25T15:35:14Z</time></trkpt><trkpt lat="45.09618288678304" lon="8.245686205934316"><ele>202.5</ele><time>2026-04-25T15:35:15Z</time></trkpt><trkpt lat="45.09606114810171" lon="8.245692794375648"><ele>203.0</ele><time>2026-04-25T15:35:16Z</time></trkpt><trkpt lat="45.09593723465428" lon="8.245679151074343"><ele>203.0</ele><time>2026-04-25T15:35:17Z</time></trkpt><trkpt lat="45.095786121132384" lon="8.245667073219682"><ele>203.0</ele><time>2026-04-25T15:35:18Z</time></trkpt><trkpt lat="45.09560719560564" lon="8.245668188868265"><ele>203.0</ele><time>2026-04-25T15:35:19Z</time></trkpt><trkpt lat="45.09547172164481" lon="8.245669184122356"><ele>202.60000000000002</ele><time>2026-04-25T15:35:20Z</time></trkpt><trkpt lat="45.09535156912075" lon="8.245658092456017"><ele>202.20000000000002</ele><time>2026-04-25T15:35:21Z</time></trkpt><trkpt lat="45.09527756313467" lon="8.2456050178476"><ele>201.8</ele><time>2026-04-25T15:35:22Z</time></trkpt><trkpt lat="45.09522557962065" lon="8.245525960331737"><ele>201.4</ele><time>2026-04-25T15:35:23Z</time></trkpt><trkpt lat="45.095159290184256" lon="8.245445126028482"><ele>201.0</ele><time>2026-04-25T15:35:24Z</time></trkpt><trkpt lat="45.0950895978871" lon="8.24537693864369"><ele>202.0</ele><time>2026-04-25T15:35:25Z</time></trkpt><trkpt lat="45.09497497900411" lon="8.245322460794917"><ele>203.0</ele><time>2026-04-25T15:35:27Z</time></trkpt><trkpt lat="45.09490265746446" lon="8.24530195459924"><ele>204.0</ele><time>2026-04-25T15:35:29Z</time></trkpt><trkpt lat="45.094814415714445" lon="8.245296588480624"><ele>205.0</ele><time>2026-04-25T15:35:37Z</time></trkpt><trkpt lat="45.094751276573845" lon="8.245276461993662"><ele>206.0</ele><time>2026-04-25T15:35:38Z</time></trkpt><trkpt lat="45.09467569210835" lon="8.2452529900045"><ele>207.0</ele><time>2026-04-25T15:35:39Z</time></trkpt><trkpt lat="45.0946040238289" lon="8.24522048402016"><ele>208.8</ele><time>2026-04-25T15:35:40Z</time></trkpt><trkpt lat="45.09450012143338" lon="8.24515927939715"><ele>210.6</ele><time>2026-04-25T15:35:42Z</time></trkpt><trkpt lat="45.09447068061257" lon="8.245052927754582"><ele>212.40000000000003</ele><time>2026-04-25T15:35:44Z</time></trkpt><trkpt lat="45.0944391417002" lon="8.244904758706507"><ele>214.20000000000002</ele><time>2026-04-25T15:35:46.001Z</time></trkpt><trkpt lat="45.094389966733466" lon="8.244744176356681"><ele>216.0</ele><time>2026-04-25T15:35:48.001Z</time></trkpt><trkpt lat="45.094351705634985" lon="8.244661928352247"><ele>216.0</ele><time>2026-04-25T15:35:49.001Z</time></trkpt><trkpt lat="45.09430506101554" lon="8.244491970425255"><ele>216.00000000000003</ele><time>2026-04-25T15:35:51.001Z</time></trkpt><trkpt lat="45.094242931425875" lon="8.244409853373247"><ele>216.00000000000003</ele><time>2026-04-25T15:35:52.001Z</time></trkpt><trkpt lat="45.094206216185" lon="8.244279790288765"><ele>216.0</ele><time>2026-04-25T15:35:54.001Z</time></trkpt><trkpt lat="45.09415061392148" lon="8.24416794947976"><ele>216.0</ele><time>2026-04-25T15:35:56.001Z</time></trkpt><trkpt lat="45.09408940301499" lon="8.244111257885363"><ele>216.0</ele><time>2026-04-25T15:35:57.001Z</time></trkpt><trkpt lat="45.09402271111763" lon="8.244182125550843"><ele>216.00000000000003</ele><time>2026-04-25T15:35:58.001Z</time></trkpt><trkpt lat="45.09403616388531" lon="8.244306240091303"><ele>216.00000000000003</ele><time>2026-04-25T15:36:00.001Z</time></trkpt><trkpt lat="45.09409293831242" lon="8.24447283709067"><ele>216.0</ele><time>2026-04-25T15:36:02.001Z</time></trkpt><trkpt lat="45.094124349359745" lon="8.24455814372267"><ele>216.0</ele><time>2026-04-25T15:36:03.001Z</time></trkpt><trkpt lat="45.0941504826359" lon="8.244684636198018"><ele>216.16666666666666</ele><time>2026-04-25T15:36:04.001Z</time></trkpt><trkpt lat="45.09415813306078" lon="8.244815079271547"><ele>216.33333333333331</ele><time>2026-04-25T15:36:05.001Z</time></trkpt><trkpt lat="45.09417392034467" lon="8.24494154326672"><ele>216.5</ele><time>2026-04-25T15:36:06.001Z</time></trkpt><trkpt lat="45.09418780814924" lon="8.24504544169862"><ele>216.66666666666666</ele><time>2026-04-25T15:36:07.001Z</time></trkpt><trkpt lat="45.09411122385547" lon="8.245133762825485"><ele>216.83333333333331</ele><time>2026-04-25T15:36:09.001Z</time></trkpt><trkpt lat="45.09406501418358" lon="8.245071050463412"><ele>217.0</ele><time>2026-04-25T15:36:11.001Z</time></trkpt><trkpt lat="45.093999568777406" lon="8.24499224729223"><ele>219.99999999999997</ele><time>2026-04-25T15:36:13.001Z</time></trkpt><trkpt lat="45.09393585743637" lon="8.244972127481859"><ele>223.0</ele><time>2026-04-25T15:36:15.001Z</time></trkpt><trkpt lat="45.09383897775557" lon="8.244863357265698"><ele>226.0</ele><time>2026-04-25T15:36:17.001Z</time></trkpt><trkpt lat="45.09374791733702" lon="8.244892408098723"><ele>229.0</ele><time>2026-04-25T15:36:18.001Z</time></trkpt><trkpt lat="45.09366798806408" lon="8.244888991727898"><ele>231.99999999999997</ele><time>2026-04-25T15:36:19.001Z</time></trkpt><trkpt lat="45.0935866801326" lon="8.244905828187148"><ele>235.0</ele><time>2026-04-25T15:36:20.001Z</time></trkpt><trkpt lat="45.093476279526925" lon="8.24494542338518"><ele>234.99999999999997</ele><time>2026-04-25T15:36:22.001Z</time></trkpt><trkpt lat="45.09341528962365" lon="8.244974967639658"><ele>235.0</ele><time>2026-04-25T15:36:23Z</time></trkpt><trkpt lat="45.093306041223784" lon="8.244987005046886"><ele>235.0</ele><time>2026-04-25T15:36:25Z</time></trkpt><trkpt lat="45.09321332460538" lon="8.244999308424473"><ele>235.0</ele><time>2026-04-25T15:36:27Z</time></trkpt><trkpt lat="45.093136212142454" lon="8.245023522040768"><ele>234.99999999999997</ele><time>2026-04-25T15:36:29Z</time></trkpt><trkpt lat="45.09305934065337" lon="8.245064677819613"><ele>235.0</ele><time>2026-04-25T15:36:31Z</time></trkpt><trkpt lat="45.092995421244424" lon="8.245130184069119"><ele>240.4</ele><time>2026-04-25T15:36:33Z</time></trkpt><trkpt lat="45.09290247527104" lon="8.245104122421397"><ele>245.8</ele><time>2026-04-25T15:36:35Z</time></trkpt><trkpt lat="45.092821134278864" lon="8.245155758781626"><ele>251.2</ele><time>2026-04-25T15:36:37Z</time></trkpt><trkpt lat="45.09273605308562" lon="8.245296539620135"><ele>256.6</ele><time>2026-04-25T15:36:39Z</time></trkpt><trkpt lat="45.09262643548468" lon="8.245367858556516"><ele>262.0</ele><time>2026-04-25T15:36:40Z</time></trkpt><trkpt lat="45.09251704475729" lon="8.245417539989973"><ele>265.2</ele><time>2026-04-25T15:36:41Z</time></trkpt><trkpt lat="45.0924154522146" lon="8.24544204861409"><ele>268.4</ele><time>2026-04-25T15:36:42Z</time></trkpt><trkpt lat="45.092341904676616" lon="8.2453797071886"><ele>271.6</ele><time>2026-04-25T15:36:43Z</time></trkpt><trkpt lat="45.09230149231302" lon="8.245292855779223"><ele>274.8</ele><time>2026-04-25T15:36:45Z</time></trkpt><trkpt lat="45.092254149098444" lon="8.245182231699383"><ele>278.0</ele><time>2026-04-25T15:36:47Z</time></trkpt><trkpt lat="45.092118080726586" lon="8.245149338420273"><ele>278.0</ele><time>2026-04-25T15:36:49Z</time></trkpt><trkpt lat="45.092026868456045" lon="8.24515397198468"><ele>278.0</ele><time>2026-04-25T15:36:50Z</time></trkpt><trkpt lat="45.0919393691463" lon="8.245155495085216"><ele>278.0</ele><time>2026-04-25T15:36:51Z</time></trkpt><trkpt lat="45.09183561948515" lon="8.245158443166812"><ele>278.0</ele><time>2026-04-25T15:36:52Z</time></trkpt><trkpt lat="45.09171093493809" lon="8.245174538117357"><ele>278.0</ele><time>2026-04-25T15:36:53Z</time></trkpt><trkpt lat="45.09162559351425" lon="8.245185990024401"><ele>278.5</ele><time>2026-04-25T15:36:54Z</time></trkpt><trkpt lat="45.091563015878265" lon="8.245153316675891"><ele>279.0</ele><time>2026-04-25T15:36:55Z</time></trkpt><trkpt lat="45.09150343791093" lon="8.245069658046447"><ele>279.5</ele><time>2026-04-25T15:36:56Z</time></trkpt><trkpt lat="45.09146835603633" lon="8.244984858396867"><ele>280.0</ele><time>2026-04-25T15:36:57Z</time></trkpt><trkpt lat="45.091417472055596" lon="8.244874485349364"><ele>280.5</ele><time>2026-04-25T15:36:58Z</time></trkpt><trkpt lat="45.09135731392207" lon="8.244807176350449"><ele>281.0</ele><time>2026-04-25T15:36:59Z</time></trkpt><trkpt lat="45.09127765688452" lon="8.244735459151771"><ele>286.0</ele><time>2026-04-25T15:37:01Z</time></trkpt><trkpt lat="45.09151293187602" lon="8.244795468039836"><ele>291.0</ele><time>2026-04-25T15:37:05Z</time></trkpt><trkpt lat="45.09147876974479" lon="8.244586333450227"><ele>296.0</ele><time>2026-04-25T15:37:08Z</time></trkpt><trkpt lat="45.091421291813994" lon="8.244445306373864"><ele>296.0</ele><time>2026-04-25T15:37:09Z</time></trkpt><trkpt lat="45.09138452042409" lon="8.24430118378492"><ele>296.0</ele><time>2026-04-25T15:37:10Z</time></trkpt><trkpt lat="45.09133111069715" lon="8.244144005963436"><ele>296.0</ele><time>2026-04-25T15:37:11Z</time></trkpt><trkpt lat="45.091243991980505" lon="8.244012677994514"><ele>296.0</ele><time>2026-04-25T15:37:12Z</time></trkpt><trkpt lat="45.09115856610981" lon="8.243937927048995"><ele>299.0</ele><time>2026-04-25T15:37:13Z</time></trkpt><trkpt lat="45.091057887651544" lon="8.24391045071724"><ele>302.0</ele><time>2026-04-25T15:37:14Z</time></trkpt><trkpt lat="45.09092918436899" lon="8.243925770130268"><ele>305.0</ele><time>2026-04-25T15:37:15Z</time></trkpt><trkpt lat="45.09080654465099" lon="8.243905710281187"><ele>308.0</ele><time>2026-04-25T15:37:16Z</time></trkpt><trkpt lat="45.090700170146576" lon="8.243860283441812"><ele>314.6</ele><time>2026-04-25T15:37:17Z</time></trkpt><trkpt lat="45.09061150400546" lon="8.243840710864422"><ele>321.20000000000005</ele><time>2026-04-25T15:37:18Z</time></trkpt><trkpt lat="45.09049991527982" lon="8.243872036979512"><ele>327.8</ele><time>2026-04-25T15:37:19Z</time></trkpt><trkpt lat="45.090404447653356" lon="8.243916456861887"><ele>334.40000000000003</ele><time>2026-04-25T15:37:20Z</time></trkpt><trkpt lat="45.090304832058976" lon="8.243946033872499"><ele>341.0</ele><time>2026-04-25T15:37:22Z</time></trkpt><trkpt lat="45.09035534841297" lon="8.243830083048126"><ele>341.0</ele><time>2026-04-25T15:37:25Z</time></trkpt><trkpt lat="45.09047300332754" lon="8.243777219113209"><ele>341.0</ele><time>2026-04-25T15:37:26Z</time></trkpt><trkpt lat="45.090548252092134" lon="8.243704834588018"><ele>341.0</ele><time>2026-04-25T15:37:27Z</time></trkpt><trkpt lat="45.09062088504535" lon="8.243598859430934"><ele>341.0</ele><time>2026-04-25T15:37:28Z</time></trkpt><trkpt lat="45.09068427256841" lon="8.243497874478102"><ele>341.0</ele><time>2026-04-25T15:37:29Z</time></trkpt><trkpt lat="45.090642013128914" lon="8.243299715389206"><ele>341.0</ele><time>2026-04-25T15:37:31Z</time></trkpt><trkpt lat="45.09060428255115" lon="8.243185385742587"><ele>341.0</ele><time>2026-04-25T15:37:32Z</time></trkpt><trkpt lat="45.09056673307562" lon="8.243082688379529"><ele>341.0</ele><time>2026-04-25T15:37:33Z</time></trkpt><trkpt lat="45.09052059757365" lon="8.242972486028096"><ele>341.0</ele><time>2026-04-25T15:37:34Z</time></trkpt><trkpt lat="45.09050597820989" lon="8.242830503864809"><ele>341.0</ele><time>2026-04-25T15:37:35Z</time></trkpt><trkpt lat="45.09047952872567" lon="8.242649371140539"><ele>342.4</ele><time>2026-04-25T15:37:36Z</time></trkpt><trkpt lat="45.090480348121055" lon="8.242504268891109"><ele>343.8</ele><time>2026-04-25T15:37:37Z</time></trkpt><trkpt lat="45.09051175379631" lon="8.24240274631771"><ele>345.2</ele><time>2026-04-25T15:37:39Z</time></trkpt><trkpt lat="45.09057661144377" lon="8.242157819653748"><ele>346.59999999999997</ele><time>2026-04-25T15:38:09.001Z</time></trkpt><trkpt lat="45.09062452216477" lon="8.24206172517258"><ele>348.0</ele><time>2026-04-25T15:38:11.001Z</time></trkpt><trkpt lat="45.09068531772606" lon="8.24203440139664"><ele>344.4</ele><time>2026-04-25T15:38:12.001Z</time></trkpt><trkpt lat="45.0907688596444" lon="8.241886794264007"><ele>340.79999999999995</ele><time>2026-04-25T15:38:14.001Z</time></trkpt><trkpt lat="45.090818344550186" lon="8.24181191478854"><ele>337.2</ele><time>2026-04-25T15:38:15.001Z</time></trkpt><trkpt lat="45.090891748111375" lon="8.241725890814813"><ele>333.6</ele><time>2026-04-25T15:38:17.001Z</time></trkpt><trkpt lat="45.09095210758654" lon="8.241658980928618"><ele>330.0</ele><time>2026-04-25T15:38:21.001Z</time></trkpt><trkpt lat="45.091033908432536" lon="8.241605363561764"><ele>330.0</ele><time>2026-04-25T15:38:23.001Z</time></trkpt><trkpt lat="45.0911428772985" lon="8.241608720989875"><ele>330.0</ele><time>2026-04-25T15:38:28.001Z</time></trkpt><trkpt lat="45.09120891882327" lon="8.241619589087184"><ele>330.0</ele><time>2026-04-25T15:38:31Z</time></trkpt><trkpt lat="45.091332140609914" lon="8.241616955495626"><ele>330.0</ele><time>2026-04-25T15:38:41Z</time></trkpt><trkpt lat="45.09140280347445" lon="8.241589910726141"><ele>330.0</ele><time>2026-04-25T15:38:43Z</time></trkpt><trkpt lat="45.09147209413911" lon="8.241541448965624"><ele>330.0</ele><time>2026-04-25T15:38:45Z</time></trkpt><trkpt lat="45.09157048180343" lon="8.241385608341199"><ele>328.6666666666667</ele><time>2026-04-25T15:38:47Z</time></trkpt><trkpt lat="45.091639071403876" lon="8.241292844456359"><ele>327.3333333333333</ele><time>2026-04-25T15:38:48Z</time></trkpt><trkpt lat="45.09168153785794" lon="8.241201759842971"><ele>326.0</ele><time>2026-04-25T15:38:49Z</time></trkpt><trkpt lat="45.09166784095438" lon="8.241073114125687"><ele>324.66666666666663</ele><time>2026-04-25T15:38:51Z</time></trkpt><trkpt lat="45.091618153064175" lon="8.241010887901545"><ele>323.3333333333333</ele><time>2026-04-25T15:38:53Z</time></trkpt><trkpt lat="45.09161208243757" lon="8.24089767435593"><ele>322.0</ele><time>2026-04-25T15:38:55Z</time></trkpt><trkpt lat="45.091566661682656" lon="8.24071042316409"><ele>327.0</ele><time>2026-04-25T15:38:57Z</time></trkpt><trkpt lat="45.091531384153114" lon="8.240615521644793"><ele>332.0</ele><time>2026-04-25T15:38:58Z</time></trkpt><trkpt lat="45.0914831757806" lon="8.24051707456381"><ele>337.0</ele><time>2026-04-25T15:38:59Z</time></trkpt><trkpt lat="45.09142595754477" lon="8.24041543193908"><ele>342.0</ele><time>2026-04-25T15:39:00Z</time></trkpt><trkpt lat="45.091393256586024" lon="8.240328772033216"><ele>347.0</ele><time>2026-04-25T15:39:01Z</time></trkpt><trkpt lat="45.0913452419118" lon="8.240263041739897"><ele>352.0</ele><time>2026-04-25T15:39:02Z</time></trkpt><trkpt lat="45.09129824006117" lon="8.240172728977226"><ele>352.0</ele><time>2026-04-25T15:39:03Z</time></trkpt><trkpt lat="45.0912488368694" lon="8.240015136139794"><ele>352.0</ele><time>2026-04-25T15:39:05Z</time></trkpt><trkpt lat="45.09117180932074" lon="8.239957544439912"><ele>352.0</ele><time>2026-04-25T15:39:06Z</time></trkpt><trkpt lat="45.09112266822017" lon="8.239879542693014"><ele>352.0</ele><time>2026-04-25T15:39:07Z</time></trkpt><trkpt lat="45.09107961984226" lon="8.2397847274662"><ele>352.0</ele><time>2026-04-25T15:39:08Z</time></trkpt><trkpt lat="45.091025873153974" lon="8.239631562302153"><ele>350.16666666666663</ele><time>2026-04-25T15:39:10Z</time></trkpt><trkpt lat="45.090999106928585" lon="8.239548050740915"><ele>348.3333333333333</ele><time>2026-04-25T15:39:11Z</time></trkpt><trkpt lat="45.09096731982074" lon="8.239462736271625"><ele>346.5</ele><time>2026-04-25T15:39:12Z</time></trkpt><trkpt lat="45.09095453153317" lon="8.239372267720997"><ele>344.6666666666667</ele><time>2026-04-25T15:39:13Z</time></trkpt><trkpt lat="45.09092811246543" lon="8.239201245951946"><ele>342.83333333333337</ele><time>2026-04-25T15:39:15Z</time></trkpt><trkpt lat="45.090861890069206" lon="8.239181105969866"><ele>341.0</ele><time>2026-04-25T15:39:19Z</time></trkpt><trkpt lat="45.09080678582424" lon="8.23922726585841"><ele>341.0</ele><time>2026-04-25T15:39:21Z</time></trkpt><trkpt lat="45.090790911274624" lon="8.23931754506457"><ele>341.0</ele><time>2026-04-25T15:39:24Z</time></trkpt><trkpt lat="45.09072235004312" lon="8.239394057053826"><ele>341.0</ele><time>2026-04-25T15:39:30Z</time></trkpt><trkpt lat="45.090650509583895" lon="8.239428315388073"><ele>341.0</ele><time>2026-04-25T15:39:32Z</time></trkpt><trkpt lat="45.09055387478455" lon="8.239459414455613"><ele>341.0</ele><time>2026-04-25T15:39:34Z</time></trkpt><trkpt lat="45.09047863465058" lon="8.239530363766299"><ele>341.0</ele><time>2026-04-25T15:39:36Z</time></trkpt><trkpt lat="45.090381220046666" lon="8.239596055612227"><ele>339.20000000000005</ele><time>2026-04-25T15:39:39Z</time></trkpt><trkpt lat="45.09030796393293" lon="8.239636844157694"><ele>337.40000000000003</ele><time>2026-04-25T15:39:41Z</time></trkpt><trkpt lat="45.090186119763636" lon="8.239715449979755"><ele>335.6</ele><time>2026-04-25T15:39:44Z</time></trkpt><trkpt lat="45.09012386157043" lon="8.23975551300587"><ele>333.8</ele><time>2026-04-25T15:39:46.001Z</time></trkpt><trkpt lat="45.090062451094234" lon="8.2395964927453"><ele>332.0</ele><time>2026-04-25T15:39:50.001Z</time></trkpt><trkpt lat="45.09005568931977" lon="8.239463318889872"><ele>332.0</ele><time>2026-04-25T15:39:51.001Z</time></trkpt><trkpt lat="45.09003502510684" lon="8.239318765294048"><ele>332.0</ele><time>2026-04-25T15:39:52.001Z</time></trkpt><trkpt lat="45.089989251436414" lon="8.239159390508096"><ele>332.0</ele><time>2026-04-25T15:39:53.001Z</time></trkpt><trkpt lat="45.08993004851513" lon="8.239012102337199"><ele>332.0</ele><time>2026-04-25T15:39:54.001Z</time></trkpt><trkpt lat="45.089877996740135" lon="8.238857110160657"><ele>329.25</ele><time>2026-04-25T15:39:55.001Z</time></trkpt><trkpt lat="45.089815816338415" lon="8.23870176726289"><ele>326.5</ele><time>2026-04-25T15:39:56.001Z</time></trkpt><trkpt lat="45.08975691190892" lon="8.238541831898988"><ele>323.75</ele><time>2026-04-25T15:39:57.001Z</time></trkpt><trkpt lat="45.089694625872504" lon="8.238376711386632"><ele>321.0</ele><time>2026-04-25T15:39:58.001Z</time></trkpt><trkpt lat="45.089630935274435" lon="8.238207305505187"><ele>322.0</ele><time>2026-04-25T15:39:59.001Z</time></trkpt><trkpt lat="45.08957451244527" lon="8.238052547356494"><ele>323.0</ele><time>2026-04-25T15:40:00.001Z</time></trkpt><trkpt lat="45.089523134146724" lon="8.237907380852153"><ele>324.0</ele><time>2026-04-25T15:40:01.001Z</time></trkpt><trkpt lat="45.08947392958026" lon="8.237758443796194"><ele>325.0</ele><time>2026-04-25T15:40:02.001Z</time></trkpt><trkpt lat="45.089425210439884" lon="8.237600274563704"><ele>325.0</ele><time>2026-04-25T15:40:03.001Z</time></trkpt><trkpt lat="45.08936974913245" lon="8.237446288040429"><ele>325.0</ele><time>2026-04-25T15:40:04.001Z</time></trkpt><trkpt lat="45.089317722758885" lon="8.23731654041293"><ele>325.0</ele><time>2026-04-25T15:40:05.001Z</time></trkpt><trkpt lat="45.089278015099914" lon="8.237199481797179"><ele>325.0</ele><time>2026-04-25T15:40:06.001Z</time></trkpt><trkpt lat="45.08923907736823" lon="8.237085643472016"><ele>325.0</ele><time>2026-04-25T15:40:07.001Z</time></trkpt><trkpt lat="45.089198572484" lon="8.236997046441848"><ele>327.0</ele><time>2026-04-25T15:40:08.001Z</time></trkpt><trkpt lat="45.08909747455664" lon="8.236912476757169"><ele>329.0</ele><time>2026-04-25T15:40:10.001Z</time></trkpt><trkpt lat="45.089025263447574" lon="8.236895804389777"><ele>331.0</ele><time>2026-04-25T15:40:12.001Z</time></trkpt><trkpt lat="45.08897021902063" lon="8.236782194765107"><ele>333.0</ele><time>2026-04-25T15:40:14.001Z</time></trkpt><trkpt lat="45.08899021755562" lon="8.236632752506804"><ele>335.0</ele><time>2026-04-25T15:40:16.001Z</time></trkpt><trkpt lat="45.08896536560046" lon="8.236549997480129"><ele>335.33333333333337</ele><time>2026-04-25T15:40:17.001Z</time></trkpt><trkpt lat="45.08886333829965" lon="8.23652267757578"><ele>335.6666666666667</ele><time>2026-04-25T15:40:19.001Z</time></trkpt><trkpt lat="45.08878702764614" lon="8.236592005272868"><ele>336.0</ele><time>2026-04-25T15:40:20.001Z</time></trkpt><trkpt lat="45.088725148379865" lon="8.23662473662519"><ele>336.3333333333333</ele><time>2026-04-25T15:40:21.001Z</time></trkpt><trkpt lat="45.08864044722524" lon="8.236645276174798"><ele>336.66666666666663</ele><time>2026-04-25T15:40:22.001Z</time></trkpt><trkpt lat="45.0885871802849" lon="8.236578790814358"><ele>337.0</ele><time>2026-04-25T15:40:23.001Z</time></trkpt><trkpt lat="45.08858016148622" lon="8.236451545468265"><ele>340.20000000000005</ele><time>2026-04-25T15:40:24.001Z</time></trkpt><trkpt lat="45.08859411918263" lon="8.236340538167125"><ele>343.4</ele><time>2026-04-25T15:40:25.001Z</time></trkpt><trkpt lat="45.088659344346915" lon="8.236302877000337"><ele>346.6</ele><time>2026-04-25T15:40:26.001Z</time></trkpt><trkpt lat="45.08877667602417" lon="8.236228249366764"><ele>349.79999999999995</ele><time>2026-04-25T15:40:27.001Z</time></trkpt><trkpt lat="45.08889994911015" lon="8.23613856490901"><ele>353.0</ele><time>2026-04-25T15:40:28.001Z</time></trkpt><trkpt lat="45.08895491583648" lon="8.236039225047412"><ele>353.0</ele><time>2026-04-25T15:40:29.001Z</time></trkpt><trkpt lat="45.08897617651038" lon="8.235918792884592"><ele>353.0</ele><time>2026-04-25T15:40:30.001Z</time></trkpt><trkpt lat="45.08900060399411" lon="8.235812586089697"><ele>353.0</ele><time>2026-04-25T15:40:31.001Z</time></trkpt><trkpt lat="45.08899483781527" lon="8.23569844105802"><ele>353.0</ele><time>2026-04-25T15:40:32.001Z</time></trkpt><trkpt lat="45.08896204759312" lon="8.23555211340344"><ele>353.0</ele><time>2026-04-25T15:40:33.001Z</time></trkpt><trkpt lat="45.088902593981345" lon="8.235449162838915"><ele>354.59999999999997</ele><time>2026-04-25T15:40:34.001Z</time></trkpt><trkpt lat="45.088860148041405" lon="8.235336302684711"><ele>356.2</ele><time>2026-04-25T15:40:35Z</time></trkpt><trkpt lat="45.08881177063822" lon="8.23522904268792"><ele>357.8</ele><time>2026-04-25T15:40:36Z</time></trkpt><trkpt lat="45.088756570481" lon="8.235152192916392"><ele>359.4</ele><time>2026-04-25T15:40:37Z</time></trkpt><trkpt lat="45.08863351214312" lon="8.235113462637775"><ele>361.0</ele><time>2026-04-25T15:40:38Z</time></trkpt><trkpt lat="45.08854603673561" lon="8.235050651316506"><ele>361.0</ele><time>2026-04-25T15:40:39Z</time></trkpt><trkpt lat="45.08846238925403" lon="8.234981878275013"><ele>361.0</ele><time>2026-04-25T15:40:40Z</time></trkpt><trkpt lat="45.088367143603044" lon="8.234921665086677"><ele>361.0</ele><time>2026-04-25T15:40:41Z</time></trkpt><trkpt lat="45.08825942821915" lon="8.234870514974114"><ele>361.0</ele><time>2026-04-25T15:40:42Z</time></trkpt><trkpt lat="45.088154249246344" lon="8.234838473522187"><ele>361.0</ele><time>2026-04-25T15:40:43Z</time></trkpt><trkpt lat="45.08806894088571" lon="8.23480868272923"><ele>362.0</ele><time>2026-04-25T15:40:44Z</time></trkpt><trkpt lat="45.088028682432395" lon="8.234729236895845"><ele>363.0</ele><time>2026-04-25T15:40:45Z</time></trkpt><trkpt lat="45.08797874143227" lon="8.234615467330453"><ele>364.0</ele><time>2026-04-25T15:40:46Z</time></trkpt><trkpt lat="45.08793092884973" lon="8.234497377532973"><ele>365.0</ele><time>2026-04-25T15:40:47Z</time></trkpt><trkpt lat="45.08789433164536" lon="8.234375329684465"><ele>366.0</ele><time>2026-04-25T15:40:48Z</time></trkpt><trkpt lat="45.08787730252688" lon="8.234259895104687"><ele>367.0</ele><time>2026-04-25T15:40:49Z</time></trkpt><trkpt lat="45.08790071673921" lon="8.234096925594939"><ele>367.0</ele><time>2026-04-25T15:40:51Z</time></trkpt><trkpt lat="45.08794045517655" lon="8.23398858767913"><ele>367.0</ele><time>2026-04-25T15:40:52Z</time></trkpt><trkpt lat="45.08796311706168" lon="8.233869627685854"><ele>367.0</ele><time>2026-04-25T15:40:53Z</time></trkpt><trkpt lat="45.08799036633173" lon="8.233786917554353"><ele>367.0</ele><time>2026-04-25T15:40:54Z</time></trkpt><trkpt lat="45.08801643185611" lon="8.23369927300047"><ele>367.0</ele><time>2026-04-25T15:40:55Z</time></trkpt><trkpt lat="45.08804530785272" lon="8.233613027571755"><ele>367.0</ele><time>2026-04-25T15:40:56Z</time></trkpt><trkpt lat="45.08806536690934" lon="8.233512933886795"><ele>367.0</ele><time>2026-04-25T15:40:57Z</time></trkpt><trkpt lat="45.08807977890048" lon="8.233412888814838"><ele>368.16666666666663</ele><time>2026-04-25T15:40:58Z</time></trkpt><trkpt lat="45.0880786195647" lon="8.233297647027465"><ele>369.3333333333333</ele><time>2026-04-25T15:40:59Z</time></trkpt><trkpt lat="45.088061891502186" lon="8.233167737333448"><ele>370.5</ele><time>2026-04-25T15:41:00Z</time></trkpt><trkpt lat="45.08805464065964" lon="8.233052266016676"><ele>371.6666666666667</ele><time>2026-04-25T15:41:01Z</time></trkpt><trkpt lat="45.08804622538108" lon="8.232952646864405"><ele>372.83333333333337</ele><time>2026-04-25T15:41:02Z</time></trkpt><trkpt lat="45.08803817509349" lon="8.232825710721677"><ele>374.0</ele><time>2026-04-25T15:41:04Z</time></trkpt><trkpt lat="45.08819238810154" lon="8.232828417071943"><ele>375.79999999999995</ele><time>2026-04-25T15:41:08Z</time></trkpt><trkpt lat="45.08827862593901" lon="8.232815031952791"><ele>377.59999999999997</ele><time>2026-04-25T15:41:09Z</time></trkpt><trkpt lat="45.088374400430375" lon="8.23278090060461"><ele>379.4</ele><time>2026-04-25T15:41:10Z</time></trkpt><trkpt lat="45.088465736922096" lon="8.232698499479994"><ele>381.2</ele><time>2026-04-25T15:41:11Z</time></trkpt><trkpt lat="45.088552025665706" lon="8.23260810965007"><ele>383.0</ele><time>2026-04-25T15:41:12Z</time></trkpt><trkpt lat="45.088624739166974" lon="8.23248431626019"><ele>383.0</ele><time>2026-04-25T15:41:13Z</time></trkpt><trkpt lat="45.08869695043833" lon="8.232336386139133"><ele>383.0</ele><time>2026-04-25T15:41:14Z</time></trkpt><trkpt lat="45.08878103592361" lon="8.232185996035422"><ele>383.0</ele><time>2026-04-25T15:41:15Z</time></trkpt><trkpt lat="45.08886305637198" lon="8.232043000478498"><ele>383.0</ele><time>2026-04-25T15:41:16Z</time></trkpt><trkpt lat="45.0889317370068" lon="8.231953274223935"><ele>381.0</ele><time>2026-04-25T15:41:17Z</time></trkpt><trkpt lat="45.089000493861434" lon="8.231846318221537"><ele>379.0</ele><time>2026-04-25T15:41:19Z</time></trkpt><trkpt lat="45.089050676052885" lon="8.231783577638085"><ele>377.0</ele><time>2026-04-25T15:41:21Z</time></trkpt><trkpt lat="45.0891144389594" lon="8.23169704623783"><ele>375.0</ele><time>2026-04-25T15:41:23Z</time></trkpt><trkpt lat="45.089174911918754" lon="8.2316193756869"><ele>373.0</ele><time>2026-04-25T15:41:25Z</time></trkpt><trkpt lat="45.08926249532086" lon="8.231823359932077"><ele>373.0</ele><time>2026-04-25T15:41:30Z</time></trkpt><trkpt lat="45.089192453375325" lon="8.231948964272664"><ele>373.0</ele><time>2026-04-25T15:41:32Z</time></trkpt><trkpt lat="45.08931117324037" lon="8.232017345512133"><ele>373.0</ele><time>2026-04-25T15:41:34Z</time></trkpt><trkpt lat="45.0893914589247" lon="8.231990080371638"><ele>373.0</ele><time>2026-04-25T15:41:36Z</time></trkpt><trkpt lat="45.08945330075816" lon="8.231933399243427"><ele>373.0</ele><time>2026-04-25T15:41:37Z</time></trkpt><trkpt lat="45.089559658375435" lon="8.231966979934661"><ele>373.0</ele><time>2026-04-25T15:41:39Z</time></trkpt><trkpt lat="45.08964125425079" lon="8.232037878459748"><ele>373.0</ele><time>2026-04-25T15:41:41Z</time></trkpt><trkpt lat="45.089737384059106" lon="8.232068976860331"><ele>373.0</ele><time>2026-04-25T15:41:43Z</time></trkpt><trkpt lat="45.089804209990305" lon="8.232128614833059"><ele>373.0</ele><time>2026-04-25T15:41:45Z</time></trkpt><trkpt lat="45.089864339472314" lon="8.232189490486531"><ele>373.0</ele><time>2026-04-25T15:41:48Z</time></trkpt><trkpt lat="45.08993796855956" lon="8.232228588621457"><ele>373.0</ele><time>2026-04-25T15:41:51.001Z</time></trkpt><trkpt lat="45.09000725289253" lon="8.23225862960848"><ele>368.4</ele><time>2026-04-25T15:41:53.001Z</time></trkpt><trkpt lat="45.090099843235976" lon="8.23225335821059"><ele>363.79999999999995</ele><time>2026-04-25T15:41:55.001Z</time></trkpt><trkpt lat="45.09018685563405" lon="8.232246762658175"><ele>359.2</ele><time>2026-04-25T15:41:57.001Z</time></trkpt><trkpt lat="45.09026388665764" lon="8.232152623708073"><ele>354.6</ele><time>2026-04-25T15:42:00.001Z</time></trkpt><trkpt lat="45.090346957965416" lon="8.232032586051071"><ele>350.0</ele><time>2026-04-25T15:42:02.001Z</time></trkpt><trkpt lat="45.09044190033129" lon="8.231959778532746"><ele>350.0</ele><time>2026-04-25T15:42:04.001Z</time></trkpt><trkpt lat="45.09051659615959" lon="8.231932969712815"><ele>350.0</ele><time>2026-04-25T15:42:05.001Z</time></trkpt><trkpt lat="45.090594102828696" lon="8.23191611081772"><ele>350.0</ele><time>2026-04-25T15:42:06.001Z</time></trkpt><trkpt lat="45.0906943699068" lon="8.231900225726934"><ele>350.0</ele><time>2026-04-25T15:42:08.001Z</time></trkpt><trkpt lat="45.09080307172399" lon="8.23190923949359"><ele>350.0</ele><time>2026-04-25T15:42:10.001Z</time></trkpt><trkpt lat="45.090873395304634" lon="8.231872081165559"><ele>350.0</ele><time>2026-04-25T15:42:11.001Z</time></trkpt><trkpt lat="45.09094516396968" lon="8.231834301852759"><ele>347.4</ele><time>2026-04-25T15:42:12.001Z</time></trkpt><trkpt lat="45.09102749439915" lon="8.231784231236613"><ele>344.8</ele><time>2026-04-25T15:42:13.001Z</time></trkpt><trkpt lat="45.09112487035487" lon="8.231757679089272"><ele>342.20000000000005</ele><time>2026-04-25T15:42:14.001Z</time></trkpt><trkpt lat="45.09121070076281" lon="8.231744774358027"><ele>339.6</ele><time>2026-04-25T15:42:15.001Z</time></trkpt><trkpt lat="45.091301135537975" lon="8.231742888961412"><ele>337.0</ele><time>2026-04-25T15:42:16.001Z</time></trkpt><trkpt lat="45.0914431751465" lon="8.231745893890334"><ele>337.0</ele><time>2026-04-25T15:42:18.001Z</time></trkpt><trkpt lat="45.09152285980841" lon="8.231687220729313"><ele>337.0</ele><time>2026-04-25T15:42:19.001Z</time></trkpt><trkpt lat="45.091604347253295" lon="8.231639749434308"><ele>337.0</ele><time>2026-04-25T15:42:20.001Z</time></trkpt><trkpt lat="45.091618986097366" lon="8.23152398308403"><ele>337.0</ele><time>2026-04-25T15:42:22.001Z</time></trkpt><trkpt lat="45.091626748922586" lon="8.23143234562813"><ele>337.0</ele><time>2026-04-25T15:42:26.001Z</time></trkpt><trkpt lat="45.091702398580594" lon="8.23122439352148"><ele>335.20000000000005</ele><time>2026-04-25T15:42:42Z</time></trkpt><trkpt lat="45.09171241744278" lon="8.23107633546896"><ele>333.4</ele><time>2026-04-25T15:42:43Z</time></trkpt><trkpt lat="45.091730478292014" lon="8.23091832913927"><ele>331.6</ele><time>2026-04-25T15:42:44Z</time></trkpt><trkpt lat="45.09174977551958" lon="8.230784427226592"><ele>329.79999999999995</ele><time>2026-04-25T15:42:45Z</time></trkpt><trkpt lat="45.09176432101856" lon="8.230670240722992"><ele>328.0</ele><time>2026-04-25T15:42:46Z</time></trkpt><trkpt lat="45.0917821250817" lon="8.230548910761877"><ele>328.0</ele><time>2026-04-25T15:42:47Z</time></trkpt><trkpt lat="45.09180588673806" lon="8.230431647403144"><ele>328.0</ele><time>2026-04-25T15:42:48Z</time></trkpt><trkpt lat="45.091818710782334" lon="8.230325189409024"><ele>328.0</ele><time>2026-04-25T15:42:49Z</time></trkpt><trkpt lat="45.09187168432804" lon="8.230135304836772"><ele>328.0</ele><time>2026-04-25T15:42:51Z</time></trkpt><trkpt lat="45.09193711674023" lon="8.230002866352605"><ele>328.0</ele><time>2026-04-25T15:42:53Z</time></trkpt><trkpt lat="45.09198047717499" lon="8.229881114814393"><ele>328.0</ele><time>2026-04-25T15:42:55Z</time></trkpt><trkpt lat="45.092051203424205" lon="8.229827320652195"><ele>328.0</ele><time>2026-04-25T15:43:05Z</time></trkpt><trkpt lat="45.092148989203174" lon="8.229767794775338"><ele>328.0</ele><time>2026-04-25T15:43:09Z</time></trkpt><trkpt lat="45.09221275661944" lon="8.229766660902571"><ele>328.0</ele><time>2026-04-25T15:43:10Z</time></trkpt><trkpt lat="45.092350121390304" lon="8.22974963126976"><ele>328.0</ele><time>2026-04-25T15:43:13Z</time></trkpt><trkpt lat="45.092466666979995" lon="8.229775510349633"><ele>325.16666666666663</ele><time>2026-04-25T15:43:15Z</time></trkpt><trkpt lat="45.092570431206994" lon="8.229796225638228"><ele>322.3333333333333</ele><time>2026-04-25T15:43:17Z</time></trkpt><trkpt lat="45.09259400090676" lon="8.229705241269299"><ele>319.5</ele><time>2026-04-25T15:43:20Z</time></trkpt><trkpt lat="45.09266833576908" lon="8.229764904098495"><ele>316.6666666666667</ele><time>2026-04-25T15:43:22Z</time></trkpt><trkpt lat="45.09273515776948" lon="8.229779208504718"><ele>313.83333333333337</ele><time>2026-04-25T15:43:24Z</time></trkpt><trkpt lat="45.09281396310516" lon="8.229811111395287"><ele>311.0</ele><time>2026-04-25T15:43:26Z</time></trkpt><trkpt lat="45.09291283685072" lon="8.229802098820056"><ele>311.0</ele><time>2026-04-25T15:43:28Z</time></trkpt><trkpt lat="45.093002544792455" lon="8.22976037592444"><ele>311.0</ele><time>2026-04-25T15:43:30Z</time></trkpt><trkpt lat="45.09309774155018" lon="8.229729560829409"><ele>311.0</ele><time>2026-04-25T15:43:32Z</time></trkpt><trkpt lat="45.093216043344476" lon="8.22966552881458"><ele>311.0</ele><time>2026-04-25T15:43:34Z</time></trkpt><trkpt lat="45.09330961218643" lon="8.229595655046838"><ele>311.0</ele><time>2026-04-25T15:43:36Z</time></trkpt><trkpt lat="45.09342672428546" lon="8.22954331795592"><ele>310.1666666666667</ele><time>2026-04-25T15:43:38Z</time></trkpt><trkpt lat="45.093521155728375" lon="8.229554388430307"><ele>309.33333333333337</ele><time>2026-04-25T15:43:40Z</time></trkpt><trkpt lat="45.09360299599769" lon="8.229565947884737"><ele>308.5</ele><time>2026-04-25T15:43:42Z</time></trkpt><trkpt lat="45.09368330919525" lon="8.229557826440919"><ele>307.6666666666667</ele><time>2026-04-25T15:43:44Z</time></trkpt><trkpt lat="45.09375566476996" lon="8.229660252453051"><ele>306.8333333333333</ele><time>2026-04-25T15:43:46Z</time></trkpt><trkpt lat="45.09378112257558" lon="8.229746905424669"><ele>306.0</ele><time>2026-04-25T15:43:47Z</time></trkpt><trkpt lat="45.09381286084081" lon="8.22984255515115"><ele>304.8333333333333</ele><time>2026-04-25T15:43:48Z</time></trkpt><trkpt lat="45.09384730784704" lon="8.229943391763035"><ele>303.6666666666667</ele><time>2026-04-25T15:43:49Z</time></trkpt><trkpt lat="45.09387688966142" lon="8.230090945112263"><ele>302.5</ele><time>2026-04-25T15:43:51Z</time></trkpt><trkpt lat="45.0938485532395" lon="8.230178304965879"><ele>301.33333333333337</ele><time>2026-04-25T15:43:52Z</time></trkpt><trkpt lat="45.09382063879427" lon="8.230273910563335"><ele>300.1666666666667</ele><time>2026-04-25T15:43:54Z</time></trkpt><trkpt lat="45.09381047383666" lon="8.230370440440183"><ele>299.0</ele><time>2026-04-25T15:44:00.001Z</time></trkpt><trkpt lat="45.09379317618566" lon="8.23047662358715"><ele>299.0</ele><time>2026-04-25T15:44:02.001Z</time></trkpt><trkpt lat="45.09377360761096" lon="8.230572045113052"><ele>299.0</ele><time>2026-04-25T15:44:04.001Z</time></trkpt><trkpt lat="45.09377950043005" lon="8.23067301247963"><ele>299.0</ele><time>2026-04-25T15:44:06.001Z</time></trkpt><trkpt lat="45.09380884005959" lon="8.230803329220102"><ele>299.0</ele><time>2026-04-25T15:44:08.001Z</time></trkpt><trkpt lat="45.09380313468384" lon="8.230946748691611"><ele>299.0</ele><time>2026-04-25T15:44:10.001Z</time></trkpt><trkpt lat="45.09381739823675" lon="8.231039407598528"><ele>299.0</ele><time>2026-04-25T15:44:11.001Z</time></trkpt><trkpt lat="45.09384400456418" lon="8.231153560752933"><ele>298.5</ele><time>2026-04-25T15:44:12.001Z</time></trkpt><trkpt lat="45.0938900488561" lon="8.231298907672496"><ele>298.0</ele><time>2026-04-25T15:44:13.001Z</time></trkpt><trkpt lat="45.09395289689989" lon="8.231454273937294"><ele>297.5</ele><time>2026-04-25T15:44:15.001Z</time></trkpt><trkpt lat="45.09400649957993" lon="8.231584288253112"><ele>297.0</ele><time>2026-04-25T15:44:16.001Z</time></trkpt><trkpt lat="45.09409315323738" lon="8.231693675739386"><ele>297.0</ele><time>2026-04-25T15:44:17.001Z</time></trkpt><trkpt lat="45.09415577639468" lon="8.231789523005807"><ele>297.0</ele><time>2026-04-25T15:44:18.001Z</time></trkpt><trkpt lat="45.09422091829763" lon="8.23189070150805"><ele>297.0</ele><time>2026-04-25T15:44:19.001Z</time></trkpt><trkpt lat="45.09424106257832" lon="8.23198399820314"><ele>297.0</ele><time>2026-04-25T15:44:20.001Z</time></trkpt><trkpt lat="45.094349334989516" lon="8.232042493078216"><ele>297.0</ele><time>2026-04-25T15:44:22.001Z</time></trkpt><trkpt lat="45.09441804773931" lon="8.232075080506876"><ele>297.0</ele><time>2026-04-25T15:44:23.001Z</time></trkpt><trkpt lat="45.094493725591036" lon="8.232106473677563"><ele>297.0</ele><time>2026-04-25T15:44:24.001Z</time></trkpt><trkpt lat="45.09456251388401" lon="8.232195494400353"><ele>297.0</ele><time>2026-04-25T15:44:25.001Z</time></trkpt><trkpt lat="45.09461906612012" lon="8.232330358936803"><ele>297.0</ele><time>2026-04-25T15:44:26.001Z</time></trkpt><trkpt lat="45.094680341322665" lon="8.2324638841235"><ele>297.0</ele><time>2026-04-25T15:44:27.001Z</time></trkpt><trkpt lat="45.094727365241575" lon="8.232572117274398"><ele>297.0</ele><time>2026-04-25T15:44:28.001Z</time></trkpt><trkpt lat="45.094788880700044" lon="8.232626674025495"><ele>295.3333333333333</ele><time>2026-04-25T15:44:29.001Z</time></trkpt><trkpt lat="45.09488878597063" lon="8.232703932434745"><ele>293.6666666666667</ele><time>2026-04-25T15:44:31.001Z</time></trkpt><trkpt lat="45.094953035554305" lon="8.232718072889128"><ele>292.0</ele><time>2026-04-25T15:44:32.001Z</time></trkpt><trkpt lat="45.09499438211288" lon="8.232801085258446"><ele>290.33333333333337</ele><time>2026-04-25T15:44:33.001Z</time></trkpt><trkpt lat="45.09502347289026" lon="8.232884509981368"><ele>288.6666666666667</ele><time>2026-04-25T15:44:34.001Z</time></trkpt><trkpt lat="45.09508029895185" lon="8.233030103762003"><ele>287.0</ele><time>2026-04-25T15:44:36.001Z</time></trkpt><trkpt lat="45.09521102929201" lon="8.233028939528845"><ele>291.5</ele><time>2026-04-25T15:44:39.001Z</time></trkpt><trkpt lat="45.0952869840057" lon="8.232964164329976"><ele>296.0</ele><time>2026-04-25T15:44:40.001Z</time></trkpt><trkpt lat="45.095349137765126" lon="8.232900099909665"><ele>300.5</ele><time>2026-04-25T15:44:41.001Z</time></trkpt><trkpt lat="45.095427921450366" lon="8.232823118510572"><ele>305.0</ele><time>2026-04-25T15:44:42.001Z</time></trkpt><trkpt lat="45.09550711918009" lon="8.232763592413752"><ele>309.5</ele><time>2026-04-25T15:44:43.001Z</time></trkpt><trkpt lat="45.095568592872965" lon="8.23270343105431"><ele>314.0</ele><time>2026-04-25T15:44:44.001Z</time></trkpt><trkpt lat="45.09562458940795" lon="8.232606663850234"><ele>314.0</ele><time>2026-04-25T15:44:46.001Z</time></trkpt><trkpt lat="45.09566669528668" lon="8.23253904347764"><ele>314.0</ele><time>2026-04-25T15:44:47Z</time></trkpt><trkpt lat="45.095712870707416" lon="8.232452834126342"><ele>314.0</ele><time>2026-04-25T15:44:48Z</time></trkpt><trkpt lat="45.095785095205635" lon="8.232365453111566"><ele>314.0</ele><time>2026-04-25T15:44:49Z</time></trkpt><trkpt lat="45.09584499238514" lon="8.232247881770228"><ele>314.0</ele><time>2026-04-25T15:44:50Z</time></trkpt><trkpt lat="45.09590391235874" lon="8.232194358234485"><ele>314.0</ele><time>2026-04-25T15:44:51Z</time></trkpt><trkpt lat="45.096004622687495" lon="8.232146869890299"><ele>316.6</ele><time>2026-04-25T15:44:53Z</time></trkpt><trkpt lat="45.096087133428355" lon="8.23206501043769"><ele>319.2</ele><time>2026-04-25T15:44:55Z</time></trkpt><trkpt lat="45.096163390698955" lon="8.231958552994033"><ele>321.8</ele><time>2026-04-25T15:44:57Z</time></trkpt><trkpt lat="45.096242979187544" lon="8.231839396050177"><ele>324.40000000000003</ele><time>2026-04-25T15:44:59Z</time></trkpt><trkpt lat="45.096302359208096" lon="8.231770061982761"><ele>327.0</ele><time>2026-04-25T15:45:01Z</time></trkpt><trkpt lat="45.096503049131975" lon="8.231672626376287"><ele>321.8</ele><time>2026-04-25T15:45:07Z</time></trkpt><trkpt lat="45.096617033561834" lon="8.23181276070712"><ele>316.6</ele><time>2026-04-25T15:45:10Z</time></trkpt><trkpt lat="45.09663687974683" lon="8.231914757118366"><ele>311.40000000000003</ele><time>2026-04-25T15:45:11Z</time></trkpt><trkpt lat="45.09671593422829" lon="8.23199105931647"><ele>306.20000000000005</ele><time>2026-04-25T15:45:13Z</time></trkpt><trkpt lat="45.09677910614981" lon="8.231971760783633"><ele>301.0</ele><time>2026-04-25T15:45:14Z</time></trkpt><trkpt lat="45.09684154593035" lon="8.231885954922909"><ele>301.0</ele><time>2026-04-25T15:45:15Z</time></trkpt><trkpt lat="45.09689449810366" lon="8.231756569711857"><ele>301.0</ele><time>2026-04-25T15:45:17Z</time></trkpt><trkpt lat="45.09693260255073" lon="8.231683866263433"><ele>301.0</ele><time>2026-04-25T15:45:18Z</time></trkpt><trkpt lat="45.09696963972816" lon="8.231600369318418"><ele>301.0</ele><time>2026-04-25T15:45:19Z</time></trkpt><trkpt lat="45.09702140927689" lon="8.231518862340574"><ele>301.0</ele><time>2026-04-25T15:45:20Z</time></trkpt><trkpt lat="45.097069888090054" lon="8.231461318240322"><ele>301.0</ele><time>2026-04-25T15:45:21Z</time></trkpt><trkpt lat="45.09711727673997" lon="8.231392118855245"><ele>301.0</ele><time>2026-04-25T15:45:22Z</time></trkpt><trkpt lat="45.09716308040039" lon="8.231257731049672"><ele>304.2</ele><time>2026-04-25T15:45:24Z</time></trkpt><trkpt lat="45.09717688285655" lon="8.231133810792274"><ele>307.40000000000003</ele><time>2026-04-25T15:45:27Z</time></trkpt><trkpt lat="45.0972554872345" lon="8.23104417985088"><ele>310.6</ele><time>2026-04-25T15:45:29Z</time></trkpt><trkpt lat="45.097360935932194" lon="8.230929150714115"><ele>313.8</ele><time>2026-04-25T15:45:31Z</time></trkpt><trkpt lat="45.097423019520086" lon="8.230895839077395"><ele>317.0</ele><time>2026-04-25T15:45:32Z</time></trkpt><trkpt lat="45.09751891126846" lon="8.230929195427445"><ele>317.0</ele><time>2026-04-25T15:45:34Z</time></trkpt><trkpt lat="45.09759414463426" lon="8.231019567127822"><ele>317.0</ele><time>2026-04-25T15:45:35Z</time></trkpt><trkpt lat="45.097676497147035" lon="8.231060115784082"><ele>317.0</ele><time>2026-04-25T15:45:36Z</time></trkpt><trkpt lat="45.09774134470233" lon="8.23111075751158"><ele>317.0</ele><time>2026-04-25T15:45:37Z</time></trkpt><trkpt lat="45.097861705837055" lon="8.231138541638666"><ele>317.0</ele><time>2026-04-25T15:45:43Z</time></trkpt><trkpt lat="45.097941314573276" lon="8.231159021683904"><ele>317.0</ele><time>2026-04-25T15:45:48Z</time></trkpt><trkpt lat="45.09802324181737" lon="8.231162158572651"><ele>317.0</ele><time>2026-04-25T15:45:50Z</time></trkpt><trkpt lat="45.09811350069051" lon="8.231192432896009"><ele>317.0</ele><time>2026-04-25T15:45:52Z</time></trkpt><trkpt lat="45.09816584737929" lon="8.231326009915476"><ele>317.0</ele><time>2026-04-25T15:45:54.001Z</time></trkpt><trkpt lat="45.09824582180202" lon="8.23144934512832"><ele>317.0</ele><time>2026-04-25T15:45:56.001Z</time></trkpt><trkpt lat="45.098336760131346" lon="8.231492297941697"><ele>315.6</ele><time>2026-04-25T15:45:58.001Z</time></trkpt><trkpt lat="45.09842095915004" lon="8.231497225996195"><ele>314.2</ele><time>2026-04-25T15:46:02.001Z</time></trkpt><trkpt lat="45.09852309855731" lon="8.231548161225366"><ele>312.8</ele><time>2026-04-25T15:46:05.001Z</time></trkpt><trkpt lat="45.098606109932945" lon="8.231648373856808"><ele>311.4</ele><time>2026-04-25T15:46:07.001Z</time></trkpt><trkpt lat="45.0986579834114" lon="8.231797782723289"><ele>310.0</ele><time>2026-04-25T15:46:09.001Z</time></trkpt><trkpt lat="45.09872009825449" lon="8.2318965935777"><ele>310.0</ele><time>2026-04-25T15:46:11.001Z</time></trkpt><trkpt lat="45.09877678650003" lon="8.231962093609331"><ele>310.0</ele><time>2026-04-25T15:46:12.001Z</time></trkpt><trkpt lat="45.098853373253334" lon="8.232024132555996"><ele>310.0</ele><time>2026-04-25T15:46:13.001Z</time></trkpt><trkpt lat="45.098907932398966" lon="8.232088222546825"><ele>310.0</ele><time>2026-04-25T15:46:14.001Z</time></trkpt><trkpt lat="45.09897403498529" lon="8.232129964488045"><ele>310.0</ele><time>2026-04-25T15:46:15.001Z</time></trkpt><trkpt lat="45.09901390100126" lon="8.232209512585039"><ele>310.0</ele><time>2026-04-25T15:46:16.001Z</time></trkpt><trkpt lat="45.09903562621358" lon="8.232295976140513"><ele>310.0</ele><time>2026-04-25T15:46:17.001Z</time></trkpt><trkpt lat="45.09906421098222" lon="8.23237836445671"><ele>313.0</ele><time>2026-04-25T15:46:18.001Z</time></trkpt><trkpt lat="45.099101675786365" lon="8.23245557704802"><ele>316.0</ele><time>2026-04-25T15:46:19.001Z</time></trkpt><trkpt lat="45.09918069103897" lon="8.232498383766465"><ele>319.0</ele><time>2026-04-25T15:46:21.001Z</time></trkpt><trkpt lat="45.09924791949321" lon="8.232499444626153"><ele>322.0</ele><time>2026-04-25T15:46:23.001Z</time></trkpt><trkpt lat="45.099288031715474" lon="8.232391940038696"><ele>325.0</ele><time>2026-04-25T15:46:25.001Z</time></trkpt><trkpt lat="45.09930973338318" lon="8.23227301284144"><ele>328.0</ele><time>2026-04-25T15:46:26.001Z</time></trkpt><trkpt lat="45.09934588694549" lon="8.232162599472778"><ele>329.0</ele><time>2026-04-25T15:46:27.001Z</time></trkpt><trkpt lat="45.099369748712" lon="8.232035067156572"><ele>330.0</ele><time>2026-04-25T15:46:28.001Z</time></trkpt><trkpt lat="45.09940537820745" lon="8.23192027695084"><ele>331.0</ele><time>2026-04-25T15:46:29.001Z</time></trkpt><trkpt lat="45.09939775213698" lon="8.231764135209048"><ele>332.0</ele><time>2026-04-25T15:46:30.001Z</time></trkpt><trkpt lat="45.09941842797774" lon="8.231648783203688"><ele>333.0</ele><time>2026-04-25T15:46:31.001Z</time></trkpt><trkpt lat="45.0994375433434" lon="8.231536014666519"><ele>334.0</ele><time>2026-04-25T15:46:32.001Z</time></trkpt><trkpt lat="45.09945933916827" lon="8.231448876881968"><ele>335.0</ele><time>2026-04-25T15:46:33.001Z</time></trkpt><trkpt lat="45.099498626926106" lon="8.231294383938637"><ele>336.0</ele><time>2026-04-25T15:46:34.001Z</time></trkpt><trkpt lat="45.09955615790207" lon="8.231130586849849"><ele>337.0</ele><time>2026-04-25T15:46:35.001Z</time></trkpt><trkpt lat="45.09961365114007" lon="8.230987186516101"><ele>338.0</ele><time>2026-04-25T15:46:36.001Z</time></trkpt><trkpt lat="45.099658007483946" lon="8.23088391667261"><ele>338.0</ele><time>2026-04-25T15:46:37.001Z</time></trkpt><trkpt lat="45.09969287354959" lon="8.23078510119283"><ele>338.0</ele><time>2026-04-25T15:46:38.001Z</time></trkpt><trkpt lat="45.09975788072598" lon="8.230669577225745"><ele>338.0</ele><time>2026-04-25T15:46:39.001Z</time></trkpt><trkpt lat="45.099785038738474" lon="8.230546033353372"><ele>338.0</ele><time>2026-04-25T15:46:40.001Z</time></trkpt><trkpt lat="45.09980607348491" lon="8.230444992250758"><ele>338.0</ele><time>2026-04-25T15:46:41.001Z</time></trkpt><trkpt lat="45.0998155207471" lon="8.230335865453636"><ele>338.0</ele><time>2026-04-25T15:46:42.001Z</time></trkpt><trkpt lat="45.09982666449989" lon="8.230231341184831"><ele>339.59999999999997</ele><time>2026-04-25T15:46:43.001Z</time></trkpt><trkpt lat="45.09974792050529" lon="8.23011626930816"><ele>341.2</ele><time>2026-04-25T15:46:44.001Z</time></trkpt><trkpt lat="45.099717858297886" lon="8.229993915361698"><ele>342.8</ele><time>2026-04-25T15:46:45.001Z</time></trkpt><trkpt lat="45.09969297820205" lon="8.229893417483733"><ele>344.4</ele><time>2026-04-25T15:46:46.001Z</time></trkpt><trkpt lat="45.09969617700775" lon="8.229776194778488"><ele>346.0</ele><time>2026-04-25T15:46:47.001Z</time></trkpt><trkpt lat="45.099718800837735" lon="8.229648673714877"><ele>348.3333333333333</ele><time>2026-04-25T15:46:48.001Z</time></trkpt><trkpt lat="45.09972672101931" lon="8.229534867873937"><ele>350.66666666666663</ele><time>2026-04-25T15:46:49.001Z</time></trkpt><trkpt lat="45.09976158162125" lon="8.229431617917795"><ele>353.0</ele><time>2026-04-25T15:46:50.001Z</time></trkpt><trkpt lat="45.09976874659544" lon="8.229313836407506"><ele>355.3333333333333</ele><time>2026-04-25T15:46:51.001Z</time></trkpt><trkpt lat="45.099736742556914" lon="8.229221890481918"><ele>357.6666666666667</ele><time>2026-04-25T15:46:52.001Z</time></trkpt><trkpt lat="45.09967997981861" lon="8.229065962977854"><ele>360.0</ele><time>2026-04-25T15:46:54Z</time></trkpt><trkpt lat="45.09963631714997" lon="8.22899606220795"><ele>362.6</ele><time>2026-04-25T15:46:55Z</time></trkpt><trkpt lat="45.099557988017025" lon="8.228932809473223"><ele>365.2</ele><time>2026-04-25T15:46:57Z</time></trkpt><trkpt lat="45.0994719218123" lon="8.228892373580656"><ele>367.79999999999995</ele><time>2026-04-25T15:46:59Z</time></trkpt><trkpt lat="45.09936054192047" lon="8.22887249362061"><ele>370.4</ele><time>2026-04-25T15:47:01Z</time></trkpt><trkpt lat="45.09927480049763" lon="8.228821875346489"><ele>373.0</ele><time>2026-04-25T15:47:02Z</time></trkpt><trkpt lat="45.09920870191447" lon="8.228786830436484"><ele>373.0</ele><time>2026-04-25T15:47:03Z</time></trkpt><trkpt lat="45.099145964433156" lon="8.228759132903587"><ele>373.0</ele><time>2026-04-25T15:47:04Z</time></trkpt><trkpt lat="45.09907199825411" lon="8.228743712157868"><ele>373.0</ele><time>2026-04-25T15:47:05Z</time></trkpt><trkpt lat="45.09899180957369" lon="8.2287271463184"><ele>373.0</ele><time>2026-04-25T15:47:06Z</time></trkpt><trkpt lat="45.09890046128514" lon="8.228743681320422"><ele>373.0</ele><time>2026-04-25T15:47:07Z</time></trkpt><trkpt lat="45.09881973431075" lon="8.228726820213915"><ele>373.0</ele><time>2026-04-25T15:47:08Z</time></trkpt><trkpt lat="45.09874990609864" lon="8.228723028820818"><ele>372.75</ele><time>2026-04-25T15:47:09Z</time></trkpt><trkpt lat="45.0986466367705" lon="8.228700239785358"><ele>372.5</ele><time>2026-04-25T15:47:11Z</time></trkpt><trkpt lat="45.09854486478996" lon="8.228644939668733"><ele>372.25</ele><time>2026-04-25T15:47:13Z</time></trkpt><trkpt lat="45.098459818672026" lon="8.22858525424395"><ele>372.0</ele><time>2026-04-25T15:47:15Z</time></trkpt><trkpt lat="45.09833054736476" lon="8.228503301136698"><ele>372.00000000000006</ele><time>2026-04-25T15:47:19Z</time></trkpt><trkpt lat="45.09826770116222" lon="8.228486969463313"><ele>372.0</ele><time>2026-04-25T15:47:20Z</time></trkpt><trkpt lat="45.09819021264935" lon="8.228445489157442"><ele>372.0</ele><time>2026-04-25T15:47:21Z</time></trkpt><trkpt lat="45.09812965686386" lon="8.228395413507114"><ele>372.0</ele><time>2026-04-25T15:47:22Z</time></trkpt><trkpt lat="45.098070697920264" lon="8.228344434506353"><ele>372.0</ele><time>2026-04-25T15:47:23Z</time></trkpt><trkpt lat="45.098027300473596" lon="8.228266863095989"><ele>372.00000000000006</ele><time>2026-04-25T15:47:25Z</time></trkpt><trkpt lat="45.098101381777745" lon="8.228230965360392"><ele>372.0</ele><time>2026-04-25T15:47:27Z</time></trkpt><trkpt lat="45.09823225901287" lon="8.228253147990232"><ele>372.0</ele><time>2026-04-25T15:47:29Z</time></trkpt><trkpt lat="45.09837294595731" lon="8.228282576558755"><ele>372.0</ele><time>2026-04-25T15:47:31Z</time></trkpt><trkpt lat="45.098434455440376" lon="8.228253153586222"><ele>372.0</ele><time>2026-04-25T15:47:32Z</time></trkpt><trkpt lat="45.09846837698233" lon="8.228177614624682"><ele>372.0</ele><time>2026-04-25T15:47:33Z</time></trkpt><trkpt lat="45.0985109314646" lon="8.228108065552805"><ele>372.0</ele><time>2026-04-25T15:47:34Z</time></trkpt><trkpt lat="45.098551331460804" lon="8.228031926570301"><ele>372.0</ele><time>2026-04-25T15:47:35Z</time></trkpt><trkpt lat="45.098593245690715" lon="8.227957612639079"><ele>370.6</ele><time>2026-04-25T15:47:36Z</time></trkpt><trkpt lat="45.09867347934349" lon="8.227836507346673"><ele>369.20000000000005</ele><time>2026-04-25T15:47:38Z</time></trkpt><trkpt lat="45.09873372647136" lon="8.227798372658782"><ele>367.8</ele><time>2026-04-25T15:47:39Z</time></trkpt><trkpt lat="45.09879075263056" lon="8.227744567516691"><ele>366.4</ele><time>2026-04-25T15:47:40Z</time></trkpt><trkpt lat="45.09892507557961" lon="8.227729638884654"><ele>365.0</ele><time>2026-04-25T15:47:42Z</time></trkpt><trkpt lat="45.099047998492495" lon="8.227805664624588"><ele>364.0</ele><time>2026-04-25T15:47:44Z</time></trkpt><trkpt lat="45.09911954407474" lon="8.22784238351617"><ele>363.0</ele><time>2026-04-25T15:47:45Z</time></trkpt><trkpt lat="45.09923508691421" lon="8.227836667668049"><ele>362.0</ele><time>2026-04-25T15:47:47Z</time></trkpt><trkpt lat="45.09935893929406" lon="8.227835765696444"><ele>361.0</ele><time>2026-04-25T15:47:49Z</time></trkpt><trkpt lat="45.09943117688664" lon="8.22782732103862"><ele>360.0</ele><time>2026-04-25T15:47:50Z</time></trkpt><trkpt lat="45.09954403518616" lon="8.227827107704748"><ele>360.0</ele><time>2026-04-25T15:47:51Z</time></trkpt><trkpt lat="45.099616519669944" lon="8.22777647806755"><ele>360.0</ele><time>2026-04-25T15:47:52Z</time></trkpt><trkpt lat="45.0996807702337" lon="8.227734607974055"><ele>360.0</ele><time>2026-04-25T15:47:53Z</time></trkpt><trkpt lat="45.09973530447317" lon="8.227674685927123"><ele>360.0</ele><time>2026-04-25T15:47:54Z</time></trkpt><trkpt lat="45.09982001885749" lon="8.227622908325936"><ele>360.0</ele><time>2026-04-25T15:47:55Z</time></trkpt><trkpt lat="45.099934517806915" lon="8.227566971119328"><ele>360.0</ele><time>2026-04-25T15:47:56Z</time></trkpt><trkpt lat="45.10001845143967" lon="8.227482431529179"><ele>360.6666666666667</ele><time>2026-04-25T15:47:57Z</time></trkpt><trkpt lat="45.10008777975743" lon="8.227416272929837"><ele>361.3333333333333</ele><time>2026-04-25T15:47:58Z</time></trkpt><trkpt lat="45.10015154661554" lon="8.227342002228882"><ele>362.0</ele><time>2026-04-25T15:47:59Z</time></trkpt><trkpt lat="45.10022698107838" lon="8.22730266712786"><ele>362.66666666666663</ele><time>2026-04-25T15:48:00Z</time></trkpt><trkpt lat="45.10030379818916" lon="8.22727871720178"><ele>363.3333333333333</ele><time>2026-04-25T15:48:01Z</time></trkpt><trkpt lat="45.100380001522545" lon="8.227202268878377"><ele>364.0</ele><time>2026-04-25T15:48:02Z</time></trkpt><trkpt lat="45.10043255394668" lon="8.227145160864335"><ele>361.0</ele><time>2026-04-25T15:48:03Z</time></trkpt><trkpt lat="45.100467985430164" lon="8.227051718824434"><ele>358.0</ele><time>2026-04-25T15:48:04Z</time></trkpt><trkpt lat="45.10048468068727" lon="8.226946812846247"><ele>355.0</ele><time>2026-04-25T15:48:05Z</time></trkpt><trkpt lat="45.100482842894436" lon="8.226834566724895"><ele>352.0</ele><time>2026-04-25T15:48:06Z</time></trkpt><trkpt lat="45.100467598937264" lon="8.226722482428883"><ele>349.0</ele><time>2026-04-25T15:48:07Z</time></trkpt><trkpt lat="45.100457573661544" lon="8.226574845005546"><ele>346.0</ele><time>2026-04-25T15:48:08Z</time></trkpt><trkpt lat="45.100447455766876" lon="8.226471443002652"><ele>344.3333333333333</ele><time>2026-04-25T15:48:09Z</time></trkpt><trkpt lat="45.10046030330118" lon="8.226381021908432"><ele>342.66666666666663</ele><time>2026-04-25T15:48:10Z</time></trkpt><trkpt lat="45.10048814728997" lon="8.226290686410124"><ele>341.0</ele><time>2026-04-25T15:48:11Z</time></trkpt><trkpt lat="45.10052700238515" lon="8.226197555782853"><ele>339.3333333333333</ele><time>2026-04-25T15:48:12Z</time></trkpt><trkpt lat="45.100586903796064" lon="8.226138592508008"><ele>337.6666666666667</ele><time>2026-04-25T15:48:13Z</time></trkpt><trkpt lat="45.10069604520685" lon="8.226102422321267"><ele>336.0</ele><time>2026-04-25T15:48:14Z</time></trkpt><trkpt lat="45.10080730745262" lon="8.226060389230156"><ele>336.0</ele><time>2026-04-25T15:48:15.001Z</time></trkpt><trkpt lat="45.10090590011451" lon="8.225992842174309"><ele>336.0</ele><time>2026-04-25T15:48:16.001Z</time></trkpt><trkpt lat="45.10099884705816" lon="8.225903044410781"><ele>336.0</ele><time>2026-04-25T15:48:17.001Z</time></trkpt><trkpt lat="45.101061944242936" lon="8.225818218881084"><ele>336.0</ele><time>2026-04-25T15:48:18.001Z</time></trkpt><trkpt lat="45.10112989021716" lon="8.225770412303955"><ele>336.0</ele><time>2026-04-25T15:48:19.001Z</time></trkpt><trkpt lat="45.101198145456365" lon="8.225763691464746"><ele>336.0</ele><time>2026-04-25T15:48:20.001Z</time></trkpt><trkpt lat="45.101268572455794" lon="8.225786410369793"><ele>336.0</ele><time>2026-04-25T15:48:21.001Z</time></trkpt><trkpt lat="45.10134050960244" lon="8.225787454510026"><ele>336.0</ele><time>2026-04-25T15:48:22.001Z</time></trkpt><trkpt lat="45.10142850558014" lon="8.225745179234933"><ele>336.0</ele><time>2026-04-25T15:48:23.001Z</time></trkpt><trkpt lat="45.10149067777406" lon="8.225708116519076"><ele>336.0</ele><time>2026-04-25T15:48:24.001Z</time></trkpt><trkpt lat="45.10153515008461" lon="8.225633692114759"><ele>336.0</ele><time>2026-04-25T15:48:25.001Z</time></trkpt><trkpt lat="45.101592911809355" lon="8.225481891658664"><ele>332.40000000000003</ele><time>2026-04-25T15:48:27.001Z</time></trkpt><trkpt lat="45.101629042444834" lon="8.225337254140594"><ele>328.8</ele><time>2026-04-25T15:48:29.001Z</time></trkpt><trkpt lat="45.10157983030612" lon="8.225247476644643"><ele>325.20000000000005</ele><time>2026-04-25T15:48:30.001Z</time></trkpt><trkpt lat="45.1014960027584" lon="8.225280666594733"><ele>321.6</ele><time>2026-04-25T15:48:35.001Z</time></trkpt><trkpt lat="45.10138485657967" lon="8.225316494842776"><ele>318.0</ele><time>2026-04-25T15:48:37.001Z</time></trkpt><trkpt lat="45.10128480281029" lon="8.225311574674475"><ele>316.4</ele><time>2026-04-25T15:48:38.001Z</time></trkpt><trkpt lat="45.10114907192418" lon="8.22534397534016"><ele>314.8</ele><time>2026-04-25T15:48:39.001Z</time></trkpt><trkpt lat="45.10108078569643" lon="8.225331192495643"><ele>313.2</ele><time>2026-04-25T15:48:40.001Z</time></trkpt><trkpt lat="45.10101295405194" lon="8.2253250962166"><ele>311.6</ele><time>2026-04-25T15:48:41.001Z</time></trkpt><trkpt lat="45.10090453826404" lon="8.225339710773401"><ele>310.0</ele><time>2026-04-25T15:48:43.001Z</time></trkpt><trkpt lat="45.100813536774744" lon="8.22541165176246"><ele>312.4</ele><time>2026-04-25T15:48:45.001Z</time></trkpt><trkpt lat="45.100733555470065" lon="8.2255359466861"><ele>314.8</ele><time>2026-04-25T15:48:47.001Z</time></trkpt><trkpt lat="45.10072235913827" lon="8.225628850069294"><ele>317.20000000000005</ele><time>2026-04-25T15:48:48.001Z</time></trkpt><trkpt lat="45.10070338846557" lon="8.225714754867719"><ele>319.6</ele><time>2026-04-25T15:48:49.001Z</time></trkpt><trkpt lat="45.10059248007312" lon="8.225747376922076"><ele>322.0</ele><time>2026-04-25T15:48:51.001Z</time></trkpt><trkpt lat="45.10044628284605" lon="8.225748905803524"><ele>322.0</ele><time>2026-04-25T15:48:53.001Z</time></trkpt><trkpt lat="45.100365299260176" lon="8.225786720411065"><ele>322.0</ele><time>2026-04-25T15:48:54.001Z</time></trkpt><trkpt lat="45.10028084883664" lon="8.225844114917459"><ele>322.0</ele><time>2026-04-25T15:48:55.001Z</time></trkpt><trkpt lat="45.10019351846671" lon="8.225892093978805"><ele>322.0</ele><time>2026-04-25T15:48:56.001Z</time></trkpt><trkpt lat="45.10010842186049" lon="8.225950270132287"><ele>322.0</ele><time>2026-04-25T15:48:57.001Z</time></trkpt><trkpt lat="45.10003557772382" lon="8.226024809483485"><ele>322.0</ele><time>2026-04-25T15:48:58.001Z</time></trkpt><trkpt lat="45.100016360715216" lon="8.226146626363102"><ele>322.0</ele><time>2026-04-25T15:48:59Z</time></trkpt><trkpt lat="45.099982734140355" lon="8.226226440034935"><ele>322.0</ele><time>2026-04-25T15:49:00Z</time></trkpt><trkpt lat="45.09993425113977" lon="8.226313084581903"><ele>322.0</ele><time>2026-04-25T15:49:02Z</time></trkpt><trkpt lat="45.09989503541959" lon="8.226412771901956"><ele>322.0</ele><time>2026-04-25T15:49:04Z</time></trkpt><trkpt lat="45.09977923755873" lon="8.226449882220637"><ele>322.0</ele><time>2026-04-25T15:49:06Z</time></trkpt><trkpt lat="45.09965958009569" lon="8.22647968635835"><ele>324.6</ele><time>2026-04-25T15:49:08Z</time></trkpt><trkpt lat="45.09955080014716" lon="8.226569169201827"><ele>327.20000000000005</ele><time>2026-04-25T15:49:10Z</time></trkpt><trkpt lat="45.099491586024946" lon="8.226719601458061"><ele>329.8</ele><time>2026-04-25T15:49:12Z</time></trkpt><trkpt lat="45.09945303469452" lon="8.226805787370964"><ele>332.4</ele><time>2026-04-25T15:49:13Z</time></trkpt><trkpt lat="45.0993533073278" lon="8.226881282936244"><ele>335.0</ele><time>2026-04-25T15:49:15Z</time></trkpt><trkpt lat="45.099277225946096" lon="8.22686358599568"><ele>335.0</ele><time>2026-04-25T15:49:16Z</time></trkpt><trkpt lat="45.09921060341684" lon="8.226850713447702"><ele>335.0</ele><time>2026-04-25T15:49:17Z</time></trkpt><trkpt lat="45.099107384126995" lon="8.226866565959902"><ele>335.0</ele><time>2026-04-25T15:49:19Z</time></trkpt><trkpt lat="45.099055102497516" lon="8.22694185750567"><ele>335.0</ele><time>2026-04-25T15:49:20Z</time></trkpt><trkpt lat="45.09898725307332" lon="8.227027210734763"><ele>335.0</ele><time>2026-04-25T15:49:21Z</time></trkpt><trkpt lat="45.09892786752094" lon="8.22708101988651"><ele>335.0</ele><time>2026-04-25T15:49:22Z</time></trkpt><trkpt lat="45.09885655498314" lon="8.227036669457693"><ele>337.2</ele><time>2026-04-25T15:49:24Z</time></trkpt><trkpt lat="45.09884495066218" lon="8.226936555069534"><ele>339.4</ele><time>2026-04-25T15:49:25Z</time></trkpt><trkpt lat="45.09884915036322" lon="8.226778336802754"><ele>341.6</ele><time>2026-04-25T15:49:26Z</time></trkpt><trkpt lat="45.09876296099786" lon="8.22665774504816"><ele>343.8</ele><time>2026-04-25T15:49:28Z</time></trkpt><trkpt lat="45.09867165113321" lon="8.226575022575572"><ele>346.0</ele><time>2026-04-25T15:49:29Z</time></trkpt><trkpt lat="45.09859398508282" lon="8.226480099621844"><ele>348.0</ele><time>2026-04-25T15:49:30Z</time></trkpt><trkpt lat="45.0985449092844" lon="8.22633100024848"><ele>350.0</ele><time>2026-04-25T15:49:31Z</time></trkpt><trkpt lat="45.098504063391246" lon="8.226228306167336"><ele>352.0</ele><time>2026-04-25T15:49:32Z</time></trkpt><trkpt lat="45.09843555745752" lon="8.22613061584721"><ele>354.0</ele><time>2026-04-25T15:49:34Z</time></trkpt><trkpt lat="45.09830724615349" lon="8.22618667682291"><ele>356.0</ele><time>2026-04-25T15:49:36Z</time></trkpt><trkpt lat="45.098212227119" lon="8.226234074272263"><ele>356.0</ele><time>2026-04-25T15:49:38Z</time></trkpt><trkpt lat="45.098136150747756" lon="8.226255992372767"><ele>356.0</ele><time>2026-04-25T15:49:39Z</time></trkpt><trkpt lat="45.09801373698438" lon="8.226304890677445"><ele>356.0</ele><time>2026-04-25T15:49:41Z</time></trkpt><trkpt lat="45.097950706841175" lon="8.226321987254062"><ele>356.0</ele><time>2026-04-25T15:49:42Z</time></trkpt><trkpt lat="45.097913840911005" lon="8.226201455369276"><ele>356.0</ele><time>2026-04-25T15:49:45Z</time></trkpt><trkpt lat="45.097922846971514" lon="8.226047593653346"><ele>356.0</ele><time>2026-04-25T15:49:47Z</time></trkpt><trkpt lat="45.09794885566119" lon="8.225928675266141"><ele>356.0</ele><time>2026-04-25T15:49:49Z</time></trkpt><trkpt lat="45.097882450934144" lon="8.225828399017118"><ele>356.0</ele><time>2026-04-25T15:49:51Z</time></trkpt><trkpt lat="45.09784003389284" lon="8.225716050245426"><ele>356.0</ele><time>2026-04-25T15:49:53Z</time></trkpt><trkpt lat="45.097857642785115" lon="8.225628240932624"><ele>356.0</ele><time>2026-04-25T15:49:54Z</time></trkpt><trkpt lat="45.097935006341274" lon="8.225548330015418"><ele>356.0</ele><time>2026-04-25T15:49:56Z</time></trkpt><trkpt lat="45.09803058945427" lon="8.225533812307136"><ele>357.5</ele><time>2026-04-25T15:49:58Z</time></trkpt><trkpt lat="45.09812717109975" lon="8.225452803882021"><ele>359.0</ele><time>2026-04-25T15:50:00Z</time></trkpt><trkpt lat="45.09818549619944" lon="8.225404622598276"><ele>360.5</ele><time>2026-04-25T15:50:01Z</time></trkpt><trkpt lat="45.09823844282526" lon="8.225352272056533"><ele>362.0</ele><time>2026-04-25T15:50:02Z</time></trkpt><trkpt lat="45.098279767744245" lon="8.225282361766727"><ele>363.5</ele><time>2026-04-25T15:50:03Z</time></trkpt><trkpt lat="45.09836544948732" lon="8.225212679236737"><ele>365.0</ele><time>2026-04-25T15:50:05Z</time></trkpt><trkpt lat="45.09837272744012" lon="8.225109723845547"><ele>355.0</ele><time>2026-04-25T15:50:07Z</time></trkpt><trkpt lat="45.09837778794716" lon="8.224999578531644"><ele>345.0</ele><time>2026-04-25T15:50:09Z</time></trkpt><trkpt lat="45.09859156804701" lon="8.225049861616766"><ele>335.0</ele><time>2026-04-25T15:50:15Z</time></trkpt><trkpt lat="45.098692372509845" lon="8.225034725505278"><ele>325.0</ele><time>2026-04-25T15:50:17Z</time></trkpt><trkpt lat="45.09878985660684" lon="8.224935001645978"><ele>325.16666666666663</ele><time>2026-04-25T15:50:19Z</time></trkpt><trkpt lat="45.098864843516864" lon="8.22480771701936"><ele>325.3333333333333</ele><time>2026-04-25T15:50:21.001Z</time></trkpt><trkpt lat="45.09892657191832" lon="8.224771565701843"><ele>325.5</ele><time>2026-04-25T15:50:22.001Z</time></trkpt><trkpt lat="45.098933347714734" lon="8.224675610184924"><ele>325.6666666666667</ele><time>2026-04-25T15:50:23.001Z</time></trkpt><trkpt lat="45.09899303005351" lon="8.224585336181713"><ele>325.83333333333337</ele><time>2026-04-25T15:50:25.001Z</time></trkpt><trkpt lat="45.09904387425328" lon="8.224530781252037"><ele>326.0</ele><time>2026-04-25T15:50:26.001Z</time></trkpt><trkpt lat="45.09910652822877" lon="8.224515790499709"><ele>326.0</ele><time>2026-04-25T15:50:27.001Z</time></trkpt><trkpt lat="45.09917569290222" lon="8.224494864475025"><ele>326.0</ele><time>2026-04-25T15:50:32.001Z</time></trkpt><trkpt lat="45.09922449359505" lon="8.22443176405746"><ele>326.0</ele><time>2026-04-25T15:50:37.001Z</time></trkpt><trkpt lat="45.09932194438214" lon="8.224410085689488"><ele>326.0</ele><time>2026-04-25T15:50:40.001Z</time></trkpt><trkpt lat="45.09940420949927" lon="8.224384171145983"><ele>326.0</ele><time>2026-04-25T15:50:43.001Z</time></trkpt><trkpt lat="45.09948431221943" lon="8.224329588870647"><ele>326.0</ele><time>2026-04-25T15:50:46.001Z</time></trkpt><trkpt lat="45.099545200609846" lon="8.224291803278753"><ele>326.0</ele><time>2026-04-25T15:50:48.001Z</time></trkpt><trkpt lat="45.09969120317922" lon="8.224137167540837"><ele>326.0</ele><time>2026-04-25T15:51:01.001Z</time></trkpt><trkpt lat="45.09973325919472" lon="8.224016369423245"><ele>326.0</ele><time>2026-04-25T15:51:03.001Z</time></trkpt><trkpt lat="45.0998254125449" lon="8.223970348745441"><ele>326.0</ele><time>2026-04-25T15:51:06Z</time></trkpt><trkpt lat="45.0999142775942" lon="8.223920003531552"><ele>321.0</ele><time>2026-04-25T15:51:08Z</time></trkpt><trkpt lat="45.10000009804689" lon="8.223849184470101"><ele>316.0</ele><time>2026-04-25T15:51:10Z</time></trkpt><trkpt lat="45.10005188025072" lon="8.223796215843507"><ele>311.0</ele><time>2026-04-25T15:51:11Z</time></trkpt><trkpt lat="45.10014192187812" lon="8.223741915181538"><ele>306.0</ele><time>2026-04-25T15:51:13Z</time></trkpt><trkpt lat="45.10021514063659" lon="8.22363859270217"><ele>301.0</ele><time>2026-04-25T15:51:15Z</time></trkpt><trkpt lat="45.10026102327658" lon="8.22347734345599"><ele>301.0</ele><time>2026-04-25T15:51:17Z</time></trkpt><trkpt lat="45.100339726928745" lon="8.22336440762646"><ele>301.0</ele><time>2026-04-25T15:51:19Z</time></trkpt><trkpt lat="45.100390840922834" lon="8.223292195994953"><ele>301.0</ele><time>2026-04-25T15:51:20Z</time></trkpt><trkpt lat="45.100421565165206" lon="8.223174874936214"><ele>301.0</ele><time>2026-04-25T15:51:21Z</time></trkpt><trkpt lat="45.100451016882644" lon="8.223065286720876"><ele>301.0</ele><time>2026-04-25T15:51:22Z</time></trkpt><trkpt lat="45.10046172617338" lon="8.222907622858676"><ele>304.16666666666663</ele><time>2026-04-25T15:51:24Z</time></trkpt><trkpt lat="45.1004894081583" lon="8.222817606414747"><ele>307.3333333333333</ele><time>2026-04-25T15:51:25Z</time></trkpt><trkpt lat="45.10053919998261" lon="8.2227333630534"><ele>310.5</ele><time>2026-04-25T15:51:26Z</time></trkpt><trkpt lat="45.100607302802906" lon="8.222631642924657"><ele>313.6666666666667</ele><time>2026-04-25T15:51:27Z</time></trkpt><trkpt lat="45.10065310705974" lon="8.222528777549917"><ele>316.83333333333337</ele><time>2026-04-25T15:51:28Z</time></trkpt><trkpt lat="45.10069486214877" lon="8.222433791261853"><ele>320.0</ele><time>2026-04-25T15:51:29Z</time></trkpt><trkpt lat="45.10073089323173" lon="8.222329428339759"><ele>321.1666666666667</ele><time>2026-04-25T15:51:30Z</time></trkpt><trkpt lat="45.1007305349235" lon="8.222212440321584"><ele>322.33333333333337</ele><time>2026-04-25T15:51:31Z</time></trkpt><trkpt lat="45.10073335237079" lon="8.222085477878915"><ele>323.5</ele><time>2026-04-25T15:51:32Z</time></trkpt><trkpt lat="45.100761087848625" lon="8.221967413294506"><ele>324.6666666666667</ele><time>2026-04-25T15:51:33Z</time></trkpt><trkpt lat="45.1008022633048" lon="8.221886700345058"><ele>325.8333333333333</ele><time>2026-04-25T15:51:34Z</time></trkpt><trkpt lat="45.10080199131422" lon="8.221772871434709"><ele>327.0</ele><time>2026-04-25T15:51:35Z</time></trkpt><trkpt lat="45.10078770189394" lon="8.221651771522739"><ele>325.20000000000005</ele><time>2026-04-25T15:51:36Z</time></trkpt><trkpt lat="45.10076453596437" lon="8.221552441562036"><ele>323.40000000000003</ele><time>2026-04-25T15:51:37Z</time></trkpt><trkpt lat="45.10074907588971" lon="8.221441837075059"><ele>321.6</ele><time>2026-04-25T15:51:38Z</time></trkpt><trkpt lat="45.100650252419484" lon="8.221368684309716"><ele>319.8</ele><time>2026-04-25T15:51:40Z</time></trkpt><trkpt lat="45.100586525598395" lon="8.221381322530751"><ele>318.0</ele><time>2026-04-25T15:51:41Z</time></trkpt><trkpt lat="45.10046247933436" lon="8.22131244408001"><ele>318.0</ele><time>2026-04-25T15:51:43Z</time></trkpt><trkpt lat="45.10040692964182" lon="8.221242430214685"><ele>318.0</ele><time>2026-04-25T15:51:44Z</time></trkpt><trkpt lat="45.10034969750112" lon="8.221172980903262"><ele>318.0</ele><time>2026-04-25T15:51:45Z</time></trkpt><trkpt lat="45.100294106852274" lon="8.221126722751535"><ele>318.0</ele><time>2026-04-25T15:51:46Z</time></trkpt><trkpt lat="45.100207395094486" lon="8.221065376704464"><ele>318.0</ele><time>2026-04-25T15:51:48Z</time></trkpt><trkpt lat="45.10011451154137" lon="8.220962950590627"><ele>318.0</ele><time>2026-04-25T15:51:50Z</time></trkpt><trkpt lat="45.100064971862814" lon="8.220905668158194"><ele>318.0</ele><time>2026-04-25T15:51:51Z</time></trkpt><trkpt lat="45.09999623780731" lon="8.220786165426876"><ele>318.0</ele><time>2026-04-25T15:51:53Z</time></trkpt><trkpt lat="45.099971132445134" lon="8.220680970364764"><ele>318.0</ele><time>2026-04-25T15:51:56Z</time></trkpt><trkpt lat="45.100041854445635" lon="8.220669790517036"><ele>318.0</ele><time>2026-04-25T15:51:59Z</time></trkpt><trkpt lat="45.10004073119638" lon="8.220579996021158"><ele>318.0</ele><time>2026-04-25T15:52:01Z</time></trkpt><trkpt lat="45.10008882625485" lon="8.220513190915023"><ele>318.0</ele><time>2026-04-25T15:52:06Z</time></trkpt><trkpt lat="45.10022678667859" lon="8.220443097260224"><ele>319.6666666666667</ele><time>2026-04-25T15:52:08Z</time></trkpt><trkpt lat="45.10028025433572" lon="8.220368844200681"><ele>321.3333333333333</ele><time>2026-04-25T15:52:09.001Z</time></trkpt><trkpt lat="45.100305401275854" lon="8.220249161000734"><ele>323.0</ele><time>2026-04-25T15:52:10.001Z</time></trkpt><trkpt lat="45.10031393549027" lon="8.220141972660421"><ele>324.66666666666663</ele><time>2026-04-25T15:52:11.001Z</time></trkpt><trkpt lat="45.100390036218556" lon="8.22007718699685"><ele>326.3333333333333</ele><time>2026-04-25T15:52:13.001Z</time></trkpt><trkpt lat="45.10047723219437" lon="8.220089982647165"><ele>328.0</ele><time>2026-04-25T15:52:14.001Z</time></trkpt><trkpt lat="45.1005383967251" lon="8.220047467586548"><ele>328.0</ele><time>2026-04-25T15:52:15.001Z</time></trkpt><trkpt lat="45.10058303229064" lon="8.219953165761455"><ele>328.0</ele><time>2026-04-25T15:52:16.001Z</time></trkpt><trkpt lat="45.100604092264575" lon="8.219829604953885"><ele>328.0</ele><time>2026-04-25T15:52:17.001Z</time></trkpt><trkpt lat="45.10067778940275" lon="8.219700933602681"><ele>328.0</ele><time>2026-04-25T15:52:18.001Z</time></trkpt><trkpt lat="45.100758503882865" lon="8.219620138790695"><ele>328.0</ele><time>2026-04-25T15:52:19.001Z</time></trkpt><trkpt lat="45.1008219326677" lon="8.21956245340161"><ele>328.59999999999997</ele><time>2026-04-25T15:52:20.001Z</time></trkpt><trkpt lat="45.100920212218135" lon="8.219599579205466"><ele>329.2</ele><time>2026-04-25T15:52:22.001Z</time></trkpt><trkpt lat="45.10104368848453" lon="8.219666920917277"><ele>329.8</ele><time>2026-04-25T15:52:24.001Z</time></trkpt><trkpt lat="45.10113351737355" lon="8.219666105354895"><ele>330.4</ele><time>2026-04-25T15:52:25.001Z</time></trkpt><trkpt lat="45.101197433763836" lon="8.21964553471209"><ele>331.0</ele><time>2026-04-25T15:52:26.001Z</time></trkpt><trkpt lat="45.10124461010103" lon="8.219580017731488"><ele>331.0</ele><time>2026-04-25T15:52:27.001Z</time></trkpt><trkpt lat="45.10126088242871" lon="8.219493196846472"><ele>331.0</ele><time>2026-04-25T15:52:28.001Z</time></trkpt><trkpt lat="45.101254465003855" lon="8.219400801316905"><ele>331.0</ele><time>2026-04-25T15:52:29.001Z</time></trkpt><trkpt lat="45.10122189135735" lon="8.219312165291486"><ele>331.0</ele><time>2026-04-25T15:52:30.001Z</time></trkpt><trkpt lat="45.10118008667932" lon="8.21916513404558"><ele>331.0</ele><time>2026-04-25T15:52:32.001Z</time></trkpt><trkpt lat="45.10118644851289" lon="8.218996846383794"><ele>331.0</ele><time>2026-04-25T15:52:34.001Z</time></trkpt><trkpt lat="45.101167246262044" lon="8.218885811765153"><ele>332.2857142857143</ele><time>2026-04-25T15:52:35.001Z</time></trkpt><trkpt lat="45.10117782781708" lon="8.218776952803468"><ele>333.57142857142856</ele><time>2026-04-25T15:52:36.001Z</time></trkpt><trkpt lat="45.101204009294364" lon="8.2186758615755"><ele>334.8571428571429</ele><time>2026-04-25T15:52:37.001Z</time></trkpt><trkpt lat="45.101262463396665" lon="8.218603706236383"><ele>336.1428571428571</ele><time>2026-04-25T15:52:38.001Z</time></trkpt><trkpt lat="45.101297725885956" lon="8.218503295456031"><ele>337.4285714285714</ele><time>2026-04-25T15:52:39.001Z</time></trkpt><trkpt lat="45.10130544665174" lon="8.218406227237406"><ele>338.7142857142857</ele><time>2026-04-25T15:52:40.001Z</time></trkpt><trkpt lat="45.10131600955956" lon="8.218317050944549"><ele>340.0</ele><time>2026-04-25T15:52:41.001Z</time></trkpt><trkpt lat="45.10137371061508" lon="8.2182813101853"><ele>340.0</ele><time>2026-04-25T15:52:42.001Z</time></trkpt><trkpt lat="45.1014479717794" lon="8.218270165119332"><ele>340.0</ele><time>2026-04-25T15:52:43.001Z</time></trkpt><trkpt lat="45.10154159300127" lon="8.218234959482213"><ele>340.0</ele><time>2026-04-25T15:52:44.001Z</time></trkpt><trkpt lat="45.101627162369915" lon="8.218180468310338"><ele>340.0</ele><time>2026-04-25T15:52:45.001Z</time></trkpt><trkpt lat="45.10169630067835" lon="8.218076810548206"><ele>340.0</ele><time>2026-04-25T15:52:47.001Z</time></trkpt><trkpt lat="45.10172714314813" lon="8.21799732793995"><ele>340.0</ele><time>2026-04-25T15:52:49.001Z</time></trkpt><trkpt lat="45.101787414700745" lon="8.217942371022737"><ele>337.8333333333333</ele><time>2026-04-25T15:52:51.001Z</time></trkpt><trkpt lat="45.10184786354819" lon="8.21788910209171"><ele>335.66666666666663</ele><time>2026-04-25T15:52:52.001Z</time></trkpt><trkpt lat="45.101912914053166" lon="8.217841926286027"><ele>333.5</ele><time>2026-04-25T15:52:53.001Z</time></trkpt><trkpt lat="45.101985307643524" lon="8.217793767290718"><ele>331.3333333333333</ele><time>2026-04-25T15:52:54.001Z</time></trkpt><trkpt lat="45.102092730098946" lon="8.217726016297886"><ele>329.1666666666667</ele><time>2026-04-25T15:52:55.001Z</time></trkpt><trkpt lat="45.10218165199567" lon="8.217665145423286"><ele>327.0</ele><time>2026-04-25T15:52:56.001Z</time></trkpt><trkpt lat="45.10228231258584" lon="8.217600832565845"><ele>327.0</ele><time>2026-04-25T15:52:58.001Z</time></trkpt><trkpt lat="45.10238588623358" lon="8.217505402512813"><ele>327.0</ele><time>2026-04-25T15:53:00.001Z</time></trkpt><trkpt lat="45.10244461727592" lon="8.217405731820062"><ele>327.0</ele><time>2026-04-25T15:53:01.001Z</time></trkpt><trkpt lat="45.102468104829754" lon="8.217317427844655"><ele>327.0</ele><time>2026-04-25T15:53:02.001Z</time></trkpt><trkpt lat="45.102503349739614" lon="8.217174346815776"><ele>327.0</ele><time>2026-04-25T15:53:04.001Z</time></trkpt><trkpt lat="45.10254023373832" lon="8.217087584709725"><ele>324.0</ele><time>2026-04-25T15:53:05.001Z</time></trkpt><trkpt lat="45.10260219617009" lon="8.217012841957278"><ele>321.0</ele><time>2026-04-25T15:53:06.001Z</time></trkpt><trkpt lat="45.10265645701012" lon="8.216956520697856"><ele>318.0</ele><time>2026-04-25T15:53:07.001Z</time></trkpt><trkpt lat="45.102746755490266" lon="8.216933984023965"><ele>315.0</ele><time>2026-04-25T15:53:09.001Z</time></trkpt><trkpt lat="45.10285034008823" lon="8.216925995674355"><ele>312.0</ele><time>2026-04-25T15:53:11Z</time></trkpt><trkpt lat="45.102967129354525" lon="8.216925016634889"><ele>312.0</ele><time>2026-04-25T15:53:13Z</time></trkpt><trkpt lat="45.10303512125824" lon="8.21694255281744"><ele>312.0</ele><time>2026-04-25T15:53:14Z</time></trkpt><trkpt lat="45.103128791544655" lon="8.216892348223249"><ele>312.0</ele><time>2026-04-25T15:53:15Z</time></trkpt><trkpt lat="45.10323333651339" lon="8.21684386325034"><ele>312.0</ele><time>2026-04-25T15:53:17Z</time></trkpt><trkpt lat="45.10330882660079" lon="8.216817824981277"><ele>312.0</ele><time>2026-04-25T15:53:19Z</time></trkpt><trkpt lat="45.10347045936779" lon="8.21683161377494"><ele>311.6666666666667</ele><time>2026-04-25T15:53:22Z</time></trkpt><trkpt lat="45.10354987458349" lon="8.21684559634725"><ele>311.3333333333333</ele><time>2026-04-25T15:53:23Z</time></trkpt><trkpt lat="45.103618956710406" lon="8.216832668066916"><ele>311.0</ele><time>2026-04-25T15:53:24Z</time></trkpt><trkpt lat="45.10370129759855" lon="8.21681049344432"><ele>310.66666666666663</ele><time>2026-04-25T15:53:26Z</time></trkpt><trkpt lat="45.103784550744535" lon="8.216837819449735"><ele>310.3333333333333</ele><time>2026-04-25T15:53:30Z</time></trkpt><trkpt lat="45.10384168572865" lon="8.216881387765627"><ele>310.0</ele><time>2026-04-25T15:53:32Z</time></trkpt><trkpt lat="45.10392710656198" lon="8.216988138815797"><ele>310.0</ele><time>2026-04-25T15:53:34Z</time></trkpt><trkpt lat="45.10402255645582" lon="8.217076947671965"><ele>310.0</ele><time>2026-04-25T15:53:36Z</time></trkpt><trkpt lat="45.10410156727936" lon="8.217154605959442"><ele>310.0</ele><time>2026-04-25T15:53:38Z</time></trkpt><trkpt lat="45.10421764747986" lon="8.217187534457754"><ele>310.0</ele><time>2026-04-25T15:53:40Z</time></trkpt><trkpt lat="45.10431455145111" lon="8.217235526879051"><ele>310.0</ele><time>2026-04-25T15:53:42Z</time></trkpt><trkpt lat="45.10438932513447" lon="8.217329381486767"><ele>308.8333333333333</ele><time>2026-04-25T15:54:44.001Z</time></trkpt><trkpt lat="45.104451970054605" lon="8.217354000764802"><ele>307.66666666666663</ele><time>2026-04-25T15:54:52.001Z</time></trkpt><trkpt lat="45.10451887072054" lon="8.217361828311395"><ele>306.5</ele><time>2026-04-25T15:55:25Z</time></trkpt><trkpt lat="45.104568661792335" lon="8.217432913159673"><ele>305.3333333333333</ele><time>2026-04-25T15:55:46Z</time></trkpt><trkpt lat="45.104603958269664" lon="8.217554077036077"><ele>304.1666666666667</ele><time>2026-04-25T15:55:48Z</time></trkpt><trkpt lat="45.10467019810189" lon="8.217634439852768"><ele>303.0</ele><time>2026-04-25T15:55:50Z</time></trkpt><trkpt lat="45.1047314750891" lon="8.217706643496323"><ele>303.0</ele><time>2026-04-25T15:55:52Z</time></trkpt><trkpt lat="45.10479749028233" lon="8.217796121036407"><ele>303.0</ele><time>2026-04-25T15:55:54.001Z</time></trkpt><trkpt lat="45.10487043368009" lon="8.21787415105896"><ele>303.0</ele><time>2026-04-25T15:55:56.001Z</time></trkpt><trkpt lat="45.10497164547909" lon="8.217958079281745"><ele>303.0</ele><time>2026-04-25T15:55:58.001Z</time></trkpt><trkpt lat="45.105045904848446" lon="8.218025266527343"><ele>303.0</ele><time>2026-04-25T15:56:00.001Z</time></trkpt><trkpt lat="45.10511183388918" lon="8.218086341601305"><ele>299.5</ele><time>2026-04-25T15:56:02.001Z</time></trkpt><trkpt lat="45.10519002637043" lon="8.218175154808593"><ele>296.0</ele><time>2026-04-25T15:56:04.001Z</time></trkpt><trkpt lat="45.105296849988434" lon="8.218289906413146"><ele>292.5</ele><time>2026-04-25T15:56:06.001Z</time></trkpt><trkpt lat="45.10539565376745" lon="8.21836357797905"><ele>289.0</ele><time>2026-04-25T15:56:08.001Z</time></trkpt><trkpt lat="45.10551639143201" lon="8.218333043279017"><ele>289.0</ele><time>2026-04-25T15:56:10.001Z</time></trkpt><trkpt lat="45.105586393925556" lon="8.218300344525995"><ele>289.0</ele><time>2026-04-25T15:56:11.001Z</time></trkpt><trkpt lat="45.10570494848434" lon="8.218293159219467"><ele>289.0</ele><time>2026-04-25T15:56:13.001Z</time></trkpt><trkpt lat="45.10579769390332" lon="8.218310703506559"><ele>289.0</ele><time>2026-04-25T15:56:15.001Z</time></trkpt><trkpt lat="45.105858032430724" lon="8.218281648818289"><ele>289.0</ele><time>2026-04-25T15:56:17.001Z</time></trkpt><trkpt lat="45.10593703179816" lon="8.218320615234733"><ele>289.0</ele><time>2026-04-25T15:56:26.001Z</time></trkpt><trkpt lat="45.106045128229425" lon="8.218334285345732"><ele>288.8</ele><time>2026-04-25T15:56:29.001Z</time></trkpt><trkpt lat="45.1062714317346" lon="8.218348837455155"><ele>288.59999999999997</ele><time>2026-04-25T15:56:34.001Z</time></trkpt><trkpt lat="45.106339156706916" lon="8.21834825114909"><ele>288.4</ele><time>2026-04-25T15:56:35.001Z</time></trkpt><trkpt lat="45.106402743947775" lon="8.218309728239767"><ele>288.2</ele><time>2026-04-25T15:56:39.001Z</time></trkpt><trkpt lat="45.10646860342042" lon="8.218299111120846"><ele>288.0</ele><time>2026-04-25T15:56:42.001Z</time></trkpt><trkpt lat="45.10654108410336" lon="8.21824266400242"><ele>283.6666666666667</ele><time>2026-04-25T15:56:45.001Z</time></trkpt><trkpt lat="45.1066316821505" lon="8.218240693046745"><ele>279.3333333333333</ele><time>2026-04-25T15:56:47.001Z</time></trkpt><trkpt lat="45.106720667152594" lon="8.218282320761602"><ele>275.0</ele><time>2026-04-25T15:56:49.001Z</time></trkpt><trkpt lat="45.10678769782344" lon="8.218320170627988"><ele>270.66666666666663</ele><time>2026-04-25T15:56:58.001Z</time></trkpt><trkpt lat="45.106836936350085" lon="8.218404684909773"><ele>266.3333333333333</ele><time>2026-04-25T16:02:29Z</time></trkpt><trkpt lat="45.106871613732906" lon="8.218487184445175"><ele>262.0</ele><time>2026-04-25T16:02:47Z</time></trkpt><trkpt lat="45.106899986886724" lon="8.218581449746038"><ele>262.0</ele><time>2026-04-25T16:02:51Z</time></trkpt><trkpt lat="45.10689425993405" lon="8.21867285601465"><ele>262.0</ele><time>2026-04-25T16:02:54Z</time></trkpt><trkpt lat="45.106927298458025" lon="8.218753245849316"><ele>262.0</ele><time>2026-04-25T16:02:58.001Z</time></trkpt><trkpt lat="45.10699633539589" lon="8.218784659104129"><ele>262.0</ele><time>2026-04-25T16:03:01.001Z</time></trkpt><trkpt lat="45.10706381891085" lon="8.218745464980925"><ele>262.0</ele><time>2026-04-25T16:03:03.001Z</time></trkpt><trkpt lat="45.10714502721859" lon="8.21872457416202"><ele>262.0</ele><time>2026-04-25T16:03:07.001Z</time></trkpt><trkpt lat="45.1072171098638" lon="8.218712870265714"><ele>262.0</ele><time>2026-04-25T16:03:10.001Z</time></trkpt><trkpt lat="45.1072963801583" lon="8.218717334223696"><ele>262.0</ele><time>2026-04-25T16:03:13.001Z</time></trkpt><trkpt lat="45.10735974220381" lon="8.218672557087848"><ele>262.0</ele><time>2026-04-25T16:03:18.001Z</time></trkpt><trkpt lat="45.107429562335966" lon="8.218686393655062"><ele>262.0</ele><time>2026-04-25T16:03:27.001Z</time></trkpt><trkpt lat="45.10749845475239" lon="8.218702209674793"><ele>262.0</ele><time>2026-04-25T16:03:36.001Z</time></trkpt><trkpt lat="45.10755782624047" lon="8.21873977496961"><ele>262.0</ele><time>2026-04-25T16:03:38.001Z</time></trkpt><trkpt lat="45.107619220017384" lon="8.218806139544476"><ele>262.0</ele><time>2026-04-25T16:03:40.001Z</time></trkpt><trkpt lat="45.1077343202461" lon="8.218798288375883"><ele>258.4</ele><time>2026-04-25T16:03:56Z</time></trkpt><trkpt lat="45.10783044032001" lon="8.218801602738061"><ele>254.79999999999998</ele><time>2026-04-25T16:04:44Z</time></trkpt><trkpt lat="45.107877421914196" lon="8.21887223874655"><ele>251.2</ele><time>2026-04-25T16:05:07Z</time></trkpt><trkpt lat="45.10793406732814" lon="8.218933771272244"><ele>247.6</ele><time>2026-04-25T16:05:09Z</time></trkpt><trkpt lat="45.10802359434398" lon="8.218974799156934"><ele>244.0</ele><time>2026-04-25T16:05:11Z</time></trkpt><trkpt lat="45.10814271924839" lon="8.218871231196061"><ele>243.99999999999997</ele><time>2026-04-25T16:05:14Z</time></trkpt><trkpt lat="45.10820158391085" lon="8.218828870449348"><ele>244.0</ele><time>2026-04-25T16:05:15Z</time></trkpt><trkpt lat="45.108263812406456" lon="8.218786024895785"><ele>244.0</ele><time>2026-04-25T16:05:16Z</time></trkpt><trkpt lat="45.108336554976596" lon="8.21879629447433"><ele>244.0</ele><time>2026-04-25T16:05:18Z</time></trkpt><trkpt lat="45.10841594841391" lon="8.21886383394861"><ele>243.99999999999997</ele><time>2026-04-25T16:05:20Z</time></trkpt><trkpt lat="45.10852102250372" lon="8.218917732359708"><ele>244.0</ele><time>2026-04-25T16:05:22Z</time></trkpt><trkpt lat="45.108611207416146" lon="8.218996334844633"><ele>240.6</ele><time>2026-04-25T16:05:24Z</time></trkpt><trkpt lat="45.10867036148912" lon="8.2190447740588"><ele>237.2</ele><time>2026-04-25T16:05:26Z</time></trkpt><trkpt lat="45.10879894802466" lon="8.21904217650191"><ele>233.79999999999998</ele><time>2026-04-25T16:05:50Z</time></trkpt><trkpt lat="45.10887697021142" lon="8.219050166674325"><ele>230.39999999999998</ele><time>2026-04-25T16:05:53Z</time></trkpt><trkpt lat="45.10899628962391" lon="8.219050783879554"><ele>227.0</ele><time>2026-04-25T16:06:01Z</time></trkpt><trkpt lat="45.109072801910095" lon="8.219078993456097"><ele>225.16666666666669</ele><time>2026-04-25T16:06:04Z</time></trkpt><trkpt lat="45.10915198585014" lon="8.21910432392813"><ele>223.33333333333334</ele><time>2026-04-25T16:06:06Z</time></trkpt><trkpt lat="45.10922701108786" lon="8.219076570942438"><ele>221.5</ele><time>2026-04-25T16:06:09Z</time></trkpt><trkpt lat="45.10929489508506" lon="8.21904734322937"><ele>219.66666666666669</ele><time>2026-04-25T16:06:13Z</time></trkpt><trkpt lat="45.109376153256534" lon="8.219015840267144"><ele>217.83333333333334</ele><time>2026-04-25T16:06:18Z</time></trkpt><trkpt lat="45.10943471123733" lon="8.218968228951846"><ele>216.0</ele><time>2026-04-25T16:06:23Z</time></trkpt><trkpt lat="45.10943418792019" lon="8.21885339850359"><ele>215.0</ele><time>2026-04-25T16:06:29Z</time></trkpt><trkpt lat="45.109414261765544" lon="8.218732583522117"><ele>214.0</ele><time>2026-04-25T16:06:32Z</time></trkpt><trkpt lat="45.10940657356488" lon="8.2186039522733"><ele>213.0</ele><time>2026-04-25T16:06:34Z</time></trkpt><trkpt lat="45.1093839852971" lon="8.21849923576369"><ele>212.0</ele><time>2026-04-25T16:06:36Z</time></trkpt><trkpt lat="45.109149899882354" lon="8.218445420598455"><ele>215.00000000000003</ele><time>2026-04-25T16:06:41Z</time></trkpt><trkpt lat="45.10904116151773" lon="8.218443332664446"><ele>218.0</ele><time>2026-04-25T16:06:43Z</time></trkpt><trkpt lat="45.10896370248193" lon="8.21844232758202"><ele>221.0</ele><time>2026-04-25T16:06:45Z</time></trkpt><trkpt lat="45.10890561578331" lon="8.218381980966937"><ele>224.0</ele><time>2026-04-25T16:06:47Z</time></trkpt><trkpt lat="45.1088415774068" lon="8.21836103941395"><ele>227.00000000000003</ele><time>2026-04-25T16:06:49Z</time></trkpt><trkpt lat="45.10875912377199" lon="8.21834034696033"><ele>230.0</ele><time>2026-04-25T16:06:51Z</time></trkpt><trkpt lat="45.108681509101785" lon="8.218308976987379"><ele>230.00000000000003</ele><time>2026-04-25T16:06:53Z</time></trkpt><trkpt lat="45.108592445401115" lon="8.218277887881248"><ele>230.0</ele><time>2026-04-25T16:06:57Z</time></trkpt><trkpt lat="45.108516863614206" lon="8.218259403419511"><ele>230.0</ele><time>2026-04-25T16:06:59Z</time></trkpt><trkpt lat="45.10845112108888" lon="8.218246013080964"><ele>230.0</ele><time>2026-04-25T16:07:05Z</time></trkpt><trkpt lat="45.10833860070278" lon="8.218255939141613"><ele>230.00000000000003</ele><time>2026-04-25T16:07:07Z</time></trkpt><trkpt lat="45.108257952357135" lon="8.218191370033066"><ele>230.0</ele><time>2026-04-25T16:07:11Z</time></trkpt><trkpt lat="45.1082518440723" lon="8.218088198856282"><ele>229.85714285714283</ele><time>2026-04-25T16:07:13Z</time></trkpt><trkpt lat="45.10825759769373" lon="8.217995522096853"><ele>229.71428571428572</ele><time>2026-04-25T16:07:32Z</time></trkpt><trkpt lat="45.108277363005094" lon="8.217898119864449"><ele>229.57142857142856</ele><time>2026-04-25T16:07:36Z</time></trkpt><trkpt lat="45.10822209818734" lon="8.217799267371205"><ele>229.42857142857142</ele><time>2026-04-25T16:07:39Z</time></trkpt><trkpt lat="45.10814646456494" lon="8.21778001823129"><ele>229.28571428571428</ele><time>2026-04-25T16:07:41Z</time></trkpt><trkpt lat="45.10817052210769" lon="8.217687798389743"><ele>229.14285714285714</ele><time>2026-04-25T16:07:44Z</time></trkpt><trkpt lat="45.10818033661784" lon="8.217591935255518"><ele>229.0</ele><time>2026-04-25T16:07:47Z</time></trkpt><trkpt lat="45.10817921408734" lon="8.217488676437402"><ele>232.99999999999997</ele><time>2026-04-25T16:07:50Z</time></trkpt><trkpt lat="45.10816342117857" lon="8.21739524339122"><ele>237.0</ele><time>2026-04-25T16:07:53Z</time></trkpt><trkpt lat="45.10818778770792" lon="8.217266982569656"><ele>241.0</ele><time>2026-04-25T16:07:56Z</time></trkpt><trkpt lat="45.10819069319133" lon="8.21717475017375"><ele>245.0</ele><time>2026-04-25T16:07:57Z</time></trkpt><trkpt lat="45.1081707904222" lon="8.217072086143531"><ele>248.99999999999997</ele><time>2026-04-25T16:07:58Z</time></trkpt><trkpt lat="45.10814935385293" lon="8.216956037486584"><ele>253.0</ele><time>2026-04-25T16:08:00Z</time></trkpt><trkpt lat="45.10819758368205" lon="8.216864294596606"><ele>252.99999999999997</ele><time>2026-04-25T16:08:02Z</time></trkpt><trkpt lat="45.108202355020694" lon="8.21669572984936"><ele>253.0</ele><time>2026-04-25T16:08:04Z</time></trkpt><trkpt lat="45.10815801280815" lon="8.216624066470855"><ele>253.0</ele><time>2026-04-25T16:08:06Z</time></trkpt><trkpt lat="45.1080955218644" lon="8.216569912359708"><ele>253.0</ele><time>2026-04-25T16:08:08Z</time></trkpt><trkpt lat="45.108061420767214" lon="8.216459002337114"><ele>252.99999999999997</ele><time>2026-04-25T16:08:10Z</time></trkpt><trkpt lat="45.10797910682148" lon="8.216396868790106"><ele>253.0</ele><time>2026-04-25T16:08:12Z</time></trkpt><trkpt lat="45.1079632798252" lon="8.216310445455035"><ele>253.0</ele><time>2026-04-25T16:08:14Z</time></trkpt><trkpt lat="45.107997352978444" lon="8.216200728774664"><ele>253.0</ele><time>2026-04-25T16:08:16Z</time></trkpt><trkpt lat="45.10799633217679" lon="8.216111240955929"><ele>253.0</ele><time>2026-04-25T16:08:18Z</time></trkpt><trkpt lat="45.10790301910684" lon="8.216013061335692"><ele>253.0</ele><time>2026-04-25T16:08:20Z</time></trkpt><trkpt lat="45.107824152729556" lon="8.21592696465685"><ele>253.0</ele><time>2026-04-25T16:08:22Z</time></trkpt><trkpt lat="45.10774489234151" lon="8.21584587763185"><ele>252.99999999999997</ele><time>2026-04-25T16:08:24Z</time></trkpt><trkpt lat="45.10780152707921" lon="8.215799595787901"><ele>253.0</ele><time>2026-04-25T16:08:26Z</time></trkpt><trkpt lat="45.10785412738404" lon="8.215737384700944"><ele>253.0</ele><time>2026-04-25T16:08:27Z</time></trkpt><trkpt lat="45.107934980832006" lon="8.215610091279569"><ele>253.0</ele><time>2026-04-25T16:08:28Z</time></trkpt><trkpt lat="45.10800716888157" lon="8.21551171962305"><ele>252.99999999999997</ele><time>2026-04-25T16:08:29Z</time></trkpt><trkpt lat="45.10808154776685" lon="8.215460341001252"><ele>253.0</ele><time>2026-04-25T16:08:30Z</time></trkpt><trkpt lat="45.1081605972833" lon="8.215427888187339"><ele>248.2</ele><time>2026-04-25T16:08:31Z</time></trkpt><trkpt lat="45.10825300372208" lon="8.21537821053117"><ele>243.4</ele><time>2026-04-25T16:08:33Z</time></trkpt><trkpt lat="45.108314438498425" lon="8.215330269259466"><ele>238.59999999999997</ele><time>2026-04-25T16:08:35Z</time></trkpt><trkpt lat="45.108327145831915" lon="8.215198840801717"><ele>233.79999999999998</ele><time>2026-04-25T16:08:37Z</time></trkpt><trkpt lat="45.1083587126081" lon="8.215022335963313"><ele>229.0</ele><time>2026-04-25T16:08:39Z</time></trkpt><trkpt lat="45.10836962326663" lon="8.214896885038835"><ele>228.66666666666666</ele><time>2026-04-25T16:08:41Z</time></trkpt><trkpt lat="45.10831520853681" lon="8.214797432598504"><ele>228.33333333333331</ele><time>2026-04-25T16:08:43Z</time></trkpt><trkpt lat="45.10826361661487" lon="8.214712138375404"><ele>228.0</ele><time>2026-04-25T16:08:44Z</time></trkpt><trkpt lat="45.108243238518924" lon="8.214605371674457"><ele>227.66666666666669</ele><time>2026-04-25T16:08:45Z</time></trkpt><trkpt lat="45.10821491171098" lon="8.214484632171509"><ele>227.33333333333334</ele><time>2026-04-25T16:08:46Z</time></trkpt><trkpt lat="45.1081931116065" lon="8.214384072263663"><ele>227.0</ele><time>2026-04-25T16:08:47Z</time></trkpt><trkpt lat="45.108207179243536" lon="8.214250024458707"><ele>227.0</ele><time>2026-04-25T16:08:49Z</time></trkpt><trkpt lat="45.1082996776861" lon="8.214187598198516"><ele>227.0</ele><time>2026-04-25T16:08:51Z</time></trkpt><trkpt lat="45.1083924322237" lon="8.214106112984249"><ele>227.0</ele><time>2026-04-25T16:08:53Z</time></trkpt><trkpt lat="45.10847168396423" lon="8.214015695415473"><ele>227.0</ele><time>2026-04-25T16:08:55Z</time></trkpt><trkpt lat="45.10854458074356" lon="8.213918082704593"><ele>227.0</ele><time>2026-04-25T16:08:57Z</time></trkpt><trkpt lat="45.10860419025082" lon="8.213838423629282"><ele>225.2</ele><time>2026-04-25T16:08:59Z</time></trkpt><trkpt lat="45.10866834999131" lon="8.213748341399347"><ele>223.39999999999998</ele><time>2026-04-25T16:09:01Z</time></trkpt><trkpt lat="45.10873487474749" lon="8.213657815302067"><ele>221.60000000000002</ele><time>2026-04-25T16:09:03Z</time></trkpt><trkpt lat="45.10881255499579" lon="8.213570658164931"><ele>219.8</ele><time>2026-04-25T16:09:05Z</time></trkpt><trkpt lat="45.10889831369889" lon="8.213497480182298"><ele>218.0</ele><time>2026-04-25T16:09:07Z</time></trkpt><trkpt lat="45.10904056871224" lon="8.213479721471096"><ele>213.2</ele><time>2026-04-25T16:09:10Z</time></trkpt><trkpt lat="45.10912647102614" lon="8.21343559618279"><ele>208.4</ele><time>2026-04-25T16:09:13Z</time></trkpt><trkpt lat="45.10918483752626" lon="8.213381603350573"><ele>203.6</ele><time>2026-04-25T16:09:15Z</time></trkpt><trkpt lat="45.10922678486624" lon="8.2132960400446"><ele>198.79999999999998</ele><time>2026-04-25T16:09:17Z</time></trkpt><trkpt lat="45.10928248852652" lon="8.213204073819066"><ele>194.0</ele><time>2026-04-25T16:09:19Z</time></trkpt><trkpt lat="45.10942804674718" lon="8.213173751946243"><ele>194.0</ele><time>2026-04-25T16:12:23Z</time></trkpt><trkpt lat="45.10951314210033" lon="8.21323201177273"><ele>194.0</ele><time>2026-04-25T16:12:25Z</time></trkpt><trkpt lat="45.10960697397401" lon="8.213302230562066"><ele>194.0</ele><time>2026-04-25T16:12:27Z</time></trkpt><trkpt lat="45.10967321076552" lon="8.213340322840345"><ele>194.0</ele><time>2026-04-25T16:12:28Z</time></trkpt><trkpt lat="45.109762143199575" lon="8.213360789517237"><ele>194.0</ele><time>2026-04-25T16:12:29Z</time></trkpt><trkpt lat="45.10986497398458" lon="8.213356593991113"><ele>190.0</ele><time>2026-04-25T16:12:30Z</time></trkpt><trkpt lat="45.10996848901388" lon="8.213310394843296"><ele>186.0</ele><time>2026-04-25T16:12:31Z</time></trkpt><trkpt lat="45.11007656850289" lon="8.213278083143752"><ele>182.0</ele><time>2026-04-25T16:12:32Z</time></trkpt><trkpt lat="45.11019693532578" lon="8.213222712043114"><ele>178.0</ele><time>2026-04-25T16:12:33Z</time></trkpt><trkpt lat="45.11031204765123" lon="8.213166936782155"><ele>179.0</ele><time>2026-04-25T16:12:34Z</time></trkpt><trkpt lat="45.1104259789568" lon="8.213102880741655"><ele>180.0</ele><time>2026-04-25T16:12:35Z</time></trkpt><trkpt lat="45.11053592405421" lon="8.213027792472236"><ele>181.0</ele><time>2026-04-25T16:12:36Z</time></trkpt><trkpt lat="45.110660785873556" lon="8.212979469719397"><ele>182.0</ele><time>2026-04-25T16:12:37Z</time></trkpt><trkpt lat="45.11079297349261" lon="8.212950743565928"><ele>179.75</ele><time>2026-04-25T16:12:38Z</time></trkpt><trkpt lat="45.110920807610356" lon="8.212901213227651"><ele>177.5</ele><time>2026-04-25T16:12:39Z</time></trkpt><trkpt lat="45.111045826885814" lon="8.21282938528321"><ele>175.25</ele><time>2026-04-25T16:12:40Z</time></trkpt><trkpt lat="45.11118143033176" lon="8.212792045221311"><ele>173.0</ele><time>2026-04-25T16:12:41Z</time></trkpt><trkpt lat="45.1113094913375" lon="8.212732761167892"><ele>173.0</ele><time>2026-04-25T16:12:42Z</time></trkpt><trkpt lat="45.11144420051298" lon="8.212717309048978"><ele>173.0</ele><time>2026-04-25T16:12:43Z</time></trkpt><trkpt lat="45.11158187827844" lon="8.212689711481962"><ele>173.0</ele><time>2026-04-25T16:12:44Z</time></trkpt><trkpt lat="45.111723341773775" lon="8.212652357761257"><ele>173.0</ele><time>2026-04-25T16:12:45Z</time></trkpt><trkpt lat="45.1118577550395" lon="8.212586667182025"><ele>172.5</ele><time>2026-04-25T16:12:46Z</time></trkpt><trkpt lat="45.11198404417633" lon="8.212495646290366"><ele>172.0</ele><time>2026-04-25T16:12:47Z</time></trkpt><trkpt lat="45.112119917299836" lon="8.212428767548404"><ele>171.5</ele><time>2026-04-25T16:12:48Z</time></trkpt><trkpt lat="45.11225790072051" lon="8.212354822546533"><ele>171.0</ele><time>2026-04-25T16:12:49Z</time></trkpt><trkpt lat="45.11238526336302" lon="8.212289630839834"><ele>170.5</ele><time>2026-04-25T16:12:50Z</time></trkpt><trkpt lat="45.11250489093791" lon="8.212229257175597"><ele>170.0</ele><time>2026-04-25T16:12:51Z</time></trkpt><trkpt lat="45.11262279588799" lon="8.212146799251599"><ele>169.5</ele><time>2026-04-25T16:12:52Z</time></trkpt><trkpt lat="45.11275640549373" lon="8.212096676744645"><ele>169.0</ele><time>2026-04-25T16:12:53Z</time></trkpt><trkpt lat="45.11287943412138" lon="8.212056435383058"><ele>169.0</ele><time>2026-04-25T16:12:54Z</time></trkpt><trkpt lat="45.112992443022335" lon="8.212012316397551"><ele>169.0</ele><time>2026-04-25T16:12:55Z</time></trkpt><trkpt lat="45.113121089623895" lon="8.211996685605275"><ele>169.0</ele><time>2026-04-25T16:12:56Z</time></trkpt><trkpt lat="45.11324270138114" lon="8.211963661110575"><ele>169.0</ele><time>2026-04-25T16:12:57Z</time></trkpt><trkpt lat="45.11335038661194" lon="8.211924398526067"><ele>169.79999999999998</ele><time>2026-04-25T16:12:58Z</time></trkpt><trkpt lat="45.11344297474938" lon="8.211841354043669"><ele>170.6</ele><time>2026-04-25T16:12:59Z</time></trkpt><trkpt lat="45.113518786393996" lon="8.211786309659537"><ele>171.4</ele><time>2026-04-25T16:13:00Z</time></trkpt><trkpt lat="45.11358677213867" lon="8.211744459875627"><ele>172.2</ele><time>2026-04-25T16:13:02Z</time></trkpt><trkpt lat="45.11364768848709" lon="8.211685291110165"><ele>173.0</ele><time>2026-04-25T16:13:11Z</time></trkpt><trkpt lat="45.11374599558674" lon="8.211747101511264"><ele>173.0</ele><time>2026-04-25T16:13:13Z</time></trkpt><trkpt lat="45.11380327069646" lon="8.211811959598254"><ele>173.0</ele><time>2026-04-25T16:13:14Z</time></trkpt><trkpt lat="45.113865765821025" lon="8.211873610770542"><ele>173.0</ele><time>2026-04-25T16:13:15Z</time></trkpt><trkpt lat="45.113959827915565" lon="8.211982308576992"><ele>173.0</ele><time>2026-04-25T16:13:17Z</time></trkpt><trkpt lat="45.114016610336186" lon="8.212023772984496"><ele>173.0</ele><time>2026-04-25T16:13:19Z</time></trkpt><trkpt lat="45.1141474091115" lon="8.211844369148375"><ele>172.8</ele><time>2026-04-25T16:13:20Z</time></trkpt><trkpt lat="45.114198344328855" lon="8.211761696528516"><ele>172.60000000000002</ele><time>2026-04-25T16:13:21Z</time></trkpt><trkpt lat="45.114262575855925" lon="8.211663762928502"><ele>172.39999999999998</ele><time>2026-04-25T16:13:22Z</time></trkpt><trkpt lat="45.11432579614301" lon="8.211572372074256"><ele>172.2</ele><time>2026-04-25T16:13:23Z</time></trkpt><trkpt lat="45.11439378666732" lon="8.21147443734372"><ele>172.0</ele><time>2026-04-25T16:13:24Z</time></trkpt><trkpt lat="45.114449587932775" lon="8.211345028448713"><ele>172.8</ele><time>2026-04-25T16:13:25Z</time></trkpt><trkpt lat="45.11452284679101" lon="8.211243285304267"><ele>173.6</ele><time>2026-04-25T16:13:26Z</time></trkpt><trkpt lat="45.11457366077151" lon="8.211124661243307"><ele>174.4</ele><time>2026-04-25T16:13:27Z</time></trkpt><trkpt lat="45.114620802800445" lon="8.210999746555277"><ele>175.20000000000002</ele><time>2026-04-25T16:13:28Z</time></trkpt><trkpt lat="45.114651483490526" lon="8.2108834579914"><ele>176.0</ele><time>2026-04-25T16:13:29Z</time></trkpt><trkpt lat="45.11465175892019" lon="8.21076260934228"><ele>177.0</ele><time>2026-04-25T16:13:30.001Z</time></trkpt><trkpt lat="45.11464673032798" lon="8.210650284885679"><ele>178.0</ele><time>2026-04-25T16:13:31.001Z</time></trkpt><trkpt lat="45.11461347171069" lon="8.210546733324916"><ele>179.0</ele><time>2026-04-25T16:13:32.001Z</time></trkpt><trkpt lat="45.1145562041856" lon="8.21046159660155"><ele>180.0</ele><time>2026-04-25T16:13:33.001Z</time></trkpt><trkpt lat="45.114505041240214" lon="8.210390177579134"><ele>181.0</ele><time>2026-04-25T16:13:34.001Z</time></trkpt><trkpt lat="45.11448872913786" lon="8.21030223674629"><ele>182.0</ele><time>2026-04-25T16:13:35.001Z</time></trkpt><trkpt lat="45.11451974552025" lon="8.210201456391793"><ele>182.0</ele><time>2026-04-25T16:13:36.001Z</time></trkpt><trkpt lat="45.114518399819694" lon="8.210083909365832"><ele>182.0</ele><time>2026-04-25T16:13:37.001Z</time></trkpt><trkpt lat="45.11452420384478" lon="8.209970787405192"><ele>182.0</ele><time>2026-04-25T16:13:38.001Z</time></trkpt><trkpt lat="45.11454224434838" lon="8.209860276353776"><ele>182.0</ele><time>2026-04-25T16:13:39.001Z</time></trkpt><trkpt lat="45.11454660514104" lon="8.20973968856757"><ele>182.0</ele><time>2026-04-25T16:13:40.001Z</time></trkpt><trkpt lat="45.114550715784766" lon="8.209609766461089"><ele>182.0</ele><time>2026-04-25T16:13:41.001Z</time></trkpt><trkpt lat="45.1145552548434" lon="8.209466303873254"><ele>182.66666666666666</ele><time>2026-04-25T16:13:42.001Z</time></trkpt><trkpt lat="45.114560021390446" lon="8.209315651196851"><ele>183.33333333333331</ele><time>2026-04-25T16:13:43.001Z</time></trkpt><trkpt lat="45.11454588479214" lon="8.2091751961586"><ele>184.0</ele><time>2026-04-25T16:13:44.001Z</time></trkpt><trkpt lat="45.114551109595645" lon="8.209072704153362"><ele>184.66666666666666</ele><time>2026-04-25T16:13:45.001Z</time></trkpt><trkpt lat="45.11455003554335" lon="8.208983408143961"><ele>185.33333333333334</ele><time>2026-04-25T16:13:46.001Z</time></trkpt><trkpt lat="45.11453344030348" lon="8.208865917592792"><ele>186.0</ele><time>2026-04-25T16:13:47.001Z</time></trkpt><trkpt lat="45.114505551422525" lon="8.208753657405476"><ele>186.5</ele><time>2026-04-25T16:13:48.001Z</time></trkpt><trkpt lat="45.11447984331048" lon="8.20862543592131"><ele>187.0</ele><time>2026-04-25T16:13:49.001Z</time></trkpt><trkpt lat="45.1144714920602" lon="8.208489702145856"><ele>187.5</ele><time>2026-04-25T16:13:50.001Z</time></trkpt><trkpt lat="45.11445909537568" lon="8.20835781338669"><ele>188.0</ele><time>2026-04-25T16:13:51.001Z</time></trkpt><trkpt lat="45.11444600764339" lon="8.208255730199877"><ele>188.5</ele><time>2026-04-25T16:13:52.001Z</time></trkpt><trkpt lat="45.114415892547285" lon="8.20816598422548"><ele>189.0</ele><time>2026-04-25T16:13:53.001Z</time></trkpt><trkpt lat="45.11440000498752" lon="8.207995533996428"><ele>189.5</ele><time>2026-04-25T16:13:55.001Z</time></trkpt><trkpt lat="45.11437700725508" lon="8.20789762196901"><ele>190.0</ele><time>2026-04-25T16:13:56.001Z</time></trkpt><trkpt lat="45.11428304479554" lon="8.20786750869227"><ele>190.5</ele><time>2026-04-25T16:13:58.001Z</time></trkpt><trkpt lat="45.11424428707226" lon="8.20777507002836"><ele>191.0</ele><time>2026-04-25T16:13:59.001Z</time></trkpt><trkpt lat="45.114448511779976" lon="8.207250750926937"><ele>192.0</ele><time>2026-04-25T16:14:01.001Z</time></trkpt><trkpt lat="45.11434883733535" lon="8.207095734220545"><ele>193.0</ele><time>2026-04-25T16:14:02.001Z</time></trkpt><trkpt lat="45.11425856562134" lon="8.206960815408081"><ele>194.0</ele><time>2026-04-25T16:14:03.001Z</time></trkpt><trkpt lat="45.11420119693004" lon="8.206796312264249"><ele>195.0</ele><time>2026-04-25T16:14:04.001Z</time></trkpt><trkpt lat="45.11415643894814" lon="8.20667439180505"><ele>195.0</ele><time>2026-04-25T16:14:05.001Z</time></trkpt><trkpt lat="45.114118147784446" lon="8.206555303072491"><ele>195.0</ele><time>2026-04-25T16:14:06.001Z</time></trkpt><trkpt lat="45.114096103982696" lon="8.206444254409876"><ele>195.0</ele><time>2026-04-25T16:14:07.001Z</time></trkpt><trkpt lat="45.11405404617554" lon="8.206363646585364"><ele>195.0</ele><time>2026-04-25T16:14:08.001Z</time></trkpt><trkpt lat="45.114019897081405" lon="8.206278674500522"><ele>195.0</ele><time>2026-04-25T16:14:09.001Z</time></trkpt><trkpt lat="45.11398300329082" lon="8.206160982903544"><ele>195.0</ele><time>2026-04-25T16:14:10.001Z</time></trkpt><trkpt lat="45.113937969945894" lon="8.206056953898887"><ele>199.8</ele><time>2026-04-25T16:14:11Z</time></trkpt><trkpt lat="45.11382569024269" lon="8.205958400460537"><ele>204.6</ele><time>2026-04-25T16:14:13Z</time></trkpt><trkpt lat="45.11374687601205" lon="8.205956407543338"><ele>209.39999999999998</ele><time>2026-04-25T16:14:15Z</time></trkpt><trkpt lat="45.1136368396294" lon="8.20598752310095"><ele>214.2</ele><time>2026-04-25T16:14:17Z</time></trkpt><trkpt lat="45.113551830967246" lon="8.205997364003656"><ele>219.0</ele><time>2026-04-25T16:14:18Z</time></trkpt><trkpt lat="45.11343197424259" lon="8.206021330353387"><ele>219.0</ele><time>2026-04-25T16:14:19Z</time></trkpt><trkpt lat="45.1133113385935" lon="8.20602110530173"><ele>218.99999999999997</ele><time>2026-04-25T16:14:20Z</time></trkpt><trkpt lat="45.11320249898098" lon="8.206046698131958"><ele>218.99999999999997</ele><time>2026-04-25T16:14:21Z</time></trkpt><trkpt lat="45.11310769130721" lon="8.206083701465232"><ele>219.0</ele><time>2026-04-25T16:14:22Z</time></trkpt><trkpt lat="45.11300233540681" lon="8.206144555665997"><ele>219.0</ele><time>2026-04-25T16:14:23Z</time></trkpt><trkpt lat="45.11289343485524" lon="8.206175211381028"><ele>219.2</ele><time>2026-04-25T16:14:24Z</time></trkpt><trkpt lat="45.1127802589724" lon="8.206194936162216"><ele>219.39999999999998</ele><time>2026-04-25T16:14:25Z</time></trkpt><trkpt lat="45.112676907511215" lon="8.206201215062288"><ele>219.6</ele><time>2026-04-25T16:14:26Z</time></trkpt><trkpt lat="45.112570141290774" lon="8.206226760666398"><ele>219.8</ele><time>2026-04-25T16:14:27Z</time></trkpt><trkpt lat="45.112460763951155" lon="8.206237671584711"><ele>220.0</ele><time>2026-04-25T16:14:28Z</time></trkpt><trkpt lat="45.112381358683045" lon="8.20624237449114"><ele>220.0</ele><time>2026-04-25T16:14:29Z</time></trkpt><trkpt lat="45.11228964512508" lon="8.206239870063513"><ele>220.0</ele><time>2026-04-25T16:14:30Z</time></trkpt><trkpt lat="45.112210970117495" lon="8.206237333417773"><ele>220.0</ele><time>2026-04-25T16:14:31Z</time></trkpt><trkpt lat="45.112135252753355" lon="8.20614454714929"><ele>220.0</ele><time>2026-04-25T16:14:33Z</time></trkpt><trkpt lat="45.11214438913462" lon="8.206004642586551"><ele>220.0</ele><time>2026-04-25T16:14:35Z</time></trkpt><trkpt lat="45.11216608926762" lon="8.205826935100193"><ele>220.0</ele><time>2026-04-25T16:14:37Z</time></trkpt><trkpt lat="45.11220046392357" lon="8.205717279994092"><ele>220.0</ele><time>2026-04-25T16:14:38Z</time></trkpt><trkpt lat="45.11226928354139" lon="8.205630259701993"><ele>220.0</ele><time>2026-04-25T16:14:39Z</time></trkpt><trkpt lat="45.112309268340695" lon="8.205499711506883"><ele>220.0</ele><time>2026-04-25T16:14:40Z</time></trkpt><trkpt lat="45.11236371801929" lon="8.205365458877287"><ele>220.0</ele><time>2026-04-25T16:14:41Z</time></trkpt><trkpt lat="45.112409245375105" lon="8.205231703255942"><ele>225.0</ele><time>2026-04-25T16:14:42Z</time></trkpt><trkpt lat="45.11247241465321" lon="8.205105577771176"><ele>230.0</ele><time>2026-04-25T16:14:43Z</time></trkpt><trkpt lat="45.112520421473285" lon="8.204990736040202"><ele>235.0</ele><time>2026-04-25T16:14:44Z</time></trkpt><trkpt lat="45.112579298298485" lon="8.204869701335252"><ele>240.0</ele><time>2026-04-25T16:14:45Z</time></trkpt><trkpt lat="45.11263131032266" lon="8.204752806269173"><ele>245.0</ele><time>2026-04-25T16:14:46Z</time></trkpt><trkpt lat="45.112650485525215" lon="8.204618053253757"><ele>246.6</ele><time>2026-04-25T16:14:47Z</time></trkpt><trkpt lat="45.11265683141713" lon="8.204501178675155"><ele>248.2</ele><time>2026-04-25T16:14:48Z</time></trkpt><trkpt lat="45.11265461917818" lon="8.204376819933918"><ele>249.8</ele><time>2026-04-25T16:14:49Z</time></trkpt><trkpt lat="45.112636904925864" lon="8.204260883619702"><ele>251.4</ele><time>2026-04-25T16:14:50Z</time></trkpt><trkpt lat="45.11261032109204" lon="8.204122233157776"><ele>253.0</ele><time>2026-04-25T16:14:51Z</time></trkpt><trkpt lat="45.11257412007806" lon="8.203998916525892"><ele>252.66666666666666</ele><time>2026-04-25T16:14:52Z</time></trkpt><trkpt lat="45.1125431940994" lon="8.203876432794349"><ele>252.33333333333331</ele><time>2026-04-25T16:14:53Z</time></trkpt><trkpt lat="45.11250370251273" lon="8.203747848267833"><ele>252.0</ele><time>2026-04-25T16:14:54Z</time></trkpt><trkpt lat="45.11246808710821" lon="8.203644117844618"><ele>251.66666666666669</ele><time>2026-04-25T16:14:55Z</time></trkpt><trkpt lat="45.11241651978258" lon="8.203589669878628"><ele>251.33333333333334</ele><time>2026-04-25T16:14:56Z</time></trkpt><trkpt lat="45.112310479932106" lon="8.203547409218173"><ele>251.0</ele><time>2026-04-25T16:14:58Z</time></trkpt><trkpt lat="45.11229909212544" lon="8.203425914460572"><ele>250.75</ele><time>2026-04-25T16:14:59Z</time></trkpt><trkpt lat="45.11227451911303" lon="8.20330137088946"><ele>250.5</ele><time>2026-04-25T16:15:00Z</time></trkpt><trkpt lat="45.112234593655" lon="8.203161233667126"><ele>250.25</ele><time>2026-04-25T16:15:01Z</time></trkpt><trkpt lat="45.11220003641624" lon="8.202981712450237"><ele>250.0</ele><time>2026-04-25T16:15:02Z</time></trkpt><trkpt lat="45.11217484670197" lon="8.202811682015142"><ele>250.0</ele><time>2026-04-25T16:15:03Z</time></trkpt><trkpt lat="45.11213726876297" lon="8.202658406271135"><ele>250.0</ele><time>2026-04-25T16:15:04Z</time></trkpt><trkpt lat="45.11209678403737" lon="8.202508586798833"><ele>250.0</ele><time>2026-04-25T16:15:05Z</time></trkpt><trkpt lat="45.112060225414396" lon="8.202351276062384"><ele>250.0</ele><time>2026-04-25T16:15:06Z</time></trkpt><trkpt lat="45.112017770857214" lon="8.202201647849762"><ele>250.25</ele><time>2026-04-25T16:15:07Z</time></trkpt><trkpt lat="45.11198380022823" lon="8.202052457794304"><ele>250.5</ele><time>2026-04-25T16:15:08Z</time></trkpt><trkpt lat="45.11195230675622" lon="8.201881979445648"><ele>250.75</ele><time>2026-04-25T16:15:09Z</time></trkpt><trkpt lat="45.11191674359362" lon="8.201702432475164"><ele>251.0</ele><time>2026-04-25T16:15:10Z</time></trkpt><trkpt lat="45.11187483467359" lon="8.201518863033158"><ele>250.75</ele><time>2026-04-25T16:15:11Z</time></trkpt><trkpt lat="45.11183383822163" lon="8.201356578817913"><ele>250.5</ele><time>2026-04-25T16:15:12Z</time></trkpt><trkpt lat="45.11180453054631" lon="8.201196807514206"><ele>250.25</ele><time>2026-04-25T16:15:13Z</time></trkpt><trkpt lat="45.11178332103536" lon="8.201019972522735"><ele>250.0</ele><time>2026-04-25T16:15:14Z</time></trkpt><trkpt lat="45.11176786524261" lon="8.20083297373564"><ele>249.75</ele><time>2026-04-25T16:15:15Z</time></trkpt><trkpt lat="45.11176231491938" lon="8.20066288441121"><ele>249.5</ele><time>2026-04-25T16:15:16Z</time></trkpt><trkpt lat="45.11178448171439" lon="8.200488509460069"><ele>249.25</ele><time>2026-04-25T16:15:17Z</time></trkpt><trkpt lat="45.111827095789316" lon="8.20030574141182"><ele>249.0</ele><time>2026-04-25T16:15:18Z</time></trkpt><trkpt lat="45.11185073618248" lon="8.20011362516698"><ele>249.0</ele><time>2026-04-25T16:15:19Z</time></trkpt><trkpt lat="45.111867992737956" lon="8.199920553165144"><ele>249.0</ele><time>2026-04-25T16:15:20Z</time></trkpt><trkpt lat="45.111880445106955" lon="8.19972449437053"><ele>249.0</ele><time>2026-04-25T16:15:21Z</time></trkpt><trkpt lat="45.11190226382354" lon="8.199538629083882"><ele>249.0</ele><time>2026-04-25T16:15:22Z</time></trkpt><trkpt lat="45.11193520880871" lon="8.199386508360869"><ele>249.5</ele><time>2026-04-25T16:15:23Z</time></trkpt><trkpt lat="45.11197412493819" lon="8.199221924281689"><ele>250.0</ele><time>2026-04-25T16:15:24Z</time></trkpt><trkpt lat="45.11200523340816" lon="8.199058921023532"><ele>250.5</ele><time>2026-04-25T16:15:25Z</time></trkpt><trkpt lat="45.112051931074014" lon="8.198907238965432"><ele>251.0</ele><time>2026-04-25T16:15:26Z</time></trkpt><trkpt lat="45.112080699808054" lon="8.198757617862661"><ele>253.60000000000002</ele><time>2026-04-25T16:15:27Z</time></trkpt><trkpt lat="45.11209964733947" lon="8.19860575229359"><ele>256.20000000000005</ele><time>2026-04-25T16:15:28Z</time></trkpt><trkpt lat="45.11211470319823" lon="8.19846559580695"><ele>258.79999999999995</ele><time>2026-04-25T16:15:29Z</time></trkpt><trkpt lat="45.112129196355035" lon="8.198299503451617"><ele>261.4</ele><time>2026-04-25T16:15:30Z</time></trkpt><trkpt lat="45.11214249873902" lon="8.198154301260868"><ele>264.0</ele><time>2026-04-25T16:15:31Z</time></trkpt><trkpt lat="45.11215550022733" lon="8.198007110138748"><ele>264.0</ele><time>2026-04-25T16:15:32Z</time></trkpt><trkpt lat="45.1121704307595" lon="8.197862327733715"><ele>264.0</ele><time>2026-04-25T16:15:33Z</time></trkpt><trkpt lat="45.1121957633712" lon="8.197706109847369"><ele>264.0</ele><time>2026-04-25T16:15:34Z</time></trkpt><trkpt lat="45.11222022661525" lon="8.197560655160542"><ele>264.0</ele><time>2026-04-25T16:15:35Z</time></trkpt><trkpt lat="45.11224322956368" lon="8.197446198475935"><ele>264.0</ele><time>2026-04-25T16:15:36Z</time></trkpt><trkpt lat="45.11227510262585" lon="8.197343154712947"><ele>264.2</ele><time>2026-04-25T16:15:37Z</time></trkpt><trkpt lat="45.11232704741416" lon="8.197259120874733"><ele>264.4</ele><time>2026-04-25T16:15:38Z</time></trkpt><trkpt lat="45.11240131426298" lon="8.197239720155151"><ele>264.6</ele><time>2026-04-25T16:15:39Z</time></trkpt><trkpt lat="45.11249181497974" lon="8.197175239220442"><ele>264.8</ele><time>2026-04-25T16:15:40Z</time></trkpt><trkpt lat="45.11255794559562" lon="8.197064255560234"><ele>265.0</ele><time>2026-04-25T16:15:41Z</time></trkpt><trkpt lat="45.11261438618971" lon="8.19695988934368"><ele>265.0</ele><time>2026-04-25T16:15:42Z</time></trkpt><trkpt lat="45.11270755159539" lon="8.196943485370902"><ele>265.0</ele><time>2026-04-25T16:15:43Z</time></trkpt><trkpt lat="45.11280713968297" lon="8.196901762147094"><ele>265.0</ele><time>2026-04-25T16:15:44Z</time></trkpt><trkpt lat="45.11290392475796" lon="8.196861213424738"><ele>265.0</ele><time>2026-04-25T16:15:45Z</time></trkpt><trkpt lat="45.11299072093807" lon="8.196824849613954"><ele>265.0</ele><time>2026-04-25T16:15:46Z</time></trkpt><trkpt lat="45.113055906923606" lon="8.196663816435404"><ele>265.0</ele><time>2026-04-25T16:15:47Z</time></trkpt><trkpt lat="45.113151985304825" lon="8.19655350006689"><ele>265.0</ele><time>2026-04-25T16:15:48Z</time></trkpt><trkpt lat="45.113255684994186" lon="8.196450585857763"><ele>265.0</ele><time>2026-04-25T16:15:49Z</time></trkpt><trkpt lat="45.11335649175441" lon="8.196321740651104"><ele>265.0</ele><time>2026-04-25T16:15:50Z</time></trkpt><trkpt lat="45.113468224575755" lon="8.19620218919438"><ele>267.0</ele><time>2026-04-25T16:15:51Z</time></trkpt><trkpt lat="45.1135685913784" lon="8.196098725148358"><ele>269.0</ele><time>2026-04-25T16:15:52Z</time></trkpt><trkpt lat="45.113674484349886" lon="8.195984303932608"><ele>271.0</ele><time>2026-04-25T16:15:53Z</time></trkpt><trkpt lat="45.113785129828464" lon="8.19586824101692"><ele>273.0</ele><time>2026-04-25T16:15:54Z</time></trkpt><trkpt lat="45.113880612846955" lon="8.195781193433623"><ele>273.0</ele><time>2026-04-25T16:15:55Z</time></trkpt><trkpt lat="45.113975560850854" lon="8.195682201924837"><ele>273.0</ele><time>2026-04-25T16:15:56Z</time></trkpt><trkpt lat="45.11407747384637" lon="8.195569918659363"><ele>273.0</ele><time>2026-04-25T16:15:57Z</time></trkpt><trkpt lat="45.114178046685126" lon="8.195440913575915"><ele>273.0</ele><time>2026-04-25T16:15:58.001Z</time></trkpt><trkpt lat="45.11426941322119" lon="8.195315894217481"><ele>273.8</ele><time>2026-04-25T16:15:59.001Z</time></trkpt><trkpt lat="45.11435338033952" lon="8.195218354818305"><ele>274.6</ele><time>2026-04-25T16:16:00.001Z</time></trkpt><trkpt lat="45.11445300777275" lon="8.195150596719444"><ele>275.4</ele><time>2026-04-25T16:16:01.001Z</time></trkpt><trkpt lat="45.11453728369803" lon="8.195062970497755"><ele>276.2</ele><time>2026-04-25T16:16:02.001Z</time></trkpt><trkpt lat="45.11461213396657" lon="8.194954607885238"><ele>277.0</ele><time>2026-04-25T16:16:03.001Z</time></trkpt><trkpt lat="45.1146719915421" lon="8.194802590333419"><ele>277.0</ele><time>2026-04-25T16:16:04.001Z</time></trkpt><trkpt lat="45.114740894081066" lon="8.194675993511453"><ele>277.0</ele><time>2026-04-25T16:16:05.001Z</time></trkpt><trkpt lat="45.11480653438834" lon="8.19453210136655"><ele>277.0</ele><time>2026-04-25T16:16:06.001Z</time></trkpt><trkpt lat="45.11487361265825" lon="8.19435701599972"><ele>277.0</ele><time>2026-04-25T16:16:07.001Z</time></trkpt><trkpt lat="45.11492603160707" lon="8.194186928011439"><ele>282.5</ele><time>2026-04-25T16:16:08.001Z</time></trkpt><trkpt lat="45.11496760453924" lon="8.194002206850204"><ele>288.0</ele><time>2026-04-25T16:16:09.001Z</time></trkpt><trkpt lat="45.11500668339161" lon="8.19382661116425"><ele>293.5</ele><time>2026-04-25T16:16:10.001Z</time></trkpt><trkpt lat="45.11504922787965" lon="8.19366718688082"><ele>299.0</ele><time>2026-04-25T16:16:11.001Z</time></trkpt><trkpt lat="45.11508778992001" lon="8.193506040872766"><ele>299.0</ele><time>2026-04-25T16:16:12.001Z</time></trkpt><trkpt lat="45.1151191034902" lon="8.19335622077694"><ele>299.0</ele><time>2026-04-25T16:16:13.001Z</time></trkpt><trkpt lat="45.11515179243501" lon="8.193226805416899"><ele>299.0</ele><time>2026-04-25T16:16:14.001Z</time></trkpt><trkpt lat="45.11518017931664" lon="8.193102208005033"><ele>299.0</ele><time>2026-04-25T16:16:15.001Z</time></trkpt><trkpt lat="45.115218387748996" lon="8.193005813654537"><ele>299.0</ele><time>2026-04-25T16:16:16.001Z</time></trkpt><trkpt lat="45.11527275980578" lon="8.192922712822165"><ele>299.0</ele><time>2026-04-25T16:16:17Z</time></trkpt><trkpt lat="45.115388937657855" lon="8.192997134847678"><ele>299.0</ele><time>2026-04-25T16:16:19Z</time></trkpt><trkpt lat="45.11544395754916" lon="8.193090963895495"><ele>299.0</ele><time>2026-04-25T16:16:20Z</time></trkpt><trkpt lat="45.11551785489927" lon="8.193165887276871"><ele>299.0</ele><time>2026-04-25T16:16:21Z</time></trkpt><trkpt lat="45.115600549447485" lon="8.193201042316185"><ele>299.0</ele><time>2026-04-25T16:16:22Z</time></trkpt><trkpt lat="45.115708174335865" lon="8.193179510717563"><ele>300.2</ele><time>2026-04-25T16:16:23Z</time></trkpt><trkpt lat="45.1157917496551" lon="8.193093405695576"><ele>301.4</ele><time>2026-04-25T16:16:24Z</time></trkpt><trkpt lat="45.115870040840015" lon="8.192998895104292"><ele>302.6</ele><time>2026-04-25T16:16:25Z</time></trkpt><trkpt lat="45.11595462558339" lon="8.192920069995594"><ele>303.8</ele><time>2026-04-25T16:16:26Z</time></trkpt><trkpt lat="45.11603383630623" lon="8.19279769319683"><ele>305.0</ele><time>2026-04-25T16:16:27Z</time></trkpt><trkpt lat="45.11612368848778" lon="8.192656134813895"><ele>305.0</ele><time>2026-04-25T16:16:28Z</time></trkpt><trkpt lat="45.116233182895606" lon="8.192550457750919"><ele>305.0</ele><time>2026-04-25T16:16:29Z</time></trkpt><trkpt lat="45.11637234786681" lon="8.19245962691593"><ele>305.0</ele><time>2026-04-25T16:16:30Z</time></trkpt><trkpt lat="45.11652901205994" lon="8.192376263045132"><ele>305.0</ele><time>2026-04-25T16:16:31Z</time></trkpt><trkpt lat="45.116714756392916" lon="8.192297412863413"><ele>305.0</ele><time>2026-04-25T16:16:32Z</time></trkpt><trkpt lat="45.11689839754645" lon="8.192215085651007"><ele>305.0</ele><time>2026-04-25T16:16:33Z</time></trkpt><trkpt lat="45.11707600127104" lon="8.19214470328844"><ele>305.0</ele><time>2026-04-25T16:16:34Z</time></trkpt><trkpt lat="45.11721548352386" lon="8.192076415268902"><ele>305.0</ele><time>2026-04-25T16:16:35Z</time></trkpt><trkpt lat="45.11730228909268" lon="8.192038386160363"><ele>305.0</ele><time>2026-04-25T16:16:36Z</time></trkpt><trkpt lat="45.117372669253896" lon="8.191952521456077"><ele>305.0</ele><time>2026-04-25T16:16:38Z</time></trkpt><trkpt lat="45.11742164771532" lon="8.19178058723873"><ele>308.25</ele><time>2026-04-25T16:16:40Z</time></trkpt><trkpt lat="45.117468593100675" lon="8.191645114969635"><ele>311.5</ele><time>2026-04-25T16:16:41Z</time></trkpt><trkpt lat="45.11754283113298" lon="8.19151692108133"><ele>314.75</ele><time>2026-04-25T16:16:42Z</time></trkpt><trkpt lat="45.11760890964579" lon="8.191362810552002"><ele>318.0</ele><time>2026-04-25T16:16:43Z</time></trkpt><trkpt lat="45.11766526625309" lon="8.191174714431652"><ele>318.0</ele><time>2026-04-25T16:16:44Z</time></trkpt><trkpt lat="45.11773320116126" lon="8.191018861788487"><ele>318.0</ele><time>2026-04-25T16:16:45Z</time></trkpt><trkpt lat="45.11777788463134" lon="8.190850318685854"><ele>318.0</ele><time>2026-04-25T16:16:46Z</time></trkpt><trkpt lat="45.11780557056033" lon="8.190648463557556"><ele>318.0</ele><time>2026-04-25T16:16:47Z</time></trkpt><trkpt lat="45.11783564369512" lon="8.190456890627983"><ele>319.2</ele><time>2026-04-25T16:16:48Z</time></trkpt><trkpt lat="45.11786706493577" lon="8.190293283944985"><ele>320.4</ele><time>2026-04-25T16:16:49Z</time></trkpt><trkpt lat="45.11788703955517" lon="8.190143919161326"><ele>321.59999999999997</ele><time>2026-04-25T16:16:50Z</time></trkpt><trkpt lat="45.11789457887813" lon="8.190018606753997"><ele>322.8</ele><time>2026-04-25T16:16:51Z</time></trkpt><trkpt lat="45.117859131920305" lon="8.189842332726737"><ele>324.0</ele><time>2026-04-25T16:16:53Z</time></trkpt><trkpt lat="45.1177609626156" lon="8.189776270684732"><ele>326.6</ele><time>2026-04-25T16:16:54Z</time></trkpt><trkpt lat="45.11767841496911" lon="8.189675454545105"><ele>329.2</ele><time>2026-04-25T16:16:55Z</time></trkpt><trkpt lat="45.11756763000185" lon="8.189630851764841"><ele>331.8</ele><time>2026-04-25T16:16:56Z</time></trkpt><trkpt lat="45.11749765715379" lon="8.189535981607431"><ele>334.40000000000003</ele><time>2026-04-25T16:16:57Z</time></trkpt><trkpt lat="45.117457018354614" lon="8.189426413420248"><ele>337.0</ele><time>2026-04-25T16:16:58Z</time></trkpt><trkpt lat="45.117435454345824" lon="8.189303857314302"><ele>337.0</ele><time>2026-04-25T16:16:59Z</time></trkpt><trkpt lat="45.11743179534609" lon="8.189163523401676"><ele>337.0</ele><time>2026-04-25T16:17:00Z</time></trkpt><trkpt lat="45.11744821792799" lon="8.189036760301336"><ele>337.0</ele><time>2026-04-25T16:17:01Z</time></trkpt><trkpt lat="45.1174748485977" lon="8.188937270835055"><ele>337.0</ele><time>2026-04-25T16:17:02Z</time></trkpt><trkpt lat="45.11752828207443" lon="8.188877097284921"><ele>337.0</ele><time>2026-04-25T16:17:03Z</time></trkpt><trkpt lat="45.11759092958597" lon="8.188847371226311"><ele>337.0</ele><time>2026-04-25T16:17:04Z</time></trkpt><trkpt lat="45.11768795685482" lon="8.1888888823423"><ele>334.40000000000003</ele><time>2026-04-25T16:17:05Z</time></trkpt><trkpt lat="45.117793423437725" lon="8.188840201220339"><ele>331.8</ele><time>2026-04-25T16:17:06Z</time></trkpt><trkpt lat="45.11787156646515" lon="8.18878563198393"><ele>329.2</ele><time>2026-04-25T16:17:07Z</time></trkpt><trkpt lat="45.117955362473104" lon="8.188665929147607"><ele>326.6</ele><time>2026-04-25T16:17:08Z</time></trkpt><trkpt lat="45.118025785820905" lon="8.188512899630913"><ele>324.0</ele><time>2026-04-25T16:17:09Z</time></trkpt><trkpt lat="45.11811477758128" lon="8.188358580791322"><ele>324.0</ele><time>2026-04-25T16:17:10Z</time></trkpt><trkpt lat="45.11822161760075" lon="8.188205057424913"><ele>324.0</ele><time>2026-04-25T16:17:11Z</time></trkpt><trkpt lat="45.11832028733978" lon="8.188050637519707"><ele>324.0</ele><time>2026-04-25T16:17:12Z</time></trkpt><trkpt lat="45.11840478184597" lon="8.187876859091382"><ele>324.0</ele><time>2026-04-25T16:17:13Z</time></trkpt><trkpt lat="45.11847620893647" lon="8.18772711101679"><ele>326.0</ele><time>2026-04-25T16:17:14Z</time></trkpt><trkpt lat="45.118552247626376" lon="8.187586253363467"><ele>328.0</ele><time>2026-04-25T16:17:15Z</time></trkpt><trkpt lat="45.11863431199695" lon="8.187475963611407"><ele>330.0</ele><time>2026-04-25T16:17:16Z</time></trkpt><trkpt lat="45.11868310344603" lon="8.187381792592085"><ele>332.0</ele><time>2026-04-25T16:17:17Z</time></trkpt><trkpt lat="45.11872622795727" lon="8.187316591750866"><ele>334.0</ele><time>2026-04-25T16:17:18Z</time></trkpt><trkpt lat="45.118854051477726" lon="8.18728482427967"><ele>334.0</ele><time>2026-04-25T16:17:20Z</time></trkpt><trkpt lat="45.118912477023265" lon="8.18724349675629"><ele>334.0</ele><time>2026-04-25T16:17:21Z</time></trkpt><trkpt lat="45.11893522983805" lon="8.18712881291493"><ele>334.0</ele><time>2026-04-25T16:17:22Z</time></trkpt><trkpt lat="45.118977616992" lon="8.18702083124348"><ele>334.0</ele><time>2026-04-25T16:17:23Z</time></trkpt><trkpt lat="45.11904941227348" lon="8.186910871468339"><ele>334.0</ele><time>2026-04-25T16:17:24Z</time></trkpt><trkpt lat="45.11913078130494" lon="8.18679422076836"><ele>338.25</ele><time>2026-04-25T16:17:25Z</time></trkpt><trkpt lat="45.1192273337293" lon="8.18666135610166"><ele>342.5</ele><time>2026-04-25T16:17:26Z</time></trkpt><trkpt lat="45.11933364063396" lon="8.186526890579819"><ele>346.75</ele><time>2026-04-25T16:17:27Z</time></trkpt><trkpt lat="45.119442524183" lon="8.186407739977938"><ele>351.0</ele><time>2026-04-25T16:17:28Z</time></trkpt><trkpt lat="45.11956739123265" lon="8.18629876234664"><ele>351.6</ele><time>2026-04-25T16:17:29Z</time></trkpt><trkpt lat="45.11968885388346" lon="8.186214468220022"><ele>352.20000000000005</ele><time>2026-04-25T16:17:30Z</time></trkpt><trkpt lat="45.11979680983195" lon="8.186148284594806"><ele>352.79999999999995</ele><time>2026-04-25T16:17:31Z</time></trkpt><trkpt lat="45.11988000536701" lon="8.186085557524164"><ele>353.4</ele><time>2026-04-25T16:17:32Z</time></trkpt><trkpt lat="45.11997048055938" lon="8.186033961156086"><ele>354.0</ele><time>2026-04-25T16:17:33Z</time></trkpt><trkpt lat="45.12004643153474" lon="8.185951074922347"><ele>354.75</ele><time>2026-04-25T16:17:34Z</time></trkpt><trkpt lat="45.120122267069625" lon="8.185813847552552"><ele>355.5</ele><time>2026-04-25T16:17:35Z</time></trkpt><trkpt lat="45.12021325752263" lon="8.185685439183931"><ele>356.25</ele><time>2026-04-25T16:17:36Z</time></trkpt><trkpt lat="45.12035232828714" lon="8.18559696772301"><ele>357.0</ele><time>2026-04-25T16:17:37Z</time></trkpt><trkpt lat="45.120489916782375" lon="8.185470317419252"><ele>357.20000000000005</ele><time>2026-04-25T16:17:38Z</time></trkpt><trkpt lat="45.120603392299685" lon="8.185326943199001"><ele>357.4</ele><time>2026-04-25T16:17:39Z</time></trkpt><trkpt lat="45.120683421094554" lon="8.185206424064956"><ele>357.6</ele><time>2026-04-25T16:17:40Z</time></trkpt><trkpt lat="45.12073907510748" lon="8.185107794060775"><ele>357.79999999999995</ele><time>2026-04-25T16:17:41Z</time></trkpt><trkpt lat="45.120790013859704" lon="8.18500070973431"><ele>358.0</ele><time>2026-04-25T16:17:42Z</time></trkpt><trkpt lat="45.12082071381507" lon="8.184904938566135"><ele>358.8333333333333</ele><time>2026-04-25T16:17:43Z</time></trkpt><trkpt lat="45.12085022180258" lon="8.184794103438477"><ele>359.66666666666663</ele><time>2026-04-25T16:17:44Z</time></trkpt><trkpt lat="45.12087279821194" lon="8.184666005190298"><ele>360.5</ele><time>2026-04-25T16:17:45Z</time></trkpt><trkpt lat="45.12087664031772" lon="8.184544729285783"><ele>361.3333333333333</ele><time>2026-04-25T16:17:46Z</time></trkpt><trkpt lat="45.12083577814039" lon="8.18441640997046"><ele>362.1666666666667</ele><time>2026-04-25T16:17:47Z</time></trkpt><trkpt lat="45.12078298056885" lon="8.184322171639668"><ele>363.0</ele><time>2026-04-25T16:17:48Z</time></trkpt><trkpt lat="45.1207216581835" lon="8.184207088595922"><ele>362.59999999999997</ele><time>2026-04-25T16:17:49Z</time></trkpt><trkpt lat="45.120651004997434" lon="8.18417760599893"><ele>362.2</ele><time>2026-04-25T16:17:50Z</time></trkpt><trkpt lat="45.12058150061124" lon="8.18408981960165"><ele>361.8</ele><time>2026-04-25T16:17:51Z</time></trkpt><trkpt lat="45.12050257707195" lon="8.184005177476909"><ele>361.4</ele><time>2026-04-25T16:17:52Z</time></trkpt><trkpt lat="45.12038659590511" lon="8.183843290751833"><ele>361.0</ele><time>2026-04-25T16:17:53Z</time></trkpt><trkpt lat="45.120314514434085" lon="8.183726770357937"><ele>361.0</ele><time>2026-04-25T16:17:54Z</time></trkpt><trkpt lat="45.12024075039183" lon="8.183621006162658"><ele>361.0</ele><time>2026-04-25T16:17:55Z</time></trkpt><trkpt lat="45.12017665739949" lon="8.18351471590811"><ele>361.0</ele><time>2026-04-25T16:17:56Z</time></trkpt><trkpt lat="45.12011166101068" lon="8.183407562940875"><ele>361.0</ele><time>2026-04-25T16:17:57Z</time></trkpt><trkpt lat="45.12006436395379" lon="8.183271986337092"><ele>361.0</ele><time>2026-04-25T16:17:58Z</time></trkpt><trkpt lat="45.120417421030474" lon="8.182575688976677"><ele>363.8333333333333</ele><time>2026-04-25T16:18:00Z</time></trkpt><trkpt lat="45.120406453663364" lon="8.182484252139393"><ele>366.66666666666663</ele><time>2026-04-25T16:18:01Z</time></trkpt><trkpt lat="45.12037225230886" lon="8.182314946641391"><ele>369.5</ele><time>2026-04-25T16:18:03Z</time></trkpt><trkpt lat="45.12034880216098" lon="8.18222852519654"><ele>372.3333333333333</ele><time>2026-04-25T16:18:04Z</time></trkpt><trkpt lat="45.120325053158176" lon="8.182136437396135"><ele>375.1666666666667</ele><time>2026-04-25T16:18:05Z</time></trkpt><trkpt lat="45.12027840115958" lon="8.182060180192654"><ele>378.0</ele><time>2026-04-25T16:18:06Z</time></trkpt><trkpt lat="45.120245896448125" lon="8.181960289113091"><ele>380.0</ele><time>2026-04-25T16:18:07Z</time></trkpt><trkpt lat="45.120208288179576" lon="8.181859897200681"><ele>382.0</ele><time>2026-04-25T16:18:08Z</time></trkpt><trkpt lat="45.12016531579436" lon="8.181750809047493"><ele>384.0</ele><time>2026-04-25T16:18:09Z</time></trkpt><trkpt lat="45.120123816968395" lon="8.181643206294742"><ele>386.0</ele><time>2026-04-25T16:18:10Z</time></trkpt><trkpt lat="45.12007753270174" lon="8.181521447501986"><ele>388.0</ele><time>2026-04-25T16:18:11Z</time></trkpt><trkpt lat="45.120023526539605" lon="8.181410184090137"><ele>390.0</ele><time>2026-04-25T16:18:12Z</time></trkpt><trkpt lat="45.11997249597535" lon="8.181298521424331"><ele>390.8333333333333</ele><time>2026-04-25T16:18:13Z</time></trkpt><trkpt lat="45.119926170336065" lon="8.181192622577834"><ele>391.66666666666663</ele><time>2026-04-25T16:18:14Z</time></trkpt><trkpt lat="45.11988936882388" lon="8.181119982473346"><ele>392.5</ele><time>2026-04-25T16:18:15Z</time></trkpt><trkpt lat="45.119886315899336" lon="8.18100549121762"><ele>393.3333333333333</ele><time>2026-04-25T16:18:16Z</time></trkpt><trkpt lat="45.11988681849916" lon="8.180866051170181"><ele>394.16666666666663</ele><time>2026-04-25T16:18:17Z</time></trkpt><trkpt lat="45.11989668845937" lon="8.180742713954109"><ele>395.0</ele><time>2026-04-25T16:18:18Z</time></trkpt><trkpt lat="45.11992045346944" lon="8.180606624340559"><ele>395.8333333333333</ele><time>2026-04-25T16:18:19Z</time></trkpt><trkpt lat="45.11995336753792" lon="8.180481998801804"><ele>396.66666666666663</ele><time>2026-04-25T16:18:20Z</time></trkpt><trkpt lat="45.119996641457405" lon="8.180385690503986"><ele>397.5</ele><time>2026-04-25T16:18:21Z</time></trkpt><trkpt lat="45.12003932703205" lon="8.18027531555304"><ele>398.33333333333337</ele><time>2026-04-25T16:18:22Z</time></trkpt><trkpt lat="45.12008103565384" lon="8.180169643770874"><ele>399.1666666666667</ele><time>2026-04-25T16:18:22.999Z</time></trkpt><trkpt lat="45.12012963455379" lon="8.180068740920726"><ele>400.0</ele><time>2026-04-25T16:18:23.999Z</time></trkpt><trkpt lat="45.120164256328415" lon="8.179975912171027"><ele>400.0</ele><time>2026-04-25T16:18:24.999Z</time></trkpt><trkpt lat="45.12018626707329" lon="8.179890922249946"><ele>400.0</ele><time>2026-04-25T16:18:25.999Z</time></trkpt><trkpt lat="45.12020341046515" lon="8.179800359399486"><ele>400.0</ele><time>2026-04-25T16:18:26.999Z</time></trkpt><trkpt lat="45.120124661104526" lon="8.179665911129048"><ele>400.0</ele><time>2026-04-25T16:18:28.999Z</time></trkpt><trkpt lat="45.12002628449925" lon="8.179553592859243"><ele>400.0</ele><time>2026-04-25T16:18:30.999Z</time></trkpt><trkpt lat="45.1199739268931" lon="8.179475720529457"><ele>399.50000000000006</ele><time>2026-04-25T16:18:31.999Z</time></trkpt><trkpt lat="45.11993050885282" lon="8.17938915787656"><ele>399.0</ele><time>2026-04-25T16:18:32.999Z</time></trkpt><trkpt lat="45.119886734534234" lon="8.179310170213062"><ele>398.5</ele><time>2026-04-25T16:18:33.999Z</time></trkpt><trkpt lat="45.11986449197708" lon="8.179226259286663"><ele>398.0</ele><time>2026-04-25T16:18:34.999Z</time></trkpt><trkpt lat="45.11981294339513" lon="8.179072354254592"><ele>397.50000000000006</ele><time>2026-04-25T16:18:37Z</time></trkpt><trkpt lat="45.119719378970366" lon="8.179025794330528"><ele>397.0</ele><time>2026-04-25T16:18:39Z</time></trkpt><trkpt lat="45.11963185122134" lon="8.179152085231978"><ele>397.40000000000003</ele><time>2026-04-25T16:18:41Z</time></trkpt><trkpt lat="45.11954196349176" lon="8.179158749549634"><ele>397.8</ele><time>2026-04-25T16:18:42Z</time></trkpt><trkpt lat="45.11945995238772" lon="8.179138876488292"><ele>398.2</ele><time>2026-04-25T16:18:43Z</time></trkpt><trkpt lat="45.11936180471448" lon="8.179102131025864"><ele>398.6</ele><time>2026-04-25T16:18:44Z</time></trkpt><trkpt lat="45.11929760291764" lon="8.179040161162165"><ele>399.0</ele><time>2026-04-25T16:18:45Z</time></trkpt><trkpt lat="45.11923052370091" lon="8.178940054327375"><ele>399.0</ele><time>2026-04-25T16:18:46Z</time></trkpt><trkpt lat="45.119170592724515" lon="8.17882592532317"><ele>399.0</ele><time>2026-04-25T16:18:47Z</time></trkpt><trkpt lat="45.11910757387116" lon="8.178719792925625"><ele>399.0</ele><time>2026-04-25T16:18:49Z</time></trkpt><trkpt lat="45.119060501922746" lon="8.178655869755648"><ele>399.0</ele><time>2026-04-25T16:18:55Z</time></trkpt><trkpt lat="45.11897405496996" lon="8.17853250313575"><ele>399.0</ele><time>2026-04-25T16:19:25Z</time></trkpt><trkpt lat="45.11889094920888" lon="8.178429458055962"><ele>395.6</ele><time>2026-04-25T16:19:26Z</time></trkpt><trkpt lat="45.118828916046304" lon="8.178345951892766"><ele>392.2</ele><time>2026-04-25T16:19:27Z</time></trkpt><trkpt lat="45.11877997780963" lon="8.17826845354209"><ele>388.8</ele><time>2026-04-25T16:19:28Z</time></trkpt><trkpt lat="45.11873199603973" lon="8.178173239737992"><ele>385.40000000000003</ele><time>2026-04-25T16:19:30Z</time></trkpt><trkpt lat="45.118850776221905" lon="8.178380132807462"><ele>382.0</ele><time>2026-04-25T16:19:47Z</time></trkpt><trkpt lat="45.118901700152364" lon="8.178471201673734"><ele>379.0</ele><time>2026-04-25T16:19:48Z</time></trkpt><trkpt lat="45.118954516126756" lon="8.178532311788373"><ele>376.0</ele><time>2026-04-25T16:19:49Z</time></trkpt><trkpt lat="45.1190261342941" lon="8.178627111839603"><ele>373.0</ele><time>2026-04-25T16:19:51Z</time></trkpt><trkpt lat="45.119078920244924" lon="8.178680157835341"><ele>370.0</ele><time>2026-04-25T16:19:52Z</time></trkpt><trkpt lat="45.11918199371375" lon="8.178818758297346"><ele>367.0</ele><time>2026-04-25T16:19:54Z</time></trkpt><trkpt lat="45.11924853366462" lon="8.17891270321195"><ele>370.40000000000003</ele><time>2026-04-25T16:19:55Z</time></trkpt><trkpt lat="45.11932509296893" lon="8.178993684587041"><ele>373.8</ele><time>2026-04-25T16:19:56Z</time></trkpt><trkpt lat="45.11938666111033" lon="8.179069220227062"><ele>377.2</ele><time>2026-04-25T16:19:57Z</time></trkpt><trkpt lat="45.11947063207951" lon="8.17910889911009"><ele>380.6</ele><time>2026-04-25T16:19:58Z</time></trkpt><trkpt lat="45.1195906045206" lon="8.179146066130555"><ele>384.0</ele><time>2026-04-25T16:19:59Z</time></trkpt><trkpt lat="45.11968904298729" lon="8.179161747173612"><ele>384.0</ele><time>2026-04-25T16:20:00Z</time></trkpt><trkpt lat="45.119756989372696" lon="8.17915952818708"><ele>384.0</ele><time>2026-04-25T16:20:01Z</time></trkpt><trkpt lat="45.1197840973107" lon="8.179057290072365"><ele>384.0</ele><time>2026-04-25T16:20:03Z</time></trkpt><trkpt lat="45.119795929872126" lon="8.178894027903382"><ele>384.0</ele><time>2026-04-25T16:20:05Z</time></trkpt><trkpt lat="45.11979503371964" lon="8.178745108445918"><ele>384.0</ele><time>2026-04-25T16:20:07Z</time></trkpt><trkpt lat="45.11992882350711" lon="8.178879980025005"><ele>386.0</ele><time>2026-04-25T16:20:10Z</time></trkpt><trkpt lat="45.11998231865956" lon="8.178949717102032"><ele>388.0</ele><time>2026-04-25T16:20:11Z</time></trkpt><trkpt lat="45.12007162608002" lon="8.179066567784501"><ele>390.0</ele><time>2026-04-25T16:20:12Z</time></trkpt><trkpt lat="45.12014638986937" lon="8.179138212346345"><ele>392.0</ele><time>2026-04-25T16:20:13Z</time></trkpt><trkpt lat="45.120213524051316" lon="8.17921574837567"><ele>394.0</ele><time>2026-04-25T16:20:14Z</time></trkpt><trkpt lat="45.120297426863665" lon="8.1792870990503"><ele>394.50000000000006</ele><time>2026-04-25T16:20:15Z</time></trkpt><trkpt lat="45.12037147062265" lon="8.179348962254034"><ele>395.0</ele><time>2026-04-25T16:20:16Z</time></trkpt><trkpt lat="45.120446185451684" lon="8.17940966949491"><ele>395.5</ele><time>2026-04-25T16:20:17Z</time></trkpt><trkpt lat="45.12051778457779" lon="8.179484473503415"><ele>396.0</ele><time>2026-04-25T16:20:18Z</time></trkpt><trkpt lat="45.12060339583872" lon="8.17955702750609"><ele>396.50000000000006</ele><time>2026-04-25T16:20:19Z</time></trkpt><trkpt lat="45.12066575950573" lon="8.179589087578128"><ele>397.0</ele><time>2026-04-25T16:20:20Z</time></trkpt><trkpt lat="45.120737719785154" lon="8.17962522499429"><ele>395.00000000000006</ele><time>2026-04-25T16:20:21Z</time></trkpt><trkpt lat="45.120815058890784" lon="8.179644142678924"><ele>393.0</ele><time>2026-04-25T16:20:22Z</time></trkpt><trkpt lat="45.120891642352184" lon="8.179669449111847"><ele>391.0</ele><time>2026-04-25T16:20:23Z</time></trkpt><trkpt lat="45.120984423736125" lon="8.179696600825608"><ele>389.0</ele><time>2026-04-25T16:20:24Z</time></trkpt><trkpt lat="45.1210783350891" lon="8.179744258898522"><ele>387.00000000000006</ele><time>2026-04-25T16:20:25Z</time></trkpt><trkpt lat="45.121162119317965" lon="8.179795699730391"><ele>385.0</ele><time>2026-04-25T16:20:26Z</time></trkpt><trkpt lat="45.12127192170693" lon="8.179853458591076"><ele>385.0</ele><time>2026-04-25T16:20:27Z</time></trkpt><trkpt lat="45.12137939368998" lon="8.179941879117719"><ele>385.0</ele><time>2026-04-25T16:20:28.001Z</time></trkpt><trkpt lat="45.12152460050358" lon="8.179966659326357"><ele>385.0</ele><time>2026-04-25T16:20:29Z</time></trkpt><trkpt lat="45.12160233860747" lon="8.180057559228697"><ele>385.0</ele><time>2026-04-25T16:20:30Z</time></trkpt><trkpt lat="45.121681356666585" lon="8.180151691543683"><ele>378.5</ele><time>2026-04-25T16:20:31Z</time></trkpt><trkpt lat="45.1217335777164" lon="8.18023246745915"><ele>372.0</ele><time>2026-04-25T16:20:32Z</time></trkpt><trkpt lat="45.121934779353715" lon="8.180410481202143"><ele>365.5</ele><time>2026-04-25T16:20:42Z</time></trkpt><trkpt lat="45.12202337268217" lon="8.180445471611641"><ele>359.0</ele><time>2026-04-25T16:20:43Z</time></trkpt><trkpt lat="45.12211507379636" lon="8.180488451934194"><ele>359.0</ele><time>2026-04-25T16:20:44Z</time></trkpt><trkpt lat="45.12220338862188" lon="8.180553437390934"><ele>359.0</ele><time>2026-04-25T16:20:45Z</time></trkpt><trkpt lat="45.1222896621307" lon="8.180583834998059"><ele>359.0</ele><time>2026-04-25T16:20:46Z</time></trkpt><trkpt lat="45.122374794282216" lon="8.180608318358434"><ele>359.0</ele><time>2026-04-25T16:20:47Z</time></trkpt><trkpt lat="45.12245797344098" lon="8.18062638058258"><ele>359.0</ele><time>2026-04-25T16:20:48Z</time></trkpt><trkpt lat="45.122555426095765" lon="8.180633091277363"><ele>357.6666666666667</ele><time>2026-04-25T16:20:49Z</time></trkpt><trkpt lat="45.12263949234578" lon="8.180658562813452"><ele>356.33333333333337</ele><time>2026-04-25T16:20:50Z</time></trkpt><trkpt lat="45.12270703933502" lon="8.180707435287843"><ele>355.0</ele><time>2026-04-25T16:20:51Z</time></trkpt><trkpt lat="45.12277580406614" lon="8.180774843495374"><ele>353.6666666666667</ele><time>2026-04-25T16:20:52Z</time></trkpt><trkpt lat="45.122847708644464" lon="8.180860048944517"><ele>352.3333333333333</ele><time>2026-04-25T16:20:53Z</time></trkpt><trkpt lat="45.12291475440646" lon="8.180967925726693"><ele>351.0</ele><time>2026-04-25T16:20:54Z</time></trkpt><trkpt lat="45.12298507632501" lon="8.181076508798187"><ele>351.0</ele><time>2026-04-25T16:20:55Z</time></trkpt><trkpt lat="45.12305959619484" lon="8.181175157830594"><ele>351.0</ele><time>2026-04-25T16:20:56Z</time></trkpt><trkpt lat="45.12313694767142" lon="8.181248556107267"><ele>351.0</ele><time>2026-04-25T16:20:57Z</time></trkpt><trkpt lat="45.12321113241473" lon="8.181309907609812"><ele>351.0</ele><time>2026-04-25T16:20:58Z</time></trkpt><trkpt lat="45.12329221045443" lon="8.18134780854437"><ele>351.0</ele><time>2026-04-25T16:20:59Z</time></trkpt><trkpt lat="45.12335850513684" lon="8.181394282678912"><ele>351.0</ele><time>2026-04-25T16:21:00Z</time></trkpt><trkpt lat="45.123421115486416" lon="8.18144125658822"><ele>352.4</ele><time>2026-04-25T16:21:01Z</time></trkpt><trkpt lat="45.12349924060109" lon="8.181450225122472"><ele>353.8</ele><time>2026-04-25T16:21:02Z</time></trkpt><trkpt lat="45.12357730305328" lon="8.181464308049737"><ele>355.2</ele><time>2026-04-25T16:21:03Z</time></trkpt><trkpt lat="45.12367688758231" lon="8.181516889378889"><ele>356.59999999999997</ele><time>2026-04-25T16:21:04Z</time></trkpt><trkpt lat="45.12378021162338" lon="8.1815650138033"><ele>358.0</ele><time>2026-04-25T16:21:05Z</time></trkpt><trkpt lat="45.12387968311016" lon="8.181614822410172"><ele>355.0</ele><time>2026-04-25T16:21:06Z</time></trkpt><trkpt lat="45.12396480335119" lon="8.181662285430185"><ele>352.0</ele><time>2026-04-25T16:21:07Z</time></trkpt><trkpt lat="45.124037663123055" lon="8.181699634500522"><ele>349.0</ele><time>2026-04-25T16:21:08Z</time></trkpt><trkpt lat="45.12415222155148" lon="8.181766187334954"><ele>346.0</ele><time>2026-04-25T16:21:10Z</time></trkpt><trkpt lat="45.124214158970005" lon="8.18181239554645"><ele>343.0</ele><time>2026-04-25T16:21:12Z</time></trkpt><trkpt lat="45.124277348267626" lon="8.18172693837978"><ele>342.5</ele><time>2026-04-25T16:21:13Z</time></trkpt><trkpt lat="45.12441432299801" lon="8.181699680522708"><ele>342.0</ele><time>2026-04-25T16:21:15Z</time></trkpt><trkpt lat="45.12451376049878" lon="8.18166774905947"><ele>341.5</ele><time>2026-04-25T16:21:16Z</time></trkpt><trkpt lat="45.12462135526808" lon="8.181633175530138"><ele>341.0</ele><time>2026-04-25T16:21:17Z</time></trkpt><trkpt lat="45.1247336251974" lon="8.181555307675213"><ele>340.0</ele><time>2026-04-25T16:21:18Z</time></trkpt><trkpt lat="45.12485003607508" lon="8.181464194545345"><ele>339.0</ele><time>2026-04-25T16:21:19Z</time></trkpt><trkpt lat="45.12495455165872" lon="8.181374328541848"><ele>338.0</ele><time>2026-04-25T16:21:20Z</time></trkpt><trkpt lat="45.125053884469274" lon="8.18126371379574"><ele>337.0</ele><time>2026-04-25T16:21:21Z</time></trkpt><trkpt lat="45.125138521337014" lon="8.181143860913943"><ele>333.5</ele><time>2026-04-25T16:21:22Z</time></trkpt><trkpt lat="45.12521377912331" lon="8.181029418240671"><ele>330.0</ele><time>2026-04-25T16:21:23Z</time></trkpt><trkpt lat="45.1253047231111" lon="8.180945081573167"><ele>326.5</ele><time>2026-04-25T16:21:24Z</time></trkpt><trkpt lat="45.12541390035717" lon="8.180852050338492"><ele>323.0</ele><time>2026-04-25T16:21:25Z</time></trkpt><trkpt lat="45.125509499101064" lon="8.180752291231235"><ele>320.75</ele><time>2026-04-25T16:21:26Z</time></trkpt><trkpt lat="45.12559328522588" lon="8.180615824701041"><ele>318.5</ele><time>2026-04-25T16:21:27Z</time></trkpt><trkpt lat="45.12569812147817" lon="8.180520730091464"><ele>316.25</ele><time>2026-04-25T16:21:28Z</time></trkpt><trkpt lat="45.12579113538489" lon="8.180415358303572"><ele>314.0</ele><time>2026-04-25T16:21:29Z</time></trkpt><trkpt lat="45.12590586479131" lon="8.180340440726345"><ele>310.75</ele><time>2026-04-25T16:21:30Z</time></trkpt><trkpt lat="45.12602249582728" lon="8.18026892466314"><ele>307.5</ele><time>2026-04-25T16:21:31Z</time></trkpt><trkpt lat="45.12614382702216" lon="8.180206613373375"><ele>304.25</ele><time>2026-04-25T16:21:32Z</time></trkpt><trkpt lat="45.12626650665792" lon="8.180145491755402"><ele>301.0</ele><time>2026-04-25T16:21:33Z</time></trkpt><trkpt lat="45.1263763343922" lon="8.180055414486667"><ele>301.0</ele><time>2026-04-25T16:21:34Z</time></trkpt><trkpt lat="45.126475168198134" lon="8.179941876488733"><ele>301.0</ele><time>2026-04-25T16:21:35Z</time></trkpt><trkpt lat="45.12654842530692" lon="8.179792821792747"><ele>301.0</ele><time>2026-04-25T16:21:36Z</time></trkpt><trkpt lat="45.1266374833183" lon="8.179674701340467"><ele>301.0</ele><time>2026-04-25T16:21:37Z</time></trkpt><trkpt lat="45.12671459825433" lon="8.179544655189297"><ele>297.0</ele><time>2026-04-25T16:21:38Z</time></trkpt><trkpt lat="45.126784482478016" lon="8.179426235405673"><ele>293.0</ele><time>2026-04-25T16:21:39Z</time></trkpt><trkpt lat="45.126850382592814" lon="8.179314248066783"><ele>289.0</ele><time>2026-04-25T16:21:40Z</time></trkpt><trkpt lat="45.12690834637664" lon="8.179237044727218"><ele>285.0</ele><time>2026-04-25T16:21:41Z</time></trkpt><trkpt lat="45.12699158842769" lon="8.179192107272016"><ele>281.0</ele><time>2026-04-25T16:21:42Z</time></trkpt><trkpt lat="45.12708988379074" lon="8.179165938368222"><ele>281.0</ele><time>2026-04-25T16:21:43Z</time></trkpt><trkpt lat="45.12717001516303" lon="8.179145230138978"><ele>281.0</ele><time>2026-04-25T16:21:44Z</time></trkpt><trkpt lat="45.1272525713581" lon="8.179173265154771"><ele>281.0</ele><time>2026-04-25T16:21:45Z</time></trkpt><trkpt lat="45.12731283782083" lon="8.179259174479387"><ele>281.0</ele><time>2026-04-25T16:21:46Z</time></trkpt><trkpt lat="45.12737012508474" lon="8.179344878658126"><ele>281.0</ele><time>2026-04-25T16:21:47Z</time></trkpt><trkpt lat="45.12744437521499" lon="8.179317170739727"><ele>281.0</ele><time>2026-04-25T16:21:48Z</time></trkpt><trkpt lat="45.12754576198743" lon="8.179283612167707"><ele>279.83333333333337</ele><time>2026-04-25T16:21:49Z</time></trkpt><trkpt lat="45.12762573820598" lon="8.179203188633881"><ele>278.6666666666667</ele><time>2026-04-25T16:21:50Z</time></trkpt><trkpt lat="45.12767737330644" lon="8.17905481545165"><ele>277.5</ele><time>2026-04-25T16:21:51Z</time></trkpt><trkpt lat="45.1276996081216" lon="8.178959504727983"><ele>276.3333333333333</ele><time>2026-04-25T16:21:52Z</time></trkpt><trkpt lat="45.12770673557418" lon="8.178869784132859"><ele>275.16666666666663</ele><time>2026-04-25T16:21:53Z</time></trkpt><trkpt lat="45.12769710328803" lon="8.178776295591286"><ele>274.0</ele><time>2026-04-25T16:21:54Z</time></trkpt><trkpt lat="45.1276715087083" lon="8.17861650784876"><ele>271.8</ele><time>2026-04-25T16:21:56Z</time></trkpt><trkpt lat="45.12769399168596" lon="8.178484969229045"><ele>269.59999999999997</ele><time>2026-04-25T16:21:58Z</time></trkpt><trkpt lat="45.12784296299159" lon="8.178504950834318"><ele>267.4</ele><time>2026-04-25T16:21:59Z</time></trkpt><trkpt lat="45.12792760458881" lon="8.178499927553823"><ele>265.2</ele><time>2026-04-25T16:22:00Z</time></trkpt><trkpt lat="45.12799401151316" lon="8.178498258478317"><ele>263.0</ele><time>2026-04-25T16:22:01Z</time></trkpt><trkpt lat="45.12805519709963" lon="8.178523841630044"><ele>263.0</ele><time>2026-04-25T16:22:02Z</time></trkpt><trkpt lat="45.12811108638251" lon="8.178607980574544"><ele>263.0</ele><time>2026-04-25T16:22:03Z</time></trkpt><trkpt lat="45.12815829699975" lon="8.17869578176483"><ele>263.0</ele><time>2026-04-25T16:22:04Z</time></trkpt><trkpt lat="45.12822690515928" lon="8.178738144775837"><ele>263.0</ele><time>2026-04-25T16:22:05Z</time></trkpt><trkpt lat="45.1283098267592" lon="8.178762750802706"><ele>263.0</ele><time>2026-04-25T16:22:06Z</time></trkpt><trkpt lat="45.1284112687281" lon="8.178677924974021"><ele>263.0</ele><time>2026-04-25T16:22:07Z</time></trkpt><trkpt lat="45.128502346313525" lon="8.178629429256693"><ele>261.8</ele><time>2026-04-25T16:22:08Z</time></trkpt><trkpt lat="45.12859991125237" lon="8.178593121213884"><ele>260.6</ele><time>2026-04-25T16:22:09Z</time></trkpt><trkpt lat="45.128706862821815" lon="8.178563585207975"><ele>259.4</ele><time>2026-04-25T16:22:10.001Z</time></trkpt><trkpt lat="45.128810888794" lon="8.178551805732194"><ele>258.2</ele><time>2026-04-25T16:22:11.001Z</time></trkpt><trkpt lat="45.12891493246684" lon="8.178546858869566"><ele>257.0</ele><time>2026-04-25T16:22:12.001Z</time></trkpt><trkpt lat="45.12900935700252" lon="8.178512691562046"><ele>256.0</ele><time>2026-04-25T16:22:13.001Z</time></trkpt><trkpt lat="45.129092939781465" lon="8.178471646630827"><ele>255.0</ele><time>2026-04-25T16:22:14.001Z</time></trkpt><trkpt lat="45.12916930589718" lon="8.17841612746797"><ele>254.0</ele><time>2026-04-25T16:22:15.001Z</time></trkpt><trkpt lat="45.12921050055219" lon="8.178328748290363"><ele>253.0</ele><time>2026-04-25T16:22:16.001Z</time></trkpt><trkpt lat="45.12922541923356" lon="8.17821654057066"><ele>252.00000000000003</ele><time>2026-04-25T16:22:17.001Z</time></trkpt><trkpt lat="45.12924116415127" lon="8.178112704921114"><ele>251.0</ele><time>2026-04-25T16:22:18.001Z</time></trkpt><trkpt lat="45.12927131334116" lon="8.178006271391249"><ele>249.66666666666669</ele><time>2026-04-25T16:22:19.001Z</time></trkpt><trkpt lat="45.12930484582508" lon="8.177885326903825"><ele>248.33333333333334</ele><time>2026-04-25T16:22:20.001Z</time></trkpt><trkpt lat="45.12937973906792" lon="8.177811229195786"><ele>247.0</ele><time>2026-04-25T16:22:21.001Z</time></trkpt><trkpt lat="45.129443506548675" lon="8.177725526986434"><ele>245.66666666666669</ele><time>2026-04-25T16:22:22.001Z</time></trkpt><trkpt lat="45.12950380214246" lon="8.177641927064277"><ele>244.33333333333334</ele><time>2026-04-25T16:22:23.001Z</time></trkpt><trkpt lat="45.12954581452198" lon="8.177575382751586"><ele>243.0</ele><time>2026-04-25T16:22:24.001Z</time></trkpt><trkpt lat="45.12954607062866" lon="8.17745653521822"><ele>243.0</ele><time>2026-04-25T16:22:26.001Z</time></trkpt><trkpt lat="45.12941291781434" lon="8.177372130806896"><ele>243.0</ele><time>2026-04-25T16:22:28.001Z</time></trkpt><trkpt lat="45.129315012344804" lon="8.177351992627822"><ele>243.0</ele><time>2026-04-25T16:22:29.001Z</time></trkpt><trkpt lat="45.12921115983728" lon="8.177284548090453"><ele>243.0</ele><time>2026-04-25T16:22:30.001Z</time></trkpt><trkpt lat="45.129102505939024" lon="8.177259848855648"><ele>240.5</ele><time>2026-04-25T16:22:31.001Z</time></trkpt><trkpt lat="45.12900380255841" lon="8.177186830963285"><ele>238.0</ele><time>2026-04-25T16:22:32.001Z</time></trkpt><trkpt lat="45.12891118120397" lon="8.177137618614296"><ele>235.5</ele><time>2026-04-25T16:22:33.001Z</time></trkpt><trkpt lat="45.12884918794911" lon="8.17708250417096"><ele>233.0</ele><time>2026-04-25T16:22:34.001Z</time></trkpt><trkpt lat="45.12881890576469" lon="8.176994305156146"><ele>230.5</ele><time>2026-04-25T16:22:35Z</time></trkpt><trkpt lat="45.128834958342715" lon="8.17690155516303"><ele>228.0</ele><time>2026-04-25T16:22:36Z</time></trkpt><trkpt lat="45.12888415985827" lon="8.176809528716396"><ele>228.0</ele><time>2026-04-25T16:22:37Z</time></trkpt><trkpt lat="45.12896712918251" lon="8.17673249133675"><ele>228.0</ele><time>2026-04-25T16:22:38Z</time></trkpt><trkpt lat="45.129048148434364" lon="8.176723861568568"><ele>228.0</ele><time>2026-04-25T16:22:39Z</time></trkpt><trkpt lat="45.12915109968535" lon="8.176653525790915"><ele>228.0</ele><time>2026-04-25T16:22:40Z</time></trkpt><trkpt lat="45.12928883981404" lon="8.176634061706004"><ele>228.0</ele><time>2026-04-25T16:22:41Z</time></trkpt><trkpt lat="45.12941379630591" lon="8.176598725808477"><ele>227.75</ele><time>2026-04-25T16:22:42Z</time></trkpt><trkpt lat="45.12954770220678" lon="8.176550087866174"><ele>227.5</ele><time>2026-04-25T16:22:43Z</time></trkpt><trkpt lat="45.129676693933234" lon="8.176504129127267"><ele>227.25</ele><time>2026-04-25T16:22:44Z</time></trkpt><trkpt lat="45.12980470091051" lon="8.176508058215358"><ele>227.0</ele><time>2026-04-25T16:22:45Z</time></trkpt><trkpt lat="45.12993351215611" lon="8.176492888097522"><ele>224.5</ele><time>2026-04-25T16:22:46Z</time></trkpt><trkpt lat="45.130053036201986" lon="8.176511325279707"><ele>222.0</ele><time>2026-04-25T16:22:47Z</time></trkpt><trkpt lat="45.13015816839585" lon="8.176606611389438"><ele>219.5</ele><time>2026-04-25T16:22:48Z</time></trkpt><trkpt lat="45.13025363121781" lon="8.176690807855156"><ele>217.0</ele><time>2026-04-25T16:22:49Z</time></trkpt><trkpt lat="45.130344285267185" lon="8.176767377253352"><ele>217.0</ele><time>2026-04-25T16:22:50Z</time></trkpt><trkpt lat="45.13043778167947" lon="8.176819233680373"><ele>217.0</ele><time>2026-04-25T16:22:51Z</time></trkpt><trkpt lat="45.13051676771373" lon="8.176916993636326"><ele>217.0</ele><time>2026-04-25T16:22:52Z</time></trkpt><trkpt lat="45.13059775054047" lon="8.176993183673762"><ele>217.0</ele><time>2026-04-25T16:22:53Z</time></trkpt><trkpt lat="45.13068632549022" lon="8.17706981142593"><ele>217.0</ele><time>2026-04-25T16:22:54Z</time></trkpt><trkpt lat="45.130770216979606" lon="8.177149467535456"><ele>215.2</ele><time>2026-04-25T16:22:55Z</time></trkpt><trkpt lat="45.13084964740757" lon="8.177216405455537"><ele>213.39999999999998</ele><time>2026-04-25T16:22:56Z</time></trkpt><trkpt lat="45.130941211564405" lon="8.177303747866679"><ele>211.60000000000002</ele><time>2026-04-25T16:22:57Z</time></trkpt><trkpt lat="45.13102825279875" lon="8.177388978029256"><ele>209.8</ele><time>2026-04-25T16:22:58Z</time></trkpt><trkpt lat="45.1310989612024" lon="8.177507374739868"><ele>208.0</ele><time>2026-04-25T16:22:59Z</time></trkpt><trkpt lat="45.13115043119078" lon="8.17763295544139"><ele>208.0</ele><time>2026-04-25T16:23:00Z</time></trkpt><trkpt lat="45.131209861891755" lon="8.177748637812845"><ele>208.0</ele><time>2026-04-25T16:23:01Z</time></trkpt><trkpt lat="45.131259815482935" lon="8.177883642765122"><ele>208.0</ele><time>2026-04-25T16:23:02Z</time></trkpt><trkpt lat="45.13132671101388" lon="8.1780026303424"><ele>208.0</ele><time>2026-04-25T16:23:03Z</time></trkpt><trkpt lat="45.13139702126587" lon="8.178100651821358"><ele>208.0</ele><time>2026-04-25T16:23:04Z</time></trkpt><trkpt lat="45.131486944106506" lon="8.178174872557612"><ele>204.75</ele><time>2026-04-25T16:23:05Z</time></trkpt><trkpt lat="45.131591692455416" lon="8.178254668420212"><ele>201.5</ele><time>2026-04-25T16:23:06Z</time></trkpt><trkpt lat="45.13170810390368" lon="8.178328812749674"><ele>198.25</ele><time>2026-04-25T16:23:07Z</time></trkpt><trkpt lat="45.13180443418824" lon="8.178419096573528"><ele>195.0</ele><time>2026-04-25T16:23:08Z</time></trkpt><trkpt lat="45.131889864143886" lon="8.17852065621035"><ele>195.0</ele><time>2026-04-25T16:23:09Z</time></trkpt><trkpt lat="45.13197964517524" lon="8.178634371232194"><ele>195.0</ele><time>2026-04-25T16:23:10Z</time></trkpt><trkpt lat="45.13204674844153" lon="8.178710695207755"><ele>195.0</ele><time>2026-04-25T16:23:11Z</time></trkpt><trkpt lat="45.13211811139771" lon="8.17877864980431"><ele>195.0</ele><time>2026-04-25T16:23:12Z</time></trkpt><trkpt lat="45.13218456170759" lon="8.178794594901406"><ele>195.0</ele><time>2026-04-25T16:23:13Z</time></trkpt><trkpt lat="45.1322511231767" lon="8.178798466329445"><ele>195.0</ele><time>2026-04-25T16:23:14Z</time></trkpt><trkpt lat="45.13232134526007" lon="8.178737964798886"><ele>192.8</ele><time>2026-04-25T16:23:15Z</time></trkpt><trkpt lat="45.13239251800888" lon="8.17857408936405"><ele>190.6</ele><time>2026-04-25T16:23:16Z</time></trkpt><trkpt lat="45.1324752858631" lon="8.178485946623601"><ele>188.39999999999998</ele><time>2026-04-25T16:23:17Z</time></trkpt><trkpt lat="45.132545979100854" lon="8.178395126489301"><ele>186.2</ele><time>2026-04-25T16:23:18Z</time></trkpt><trkpt lat="45.132614721306254" lon="8.17835223960607"><ele>184.0</ele><time>2026-04-25T16:23:19Z</time></trkpt><trkpt lat="45.132679097881116" lon="8.17832444693693"><ele>184.0</ele><time>2026-04-25T16:23:20Z</time></trkpt><trkpt lat="45.132747440853294" lon="8.17837105444304"><ele>184.0</ele><time>2026-04-25T16:23:21Z</time></trkpt><trkpt lat="45.13286386302195" lon="8.1783925890623"><ele>184.0</ele><time>2026-04-25T16:23:22Z</time></trkpt><trkpt lat="45.132943799352184" lon="8.178416994533714"><ele>184.0</ele><time>2026-04-25T16:23:23Z</time></trkpt><trkpt lat="45.13301514847182" lon="8.178435183284602"><ele>184.0</ele><time>2026-04-25T16:23:24Z</time></trkpt><trkpt lat="45.13311908382044" lon="8.178485336109263"><ele>184.0</ele><time>2026-04-25T16:23:26Z</time></trkpt><trkpt lat="45.133059340868634" lon="8.178441720827603"><ele>184.0</ele><time>2026-04-25T16:23:33Z</time></trkpt><trkpt lat="45.13306204531398" lon="8.17817409702398"><ele>184.0</ele><time>2026-04-25T16:23:34Z</time></trkpt><trkpt lat="45.13304215672151" lon="8.178074383050841"><ele>184.0</ele><time>2026-04-25T16:24:09.001Z</time></trkpt><trkpt lat="45.13302628863873" lon="8.177980048206981"><ele>184.0</ele><time>2026-04-25T16:24:11.001Z</time></trkpt><trkpt lat="45.13300703250314" lon="8.177890763325342"><ele>184.0</ele><time>2026-04-25T16:24:14.001Z</time></trkpt><trkpt lat="45.1330331546299" lon="8.178072655876578"><ele>184.0</ele><time>2026-04-25T16:24:19.001Z</time></trkpt><trkpt lat="45.133077343792884" lon="8.178224912900454"><ele>184.0</ele><time>2026-04-25T16:24:21.001Z</time></trkpt><trkpt lat="45.13312780005308" lon="8.178333072397276"><ele>184.0</ele><time>2026-04-25T16:24:23.001Z</time></trkpt><trkpt lat="45.13315009492963" lon="8.178426905431841"><ele>184.0</ele><time>2026-04-25T16:24:26.001Z</time></trkpt><trkpt lat="45.13306593052061" lon="8.178471545206929"><ele>184.0</ele><time>2026-04-25T16:24:30.001Z</time></trkpt><trkpt lat="45.13295408632457" lon="8.178426864796457"><ele>184.0</ele><time>2026-04-25T16:24:32.001Z</time></trkpt><trkpt lat="45.13289129022591" lon="8.178415134119925"><ele>184.0</ele><time>2026-04-25T16:24:36.001Z</time></trkpt><trkpt lat="45.13283913209694" lon="8.178357068951678"><ele>184.0</ele><time>2026-04-25T16:25:01Z</time></trkpt><trkpt lat="45.13280974598255" lon="8.178266727695295"><ele>184.0</ele><time>2026-04-25T16:25:50.001Z</time></trkpt><trkpt lat="45.132798685929515" lon="8.17816441350873"><ele>184.0</ele><time>2026-04-25T16:26:02.001Z</time></trkpt><trkpt lat="45.13280071077629" lon="8.178072919918264"><ele>184.0</ele><time>2026-04-25T16:26:15.001Z</time></trkpt><trkpt lat="45.13277483546232" lon="8.177976896402471"><ele>184.0</ele><time>2026-04-25T16:26:21.001Z</time></trkpt><trkpt lat="45.13274199551614" lon="8.177874468859706"><ele>184.0</ele><time>2026-04-25T16:26:25.001Z</time></trkpt><trkpt lat="45.13266218939854" lon="8.177879739976943"><ele>184.0</ele><time>2026-04-25T16:26:28.001Z</time></trkpt><trkpt lat="45.13258876284474" lon="8.177865770260192"><ele>184.0</ele><time>2026-04-25T16:26:32.001Z</time></trkpt><trkpt lat="45.132518910948946" lon="8.177914997808198"><ele>184.0</ele><time>2026-04-25T16:26:55.001Z</time></trkpt><trkpt lat="45.13247272751203" lon="8.177999254861701"><ele>184.0</ele><time>2026-04-25T16:27:17Z</time></trkpt><trkpt lat="45.132408020510105" lon="8.177997815882067"><ele>184.0</ele><time>2026-04-25T16:27:38.001Z</time></trkpt><trkpt lat="45.13234343845677" lon="8.177981414760959"><ele>184.0</ele><time>2026-04-25T16:27:41.001Z</time></trkpt><trkpt lat="45.13226284860339" lon="8.177940336451247"><ele>184.0</ele><time>2026-04-25T16:27:44.001Z</time></trkpt><trkpt lat="45.13220580225106" lon="8.177883111838955"><ele>184.0</ele><time>2026-04-25T16:27:47.001Z</time></trkpt><trkpt lat="45.13215609184999" lon="8.177807307231149"><ele>184.0</ele><time>2026-04-25T16:27:49.001Z</time></trkpt><trkpt lat="45.13210402134044" lon="8.177729389350707"><ele>184.0</ele><time>2026-04-25T16:27:51.001Z</time></trkpt><trkpt lat="45.13205388436948" lon="8.177636905009038"><ele>184.5</ele><time>2026-04-25T16:27:53.001Z</time></trkpt><trkpt lat="45.13201349316186" lon="8.177548784435555"><ele>185.0</ele><time>2026-04-25T16:28:03.001Z</time></trkpt><trkpt lat="45.1319658888032" lon="8.177486186081044"><ele>185.5</ele><time>2026-04-25T16:28:10.001Z</time></trkpt><trkpt lat="45.131911095752635" lon="8.177404683700344"><ele>186.0</ele><time>2026-04-25T16:28:18.001Z</time></trkpt><trkpt lat="45.131847458712336" lon="8.177346478378103"><ele>186.5</ele><time>2026-04-25T16:28:22.001Z</time></trkpt><trkpt lat="45.13182629180712" lon="8.177223902347398"><ele>187.0</ele><time>2026-04-25T16:28:34.001Z</time></trkpt><trkpt lat="45.13184474292397" lon="8.177102430375289"><ele>187.0</ele><time>2026-04-25T16:28:37.001Z</time></trkpt><trkpt lat="45.13187235260046" lon="8.176945292336347"><ele>187.0</ele><time>2026-04-25T16:28:40.001Z</time></trkpt><trkpt lat="45.13187656957488" lon="8.176837706173378"><ele>187.0</ele><time>2026-04-25T16:28:42.001Z</time></trkpt><trkpt lat="45.13189590633592" lon="8.176725240200735"><ele>187.0</ele><time>2026-04-25T16:28:45.001Z</time></trkpt><trkpt lat="45.13193291660725" lon="8.17660942565596"><ele>187.0</ele><time>2026-04-25T16:28:48.001Z</time></trkpt><trkpt lat="45.13191596148554" lon="8.176510198825612"><ele>187.0</ele><time>2026-04-25T16:28:51.001Z</time></trkpt><trkpt lat="45.13183612557401" lon="8.176444946459478"><ele>187.83333333333334</ele><time>2026-04-25T16:28:53Z</time></trkpt><trkpt lat="45.13174383186374" lon="8.176477743817506"><ele>188.66666666666669</ele><time>2026-04-25T16:31:10.001Z</time></trkpt><trkpt lat="45.1316843377859" lon="8.176435930930202"><ele>189.5</ele><time>2026-04-25T16:31:30Z</time></trkpt><trkpt lat="45.13162292980959" lon="8.176486185469583"><ele>190.33333333333334</ele><time>2026-04-25T16:31:44Z</time></trkpt><trkpt lat="45.13170539929585" lon="8.176480921711113"><ele>191.16666666666666</ele><time>2026-04-25T16:41:42Z</time></trkpt><trkpt lat="45.131766249368944" lon="8.176439396839287"><ele>192.0</ele><time>2026-04-25T16:41:46Z</time></trkpt><trkpt lat="45.131843925530184" lon="8.17647396474697"><ele>191.16666666666666</ele><time>2026-04-25T16:41:49Z</time></trkpt><trkpt lat="45.1319201816155" lon="8.17653069042717"><ele>190.33333333333334</ele><time>2026-04-25T16:41:52Z</time></trkpt><trkpt lat="45.131967573659466" lon="8.176606047322455"><ele>189.5</ele><time>2026-04-25T16:41:56Z</time></trkpt><trkpt lat="45.131926710595465" lon="8.176690927241836"><ele>188.66666666666669</ele><time>2026-04-25T16:41:59Z</time></trkpt><trkpt lat="45.13188256461503" lon="8.176840804658994"><ele>187.83333333333334</ele><time>2026-04-25T16:42:03Z</time></trkpt><trkpt lat="45.13187110606836" lon="8.176936988257385"><ele>187.0</ele><time>2026-04-25T16:42:05Z</time></trkpt><trkpt lat="45.13183346849492" lon="8.17703706815171"><ele>187.0</ele><time>2026-04-25T16:42:09Z</time></trkpt><trkpt lat="45.13183413840346" lon="8.177151198817254"><ele>187.0</ele><time>2026-04-25T16:42:11Z</time></trkpt><trkpt lat="45.13185237292079" lon="8.177290712254516"><ele>187.0</ele><time>2026-04-25T16:42:13Z</time></trkpt><trkpt lat="45.13187061481918" lon="8.177380892436478"><ele>187.0</ele><time>2026-04-25T16:42:17Z</time></trkpt><trkpt lat="45.13192495196733" lon="8.17743346264756"><ele>187.0</ele><time>2026-04-25T16:42:20Z</time></trkpt><trkpt lat="45.13195632676718" lon="8.177525238828084"><ele>187.0</ele><time>2026-04-25T16:42:30Z</time></trkpt><trkpt lat="45.1320288667556" lon="8.17758861600299"><ele>187.16666666666669</ele><time>2026-04-25T16:42:34Z</time></trkpt><trkpt lat="45.132055718754145" lon="8.177671449232234"><ele>187.33333333333334</ele><time>2026-04-25T16:42:36Z</time></trkpt><trkpt lat="45.132121543755915" lon="8.17776288376256"><ele>187.5</ele><time>2026-04-25T16:42:38Z</time></trkpt><trkpt lat="45.13217438527166" lon="8.177855230297276"><ele>187.66666666666666</ele><time>2026-04-25T16:42:41Z</time></trkpt><trkpt lat="45.13223694417483" lon="8.177907645118086"><ele>187.83333333333331</ele><time>2026-04-25T16:42:44Z</time></trkpt><trkpt lat="45.13232365776779" lon="8.177961400936844"><ele>188.0</ele><time>2026-04-25T16:42:50Z</time></trkpt><trkpt lat="45.13241052785682" lon="8.17800542414172"><ele>187.33333333333331</ele><time>2026-04-25T16:42:53Z</time></trkpt><trkpt lat="45.132477329140535" lon="8.177967888376518"><ele>186.66666666666666</ele><time>2026-04-25T16:42:57Z</time></trkpt><trkpt lat="45.13254520376818" lon="8.177901256388862"><ele>186.0</ele><time>2026-04-25T16:43:02Z</time></trkpt><trkpt lat="45.132621202591025" lon="8.17785502524322"><ele>185.33333333333334</ele><time>2026-04-25T16:43:08Z</time></trkpt><trkpt lat="45.132686456315284" lon="8.17787761108478"><ele>184.66666666666669</ele><time>2026-04-25T16:43:11Z</time></trkpt><trkpt lat="45.1327493577046" lon="8.177954041738388"><ele>184.0</ele><time>2026-04-25T16:43:16Z</time></trkpt><trkpt lat="45.13276726055484" lon="8.17804965419173"><ele>184.0</ele><time>2026-04-25T16:43:19Z</time></trkpt><trkpt lat="45.132785065319254" lon="8.17815326555183"><ele>184.0</ele><time>2026-04-25T16:43:23Z</time></trkpt><trkpt lat="45.13280194041051" lon="8.178241925543295"><ele>184.0</ele><time>2026-04-25T16:44:17Z</time></trkpt><trkpt lat="45.1328155278831" lon="8.178335000566097"><ele>184.0</ele><time>2026-04-25T16:44:25Z</time></trkpt><trkpt lat="45.13289399021108" lon="8.178362154572369"><ele>184.0</ele><time>2026-04-25T16:46:23Z</time></trkpt><trkpt lat="45.13277707013884" lon="8.178343047729944"><ele>184.0</ele><time>2026-04-25T16:52:47Z</time></trkpt><trkpt lat="45.13270874444238" lon="8.178321876377241"><ele>184.0</ele><time>2026-04-25T16:52:48Z</time></trkpt><trkpt lat="45.132637168500395" lon="8.178315853791952"><ele>184.0</ele><time>2026-04-25T16:52:49Z</time></trkpt><trkpt lat="45.132564325004296" lon="8.178304046376159"><ele>184.0</ele><time>2026-04-25T16:52:50Z</time></trkpt><trkpt lat="45.132494909327775" lon="8.178330404770895"><ele>184.0</ele><time>2026-04-25T16:52:51Z</time></trkpt><trkpt lat="45.13239610070175" lon="8.178541450169037"><ele>184.0</ele><time>2026-04-25T16:53:02Z</time></trkpt><trkpt lat="45.13234443471561" lon="8.17861857509225"><ele>185.83333333333334</ele><time>2026-04-25T16:53:03Z</time></trkpt><trkpt lat="45.132269059116645" lon="8.178690736633358"><ele>187.66666666666669</ele><time>2026-04-25T16:53:04Z</time></trkpt><trkpt lat="45.13220402208328" lon="8.178756199329609"><ele>189.5</ele><time>2026-04-25T16:53:05Z</time></trkpt><trkpt lat="45.13211934265175" lon="8.178763318336319"><ele>191.33333333333334</ele><time>2026-04-25T16:53:06Z</time></trkpt><trkpt lat="45.1320598754972" lon="8.178717198223618"><ele>193.16666666666666</ele><time>2026-04-25T16:53:07Z</time></trkpt><trkpt lat="45.13199131172175" lon="8.17864525505035"><ele>195.0</ele><time>2026-04-25T16:53:08Z</time></trkpt><trkpt lat="45.13193218959213" lon="8.178544637445588"><ele>195.0</ele><time>2026-04-25T16:53:09Z</time></trkpt><trkpt lat="45.13185495058154" lon="8.178449140973592"><ele>195.0</ele><time>2026-04-25T16:53:10Z</time></trkpt><trkpt lat="45.13176057457988" lon="8.178357502019683"><ele>195.0</ele><time>2026-04-25T16:53:11Z</time></trkpt><trkpt lat="45.131656069577474" lon="8.178264134186733"><ele>195.0</ele><time>2026-04-25T16:53:12Z</time></trkpt><trkpt lat="45.131525131670976" lon="8.17817615618145"><ele>198.25</ele><time>2026-04-25T16:53:13Z</time></trkpt><trkpt lat="45.131407412016124" lon="8.178074818975215"><ele>201.5</ele><time>2026-04-25T16:53:14Z</time></trkpt><trkpt lat="45.131288508727536" lon="8.17795634619637"><ele>204.75</ele><time>2026-04-25T16:53:15Z</time></trkpt><trkpt lat="45.131197045931664" lon="8.177821932382214"><ele>208.0</ele><time>2026-04-25T16:53:16Z</time></trkpt><trkpt lat="45.13115487089846" lon="8.177626262851822"><ele>208.0</ele><time>2026-04-25T16:53:17Z</time></trkpt><trkpt lat="45.131092076154225" lon="8.177457068848602"><ele>208.0</ele><time>2026-04-25T16:53:18Z</time></trkpt><trkpt lat="45.13102202040834" lon="8.177347663530073"><ele>208.0</ele><time>2026-04-25T16:53:19Z</time></trkpt><trkpt lat="45.13092626242401" lon="8.177250508792378"><ele>208.0</ele><time>2026-04-25T16:53:20Z</time></trkpt><trkpt lat="45.13081884958547" lon="8.177146081998103"><ele>211.0</ele><time>2026-04-25T16:53:21Z</time></trkpt><trkpt lat="45.130709729739166" lon="8.177019768205268"><ele>214.0</ele><time>2026-04-25T16:53:22Z</time></trkpt><trkpt lat="45.130567983614654" lon="8.176912315803474"><ele>217.0</ele><time>2026-04-25T16:53:23Z</time></trkpt><trkpt lat="45.13043704600251" lon="8.176805831167384"><ele>217.0</ele><time>2026-04-25T16:53:24Z</time></trkpt><trkpt lat="45.13031355627393" lon="8.176706285233646"><ele>217.0</ele><time>2026-04-25T16:53:25Z</time></trkpt><trkpt lat="45.13018701452836" lon="8.176596542892213"><ele>217.0</ele><time>2026-04-25T16:53:26Z</time></trkpt><trkpt lat="45.13006530155171" lon="8.176494450039009"><ele>217.0</ele><time>2026-04-25T16:53:27Z</time></trkpt><trkpt lat="45.129951175799114" lon="8.17646162032829"><ele>214.75</ele><time>2026-04-25T16:53:28Z</time></trkpt><trkpt lat="45.129820787034184" lon="8.176462903296622"><ele>212.5</ele><time>2026-04-25T16:53:29Z</time></trkpt><trkpt lat="45.12969302220727" lon="8.176465021850294"><ele>210.25</ele><time>2026-04-25T16:53:30Z</time></trkpt><trkpt lat="45.1295447244173" lon="8.176494121655262"><ele>208.0</ele><time>2026-04-25T16:53:31Z</time></trkpt><trkpt lat="45.12940038956231" lon="8.176533455519197"><ele>214.33333333333331</ele><time>2026-04-25T16:53:32Z</time></trkpt><trkpt lat="45.12925056520617" lon="8.176604353876053"><ele>220.66666666666669</ele><time>2026-04-25T16:53:33Z</time></trkpt><trkpt lat="45.129093343951645" lon="8.176652879771364"><ele>227.0</ele><time>2026-04-25T16:53:34Z</time></trkpt><trkpt lat="45.12896018532742" lon="8.176719058044199"><ele>227.2</ele><time>2026-04-25T16:53:35Z</time></trkpt><trkpt lat="45.12884276816435" lon="8.176805558092601"><ele>227.39999999999998</ele><time>2026-04-25T16:53:36Z</time></trkpt><trkpt lat="45.12876754134706" lon="8.176915393131093"><ele>227.60000000000002</ele><time>2026-04-25T16:53:37Z</time></trkpt><trkpt lat="45.12875614569761" lon="8.17706670399075"><ele>227.8</ele><time>2026-04-25T16:53:38Z</time></trkpt><trkpt lat="45.12880022927966" lon="8.177151209937351"><ele>228.0</ele><time>2026-04-25T16:53:39Z</time></trkpt><trkpt lat="45.12892859811454" lon="8.177269301044841"><ele>228.0</ele><time>2026-04-25T16:53:41Z</time></trkpt><trkpt lat="45.129050793756974" lon="8.17726537889167"><ele>228.0</ele><time>2026-04-25T16:53:42Z</time></trkpt><trkpt lat="45.12915394309254" lon="8.177313421538544"><ele>228.0</ele><time>2026-04-25T16:53:43Z</time></trkpt><trkpt lat="45.12926450203842" lon="8.17736345172491"><ele>228.0</ele><time>2026-04-25T16:53:44Z</time></trkpt><trkpt lat="45.12937488366754" lon="8.17740765240281"><ele>231.0</ele><time>2026-04-25T16:53:45Z</time></trkpt><trkpt lat="45.12946426513872" lon="8.177441558603222"><ele>234.0</ele><time>2026-04-25T16:53:46Z</time></trkpt><trkpt lat="45.12952654966926" lon="8.177470640159791"><ele>237.0</ele><time>2026-04-25T16:53:47Z</time></trkpt><trkpt lat="45.12956317807075" lon="8.177572148411018"><ele>240.0</ele><time>2026-04-25T16:53:49Z</time></trkpt><trkpt lat="45.12944770949376" lon="8.177678095848599"><ele>243.0</ele><time>2026-04-25T16:53:50Z</time></trkpt><trkpt lat="45.129377602989834" lon="8.17774631529896"><ele>243.0</ele><time>2026-04-25T16:53:51Z</time></trkpt><trkpt lat="45.12931290422221" lon="8.177841949551723"><ele>243.0</ele><time>2026-04-25T16:53:52Z</time></trkpt><trkpt lat="45.129234754468584" lon="8.177990633813549"><ele>243.0</ele><time>2026-04-25T16:53:53Z</time></trkpt><trkpt lat="45.129195875515656" lon="8.178154354569802"><ele>243.0</ele><time>2026-04-25T16:53:54Z</time></trkpt><trkpt lat="45.12917317401716" lon="8.178307806056196"><ele>244.33333333333334</ele><time>2026-04-25T16:53:55Z</time></trkpt><trkpt lat="45.12911750384862" lon="8.178409366757652"><ele>245.66666666666669</ele><time>2026-04-25T16:53:56Z</time></trkpt><trkpt lat="45.12906460224641" lon="8.17846776598088"><ele>247.0</ele><time>2026-04-25T16:53:57Z</time></trkpt><trkpt lat="45.128990942593674" lon="8.17847112385348"><ele>248.33333333333334</ele><time>2026-04-25T16:53:58Z</time></trkpt><trkpt lat="45.128911079681686" lon="8.178521853935594"><ele>249.66666666666669</ele><time>2026-04-25T16:53:59Z</time></trkpt><trkpt lat="45.128811061145775" lon="8.178521853402675"><ele>251.0</ele><time>2026-04-25T16:54:00Z</time></trkpt><trkpt lat="45.12867234402563" lon="8.178543305118858"><ele>252.5</ele><time>2026-04-25T16:54:01Z</time></trkpt><trkpt lat="45.12853464138723" lon="8.178565800758456"><ele>254.0</ele><time>2026-04-25T16:54:02Z</time></trkpt><trkpt lat="45.12841725573418" lon="8.178641029845151"><ele>255.5</ele><time>2026-04-25T16:54:03Z</time></trkpt><trkpt lat="45.12831129462152" lon="8.178677290350821"><ele>257.0</ele><time>2026-04-25T16:54:04Z</time></trkpt><trkpt lat="45.12823331089643" lon="8.178732526047618"><ele>258.2</ele><time>2026-04-25T16:54:05Z</time></trkpt><trkpt lat="45.128161229617035" lon="8.178705758469482"><ele>259.4</ele><time>2026-04-25T16:54:06Z</time></trkpt><trkpt lat="45.12812966190647" lon="8.178563441406954"><ele>260.6</ele><time>2026-04-25T16:54:07Z</time></trkpt><trkpt lat="45.12805979944015" lon="8.17849319263673"><ele>261.8</ele><time>2026-04-25T16:54:08Z</time></trkpt><trkpt lat="45.12795472945171" lon="8.17841954867054"><ele>263.0</ele><time>2026-04-25T16:54:09Z</time></trkpt><trkpt lat="45.127881674212" lon="8.17843113029368"><ele>263.0</ele><time>2026-04-25T16:54:10Z</time></trkpt><trkpt lat="45.12778503870968" lon="8.178461181688192"><ele>263.0</ele><time>2026-04-25T16:54:11Z</time></trkpt><trkpt lat="45.12770478238582" lon="8.178522408879811"><ele>263.0</ele><time>2026-04-25T16:54:12Z</time></trkpt><trkpt lat="45.127651371155494" lon="8.178595158969234"><ele>263.0</ele><time>2026-04-25T16:54:13Z</time></trkpt><trkpt lat="45.12760899591745" lon="8.178690959445444"><ele>263.0</ele><time>2026-04-25T16:54:14Z</time></trkpt><trkpt lat="45.12766473177691" lon="8.178856367123753"><ele>263.0</ele><time>2026-04-25T16:54:15Z</time></trkpt><trkpt lat="45.127680104469334" lon="8.178973941549973"><ele>263.0</ele><time>2026-04-25T16:54:16Z</time></trkpt><trkpt lat="45.12766251464953" lon="8.179072326912916"><ele>263.0</ele><time>2026-04-25T16:54:17Z</time></trkpt><trkpt lat="45.1275874031413" lon="8.17915777069701"><ele>263.0</ele><time>2026-04-25T16:54:18Z</time></trkpt><trkpt lat="45.12751620539842" lon="8.179255263262329"><ele>263.0</ele><time>2026-04-25T16:54:19Z</time></trkpt><trkpt lat="45.1274363511637" lon="8.179301796562555"><ele>263.0</ele><time>2026-04-25T16:54:20Z</time></trkpt><trkpt lat="45.12735385571635" lon="8.179283999074546"><ele>266.6</ele><time>2026-04-25T16:54:21Z</time></trkpt><trkpt lat="45.12728771533123" lon="8.179230120435388"><ele>270.20000000000005</ele><time>2026-04-25T16:54:22Z</time></trkpt><trkpt lat="45.12722800216642" lon="8.179136340049435"><ele>273.8</ele><time>2026-04-25T16:54:23Z</time></trkpt><trkpt lat="45.12715467936643" lon="8.179091271477848"><ele>277.40000000000003</ele><time>2026-04-25T16:54:24Z</time></trkpt><trkpt lat="45.12705238602221" lon="8.179105285411008"><ele>281.0</ele><time>2026-04-25T16:54:25Z</time></trkpt><trkpt lat="45.12694883417486" lon="8.179164160247515"><ele>281.0</ele><time>2026-04-25T16:54:26Z</time></trkpt><trkpt lat="45.12685265085774" lon="8.179219030130353"><ele>281.0</ele><time>2026-04-25T16:54:27Z</time></trkpt><trkpt lat="45.12679925866399" lon="8.1793184838462"><ele>281.0</ele><time>2026-04-25T16:54:28Z</time></trkpt><trkpt lat="45.12672476492727" lon="8.179428639889618"><ele>281.0</ele><time>2026-04-25T16:54:29Z</time></trkpt><trkpt lat="45.12664372056406" lon="8.179553972063468"><ele>281.0</ele><time>2026-04-25T16:54:30Z</time></trkpt><trkpt lat="45.126572716262444" lon="8.17970846416966"><ele>286.0</ele><time>2026-04-25T16:54:31Z</time></trkpt><trkpt lat="45.12649013833766" lon="8.179864095457019"><ele>291.0</ele><time>2026-04-25T16:54:32Z</time></trkpt><trkpt lat="45.126381947463194" lon="8.17999031979576"><ele>296.0</ele><time>2026-04-25T16:54:33Z</time></trkpt><trkpt lat="45.1262704672794" lon="8.180104797752904"><ele>301.0</ele><time>2026-04-25T16:54:34Z</time></trkpt><trkpt lat="45.12614804758647" lon="8.180154486608433"><ele>301.0</ele><time>2026-04-25T16:54:35Z</time></trkpt><trkpt lat="45.126016926560744" lon="8.180245626850603"><ele>301.0</ele><time>2026-04-25T16:54:36Z</time></trkpt><trkpt lat="45.1258767582487" lon="8.180319497636159"><ele>301.0</ele><time>2026-04-25T16:54:37Z</time></trkpt><trkpt lat="45.12574987309007" lon="8.180427357186673"><ele>301.0</ele><time>2026-04-25T16:54:38Z</time></trkpt><trkpt lat="45.12563943418835" lon="8.180550464509913"><ele>304.25</ele><time>2026-04-25T16:54:39Z</time></trkpt><trkpt lat="45.12552558278878" lon="8.180664625091206"><ele>307.5</ele><time>2026-04-25T16:54:40Z</time></trkpt><trkpt lat="45.125435426926344" lon="8.18079758760894"><ele>310.75</ele><time>2026-04-25T16:54:41Z</time></trkpt><trkpt lat="45.12532049717362" lon="8.180876965297154"><ele>314.0</ele><time>2026-04-25T16:54:42Z</time></trkpt><trkpt lat="45.1252270820435" lon="8.180963024019636"><ele>315.79999999999995</ele><time>2026-04-25T16:54:43Z</time></trkpt><trkpt lat="45.12515014338234" lon="8.18104993879643"><ele>317.59999999999997</ele><time>2026-04-25T16:54:44Z</time></trkpt><trkpt lat="45.125076876101424" lon="8.181148380477836"><ele>319.4</ele><time>2026-04-25T16:54:45Z</time></trkpt><trkpt lat="45.124994029851194" lon="8.181244431605329"><ele>321.2</ele><time>2026-04-25T16:54:46Z</time></trkpt><trkpt lat="45.12489753754961" lon="8.181354464834943"><ele>323.0</ele><time>2026-04-25T16:54:47Z</time></trkpt><trkpt lat="45.12479585927269" lon="8.181465539908585"><ele>327.5</ele><time>2026-04-25T16:54:48Z</time></trkpt><trkpt lat="45.12467694563292" lon="8.181542866211275"><ele>332.0</ele><time>2026-04-25T16:54:49Z</time></trkpt><trkpt lat="45.124548727683546" lon="8.181624699789394"><ele>336.5</ele><time>2026-04-25T16:54:50Z</time></trkpt><trkpt lat="45.12443570553925" lon="8.181661367377531"><ele>341.0</ele><time>2026-04-25T16:54:51Z</time></trkpt><trkpt lat="45.1243174535755" lon="8.181681932536396"><ele>341.0</ele><time>2026-04-25T16:54:52Z</time></trkpt><trkpt lat="45.12422210776593" lon="8.181714864198092"><ele>341.0</ele><time>2026-04-25T16:54:53Z</time></trkpt><trkpt lat="45.124128973636445" lon="8.181725204831299"><ele>341.0</ele><time>2026-04-25T16:54:55Z</time></trkpt><trkpt lat="45.1240122486818" lon="8.18166808156136"><ele>341.0</ele><time>2026-04-25T16:54:57Z</time></trkpt><trkpt lat="45.1239037494731" lon="8.181610887155886"><ele>341.0</ele><time>2026-04-25T16:54:58Z</time></trkpt><trkpt lat="45.123789485940996" lon="8.181524863222567"><ele>345.25</ele><time>2026-04-25T16:54:59Z</time></trkpt><trkpt lat="45.1236718918095" lon="8.181463257094478"><ele>349.5</ele><time>2026-04-25T16:55:00Z</time></trkpt><trkpt lat="45.123529375503594" lon="8.181445732907303"><ele>353.75</ele><time>2026-04-25T16:55:01Z</time></trkpt><trkpt lat="45.12340860056096" lon="8.181403087279532"><ele>358.0</ele><time>2026-04-25T16:55:02Z</time></trkpt><trkpt lat="45.12332262128414" lon="8.181341884048505"><ele>358.0</ele><time>2026-04-25T16:55:03Z</time></trkpt><trkpt lat="45.123250903651744" lon="8.18128763446235"><ele>358.0</ele><time>2026-04-25T16:55:04Z</time></trkpt><trkpt lat="45.12315812822342" lon="8.181237943487323"><ele>358.0</ele><time>2026-04-25T16:55:05Z</time></trkpt><trkpt lat="45.12307289935554" lon="8.181144042373495"><ele>358.0</ele><time>2026-04-25T16:55:06Z</time></trkpt><trkpt lat="45.12298277956786" lon="8.181024105683589"><ele>358.0</ele><time>2026-04-25T16:55:07Z</time></trkpt><trkpt lat="45.1228960842648" lon="8.180896158609436"><ele>356.59999999999997</ele><time>2026-04-25T16:55:08Z</time></trkpt><trkpt lat="45.12282532060888" lon="8.180776240135613"><ele>355.2</ele><time>2026-04-25T16:55:09Z</time></trkpt><trkpt lat="45.12275094845535" lon="8.180669809023367"><ele>353.8</ele><time>2026-04-25T16:55:10Z</time></trkpt><trkpt lat="45.12265644143605" lon="8.180598426507036"><ele>352.4</ele><time>2026-04-25T16:55:11Z</time></trkpt><trkpt lat="45.12253840586416" lon="8.180560639423337"><ele>351.0</ele><time>2026-04-25T16:55:12Z</time></trkpt><trkpt lat="45.12240030927022" lon="8.180547991481104"><ele>352.6</ele><time>2026-04-25T16:55:13Z</time></trkpt><trkpt lat="45.12229016523411" lon="8.180537923728812"><ele>354.20000000000005</ele><time>2026-04-25T16:55:14Z</time></trkpt><trkpt lat="45.12219234747662" lon="8.180518467691574"><ele>355.79999999999995</ele><time>2026-04-25T16:55:15Z</time></trkpt><trkpt lat="45.12209443753458" lon="8.180471929026583"><ele>357.4</ele><time>2026-04-25T16:55:16Z</time></trkpt><trkpt lat="45.121995011576814" lon="8.180416921940415"><ele>359.0</ele><time>2026-04-25T16:55:17Z</time></trkpt><trkpt lat="45.1219059854942" lon="8.180354932672957"><ele>359.0</ele><time>2026-04-25T16:55:18Z</time></trkpt><trkpt lat="45.12182778051849" lon="8.180294421703113"><ele>359.0</ele><time>2026-04-25T16:55:19Z</time></trkpt><trkpt lat="45.12176336759999" lon="8.180206148350166"><ele>359.0</ele><time>2026-04-25T16:55:20Z</time></trkpt><trkpt lat="45.12171106958321" lon="8.180123651904097"><ele>359.0</ele><time>2026-04-25T16:55:21Z</time></trkpt><trkpt lat="45.12164918859654" lon="8.180051295536156"><ele>359.0</ele><time>2026-04-25T16:55:22Z</time></trkpt><trkpt lat="45.121526913793986" lon="8.179908319230943"><ele>362.2</ele><time>2026-04-25T16:55:24Z</time></trkpt><trkpt lat="45.12144627408475" lon="8.179814027236615"><ele>365.4</ele><time>2026-04-25T16:55:25Z</time></trkpt><trkpt lat="45.12135624252998" lon="8.179714071193887"><ele>368.6</ele><time>2026-04-25T16:55:26Z</time></trkpt><trkpt lat="45.12126740284211" lon="8.179613791183721"><ele>371.8</ele><time>2026-04-25T16:55:27Z</time></trkpt><trkpt lat="45.12119474616601" lon="8.179518842557243"><ele>375.0</ele><time>2026-04-25T16:55:28Z</time></trkpt><trkpt lat="45.12113245864645" lon="8.179417174956356"><ele>375.0</ele><time>2026-04-25T16:55:29Z</time></trkpt><trkpt lat="45.12104012109782" lon="8.179294769662944"><ele>375.0</ele><time>2026-04-25T16:55:30Z</time></trkpt><trkpt lat="45.12050734059223" lon="8.179499861743121"><ele>379.4</ele><time>2026-04-25T16:55:33Z</time></trkpt><trkpt lat="45.120423170398865" lon="8.179400562788842"><ele>383.8</ele><time>2026-04-25T16:55:34Z</time></trkpt><trkpt lat="45.1203363993125" lon="8.179319187458873"><ele>388.20000000000005</ele><time>2026-04-25T16:55:35Z</time></trkpt><trkpt lat="45.12027053158413" lon="8.179239874295988"><ele>392.6</ele><time>2026-04-25T16:55:36Z</time></trkpt><trkpt lat="45.12018454459967" lon="8.179146610591923"><ele>397.0</ele><time>2026-04-25T16:55:37Z</time></trkpt><trkpt lat="45.120102766111664" lon="8.179058345156824"><ele>397.40000000000003</ele><time>2026-04-25T16:55:38Z</time></trkpt><trkpt lat="45.120024160745984" lon="8.178958283324526"><ele>397.8</ele><time>2026-04-25T16:55:39Z</time></trkpt><trkpt lat="45.11993305627069" lon="8.178854007385638"><ele>398.2</ele><time>2026-04-25T16:55:40Z</time></trkpt><trkpt lat="45.11984745600881" lon="8.178758117433766"><ele>398.6</ele><time>2026-04-25T16:55:41Z</time></trkpt><trkpt lat="45.11977243336102" lon="8.178744348297112"><ele>399.0</ele><time>2026-04-25T16:55:43Z</time></trkpt><trkpt lat="45.11975787263556" lon="8.178932990195486"><ele>398.6666666666667</ele><time>2026-04-25T16:55:45Z</time></trkpt><trkpt lat="45.119748872116176" lon="8.179041018256692"><ele>398.33333333333337</ele><time>2026-04-25T16:55:46Z</time></trkpt><trkpt lat="45.11981728594189" lon="8.179161191241938"><ele>398.0</ele><time>2026-04-25T16:55:48Z</time></trkpt><trkpt lat="45.119874349915236" lon="8.179208583476967"><ele>397.6666666666667</ele><time>2026-04-25T16:55:49Z</time></trkpt><trkpt lat="45.119924516067314" lon="8.179325555146082"><ele>397.33333333333337</ele><time>2026-04-25T16:55:50Z</time></trkpt><trkpt lat="45.11995446084574" lon="8.17946096178969"><ele>397.0</ele><time>2026-04-25T16:55:51Z</time></trkpt><trkpt lat="45.12000756523057" lon="8.179579022393481"><ele>397.00000000000006</ele><time>2026-04-25T16:55:52Z</time></trkpt><trkpt lat="45.12006638641316" lon="8.179646752305171"><ele>397.0</ele><time>2026-04-25T16:55:53Z</time></trkpt><trkpt lat="45.12013289261319" lon="8.179720486668108"><ele>397.0</ele><time>2026-04-25T16:55:54Z</time></trkpt><trkpt lat="45.12019329492971" lon="8.179785825598522"><ele>397.0</ele><time>2026-04-25T16:55:55Z</time></trkpt><trkpt lat="45.12023262642317" lon="8.179944078062167"><ele>397.00000000000006</ele><time>2026-04-25T16:55:57Z</time></trkpt><trkpt lat="45.120206531054826" lon="8.180038783242747"><ele>397.0</ele><time>2026-04-25T16:55:58Z</time></trkpt><trkpt lat="45.120144627791944" lon="8.180126159651142"><ele>396.6666666666667</ele><time>2026-04-25T16:55:59Z</time></trkpt><trkpt lat="45.12007871470612" lon="8.180247392229582"><ele>396.33333333333337</ele><time>2026-04-25T16:56:00Z</time></trkpt><trkpt lat="45.12003117352806" lon="8.180359071210113"><ele>396.0</ele><time>2026-04-25T16:56:01Z</time></trkpt><trkpt lat="45.11999216392149" lon="8.180474794536227"><ele>395.66666666666663</ele><time>2026-04-25T16:56:02Z</time></trkpt><trkpt lat="45.11996670167742" lon="8.180586501958823"><ele>395.3333333333333</ele><time>2026-04-25T16:56:03Z</time></trkpt><trkpt lat="45.119938036641614" lon="8.180685579956323"><ele>395.0</ele><time>2026-04-25T16:56:04Z</time></trkpt><trkpt lat="45.11990103296152" lon="8.180799642437158"><ele>394.99999999999994</ele><time>2026-04-25T16:56:05Z</time></trkpt><trkpt lat="45.1199027300425" lon="8.18092911262965"><ele>395.0</ele><time>2026-04-25T16:56:06Z</time></trkpt><trkpt lat="45.119921418753464" lon="8.181061437568276"><ele>395.0</ele><time>2026-04-25T16:56:07Z</time></trkpt><trkpt lat="45.11993783046566" lon="8.18117048083827"><ele>395.0</ele><time>2026-04-25T16:56:08Z</time></trkpt><trkpt lat="45.11995585433901" lon="8.181278408937933"><ele>394.99999999999994</ele><time>2026-04-25T16:56:09Z</time></trkpt><trkpt lat="45.1199844328296" lon="8.181364074081742"><ele>395.0</ele><time>2026-04-25T16:56:10Z</time></trkpt><trkpt lat="45.12003094720936" lon="8.181457211540666"><ele>394.0</ele><time>2026-04-25T16:56:11.999Z</time></trkpt><trkpt lat="45.120080308315245" lon="8.181540436843601"><ele>393.0</ele><time>2026-04-25T16:56:13.999Z</time></trkpt><trkpt lat="45.12014811930744" lon="8.18170147778331"><ele>392.0</ele><time>2026-04-25T16:56:15.999Z</time></trkpt><trkpt lat="45.12017646326651" lon="8.181792432810402"><ele>391.0</ele><time>2026-04-25T16:56:16.999Z</time></trkpt><trkpt lat="45.12023669127783" lon="8.181944769615829"><ele>390.0</ele><time>2026-04-25T16:56:18.999Z</time></trkpt><trkpt lat="45.120290949092755" lon="8.182090299641027"><ele>390.0</ele><time>2026-04-25T16:56:20.999Z</time></trkpt><trkpt lat="45.12031957446588" lon="8.182177133256857"><ele>390.0</ele><time>2026-04-25T16:56:21.999Z</time></trkpt><trkpt lat="45.12034775257942" lon="8.182267010682665"><ele>390.0</ele><time>2026-04-25T16:56:22.999Z</time></trkpt><trkpt lat="45.12036926677549" lon="8.182371077669412"><ele>390.0</ele><time>2026-04-25T16:56:23.999Z</time></trkpt><trkpt lat="45.12039396810097" lon="8.182474364853723"><ele>390.0</ele><time>2026-04-25T16:56:24.999Z</time></trkpt><trkpt lat="45.1204176903851" lon="8.182562202942972"><ele>390.0</ele><time>2026-04-25T16:56:25.999Z</time></trkpt><trkpt lat="45.12045074576214" lon="8.182741294150011"><ele>387.6</ele><time>2026-04-25T16:56:27.999Z</time></trkpt><trkpt lat="45.12049200484697" lon="8.182883376869182"><ele>385.2</ele><time>2026-04-25T16:56:29.999Z</time></trkpt><trkpt lat="45.120507382600586" lon="8.183018036160549"><ele>382.79999999999995</ele><time>2026-04-25T16:56:31.999Z</time></trkpt><trkpt lat="45.120538972550214" lon="8.183199065711653"><ele>380.4</ele><time>2026-04-25T16:56:33.999Z</time></trkpt><trkpt lat="45.12058434228426" lon="8.183311297915521"><ele>378.0</ele><time>2026-04-25T16:56:34.999Z</time></trkpt><trkpt lat="45.120638213043335" lon="8.183396203705177"><ele>376.1666666666667</ele><time>2026-04-25T16:56:35.999Z</time></trkpt><trkpt lat="45.120672176153576" lon="8.183480863425382"><ele>374.3333333333333</ele><time>2026-04-25T16:56:36.999Z</time></trkpt><trkpt lat="45.120676100621125" lon="8.183596502766866"><ele>372.5</ele><time>2026-04-25T16:56:37.999Z</time></trkpt><trkpt lat="45.12068648408177" lon="8.183695199850122"><ele>370.66666666666663</ele><time>2026-04-25T16:56:38.999Z</time></trkpt><trkpt lat="45.12071379491463" lon="8.183835722801991"><ele>368.8333333333333</ele><time>2026-04-25T16:56:39.999Z</time></trkpt><trkpt lat="45.120735191336095" lon="8.183978124040678"><ele>367.0</ele><time>2026-04-25T16:56:40.999Z</time></trkpt><trkpt lat="45.1207655213966" lon="8.184116150144895"><ele>366.20000000000005</ele><time>2026-04-25T16:56:41.999Z</time></trkpt><trkpt lat="45.1207896196464" lon="8.184259960118112"><ele>365.4</ele><time>2026-04-25T16:56:42.999Z</time></trkpt><trkpt lat="45.12081082226357" lon="8.184403835620486"><ele>364.6</ele><time>2026-04-25T16:56:44Z</time></trkpt><trkpt lat="45.12082653201955" lon="8.184543719844605"><ele>363.79999999999995</ele><time>2026-04-25T16:56:45Z</time></trkpt><trkpt lat="45.12085275696526" lon="8.18469606480716"><ele>363.0</ele><time>2026-04-25T16:56:46Z</time></trkpt><trkpt lat="45.120804315836196" lon="8.184838169113878"><ele>362.0</ele><time>2026-04-25T16:56:47Z</time></trkpt><trkpt lat="45.12076448947764" lon="8.184964107302113"><ele>361.0</ele><time>2026-04-25T16:56:48Z</time></trkpt><trkpt lat="45.120717995719275" lon="8.185071181886737"><ele>360.0</ele><time>2026-04-25T16:56:49Z</time></trkpt><trkpt lat="45.12066255058951" lon="8.185167762376349"><ele>359.0</ele><time>2026-04-25T16:56:50Z</time></trkpt><trkpt lat="45.120587579052746" lon="8.185284696166383"><ele>358.0</ele><time>2026-04-25T16:56:51Z</time></trkpt><trkpt lat="45.12049490651846" lon="8.185409588088334"><ele>357.75</ele><time>2026-04-25T16:56:52Z</time></trkpt><trkpt lat="45.12037481013461" lon="8.185525623045118"><ele>357.5</ele><time>2026-04-25T16:56:53Z</time></trkpt><trkpt lat="45.120267699624684" lon="8.18561052515386"><ele>357.25</ele><time>2026-04-25T16:56:54Z</time></trkpt><trkpt lat="45.12015550358878" lon="8.185708677226735"><ele>357.0</ele><time>2026-04-25T16:56:55Z</time></trkpt><trkpt lat="45.120081120530436" lon="8.185804156906922"><ele>357.0</ele><time>2026-04-25T16:56:56Z</time></trkpt><trkpt lat="45.12002177198917" lon="8.185889459098096"><ele>357.0</ele><time>2026-04-25T16:56:57Z</time></trkpt><trkpt lat="45.119953596808834" lon="8.18597586636726"><ele>357.0</ele><time>2026-04-25T16:56:58Z</time></trkpt><trkpt lat="45.11988133900523" lon="8.186045268574098"><ele>357.0</ele><time>2026-04-25T16:56:59Z</time></trkpt><trkpt lat="45.11978071625255" lon="8.186106798211124"><ele>357.0</ele><time>2026-04-25T16:57:00Z</time></trkpt><trkpt lat="45.119678008796626" lon="8.186169726287625"><ele>356.25</ele><time>2026-04-25T16:57:01Z</time></trkpt><trkpt lat="45.119543091716885" lon="8.186262695907981"><ele>355.5</ele><time>2026-04-25T16:57:02Z</time></trkpt><trkpt lat="45.11942389867905" lon="8.186391791237329"><ele>354.75</ele><time>2026-04-25T16:57:03Z</time></trkpt><trkpt lat="45.11931161736143" lon="8.186495467080785"><ele>354.0</ele><time>2026-04-25T16:57:04Z</time></trkpt><trkpt lat="45.11921760552386" lon="8.186599448146358"><ele>353.25</ele><time>2026-04-25T16:57:05Z</time></trkpt><trkpt lat="45.11913974641099" lon="8.186729570857292"><ele>352.5</ele><time>2026-04-25T16:57:06Z</time></trkpt><trkpt lat="45.11904967850508" lon="8.18686059938541"><ele>351.75</ele><time>2026-04-25T16:57:07Z</time></trkpt><trkpt lat="45.118964863579365" lon="8.186981852510534"><ele>351.0</ele><time>2026-04-25T16:57:08Z</time></trkpt><trkpt lat="45.11891604729259" lon="8.18711567459437"><ele>348.1666666666667</ele><time>2026-04-25T16:57:09Z</time></trkpt><trkpt lat="45.118880690309005" lon="8.187211579545524"><ele>345.3333333333333</ele><time>2026-04-25T16:57:10Z</time></trkpt><trkpt lat="45.118817716919125" lon="8.187289667296778"><ele>342.5</ele><time>2026-04-25T16:57:11Z</time></trkpt><trkpt lat="45.11874562239693" lon="8.187322552009404"><ele>339.66666666666663</ele><time>2026-04-25T16:57:12Z</time></trkpt><trkpt lat="45.11866761947745" lon="8.187364472725415"><ele>336.8333333333333</ele><time>2026-04-25T16:57:13Z</time></trkpt><trkpt lat="45.11859468890764" lon="8.187438911234157"><ele>334.0</ele><time>2026-04-25T16:57:14Z</time></trkpt><trkpt lat="45.11853431736948" lon="8.18754444321148"><ele>334.0</ele><time>2026-04-25T16:57:15Z</time></trkpt><trkpt lat="45.11844018528759" lon="8.187672373023611"><ele>334.0</ele><time>2026-04-25T16:57:16Z</time></trkpt><trkpt lat="45.11835183545213" lon="8.187841585725211"><ele>334.0</ele><time>2026-04-25T16:57:17Z</time></trkpt><trkpt lat="45.11827636135359" lon="8.188041480718296"><ele>334.0</ele><time>2026-04-25T16:57:18Z</time></trkpt><trkpt lat="45.118179104664286" lon="8.188216608606467"><ele>331.5</ele><time>2026-04-25T16:57:19Z</time></trkpt><trkpt lat="45.11805149109578" lon="8.188386079932002"><ele>329.0</ele><time>2026-04-25T16:57:20Z</time></trkpt><trkpt lat="45.11795607169366" lon="8.188544548137564"><ele>326.5</ele><time>2026-04-25T16:57:21Z</time></trkpt><trkpt lat="45.117902332260854" lon="8.18868301870379"><ele>324.0</ele><time>2026-04-25T16:57:22Z</time></trkpt><trkpt lat="45.117813460760765" lon="8.188781957110265"><ele>324.0</ele><time>2026-04-25T16:57:23Z</time></trkpt><trkpt lat="45.11773537390876" lon="8.188853312381454"><ele>324.0</ele><time>2026-04-25T16:57:24Z</time></trkpt><trkpt lat="45.11764708758758" lon="8.188840037982276"><ele>324.0</ele><time>2026-04-25T16:57:25Z</time></trkpt><trkpt lat="45.11755935082779" lon="8.18885478926303"><ele>324.0</ele><time>2026-04-25T16:57:26Z</time></trkpt><trkpt lat="45.117480866151446" lon="8.188879997634293"><ele>324.0</ele><time>2026-04-25T16:57:27Z</time></trkpt><trkpt lat="45.11741823717196" lon="8.188964952131064"><ele>324.0</ele><time>2026-04-25T16:57:28Z</time></trkpt><trkpt lat="45.11739215479957" lon="8.189092823255901"><ele>326.6</ele><time>2026-04-25T16:57:29Z</time></trkpt><trkpt lat="45.11741867708618" lon="8.189253589192516"><ele>329.2</ele><time>2026-04-25T16:57:30Z</time></trkpt><trkpt lat="45.11744155147808" lon="8.189419987024479"><ele>331.8</ele><time>2026-04-25T16:57:31Z</time></trkpt><trkpt lat="45.11747579695257" lon="8.189558217374628"><ele>334.40000000000003</ele><time>2026-04-25T16:57:32Z</time></trkpt><trkpt lat="45.1175408872861" lon="8.18966261694747"><ele>337.0</ele><time>2026-04-25T16:57:33Z</time></trkpt><trkpt lat="45.117622991228195" lon="8.189729517210246"><ele>337.0</ele><time>2026-04-25T16:57:34Z</time></trkpt><trkpt lat="45.11772484947857" lon="8.189812746825142"><ele>337.0</ele><time>2026-04-25T16:57:35Z</time></trkpt><trkpt lat="45.11781022487302" lon="8.189926672020704"><ele>337.0</ele><time>2026-04-25T16:57:36Z</time></trkpt><trkpt lat="45.1178682849637" lon="8.190016404924584"><ele>337.0</ele><time>2026-04-25T16:57:37Z</time></trkpt><trkpt lat="45.11789812000811" lon="8.190101626401878"><ele>337.0</ele><time>2026-04-25T16:57:38Z</time></trkpt><trkpt lat="45.11789235741923" lon="8.190194285493574"><ele>334.40000000000003</ele><time>2026-04-25T16:57:39Z</time></trkpt><trkpt lat="45.117852691186684" lon="8.19026406285631"><ele>331.8</ele><time>2026-04-25T16:57:40Z</time></trkpt><trkpt lat="45.11782673832429" lon="8.190376604801065"><ele>329.2</ele><time>2026-04-25T16:57:41Z</time></trkpt><trkpt lat="45.11778841176338" lon="8.19055137879805"><ele>326.6</ele><time>2026-04-25T16:57:42Z</time></trkpt><trkpt lat="45.11774384963212" lon="8.19076287897075"><ele>324.0</ele><time>2026-04-25T16:57:43Z</time></trkpt><trkpt lat="45.117687373358315" lon="8.19100772826131"><ele>324.0</ele><time>2026-04-25T16:57:44Z</time></trkpt><trkpt lat="45.11762500243285" lon="8.19122600784872"><ele>324.0</ele><time>2026-04-25T16:57:45Z</time></trkpt><trkpt lat="45.11755059040763" lon="8.191409270581746"><ele>324.0</ele><time>2026-04-25T16:57:46Z</time></trkpt><trkpt lat="45.11747974583047" lon="8.191571175214216"><ele>324.0</ele><time>2026-04-25T16:57:47Z</time></trkpt><trkpt lat="45.117415434765306" lon="8.191717262324865"><ele>324.0</ele><time>2026-04-25T16:57:48Z</time></trkpt><trkpt lat="45.11736122124883" lon="8.191852671242955"><ele>324.0</ele><time>2026-04-25T16:57:49Z</time></trkpt><trkpt lat="45.11732290399862" lon="8.19195610516656"><ele>324.0</ele><time>2026-04-25T16:57:50Z</time></trkpt><trkpt lat="45.11730491510795" lon="8.192042067648886"><ele>324.0</ele><time>2026-04-25T16:57:51Z</time></trkpt><trkpt lat="45.11726407527044" lon="8.192151486670715"><ele>317.6666666666667</ele><time>2026-04-25T16:57:53Z</time></trkpt><trkpt lat="45.11720365795643" lon="8.192210543733461"><ele>311.33333333333337</ele><time>2026-04-25T16:57:54Z</time></trkpt><trkpt lat="45.116855423169774" lon="8.192267303745918"><ele>305.0</ele><time>2026-04-25T16:57:56Z</time></trkpt><trkpt lat="45.11670071343678" lon="8.19233076297291"><ele>305.0</ele><time>2026-04-25T16:57:57Z</time></trkpt><trkpt lat="45.11653873599833" lon="8.192384047350194"><ele>305.0</ele><time>2026-04-25T16:57:58Z</time></trkpt><trkpt lat="45.116406600892674" lon="8.192453106450593"><ele>305.0</ele><time>2026-04-25T16:57:59Z</time></trkpt><trkpt lat="45.11628352415193" lon="8.192527578879337"><ele>305.0</ele><time>2026-04-25T16:57:59.999Z</time></trkpt><trkpt lat="45.11616033221466" lon="8.192622978847082"><ele>305.0</ele><time>2026-04-25T16:58:00.999Z</time></trkpt><trkpt lat="45.11604842735196" lon="8.192720706787025"><ele>305.0</ele><time>2026-04-25T16:58:01.999Z</time></trkpt><trkpt lat="45.11596213247488" lon="8.192832119996547"><ele>305.0</ele><time>2026-04-25T16:58:02.999Z</time></trkpt><trkpt lat="45.11588818457012" lon="8.19294127654084"><ele>305.0</ele><time>2026-04-25T16:58:03.999Z</time></trkpt><trkpt lat="45.11580739918906" lon="8.193029895418695"><ele>304.0</ele><time>2026-04-25T16:58:04.999Z</time></trkpt><trkpt lat="45.115721958620966" lon="8.193105047373901"><ele>303.0</ele><time>2026-04-25T16:58:05.999Z</time></trkpt><trkpt lat="45.11564706806486" lon="8.193168867295704"><ele>302.0</ele><time>2026-04-25T16:58:06.999Z</time></trkpt><trkpt lat="45.11558426709856" lon="8.19319674133969"><ele>301.0</ele><time>2026-04-25T16:58:07.999Z</time></trkpt><trkpt lat="45.11551786173759" lon="8.193166305402066"><ele>300.0</ele><time>2026-04-25T16:58:08.999Z</time></trkpt><trkpt lat="45.11546129036029" lon="8.193106794693275"><ele>299.0</ele><time>2026-04-25T16:58:09.999Z</time></trkpt><trkpt lat="45.11539332609229" lon="8.193040202786575"><ele>299.0</ele><time>2026-04-25T16:58:10.999Z</time></trkpt><trkpt lat="45.11533813226689" lon="8.192987585308442"><ele>299.0</ele><time>2026-04-25T16:58:11.999Z</time></trkpt><trkpt lat="45.115271407934976" lon="8.192944787746578"><ele>299.0</ele><time>2026-04-25T16:58:12.999Z</time></trkpt><trkpt lat="45.11518789732654" lon="8.193039930883927"><ele>299.0</ele><time>2026-04-25T16:58:14.999Z</time></trkpt><trkpt lat="45.11515728394927" lon="8.193163260487369"><ele>299.0</ele><time>2026-04-25T16:58:15.999Z</time></trkpt><trkpt lat="45.11513355561914" lon="8.193274950615251"><ele>299.0</ele><time>2026-04-25T16:58:16.998Z</time></trkpt><trkpt lat="45.11510718479363" lon="8.193388170975496"><ele>299.0</ele><time>2026-04-25T16:58:17.998Z</time></trkpt><trkpt lat="45.115084334847204" lon="8.193483376350146"><ele>299.0</ele><time>2026-04-25T16:58:18.999Z</time></trkpt><trkpt lat="45.11506264271491" lon="8.19358874685714"><ele>299.0</ele><time>2026-04-25T16:58:19.999Z</time></trkpt><trkpt lat="45.115042615482025" lon="8.193682042683037"><ele>299.0</ele><time>2026-04-25T16:58:20.999Z</time></trkpt><trkpt lat="45.11501891818018" lon="8.193782542177297"><ele>299.0</ele><time>2026-04-25T16:58:21.999Z</time></trkpt><trkpt lat="45.11499373681584" lon="8.193895176367652"><ele>299.0</ele><time>2026-04-25T16:58:22.999Z</time></trkpt><trkpt lat="45.114963319052414" lon="8.194038683070168"><ele>298.2</ele><time>2026-04-25T16:58:23.999Z</time></trkpt><trkpt lat="45.11492638724169" lon="8.194193236017234"><ele>297.4</ele><time>2026-04-25T16:58:24.999Z</time></trkpt><trkpt lat="45.11488240592659" lon="8.194353800312655"><ele>296.6</ele><time>2026-04-25T16:58:25.999Z</time></trkpt><trkpt lat="45.11484321460124" lon="8.194465894781215"><ele>295.8</ele><time>2026-04-25T16:58:26.999Z</time></trkpt><trkpt lat="45.114786597201835" lon="8.194602527746538"><ele>295.0</ele><time>2026-04-25T16:58:27.999Z</time></trkpt><trkpt lat="45.11471387732338" lon="8.194756062636001"><ele>292.75</ele><time>2026-04-25T16:58:28.999Z</time></trkpt><trkpt lat="45.11463737886853" lon="8.194890705145358"><ele>290.5</ele><time>2026-04-25T16:58:29.999Z</time></trkpt><trkpt lat="45.11455174805553" lon="8.19502472223481"><ele>288.25</ele><time>2026-04-25T16:58:30.999Z</time></trkpt><trkpt lat="45.11446680727019" lon="8.195133535762777"><ele>286.0</ele><time>2026-04-25T16:58:31.999Z</time></trkpt><trkpt lat="45.11436478941238" lon="8.19525127734434"><ele>286.0</ele><time>2026-04-25T16:58:32.999Z</time></trkpt><trkpt lat="45.114287920495116" lon="8.19534846942078"><ele>286.0</ele><time>2026-04-25T16:58:33.999Z</time></trkpt><trkpt lat="45.11418745308024" lon="8.195437481932691"><ele>286.0</ele><time>2026-04-25T16:58:34.999Z</time></trkpt><trkpt lat="45.11409407829874" lon="8.195551151464198"><ele>286.0</ele><time>2026-04-25T16:58:35.999Z</time></trkpt><trkpt lat="45.11400805473448" lon="8.195665496828754"><ele>282.75</ele><time>2026-04-25T16:58:36.999Z</time></trkpt><trkpt lat="45.11391015799523" lon="8.19578169174934"><ele>279.5</ele><time>2026-04-25T16:58:37.999Z</time></trkpt><trkpt lat="45.113795194149965" lon="8.195897339714545"><ele>276.25</ele><time>2026-04-25T16:58:38.999Z</time></trkpt><trkpt lat="45.11367814058717" lon="8.196025533437776"><ele>273.0</ele><time>2026-04-25T16:58:39.999Z</time></trkpt><trkpt lat="45.11357968455646" lon="8.196150298777104"><ele>273.0</ele><time>2026-04-25T16:58:40.999Z</time></trkpt><trkpt lat="45.11348212156769" lon="8.1962541839105"><ele>273.0</ele><time>2026-04-25T16:58:41.999Z</time></trkpt><trkpt lat="45.113394182246886" lon="8.196340550832357"><ele>273.0</ele><time>2026-04-25T16:58:42.999Z</time></trkpt><trkpt lat="45.11328629335036" lon="8.196431925229003"><ele>273.0</ele><time>2026-04-25T16:58:43.999Z</time></trkpt><trkpt lat="45.1132185670203" lon="8.1965317675159"><ele>271.6666666666667</ele><time>2026-04-25T16:58:44.999Z</time></trkpt><trkpt lat="45.11314882422496" lon="8.196609080975858"><ele>270.3333333333333</ele><time>2026-04-25T16:58:45.999Z</time></trkpt><trkpt lat="45.11308182938182" lon="8.196696770562099"><ele>269.0</ele><time>2026-04-25T16:58:46.999Z</time></trkpt><trkpt lat="45.112992687746896" lon="8.196794170156396"><ele>267.66666666666663</ele><time>2026-04-25T16:58:47.999Z</time></trkpt><trkpt lat="45.112909865718166" lon="8.196825597381377"><ele>266.3333333333333</ele><time>2026-04-25T16:58:48.999Z</time></trkpt><trkpt lat="45.11285809562789" lon="8.196892475268811"><ele>265.0</ele><time>2026-04-25T16:58:49.999Z</time></trkpt><trkpt lat="45.11278138862017" lon="8.196920810307553"><ele>265.0</ele><time>2026-04-25T16:58:50.999Z</time></trkpt><trkpt lat="45.112702029075166" lon="8.196927126484024"><ele>265.0</ele><time>2026-04-25T16:58:51.999Z</time></trkpt><trkpt lat="45.11260610879018" lon="8.196947965192482"><ele>265.0</ele><time>2026-04-25T16:58:52.999Z</time></trkpt><trkpt lat="45.112528773950096" lon="8.197023505428033"><ele>265.0</ele><time>2026-04-25T16:58:53.999Z</time></trkpt><trkpt lat="45.11247173592099" lon="8.197127964511536"><ele>265.0</ele><time>2026-04-25T16:58:54.999Z</time></trkpt><trkpt lat="45.112413672328806" lon="8.19720239411384"><ele>265.0</ele><time>2026-04-25T16:58:55.999Z</time></trkpt><trkpt lat="45.112335215156534" lon="8.197293468978437"><ele>264.8</ele><time>2026-04-25T16:58:56.999Z</time></trkpt><trkpt lat="45.11226721034692" lon="8.19736478722027"><ele>264.6</ele><time>2026-04-25T16:58:57.999Z</time></trkpt><trkpt lat="45.11222196319237" lon="8.197462409484212"><ele>264.4</ele><time>2026-04-25T16:58:58.999Z</time></trkpt><trkpt lat="45.1121914158166" lon="8.197611122900739"><ele>264.2</ele><time>2026-04-25T16:58:59.999Z</time></trkpt><trkpt lat="45.112149583269854" lon="8.197782692991332"><ele>264.0</ele><time>2026-04-25T16:59:00.999Z</time></trkpt><trkpt lat="45.11212279604015" lon="8.197988139146249"><ele>264.0</ele><time>2026-04-25T16:59:01.999Z</time></trkpt><trkpt lat="45.112106160046714" lon="8.19817991532325"><ele>264.0</ele><time>2026-04-25T16:59:02.999Z</time></trkpt><trkpt lat="45.11208960573085" lon="8.198374327368352"><ele>264.0</ele><time>2026-04-25T16:59:03.999Z</time></trkpt><trkpt lat="45.11208696037875" lon="8.198561384968194"><ele>264.0</ele><time>2026-04-25T16:59:04.999Z</time></trkpt><trkpt lat="45.112051737084464" lon="8.19872001758867"><ele>264.0</ele><time>2026-04-25T16:59:05.999Z</time></trkpt><trkpt lat="45.11202185698629" lon="8.198885613154914"><ele>264.0</ele><time>2026-04-25T16:59:06.999Z</time></trkpt><trkpt lat="45.11196590928276" lon="8.199011421879764"><ele>264.0</ele><time>2026-04-25T16:59:07.999Z</time></trkpt><trkpt lat="45.111886281009845" lon="8.199104504036084"><ele>264.0</ele><time>2026-04-25T16:59:08.999Z</time></trkpt><trkpt lat="45.111794542370276" lon="8.199204501114034"><ele>264.0</ele><time>2026-04-25T16:59:09.999Z</time></trkpt><trkpt lat="45.111716441477725" lon="8.199251856560775"><ele>249.0</ele><time>2026-04-25T16:59:10.999Z</time></trkpt><trkpt lat="45.11188380078932" lon="8.199919134782714"><ele>249.0</ele><time>2026-04-25T16:59:11.999Z</time></trkpt><trkpt lat="45.11185525057134" lon="8.200138124114655"><ele>249.0</ele><time>2026-04-25T16:59:12.999Z</time></trkpt><trkpt lat="45.111840056015126" lon="8.200360106637179"><ele>249.0</ele><time>2026-04-25T16:59:13.999Z</time></trkpt><trkpt lat="45.11180653767947" lon="8.200577128591865"><ele>249.25</ele><time>2026-04-25T16:59:14.999Z</time></trkpt><trkpt lat="45.111781378754024" lon="8.200760942591033"><ele>249.5</ele><time>2026-04-25T16:59:15.999Z</time></trkpt><trkpt lat="45.11177020016421" lon="8.200924754113485"><ele>249.75</ele><time>2026-04-25T16:59:17Z</time></trkpt><trkpt lat="45.11179485090487" lon="8.201070211164726"><ele>250.0</ele><time>2026-04-25T16:59:18Z</time></trkpt><trkpt lat="45.1118258807975" lon="8.201226493193646"><ele>250.0</ele><time>2026-04-25T16:59:19Z</time></trkpt><trkpt lat="45.11185353650614" lon="8.20140426320343"><ele>250.0</ele><time>2026-04-25T16:59:20Z</time></trkpt><trkpt lat="45.11189144604169" lon="8.201589244939832"><ele>250.0</ele><time>2026-04-25T16:59:21Z</time></trkpt><trkpt lat="45.111939423415606" lon="8.201764856754995"><ele>250.0</ele><time>2026-04-25T16:59:22Z</time></trkpt><trkpt lat="45.11198063641605" lon="8.201949340850243"><ele>250.0</ele><time>2026-04-25T16:59:23Z</time></trkpt><trkpt lat="45.11202310198274" lon="8.202137881443877"><ele>250.0</ele><time>2026-04-25T16:59:24Z</time></trkpt><trkpt lat="45.11206390796296" lon="8.202309153669486"><ele>250.0</ele><time>2026-04-25T16:59:25Z</time></trkpt><trkpt lat="45.112109405641164" lon="8.202468709068107"><ele>250.0</ele><time>2026-04-25T16:59:26Z</time></trkpt><trkpt lat="45.11214210018667" lon="8.202631228035308"><ele>250.0</ele><time>2026-04-25T16:59:27Z</time></trkpt><trkpt lat="45.11217780836063" lon="8.202782154531478"><ele>250.0</ele><time>2026-04-25T16:59:28Z</time></trkpt><trkpt lat="45.112214038580944" lon="8.202945952048031"><ele>250.0</ele><time>2026-04-25T16:59:29Z</time></trkpt><trkpt lat="45.112259259538114" lon="8.20312972308455"><ele>250.0</ele><time>2026-04-25T16:59:30Z</time></trkpt><trkpt lat="45.11230207485588" lon="8.203312488420755"><ele>250.2</ele><time>2026-04-25T16:59:31Z</time></trkpt><trkpt lat="45.11234095379803" lon="8.203472982562664"><ele>250.4</ele><time>2026-04-25T16:59:32Z</time></trkpt><trkpt lat="45.11236634576052" lon="8.20359935079393"><ele>250.60000000000002</ele><time>2026-04-25T16:59:33Z</time></trkpt><trkpt lat="45.11244132977013" lon="8.20371833620902"><ele>250.8</ele><time>2026-04-25T16:59:35Z</time></trkpt><trkpt lat="45.11251327700157" lon="8.20373545440877"><ele>251.0</ele><time>2026-04-25T16:59:36Z</time></trkpt><trkpt lat="45.11254935735182" lon="8.203818778038995"><ele>251.0</ele><time>2026-04-25T16:59:37Z</time></trkpt><trkpt lat="45.112575049391275" lon="8.203970769868357"><ele>251.0</ele><time>2026-04-25T16:59:38Z</time></trkpt><trkpt lat="45.11261475976384" lon="8.204188444449738"><ele>251.0</ele><time>2026-04-25T16:59:39Z</time></trkpt><trkpt lat="45.112655514740034" lon="8.204363658789427"><ele>251.0</ele><time>2026-04-25T16:59:40Z</time></trkpt><trkpt lat="45.112682063254795" lon="8.204500686629911"><ele>251.33333333333334</ele><time>2026-04-25T16:59:41Z</time></trkpt><trkpt lat="45.11267758568964" lon="8.204628116304399"><ele>251.66666666666669</ele><time>2026-04-25T16:59:42Z</time></trkpt><trkpt lat="45.11264892653048" lon="8.204737025022432"><ele>252.0</ele><time>2026-04-25T16:59:43Z</time></trkpt><trkpt lat="45.112617531952296" lon="8.204858170416486"><ele>252.33333333333331</ele><time>2026-04-25T16:59:44Z</time></trkpt><trkpt lat="45.11257182427151" lon="8.204975203665024"><ele>252.66666666666666</ele><time>2026-04-25T16:59:45Z</time></trkpt><trkpt lat="45.11251911206371" lon="8.205081353786383"><ele>253.0</ele><time>2026-04-25T16:59:46Z</time></trkpt><trkpt lat="45.11246772087147" lon="8.205181131826677"><ele>251.4</ele><time>2026-04-25T16:59:47Z</time></trkpt><trkpt lat="45.11242434319411" lon="8.205289221338427"><ele>249.8</ele><time>2026-04-25T16:59:48Z</time></trkpt><trkpt lat="45.11238539675863" lon="8.205403860881454"><ele>248.2</ele><time>2026-04-25T16:59:49Z</time></trkpt><trkpt lat="45.1123425474977" lon="8.205519302750043"><ele>246.6</ele><time>2026-04-25T16:59:50Z</time></trkpt><trkpt lat="45.11229968893495" lon="8.205647216008447"><ele>245.0</ele><time>2026-04-25T16:59:51Z</time></trkpt><trkpt lat="45.11224947517606" lon="8.205763520692502"><ele>240.83333333333334</ele><time>2026-04-25T16:59:52Z</time></trkpt><trkpt lat="45.112197235417014" lon="8.205868314555381"><ele>236.66666666666669</ele><time>2026-04-25T16:59:53Z</time></trkpt><trkpt lat="45.112161464513456" lon="8.205993334569504"><ele>232.5</ele><time>2026-04-25T16:59:54Z</time></trkpt><trkpt lat="45.11214811141332" lon="8.206109749068926"><ele>228.33333333333331</ele><time>2026-04-25T16:59:55Z</time></trkpt><trkpt lat="45.11214363362177" lon="8.206202961162612"><ele>224.16666666666666</ele><time>2026-04-25T16:59:56Z</time></trkpt><trkpt lat="45.11218732203552" lon="8.20627134684473"><ele>220.0</ele><time>2026-04-25T16:59:57Z</time></trkpt><trkpt lat="45.11233479784125" lon="8.206258621458216"><ele>222.4</ele><time>2026-04-25T17:00:00Z</time></trkpt><trkpt lat="45.11241285306271" lon="8.206249597402694"><ele>224.8</ele><time>2026-04-25T17:00:01Z</time></trkpt><trkpt lat="45.11252893761828" lon="8.206255618364358"><ele>227.2</ele><time>2026-04-25T17:00:02Z</time></trkpt><trkpt lat="45.112643649020306" lon="8.206233809880525"><ele>229.6</ele><time>2026-04-25T17:00:03Z</time></trkpt><trkpt lat="45.11274431712973" lon="8.206215435432762"><ele>232.0</ele><time>2026-04-25T17:00:04Z</time></trkpt><trkpt lat="45.11283896507099" lon="8.206197754310127"><ele>232.0</ele><time>2026-04-25T17:00:05Z</time></trkpt><trkpt lat="45.11293814219431" lon="8.206168388661304"><ele>232.0</ele><time>2026-04-25T17:00:06Z</time></trkpt><trkpt lat="45.11304521557541" lon="8.206143320685605"><ele>232.0</ele><time>2026-04-25T17:00:07Z</time></trkpt><trkpt lat="45.113132749071596" lon="8.206110723513834"><ele>232.0</ele><time>2026-04-25T17:00:08Z</time></trkpt><trkpt lat="45.11323972869577" lon="8.206067837592569"><ele>232.0</ele><time>2026-04-25T17:00:09Z</time></trkpt><trkpt lat="45.113333520205174" lon="8.206030900844555"><ele>229.83333333333331</ele><time>2026-04-25T17:00:10Z</time></trkpt><trkpt lat="45.11341900165765" lon="8.205993650449036"><ele>227.66666666666666</ele><time>2026-04-25T17:00:11Z</time></trkpt><trkpt lat="45.11351180528835" lon="8.206005670303961"><ele>225.5</ele><time>2026-04-25T17:00:12Z</time></trkpt><trkpt lat="45.11359887117434" lon="8.206012474626416"><ele>223.33333333333331</ele><time>2026-04-25T17:00:13Z</time></trkpt><trkpt lat="45.113680362487024" lon="8.206004987669262"><ele>221.16666666666666</ele><time>2026-04-25T17:00:14Z</time></trkpt><trkpt lat="45.11374951312879" lon="8.205978307525685"><ele>219.0</ele><time>2026-04-25T17:00:15Z</time></trkpt><trkpt lat="45.113859955804834" lon="8.20595592348697"><ele>219.0</ele><time>2026-04-25T17:00:17Z</time></trkpt><trkpt lat="45.11391716461116" lon="8.206086749342097"><ele>218.99999999999997</ele><time>2026-04-25T17:00:19Z</time></trkpt><trkpt lat="45.113977406210104" lon="8.206136477360184"><ele>218.99999999999997</ele><time>2026-04-25T17:00:20Z</time></trkpt><trkpt lat="45.1140459674529" lon="8.206314978991982"><ele>219.0</ele><time>2026-04-25T17:00:22Z</time></trkpt><trkpt lat="45.114075482071925" lon="8.206441130027816"><ele>219.0</ele><time>2026-04-25T17:00:22.999Z</time></trkpt><trkpt lat="45.11410136886961" lon="8.206542382068966"><ele>214.2</ele><time>2026-04-25T17:00:23.999Z</time></trkpt><trkpt lat="45.114155334321204" lon="8.206608284092544"><ele>209.39999999999998</ele><time>2026-04-25T17:00:24.999Z</time></trkpt><trkpt lat="45.1141825459285" lon="8.206764781234249"><ele>204.6</ele><time>2026-04-25T17:00:26.999Z</time></trkpt><trkpt lat="45.11421812034167" lon="8.206882377879154"><ele>199.8</ele><time>2026-04-25T17:00:27.999Z</time></trkpt><trkpt lat="45.11425932213822" lon="8.206999462924871"><ele>195.0</ele><time>2026-04-25T17:00:28.999Z</time></trkpt><trkpt lat="45.114298513104565" lon="8.20710551207636"><ele>195.0</ele><time>2026-04-25T17:00:29.999Z</time></trkpt><trkpt lat="45.11433244647922" lon="8.207212343519567"><ele>195.0</ele><time>2026-04-25T17:00:30.999Z</time></trkpt><trkpt lat="45.114370212504376" lon="8.207327603600799"><ele>195.0</ele><time>2026-04-25T17:00:31.999Z</time></trkpt><trkpt lat="45.114418781677095" lon="8.207416538873957"><ele>195.0</ele><time>2026-04-25T17:00:32.999Z</time></trkpt><trkpt lat="45.11446192405746" lon="8.207511232183526"><ele>195.0</ele><time>2026-04-25T17:00:33.999Z</time></trkpt><trkpt lat="45.114502983329984" lon="8.207633264721668"><ele>195.0</ele><time>2026-04-25T17:00:34.999Z</time></trkpt><trkpt lat="45.1145235974345" lon="8.207761463499812"><ele>194.42857142857142</ele><time>2026-04-25T17:00:35.999Z</time></trkpt><trkpt lat="45.1145285169809" lon="8.207865181689325"><ele>193.85714285714283</ele><time>2026-04-25T17:00:36.999Z</time></trkpt><trkpt lat="45.11452650500533" lon="8.207959508504759"><ele>193.28571428571428</ele><time>2026-04-25T17:00:37.999Z</time></trkpt><trkpt lat="45.11447839561626" lon="8.208024323722434"><ele>192.71428571428572</ele><time>2026-04-25T17:00:39.999Z</time></trkpt><trkpt lat="45.114464079499555" lon="8.208121902480952"><ele>192.14285714285714</ele><time>2026-04-25T17:00:40.999Z</time></trkpt><trkpt lat="45.114449964930444" lon="8.208219981513185"><ele>191.57142857142858</ele><time>2026-04-25T17:00:41.999Z</time></trkpt><trkpt lat="45.11442440932881" lon="8.208351162970434"><ele>191.0</ele><time>2026-04-25T17:00:42.999Z</time></trkpt><trkpt lat="45.11443863679472" lon="8.208498714214109"><ele>190.5</ele><time>2026-04-25T17:00:43.999Z</time></trkpt><trkpt lat="45.114452010958615" lon="8.20867098779973"><ele>190.0</ele><time>2026-04-25T17:00:44.999Z</time></trkpt><trkpt lat="45.11449895856294" lon="8.208866989222184"><ele>189.5</ele><time>2026-04-25T17:00:45.999Z</time></trkpt><trkpt lat="45.114524156008535" lon="8.209028857611289"><ele>189.0</ele><time>2026-04-25T17:00:46.999Z</time></trkpt><trkpt lat="45.114528280942814" lon="8.209184030632166"><ele>188.25</ele><time>2026-04-25T17:00:47.999Z</time></trkpt><trkpt lat="45.114525689928605" lon="8.209347449110982"><ele>187.5</ele><time>2026-04-25T17:00:48.999Z</time></trkpt><trkpt lat="45.114520448504614" lon="8.209513110809603"><ele>186.75</ele><time>2026-04-25T17:00:49.999Z</time></trkpt><trkpt lat="45.11453002143999" lon="8.209712322585261"><ele>186.0</ele><time>2026-04-25T17:00:50.999Z</time></trkpt><trkpt lat="45.114506958149995" lon="8.209909158909237"><ele>185.0</ele><time>2026-04-25T17:00:51.999Z</time></trkpt><trkpt lat="45.11449256522757" lon="8.210109220248366"><ele>184.0</ele><time>2026-04-25T17:00:52.999Z</time></trkpt><trkpt lat="45.11448385807888" lon="8.21028996791373"><ele>183.0</ele><time>2026-04-25T17:00:53.999Z</time></trkpt><trkpt lat="45.114478755533085" lon="8.210424276179962"><ele>182.0</ele><time>2026-04-25T17:00:54.999Z</time></trkpt><trkpt lat="45.11453641331605" lon="8.210539354221329"><ele>182.0</ele><time>2026-04-25T17:00:55.999Z</time></trkpt><trkpt lat="45.11459516756906" lon="8.210628073949241"><ele>182.0</ele><time>2026-04-25T17:00:56.999Z</time></trkpt><trkpt lat="45.11464584730355" lon="8.210727770861123"><ele>182.0</ele><time>2026-04-25T17:00:57.999Z</time></trkpt><trkpt lat="45.114624682142185" lon="8.21085758531033"><ele>182.0</ele><time>2026-04-25T17:00:58.999Z</time></trkpt><trkpt lat="45.11459260950607" lon="8.21098463052015"><ele>182.0</ele><time>2026-04-25T17:01:00Z</time></trkpt><trkpt lat="45.11455030385206" lon="8.21111551194765"><ele>180.5</ele><time>2026-04-25T17:01:01Z</time></trkpt><trkpt lat="45.114493839973534" lon="8.211254265877814"><ele>179.0</ele><time>2026-04-25T17:01:02Z</time></trkpt><trkpt lat="45.11441693669191" lon="8.211394590196397"><ele>177.5</ele><time>2026-04-25T17:01:03Z</time></trkpt><trkpt lat="45.11433581548686" lon="8.211512239258878"><ele>176.0</ele><time>2026-04-25T17:01:04Z</time></trkpt><trkpt lat="45.114263352869216" lon="8.211618574586332"><ele>175.4</ele><time>2026-04-25T17:01:05Z</time></trkpt><trkpt lat="45.114190680546365" lon="8.21172269056671"><ele>174.8</ele><time>2026-04-25T17:01:06Z</time></trkpt><trkpt lat="45.11411286092835" lon="8.211823769241972"><ele>174.20000000000002</ele><time>2026-04-25T17:01:07Z</time></trkpt><trkpt lat="45.11406641476006" lon="8.211884108539774"><ele>173.60000000000002</ele><time>2026-04-25T17:01:08Z</time></trkpt><trkpt lat="45.11400877146948" lon="8.211940794847674"><ele>173.0</ele><time>2026-04-25T17:01:11Z</time></trkpt><trkpt lat="45.113899935685" lon="8.211867713242489"><ele>173.0</ele><time>2026-04-25T17:01:13Z</time></trkpt><trkpt lat="45.11383878194823" lon="8.211789913478812"><ele>173.0</ele><time>2026-04-25T17:01:14Z</time></trkpt><trkpt lat="45.11376867143355" lon="8.21170784132608"><ele>173.0</ele><time>2026-04-25T17:01:15Z</time></trkpt><trkpt lat="45.11370713481999" lon="8.21165130054002"><ele>173.0</ele><time>2026-04-25T17:01:16Z</time></trkpt><trkpt lat="45.1136468910009" lon="8.211581193440926"><ele>173.0</ele><time>2026-04-25T17:01:18Z</time></trkpt><trkpt lat="45.11356871895146" lon="8.211680676303866"><ele>173.0</ele><time>2026-04-25T17:01:19Z</time></trkpt><trkpt lat="45.11348505391267" lon="8.211763306202167"><ele>173.0</ele><time>2026-04-25T17:01:20Z</time></trkpt><trkpt lat="45.113266958795684" lon="8.211910075643134"><ele>173.0</ele><time>2026-04-25T17:01:22Z</time></trkpt><trkpt lat="45.11313243353672" lon="8.211959726407002"><ele>173.0</ele><time>2026-04-25T17:01:23Z</time></trkpt><trkpt lat="45.11298562814508" lon="8.211980074369576"><ele>171.66666666666666</ele><time>2026-04-25T17:01:24Z</time></trkpt><trkpt lat="45.11283700968427" lon="8.212002003153433"><ele>170.33333333333334</ele><time>2026-04-25T17:01:25Z</time></trkpt><trkpt lat="45.11268195098524" lon="8.21206673009244"><ele>169.0</ele><time>2026-04-25T17:01:26Z</time></trkpt><trkpt lat="45.112526943884845" lon="8.2121558559185"><ele>169.33333333333334</ele><time>2026-04-25T17:01:27Z</time></trkpt><trkpt lat="45.11237187759386" lon="8.212258627499619"><ele>169.66666666666666</ele><time>2026-04-25T17:01:28Z</time></trkpt><trkpt lat="45.112218773989895" lon="8.212354482192353"><ele>170.0</ele><time>2026-04-25T17:01:29Z</time></trkpt><trkpt lat="45.1120693584182" lon="8.212434407731251"><ele>170.0</ele><time>2026-04-25T17:01:30Z</time></trkpt><trkpt lat="45.1119263969797" lon="8.21250212059623"><ele>170.0</ele><time>2026-04-25T17:01:31Z</time></trkpt><trkpt lat="45.11181198842704" lon="8.212558814211445"><ele>170.0</ele><time>2026-04-25T17:01:32Z</time></trkpt><trkpt lat="45.111719213511776" lon="8.212601425817645"><ele>170.0</ele><time>2026-04-25T17:01:33Z</time></trkpt><trkpt lat="45.1116520335958" lon="8.212628052834976"><ele>170.0</ele><time>2026-04-25T17:01:34Z</time></trkpt><trkpt lat="45.11156898393749" lon="8.212667405396687"><ele>170.0</ele><time>2026-04-25T17:01:36Z</time></trkpt><trkpt lat="45.11160468968598" lon="8.212833555942645"><ele>170.0</ele><time>2026-04-25T17:01:37Z</time></trkpt><trkpt lat="45.11162824097895" lon="8.212959911661935"><ele>170.0</ele><time>2026-04-25T17:01:38Z</time></trkpt><trkpt lat="45.11166678650345" lon="8.213093584170993"><ele>170.0</ele><time>2026-04-25T17:01:39Z</time></trkpt><trkpt lat="45.11171382085373" lon="8.21325836628143"><ele>170.0</ele><time>2026-04-25T17:01:40Z</time></trkpt><trkpt lat="45.111774082720146" lon="8.213418641480477"><ele>169.5</ele><time>2026-04-25T17:01:41Z</time></trkpt><trkpt lat="45.11182478730547" lon="8.213586403673618"><ele>169.0</ele><time>2026-04-25T17:01:42Z</time></trkpt><trkpt lat="45.11185709157408" lon="8.213764512665112"><ele>168.5</ele><time>2026-04-25T17:01:43Z</time></trkpt><trkpt lat="45.111893927809156" lon="8.21394174417333"><ele>168.0</ele><time>2026-04-25T17:01:44Z</time></trkpt><trkpt lat="45.11192750572733" lon="8.21411613254886"><ele>168.0</ele><time>2026-04-25T17:01:45Z</time></trkpt><trkpt lat="45.111954817967096" lon="8.214286481077433"><ele>168.0</ele><time>2026-04-25T17:01:46Z</time></trkpt><trkpt lat="45.111996694532564" lon="8.214455761669564"><ele>168.0</ele><time>2026-04-25T17:01:47Z</time></trkpt><trkpt lat="45.11201702420331" lon="8.214611963506197"><ele>168.0</ele><time>2026-04-25T17:01:48Z</time></trkpt><trkpt lat="45.112058365232365" lon="8.214788874392541"><ele>168.75</ele><time>2026-04-25T17:01:49Z</time></trkpt><trkpt lat="45.112101605400206" lon="8.21495212512618"><ele>169.5</ele><time>2026-04-25T17:01:50Z</time></trkpt><trkpt lat="45.11215549908395" lon="8.215123428542201"><ele>170.25</ele><time>2026-04-25T17:01:51Z</time></trkpt><trkpt lat="45.11221299818631" lon="8.215304701110929"><ele>171.0</ele><time>2026-04-25T17:01:52Z</time></trkpt><trkpt lat="45.11227559012203" lon="8.215491627627635"><ele>171.75</ele><time>2026-04-25T17:01:53Z</time></trkpt><trkpt lat="45.11233393906435" lon="8.215683967057142"><ele>172.5</ele><time>2026-04-25T17:01:54Z</time></trkpt><trkpt lat="45.1123968548047" lon="8.215853334199078"><ele>173.25</ele><time>2026-04-25T17:01:55Z</time></trkpt><trkpt lat="45.11244893787375" lon="8.216023876638696"><ele>174.0</ele><time>2026-04-25T17:01:56Z</time></trkpt><trkpt lat="45.11252424891964" lon="8.216200660066775"><ele>174.0</ele><time>2026-04-25T17:01:57Z</time></trkpt><trkpt lat="45.11254422735715" lon="8.216360799630184"><ele>174.0</ele><time>2026-04-25T17:01:58Z</time></trkpt><trkpt lat="45.112554135384876" lon="8.216498673443654"><ele>174.0</ele><time>2026-04-25T17:01:59Z</time></trkpt><trkpt lat="45.11256061171892" lon="8.216637820037448"><ele>174.0</ele><time>2026-04-25T17:02:00Z</time></trkpt><trkpt lat="45.11256984331728" lon="8.216798036406304"><ele>174.0</ele><time>2026-04-25T17:02:01Z</time></trkpt><trkpt lat="45.1125798379048" lon="8.216968018877367"><ele>173.25</ele><time>2026-04-25T17:02:02Z</time></trkpt><trkpt lat="45.11259959540038" lon="8.217148403879444"><ele>172.5</ele><time>2026-04-25T17:02:03Z</time></trkpt><trkpt lat="45.11262809916552" lon="8.217342618905647"><ele>171.75</ele><time>2026-04-25T17:02:04Z</time></trkpt><trkpt lat="45.112665687111324" lon="8.217550995249796"><ele>171.0</ele><time>2026-04-25T17:02:05Z</time></trkpt><trkpt lat="45.11269482535067" lon="8.21773661161872"><ele>171.0</ele><time>2026-04-25T17:02:06Z</time></trkpt><trkpt lat="45.11270606742697" lon="8.217919144419463"><ele>171.0</ele><time>2026-04-25T17:02:07Z</time></trkpt><trkpt lat="45.11272582327179" lon="8.218091929744329"><ele>171.0</ele><time>2026-04-25T17:02:08Z</time></trkpt><trkpt lat="45.1127576177702" lon="8.218268673783884"><ele>171.0</ele><time>2026-04-25T17:02:09Z</time></trkpt><trkpt lat="45.112783327007485" lon="8.21843867225823"><ele>171.0</ele><time>2026-04-25T17:02:10Z</time></trkpt><trkpt lat="45.112805306482414" lon="8.218612835530323"><ele>171.0</ele><time>2026-04-25T17:02:11Z</time></trkpt><trkpt lat="45.112818721092005" lon="8.21877634554326"><ele>171.0</ele><time>2026-04-25T17:02:12Z</time></trkpt><trkpt lat="45.11280145399533" lon="8.218952583679028"><ele>171.0</ele><time>2026-04-25T17:02:13Z</time></trkpt><trkpt lat="45.112810349048516" lon="8.219095304674388"><ele>170.75</ele><time>2026-04-25T17:02:14Z</time></trkpt><trkpt lat="45.112805735316336" lon="8.21926957004912"><ele>170.5</ele><time>2026-04-25T17:02:15Z</time></trkpt><trkpt lat="45.11280798690059" lon="8.219463096898846"><ele>170.25</ele><time>2026-04-25T17:02:16Z</time></trkpt><trkpt lat="45.11282274942645" lon="8.219658803612088"><ele>170.0</ele><time>2026-04-25T17:02:17Z</time></trkpt><trkpt lat="45.11284054363839" lon="8.219866944419646"><ele>169.5</ele><time>2026-04-25T17:02:18Z</time></trkpt><trkpt lat="45.1128617649439" lon="8.220082372712453"><ele>169.0</ele><time>2026-04-25T17:02:19Z</time></trkpt><trkpt lat="45.11288118870943" lon="8.220270614588182"><ele>168.5</ele><time>2026-04-25T17:02:20Z</time></trkpt><trkpt lat="45.11289279385041" lon="8.220437961055383"><ele>168.0</ele><time>2026-04-25T17:02:21Z</time></trkpt><trkpt lat="45.112876676388716" lon="8.22058333873244"><ele>167.60000000000002</ele><time>2026-04-25T17:02:22Z</time></trkpt><trkpt lat="45.11286680903595" lon="8.220695607599017"><ele>167.20000000000002</ele><time>2026-04-25T17:02:23Z</time></trkpt><trkpt lat="45.11284865129266" lon="8.220811620281003"><ele>166.8</ele><time>2026-04-25T17:02:24Z</time></trkpt><trkpt lat="45.112821205269135" lon="8.220943448993427"><ele>166.4</ele><time>2026-04-25T17:02:25Z</time></trkpt><trkpt lat="45.11279118446673" lon="8.221082771546373"><ele>166.0</ele><time>2026-04-25T17:02:26Z</time></trkpt><trkpt lat="45.11275805898704" lon="8.221226704078685"><ele>166.0</ele><time>2026-04-25T17:02:27Z</time></trkpt><trkpt lat="45.112723134633185" lon="8.221385810331334"><ele>166.0</ele><time>2026-04-25T17:02:28Z</time></trkpt><trkpt lat="45.11270092940411" lon="8.221530835172093"><ele>166.0</ele><time>2026-04-25T17:02:28.999Z</time></trkpt><trkpt lat="45.11267329155748" lon="8.221658162388309"><ele>166.0</ele><time>2026-04-25T17:02:29.999Z</time></trkpt><trkpt lat="45.11267278320714" lon="8.221806851186363"><ele>166.0</ele><time>2026-04-25T17:02:30.999Z</time></trkpt><trkpt lat="45.112646671665324" lon="8.221941801892564"><ele>166.0</ele><time>2026-04-25T17:02:31.999Z</time></trkpt><trkpt lat="45.11263045848577" lon="8.222101350943712"><ele>166.0</ele><time>2026-04-25T17:02:32.999Z</time></trkpt><trkpt lat="45.11261458440394" lon="8.222257563893919"><ele>166.0</ele><time>2026-04-25T17:02:33.999Z</time></trkpt><trkpt lat="45.112599375361086" lon="8.222407231908718"><ele>166.0</ele><time>2026-04-25T17:02:34.999Z</time></trkpt><trkpt lat="45.112585998868276" lon="8.222538866463497"><ele>166.0</ele><time>2026-04-25T17:02:35.999Z</time></trkpt><trkpt lat="45.112588019067054" lon="8.222660703875837"><ele>166.0</ele><time>2026-04-25T17:02:36.999Z</time></trkpt><trkpt lat="45.112580206221146" lon="8.222764964429157"><ele>166.0</ele><time>2026-04-25T17:02:37.999Z</time></trkpt><trkpt lat="45.11256155940442" lon="8.222851722855857"><ele>166.0</ele><time>2026-04-25T17:02:39.999Z</time></trkpt><trkpt lat="45.112724327309856" lon="8.222880442867412"><ele>166.0</ele><time>2026-04-25T17:02:42.999Z</time></trkpt><trkpt lat="45.11284135872866" lon="8.222961559621865"><ele>166.0</ele><time>2026-04-25T17:02:43.999Z</time></trkpt><trkpt lat="45.11295303863967" lon="8.223040649438193"><ele>166.0</ele><time>2026-04-25T17:02:44.999Z</time></trkpt><trkpt lat="45.11306526198533" lon="8.22312601979346"><ele>166.0</ele><time>2026-04-25T17:02:45.999Z</time></trkpt><trkpt lat="45.11318853342322" lon="8.223206715149562"><ele>166.0</ele><time>2026-04-25T17:02:47Z</time></trkpt><trkpt lat="45.113320903266555" lon="8.223268078817492"><ele>166.0</ele><time>2026-04-25T17:02:48Z</time></trkpt><trkpt lat="45.11344308180407" lon="8.223348052862407"><ele>165.75</ele><time>2026-04-25T17:02:49Z</time></trkpt><trkpt lat="45.11355785686101" lon="8.223410938830732"><ele>165.5</ele><time>2026-04-25T17:02:50Z</time></trkpt><trkpt lat="45.113666760632036" lon="8.223504920749557"><ele>165.25</ele><time>2026-04-25T17:02:51Z</time></trkpt><trkpt lat="45.113780806876726" lon="8.223592132556858"><ele>165.0</ele><time>2026-04-25T17:02:52Z</time></trkpt><trkpt lat="45.11389087656257" lon="8.223684389533854"><ele>165.0</ele><time>2026-04-25T17:02:53Z</time></trkpt><trkpt lat="45.11401709170886" lon="8.223764403192993"><ele>165.0</ele><time>2026-04-25T17:02:54Z</time></trkpt><trkpt lat="45.11412782600666" lon="8.223856736695199"><ele>165.0</ele><time>2026-04-25T17:02:55Z</time></trkpt><trkpt lat="45.11424013859979" lon="8.223951815041344"><ele>165.0</ele><time>2026-04-25T17:02:56Z</time></trkpt><trkpt lat="45.114347146534804" lon="8.224040225613122"><ele>165.0</ele><time>2026-04-25T17:02:57Z</time></trkpt><trkpt lat="45.11444268458656" lon="8.224142676221154"><ele>165.0</ele><time>2026-04-25T17:02:58Z</time></trkpt><trkpt lat="45.1145334485303" lon="8.22422660842975"><ele>165.0</ele><time>2026-04-25T17:02:59Z</time></trkpt><trkpt lat="45.11461021819845" lon="8.224318227486508"><ele>165.0</ele><time>2026-04-25T17:03:00Z</time></trkpt><trkpt lat="45.1146661587342" lon="8.224397598065087"><ele>165.0</ele><time>2026-04-25T17:03:01Z</time></trkpt><trkpt lat="45.11472311446335" lon="8.224451298313916"><ele>165.0</ele><time>2026-04-25T17:03:02Z</time></trkpt><trkpt lat="45.114635073404074" lon="8.224585528794407"><ele>165.0</ele><time>2026-04-25T17:03:04Z</time></trkpt><trkpt lat="45.11457447019611" lon="8.224682387803202"><ele>165.0</ele><time>2026-04-25T17:03:05Z</time></trkpt><trkpt lat="45.11450407521968" lon="8.224829231408583"><ele>165.0</ele><time>2026-04-25T17:03:06Z</time></trkpt><trkpt lat="45.11440563943188" lon="8.224954373882223"><ele>164.75</ele><time>2026-04-25T17:03:07Z</time></trkpt><trkpt lat="45.11432366179203" lon="8.225106426901508"><ele>164.5</ele><time>2026-04-25T17:03:08Z</time></trkpt><trkpt lat="45.11422277312072" lon="8.22524448629284"><ele>164.25</ele><time>2026-04-25T17:03:09Z</time></trkpt><trkpt lat="45.11412981594281" lon="8.225393054752175"><ele>164.0</ele><time>2026-04-25T17:03:10Z</time></trkpt><trkpt lat="45.11403184302302" lon="8.225560816053891"><ele>164.79999999999998</ele><time>2026-04-25T17:03:11Z</time></trkpt><trkpt lat="45.11394753901349" lon="8.225699818595492"><ele>165.6</ele><time>2026-04-25T17:03:12Z</time></trkpt><trkpt lat="45.11386110539916" lon="8.225807226553524"><ele>166.4</ele><time>2026-04-25T17:03:13Z</time></trkpt><trkpt lat="45.11380797565448" lon="8.225904776918501"><ele>167.2</ele><time>2026-04-25T17:03:14Z</time></trkpt><trkpt lat="45.11375759039082" lon="8.225971585774568"><ele>168.0</ele><time>2026-04-25T17:03:15Z</time></trkpt><trkpt lat="45.11370503758608" lon="8.226048632625526"><ele>168.0</ele><time>2026-04-25T17:03:17Z</time></trkpt><trkpt lat="45.113737934371294" lon="8.22617345192697"><ele>168.0</ele><time>2026-04-25T17:03:18Z</time></trkpt><trkpt lat="45.1138155620486" lon="8.226224994969296"><ele>168.0</ele><time>2026-04-25T17:03:19Z</time></trkpt><trkpt lat="45.113910713711405" lon="8.22621758513763"><ele>168.0</ele><time>2026-04-25T17:03:20Z</time></trkpt><trkpt lat="45.11401865026396" lon="8.226226630077207"><ele>168.0</ele><time>2026-04-25T17:03:21Z</time></trkpt><trkpt lat="45.11414661220082" lon="8.226258540903068"><ele>167.5</ele><time>2026-04-25T17:03:22Z</time></trkpt><trkpt lat="45.114259663173556" lon="8.226280606023783"><ele>167.0</ele><time>2026-04-25T17:03:23Z</time></trkpt><trkpt lat="45.11435366926891" lon="8.226324113322406"><ele>166.5</ele><time>2026-04-25T17:03:24Z</time></trkpt><trkpt lat="45.114407152975694" lon="8.226411221633958"><ele>166.0</ele><time>2026-04-25T17:03:25Z</time></trkpt><trkpt lat="45.11443180560138" lon="8.226507718363475"><ele>165.5</ele><time>2026-04-25T17:03:26Z</time></trkpt><trkpt lat="45.11445293241554" lon="8.22661982556345"><ele>165.0</ele><time>2026-04-25T17:03:27Z</time></trkpt><trkpt lat="45.11448322921621" lon="8.22675394161054"><ele>165.0</ele><time>2026-04-25T17:03:28Z</time></trkpt><trkpt lat="45.11452900294944" lon="8.226899556054887"><ele>165.0</ele><time>2026-04-25T17:03:29Z</time></trkpt><trkpt lat="45.11456458284171" lon="8.227079320260422"><ele>165.0</ele><time>2026-04-25T17:03:30Z</time></trkpt><trkpt lat="45.11461443068157" lon="8.22728074000261"><ele>165.0</ele><time>2026-04-25T17:03:31Z</time></trkpt><trkpt lat="45.11462401834686" lon="8.227475301658915"><ele>165.5</ele><time>2026-04-25T17:03:32Z</time></trkpt><trkpt lat="45.11464543944054" lon="8.227664438138172"><ele>166.0</ele><time>2026-04-25T17:03:33Z</time></trkpt><trkpt lat="45.114669453990615" lon="8.227832465343633"><ele>166.5</ele><time>2026-04-25T17:03:34Z</time></trkpt><trkpt lat="45.11468876445295" lon="8.2279816451732"><ele>167.0</ele><time>2026-04-25T17:03:35Z</time></trkpt><trkpt lat="45.114691114464414" lon="8.228116935667343"><ele>168.0</ele><time>2026-04-25T17:03:36Z</time></trkpt><trkpt lat="45.11465881309709" lon="8.228224137348302"><ele>169.0</ele><time>2026-04-25T17:03:37Z</time></trkpt><trkpt lat="45.114677694485884" lon="8.228350151326527"><ele>170.0</ele><time>2026-04-25T17:03:38Z</time></trkpt><trkpt lat="45.11467281557703" lon="8.228494084922055"><ele>171.0</ele><time>2026-04-25T17:03:39Z</time></trkpt><trkpt lat="45.11485141803519" lon="8.228635105056153"><ele>170.0</ele><time>2026-04-25T17:03:40Z</time></trkpt><trkpt lat="45.114933456558674" lon="8.228792393225778"><ele>169.0</ele><time>2026-04-25T17:03:41Z</time></trkpt><trkpt lat="45.11500426401754" lon="8.228948368084259"><ele>168.0</ele><time>2026-04-25T17:03:42Z</time></trkpt><trkpt lat="45.115074878661524" lon="8.229159996875158"><ele>167.0</ele><time>2026-04-25T17:03:43Z</time></trkpt><trkpt lat="45.115145931761525" lon="8.229336355467057"><ele>167.0</ele><time>2026-04-25T17:03:44Z</time></trkpt><trkpt lat="45.115227340540415" lon="8.229493464580724"><ele>167.0</ele><time>2026-04-25T17:03:45Z</time></trkpt><trkpt lat="45.1152994134939" lon="8.229640028224416"><ele>167.0</ele><time>2026-04-25T17:03:46Z</time></trkpt><trkpt lat="45.11535895767046" lon="8.229778646889146"><ele>167.0</ele><time>2026-04-25T17:03:47Z</time></trkpt><trkpt lat="45.115399439860276" lon="8.229920754977812"><ele>169.5</ele><time>2026-04-25T17:03:48Z</time></trkpt><trkpt lat="45.115423226837294" lon="8.230077192083801"><ele>172.0</ele><time>2026-04-25T17:03:49Z</time></trkpt><trkpt lat="45.11543882528983" lon="8.23022185339271"><ele>174.5</ele><time>2026-04-25T17:03:50Z</time></trkpt><trkpt lat="45.115456030692364" lon="8.230379198414319"><ele>177.0</ele><time>2026-04-25T17:03:51Z</time></trkpt><trkpt lat="45.115443677046905" lon="8.230554630189808"><ele>179.5</ele><time>2026-04-25T17:03:52Z</time></trkpt><trkpt lat="45.11544109175508" lon="8.23072975103023"><ele>182.0</ele><time>2026-04-25T17:03:53Z</time></trkpt><trkpt lat="45.11542177084396" lon="8.230927223981336"><ele>184.5</ele><time>2026-04-25T17:03:54Z</time></trkpt><trkpt lat="45.11539174241675" lon="8.231138555290022"><ele>187.0</ele><time>2026-04-25T17:03:55Z</time></trkpt><trkpt lat="45.11537409142927" lon="8.231346026797471"><ele>186.75</ele><time>2026-04-25T17:03:56Z</time></trkpt><trkpt lat="45.11537301679771" lon="8.231569971132163"><ele>186.5</ele><time>2026-04-25T17:03:57Z</time></trkpt><trkpt lat="45.115379060556904" lon="8.231772308469793"><ele>186.25</ele><time>2026-04-25T17:03:58Z</time></trkpt><trkpt lat="45.1153678626121" lon="8.231954774637115"><ele>186.0</ele><time>2026-04-25T17:03:59Z</time></trkpt><trkpt lat="45.115350067755784" lon="8.232132148519518"><ele>186.0</ele><time>2026-04-25T17:04:00Z</time></trkpt><trkpt lat="45.11533797081404" lon="8.232297661507635"><ele>186.0</ele><time>2026-04-25T17:04:01Z</time></trkpt><trkpt lat="45.11532410386744" lon="8.232473769272806"><ele>186.0</ele><time>2026-04-25T17:04:02Z</time></trkpt><trkpt lat="45.11531798193287" lon="8.232658058389035"><ele>186.0</ele><time>2026-04-25T17:04:03Z</time></trkpt><trkpt lat="45.11529989546571" lon="8.23285019608129"><ele>185.0</ele><time>2026-04-25T17:04:04Z</time></trkpt><trkpt lat="45.11526280472718" lon="8.233028163127415"><ele>184.0</ele><time>2026-04-25T17:04:05Z</time></trkpt><trkpt lat="45.11522521502549" lon="8.233181292843154"><ele>183.0</ele><time>2026-04-25T17:04:06Z</time></trkpt><trkpt lat="45.11516700905974" lon="8.233317839990995"><ele>182.0</ele><time>2026-04-25T17:04:07Z</time></trkpt><trkpt lat="45.11514737209483" lon="8.23345164219828"><ele>180.8</ele><time>2026-04-25T17:04:08Z</time></trkpt><trkpt lat="45.11511468428427" lon="8.233590253521184"><ele>179.6</ele><time>2026-04-25T17:04:09Z</time></trkpt><trkpt lat="45.115087032903496" lon="8.233725514758754"><ele>178.4</ele><time>2026-04-25T17:04:10Z</time></trkpt><trkpt lat="45.115053347010836" lon="8.233833491541052"><ele>177.20000000000002</ele><time>2026-04-25T17:04:11Z</time></trkpt><trkpt lat="45.11508188791735" lon="8.233940890097724"><ele>176.0</ele><time>2026-04-25T17:04:12Z</time></trkpt><trkpt lat="45.11514177340878" lon="8.234075116547222"><ele>175.0</ele><time>2026-04-25T17:04:13Z</time></trkpt><trkpt lat="45.11517727551414" lon="8.234201779894367"><ele>174.0</ele><time>2026-04-25T17:04:14Z</time></trkpt><trkpt lat="45.11520269487211" lon="8.234334640109353"><ele>173.0</ele><time>2026-04-25T17:04:15Z</time></trkpt><trkpt lat="45.11520706156666" lon="8.23445886737298"><ele>172.0</ele><time>2026-04-25T17:04:16Z</time></trkpt><trkpt lat="45.11519341214101" lon="8.234610053066609"><ele>171.0</ele><time>2026-04-25T17:04:17Z</time></trkpt><trkpt lat="45.11517662542457" lon="8.2347857943168"><ele>169.75</ele><time>2026-04-25T17:04:18Z</time></trkpt><trkpt lat="45.11515030822046" lon="8.234979219976985"><ele>168.5</ele><time>2026-04-25T17:04:19.001Z</time></trkpt><trkpt lat="45.11513462838929" lon="8.23517186072458"><ele>167.25</ele><time>2026-04-25T17:04:20.001Z</time></trkpt><trkpt lat="45.11515333308249" lon="8.235333956249589"><ele>166.0</ele><time>2026-04-25T17:04:21.001Z</time></trkpt><trkpt lat="45.11518770487023" lon="8.23549819146781"><ele>165.25</ele><time>2026-04-25T17:04:22.001Z</time></trkpt><trkpt lat="45.11520722293484" lon="8.235684713928178"><ele>164.5</ele><time>2026-04-25T17:04:23.001Z</time></trkpt><trkpt lat="45.11521014097468" lon="8.235875860580146"><ele>163.75</ele><time>2026-04-25T17:04:24.001Z</time></trkpt><trkpt lat="45.115233753304366" lon="8.236056105273713"><ele>163.0</ele><time>2026-04-25T17:04:25.001Z</time></trkpt><trkpt lat="45.11528008609826" lon="8.236213113533946"><ele>163.0</ele><time>2026-04-25T17:04:26.001Z</time></trkpt><trkpt lat="45.115356359494356" lon="8.236343126941113"><ele>163.0</ele><time>2026-04-25T17:04:27.001Z</time></trkpt><trkpt lat="45.1154401782464" lon="8.236464885879775"><ele>163.0</ele><time>2026-04-25T17:04:28.001Z</time></trkpt><trkpt lat="45.11550783342178" lon="8.236579399748901"><ele>163.0</ele><time>2026-04-25T17:04:29.001Z</time></trkpt><trkpt lat="45.11557450048105" lon="8.2366854180986"><ele>163.0</ele><time>2026-04-25T17:04:30.001Z</time></trkpt><trkpt lat="45.11563763699139" lon="8.236799597392015"><ele>163.0</ele><time>2026-04-25T17:04:31.001Z</time></trkpt><trkpt lat="45.11570276399826" lon="8.236904359124471"><ele>163.0</ele><time>2026-04-25T17:04:32.001Z</time></trkpt><trkpt lat="45.11574886562919" lon="8.236998149563739"><ele>163.0</ele><time>2026-04-25T17:04:33.001Z</time></trkpt><trkpt lat="45.115790426286935" lon="8.237124527150606"><ele>163.0</ele><time>2026-04-25T17:04:34.001Z</time></trkpt><trkpt lat="45.11580329378117" lon="8.237271862235714"><ele>163.0</ele><time>2026-04-25T17:04:34.999Z</time></trkpt><trkpt lat="45.115835493883125" lon="8.237424358054318"><ele>163.0</ele><time>2026-04-25T17:04:35.999Z</time></trkpt><trkpt lat="45.11588208894203" lon="8.237574228219046"><ele>163.0</ele><time>2026-04-25T17:04:36.999Z</time></trkpt><trkpt lat="45.11592957134871" lon="8.237731935939474"><ele>163.0</ele><time>2026-04-25T17:04:37.999Z</time></trkpt><trkpt lat="45.1159792444299" lon="8.23788399851449"><ele>163.0</ele><time>2026-04-25T17:04:38.999Z</time></trkpt><trkpt lat="45.1160270561333" lon="8.238034130384712"><ele>163.0</ele><time>2026-04-25T17:04:39.999Z</time></trkpt><trkpt lat="45.11606033750741" lon="8.238192073483487"><ele>163.0</ele><time>2026-04-25T17:04:40.999Z</time></trkpt><trkpt lat="45.116075294832946" lon="8.238379614709585"><ele>163.0</ele><time>2026-04-25T17:04:41.999Z</time></trkpt><trkpt lat="45.116042367077924" lon="8.238548750664934"><ele>163.0</ele><time>2026-04-25T17:04:42.999Z</time></trkpt><trkpt lat="45.116012504938475" lon="8.238714161914382"><ele>163.0</ele><time>2026-04-25T17:04:43.999Z</time></trkpt><trkpt lat="45.11595625728241" lon="8.238870764696344"><ele>163.0</ele><time>2026-04-25T17:04:44.999Z</time></trkpt><trkpt lat="45.11591029912627" lon="8.239006607882864"><ele>163.0</ele><time>2026-04-25T17:04:45.999Z</time></trkpt><trkpt lat="45.115853874340615" lon="8.239108596916187"><ele>163.0</ele><time>2026-04-25T17:04:46.999Z</time></trkpt><trkpt lat="45.11578819458385" lon="8.23917778934263"><ele>163.0</ele><time>2026-04-25T17:04:47.999Z</time></trkpt><trkpt lat="45.11573048498231" lon="8.239228047027273"><ele>164.0</ele><time>2026-04-25T17:04:48.999Z</time></trkpt><trkpt lat="45.11568031660743" lon="8.239300981764373"><ele>165.0</ele><time>2026-04-25T17:04:50.999Z</time></trkpt><trkpt lat="45.11557823489358" lon="8.239360594843937"><ele>166.0</ele><time>2026-04-25T17:05:02Z</time></trkpt><trkpt lat="45.11550235087685" lon="8.239355071630106"><ele>167.0</ele><time>2026-04-25T17:05:03Z</time></trkpt><trkpt lat="45.115408412543026" lon="8.239365490973192"><ele>168.0</ele><time>2026-04-25T17:05:04Z</time></trkpt><trkpt lat="45.115302215187675" lon="8.23939237478256"><ele>168.0</ele><time>2026-04-25T17:05:05Z</time></trkpt><trkpt lat="45.115189624904126" lon="8.239462594641491"><ele>168.0</ele><time>2026-04-25T17:05:06Z</time></trkpt><trkpt lat="45.11508108515581" lon="8.23955838965716"><ele>168.0</ele><time>2026-04-25T17:05:07Z</time></trkpt><trkpt lat="45.11498797662772" lon="8.239613147384649"><ele>168.0</ele><time>2026-04-25T17:05:08Z</time></trkpt><trkpt lat="45.11490095923765" lon="8.239660544862435"><ele>168.0</ele><time>2026-04-25T17:05:10Z</time></trkpt><trkpt lat="45.11482075444502" lon="8.239797874904133"><ele>168.5</ele><time>2026-04-25T17:05:12Z</time></trkpt><trkpt lat="45.114890175314486" lon="8.240266698113974"><ele>169.0</ele><time>2026-04-25T17:05:13Z</time></trkpt><trkpt lat="45.11487678795544" lon="8.240465272360584"><ele>168.5</ele><time>2026-04-25T17:05:14Z</time></trkpt><trkpt lat="45.11487913348055" lon="8.240635343203186"><ele>168.0</ele><time>2026-04-25T17:05:15Z</time></trkpt><trkpt lat="45.11491330839677" lon="8.240790514246404"><ele>167.5</ele><time>2026-04-25T17:05:16Z</time></trkpt><trkpt lat="45.114957163041396" lon="8.240956014409475"><ele>167.0</ele><time>2026-04-25T17:05:17Z</time></trkpt><trkpt lat="45.11500643378759" lon="8.241126050574152"><ele>165.25</ele><time>2026-04-25T17:05:18Z</time></trkpt><trkpt lat="45.115059331955536" lon="8.241294591285202"><ele>163.5</ele><time>2026-04-25T17:05:19Z</time></trkpt><trkpt lat="45.115081616510615" lon="8.241448614455447"><ele>161.75</ele><time>2026-04-25T17:05:20Z</time></trkpt><trkpt lat="45.11509964915769" lon="8.24164047225023"><ele>160.0</ele><time>2026-04-25T17:05:21Z</time></trkpt><trkpt lat="45.11511687389568" lon="8.241794618309527"><ele>160.0</ele><time>2026-04-25T17:05:22Z</time></trkpt><trkpt lat="45.11510043172569" lon="8.241927971406474"><ele>160.0</ele><time>2026-04-25T17:05:23Z</time></trkpt><trkpt lat="45.11507176187164" lon="8.242043024827828"><ele>160.0</ele><time>2026-04-25T17:05:24Z</time></trkpt><trkpt lat="45.115062474183624" lon="8.242219013034923"><ele>160.0</ele><time>2026-04-25T17:05:25Z</time></trkpt><trkpt lat="45.11505157452977" lon="8.242432183005565"><ele>160.0</ele><time>2026-04-25T17:05:26Z</time></trkpt><trkpt lat="45.11504199105818" lon="8.24262127168527"><ele>160.0</ele><time>2026-04-25T17:05:27Z</time></trkpt><trkpt lat="45.11502262330258" lon="8.242801695765047"><ele>160.0</ele><time>2026-04-25T17:05:28Z</time></trkpt><trkpt lat="45.11497416590446" lon="8.242943610198074"><ele>160.0</ele><time>2026-04-25T17:05:29Z</time></trkpt><trkpt lat="45.11489624538435" lon="8.24307497660704"><ele>161.75</ele><time>2026-04-25T17:05:30Z</time></trkpt><trkpt lat="45.11479217700433" lon="8.243168567737595"><ele>163.5</ele><time>2026-04-25T17:05:31Z</time></trkpt><trkpt lat="45.114692382955894" lon="8.24329563446075"><ele>165.25</ele><time>2026-04-25T17:05:32Z</time></trkpt><trkpt lat="45.11462311318072" lon="8.243457103909751"><ele>167.0</ele><time>2026-04-25T17:05:33Z</time></trkpt><trkpt lat="45.11457778147821" lon="8.243635659976064"><ele>167.0</ele><time>2026-04-25T17:05:34Z</time></trkpt><trkpt lat="45.1145724798132" lon="8.243817727939506"><ele>167.0</ele><time>2026-04-25T17:05:35Z</time></trkpt><trkpt lat="45.114564810284655" lon="8.244045501956073"><ele>167.0</ele><time>2026-04-25T17:05:36Z</time></trkpt><trkpt lat="45.114528332954755" lon="8.244263690388683"><ele>167.0</ele><time>2026-04-25T17:05:37Z</time></trkpt><trkpt lat="45.114470289334946" lon="8.244446081800444"><ele>166.75</ele><time>2026-04-25T17:05:38Z</time></trkpt><trkpt lat="45.11442358901872" lon="8.24462810097484"><ele>166.5</ele><time>2026-04-25T17:05:39Z</time></trkpt><trkpt lat="45.114402969123546" lon="8.244840436869273"><ele>166.25</ele><time>2026-04-25T17:05:40Z</time></trkpt><trkpt lat="45.1143747317134" lon="8.245050483341526"><ele>166.0</ele><time>2026-04-25T17:05:41Z</time></trkpt><trkpt lat="45.11433887979928" lon="8.245218955175728"><ele>166.0</ele><time>2026-04-25T17:05:42Z</time></trkpt><trkpt lat="45.11433192079756" lon="8.24538789061438"><ele>166.0</ele><time>2026-04-25T17:05:43Z</time></trkpt><trkpt lat="45.11436494904912" lon="8.245561831311122"><ele>166.0</ele><time>2026-04-25T17:05:44Z</time></trkpt><trkpt lat="45.11440044337066" lon="8.245730905304635"><ele>166.0</ele><time>2026-04-25T17:05:45Z</time></trkpt><trkpt lat="45.11444371863433" lon="8.245853901759556"><ele>165.4</ele><time>2026-04-25T17:05:46Z</time></trkpt><trkpt lat="45.11449936429884" lon="8.245901222149708"><ele>164.8</ele><time>2026-04-25T17:05:47Z</time></trkpt><trkpt lat="45.11457423728648" lon="8.245954846870493"><ele>164.20000000000002</ele><time>2026-04-25T17:05:48Z</time></trkpt><trkpt lat="45.114715826239006" lon="8.245983731953979"><ele>163.60000000000002</ele><time>2026-04-25T17:05:49Z</time></trkpt><trkpt lat="45.114809291489756" lon="8.246015352125559"><ele>163.0</ele><time>2026-04-25T17:05:50Z</time></trkpt><trkpt lat="45.114869145722274" lon="8.246058168217415"><ele>163.0</ele><time>2026-04-25T17:05:51Z</time></trkpt><trkpt lat="45.114912962898444" lon="8.246243400277208"><ele>163.0</ele><time>2026-04-25T17:05:53Z</time></trkpt><trkpt lat="45.11490122924097" lon="8.24637040645161"><ele>163.0</ele><time>2026-04-25T17:05:54Z</time></trkpt><trkpt lat="45.11488312331366" lon="8.246562056178128"><ele>163.0</ele><time>2026-04-25T17:05:55Z</time></trkpt><trkpt lat="45.114853248205385" lon="8.246764192314892"><ele>163.0</ele><time>2026-04-25T17:05:56Z</time></trkpt><trkpt lat="45.11482523509579" lon="8.246961066279503"><ele>163.0</ele><time>2026-04-25T17:05:57Z</time></trkpt><trkpt lat="45.11481699384962" lon="8.247165975596497"><ele>163.0</ele><time>2026-04-25T17:05:58Z</time></trkpt><trkpt lat="45.114800206923995" lon="8.247375876317328"><ele>163.0</ele><time>2026-04-25T17:05:59Z</time></trkpt><trkpt lat="45.114780481636956" lon="8.24759575612553"><ele>162.25</ele><time>2026-04-25T17:06:00Z</time></trkpt><trkpt lat="45.114764314967765" lon="8.247777484728527"><ele>161.5</ele><time>2026-04-25T17:06:01Z</time></trkpt><trkpt lat="45.114752843939314" lon="8.247925647475121"><ele>160.75</ele><time>2026-04-25T17:06:02Z</time></trkpt><trkpt lat="45.11472367044438" lon="8.248092523525868"><ele>160.0</ele><time>2026-04-25T17:06:03Z</time></trkpt><trkpt lat="45.11471986806523" lon="8.248269682096376"><ele>159.75</ele><time>2026-04-25T17:06:04Z</time></trkpt><trkpt lat="45.114705639067296" lon="8.248456914154106"><ele>159.5</ele><time>2026-04-25T17:06:05Z</time></trkpt><trkpt lat="45.11469006823329" lon="8.248616854653939"><ele>159.25</ele><time>2026-04-25T17:06:06Z</time></trkpt><trkpt lat="45.114691421374154" lon="8.248769333842318"><ele>159.0</ele><time>2026-04-25T17:06:07Z</time></trkpt><trkpt lat="45.11468117822675" lon="8.248934136792755"><ele>158.75</ele><time>2026-04-25T17:06:08Z</time></trkpt><trkpt lat="45.11465854507537" lon="8.24909151006372"><ele>158.5</ele><time>2026-04-25T17:06:09Z</time></trkpt><trkpt lat="45.11463928558842" lon="8.249259845608643"><ele>158.25</ele><time>2026-04-25T17:06:10Z</time></trkpt><trkpt lat="45.114630568756795" lon="8.249417452295155"><ele>158.0</ele><time>2026-04-25T17:06:11.001Z</time></trkpt><trkpt lat="45.11461626401898" lon="8.249596922827399"><ele>158.0</ele><time>2026-04-25T17:06:12.001Z</time></trkpt><trkpt lat="45.11456286627045" lon="8.249752276294046"><ele>158.0</ele><time>2026-04-25T17:06:13.001Z</time></trkpt><trkpt lat="45.11451656660695" lon="8.249895849799962"><ele>158.0</ele><time>2026-04-25T17:06:14.001Z</time></trkpt><trkpt lat="45.11446302188077" lon="8.250023209714481"><ele>158.0</ele><time>2026-04-25T17:06:15.001Z</time></trkpt><trkpt lat="45.11439937362737" lon="8.25013197190474"><ele>158.0</ele><time>2026-04-25T17:06:16.001Z</time></trkpt><trkpt lat="45.11433092832527" lon="8.250247013734754"><ele>157.5</ele><time>2026-04-25T17:06:17.001Z</time></trkpt><trkpt lat="45.114246321143774" lon="8.25036237523104"><ele>157.0</ele><time>2026-04-25T17:06:18.001Z</time></trkpt><trkpt lat="45.114175420810135" lon="8.250478674186231"><ele>156.5</ele><time>2026-04-25T17:06:19.001Z</time></trkpt><trkpt lat="45.11408032780372" lon="8.250587860460971"><ele>156.0</ele><time>2026-04-25T17:06:20.001Z</time></trkpt><trkpt lat="45.11401070387344" lon="8.25069320377043"><ele>157.5</ele><time>2026-04-25T17:06:21.001Z</time></trkpt><trkpt lat="45.113949686214276" lon="8.250888321495431"><ele>159.0</ele><time>2026-04-25T17:06:22.001Z</time></trkpt><trkpt lat="45.113895505466985" lon="8.25105066294351"><ele>160.5</ele><time>2026-04-25T17:06:23.001Z</time></trkpt><trkpt lat="45.11383638064089" lon="8.251207695070084"><ele>162.0</ele><time>2026-04-25T17:06:24.001Z</time></trkpt><trkpt lat="45.11378727114388" lon="8.251366018674746"><ele>161.5</ele><time>2026-04-25T17:06:25.001Z</time></trkpt><trkpt lat="45.11372943255938" lon="8.251525460281913"><ele>161.0</ele><time>2026-04-25T17:06:26.001Z</time></trkpt><trkpt lat="45.11368278190644" lon="8.251713986059206"><ele>160.5</ele><time>2026-04-25T17:06:27.001Z</time></trkpt><trkpt lat="45.11363263680703" lon="8.251907895397734"><ele>160.0</ele><time>2026-04-25T17:06:28.001Z</time></trkpt><trkpt lat="45.113588234279376" lon="8.25209505005453"><ele>160.0</ele><time>2026-04-25T17:06:29.001Z</time></trkpt><trkpt lat="45.11354244155126" lon="8.252252987037329"><ele>160.0</ele><time>2026-04-25T17:06:30.001Z</time></trkpt><trkpt lat="45.11349643172427" lon="8.25236508992274"><ele>160.0</ele><time>2026-04-25T17:06:31.001Z</time></trkpt><trkpt lat="45.113421761987475" lon="8.2524510649453"><ele>160.0</ele><time>2026-04-25T17:06:32.001Z</time></trkpt><trkpt lat="45.1133164368334" lon="8.25252994403087"><ele>160.0</ele><time>2026-04-25T17:06:33.001Z</time></trkpt><trkpt lat="45.113197634776064" lon="8.252620072035732"><ele>160.0</ele><time>2026-04-25T17:06:34.001Z</time></trkpt><trkpt lat="45.11307285893689" lon="8.252721150418646"><ele>160.0</ele><time>2026-04-25T17:06:35.001Z</time></trkpt><trkpt lat="45.11295565454574" lon="8.252809695201575"><ele>160.0</ele><time>2026-04-25T17:06:36.001Z</time></trkpt><trkpt lat="45.112840886274164" lon="8.252893958042412"><ele>160.0</ele><time>2026-04-25T17:06:37.001Z</time></trkpt><trkpt lat="45.11274085181822" lon="8.252974499181295"><ele>160.0</ele><time>2026-04-25T17:06:38.001Z</time></trkpt><trkpt lat="45.11264445282356" lon="8.253054010020115"><ele>160.0</ele><time>2026-04-25T17:06:39.001Z</time></trkpt><trkpt lat="45.11255257505234" lon="8.253111542064751"><ele>160.0</ele><time>2026-04-25T17:06:40.001Z</time></trkpt><trkpt lat="45.112503333766" lon="8.253177642938033"><ele>160.0</ele><time>2026-04-25T17:06:40.999Z</time></trkpt><trkpt lat="45.11244828371871" lon="8.253225700151171"><ele>160.0</ele><time>2026-04-25T17:06:41.999Z</time></trkpt><trkpt lat="45.11236435110508" lon="8.253243523516863"><ele>160.0</ele><time>2026-04-25T17:06:42.999Z</time></trkpt><trkpt lat="45.11226416577829" lon="8.253252955792256"><ele>161.5</ele><time>2026-04-25T17:06:43.999Z</time></trkpt><trkpt lat="45.11215134627076" lon="8.253298166017576"><ele>163.0</ele><time>2026-04-25T17:06:44.999Z</time></trkpt><trkpt lat="45.112043571909204" lon="8.25336240544436"><ele>164.5</ele><time>2026-04-25T17:06:45.999Z</time></trkpt><trkpt lat="45.11193423817897" lon="8.253446547054459"><ele>166.0</ele><time>2026-04-25T17:06:46.999Z</time></trkpt><trkpt lat="45.111835085832205" lon="8.253560357142174"><ele>166.0</ele><time>2026-04-25T17:06:47.999Z</time></trkpt><trkpt lat="45.111734526798664" lon="8.25368582909777"><ele>166.0</ele><time>2026-04-25T17:06:48.999Z</time></trkpt><trkpt lat="45.1116255134437" lon="8.253839642931021"><ele>166.0</ele><time>2026-04-25T17:06:49.999Z</time></trkpt><trkpt lat="45.111511876868356" lon="8.253993603202588"><ele>166.0</ele><time>2026-04-25T17:06:50.999Z</time></trkpt><trkpt lat="45.11140520587406" lon="8.25413731369167"><ele>165.5</ele><time>2026-04-25T17:06:51.999Z</time></trkpt><trkpt lat="45.11131483664231" lon="8.254277139000319"><ele>165.0</ele><time>2026-04-25T17:06:52.999Z</time></trkpt><trkpt lat="45.11123274190937" lon="8.254454603159203"><ele>164.5</ele><time>2026-04-25T17:06:53.999Z</time></trkpt><trkpt lat="45.111162946664216" lon="8.254647469023274"><ele>164.0</ele><time>2026-04-25T17:06:54.999Z</time></trkpt><trkpt lat="45.11109230764942" lon="8.254849149051845"><ele>164.0</ele><time>2026-04-25T17:06:55.999Z</time></trkpt><trkpt lat="45.11099111494967" lon="8.255057818140621"><ele>164.0</ele><time>2026-04-25T17:06:56.999Z</time></trkpt><trkpt lat="45.1108979020968" lon="8.255235300205262"><ele>164.0</ele><time>2026-04-25T17:06:57.999Z</time></trkpt><trkpt lat="45.11079195942793" lon="8.255403482978243"><ele>167.0</ele><time>2026-04-25T17:06:58.999Z</time></trkpt><trkpt lat="45.11066188368764" lon="8.255543913272925"><ele>170.0</ele><time>2026-04-25T17:06:59.999Z</time></trkpt><trkpt lat="45.11053171609291" lon="8.255695709912017"><ele>173.0</ele><time>2026-04-25T17:07:01Z</time></trkpt><trkpt lat="45.1104204631142" lon="8.255865797486655"><ele>173.0</ele><time>2026-04-25T17:07:02Z</time></trkpt><trkpt lat="45.110302744676666" lon="8.256036271359617"><ele>173.0</ele><time>2026-04-25T17:07:03Z</time></trkpt><trkpt lat="45.110190888129154" lon="8.256204614289118"><ele>173.0</ele><time>2026-04-25T17:07:04Z</time></trkpt><trkpt lat="45.11009828523942" lon="8.256370986568486"><ele>172.4</ele><time>2026-04-25T17:07:05Z</time></trkpt><trkpt lat="45.10999756943044" lon="8.25650493039113"><ele>171.8</ele><time>2026-04-25T17:07:06Z</time></trkpt><trkpt lat="45.10990904856232" lon="8.25661229558012"><ele>171.2</ele><time>2026-04-25T17:07:07Z</time></trkpt><trkpt lat="45.10984742940798" lon="8.256722148220485"><ele>170.6</ele><time>2026-04-25T17:07:08Z</time></trkpt><trkpt lat="45.10979234685247" lon="8.25679890346834"><ele>170.0</ele><time>2026-04-25T17:07:09Z</time></trkpt><trkpt lat="45.10973423546942" lon="8.256912604575742"><ele>170.0</ele><time>2026-04-25T17:07:11Z</time></trkpt><trkpt lat="45.1096259085521" lon="8.256917256167124"><ele>170.0</ele><time>2026-04-25T17:07:14Z</time></trkpt><trkpt lat="45.109545291528065" lon="8.256879068746986"><ele>170.0</ele><time>2026-04-25T17:07:15Z</time></trkpt><trkpt lat="45.10944982139051" lon="8.256853835921808"><ele>170.0</ele><time>2026-04-25T17:07:16Z</time></trkpt><trkpt lat="45.10930987382621" lon="8.256787228406909"><ele>170.0</ele><time>2026-04-25T17:07:17Z</time></trkpt><trkpt lat="45.109181265989044" lon="8.256741972894112"><ele>169.75</ele><time>2026-04-25T17:07:18Z</time></trkpt><trkpt lat="45.109050942282245" lon="8.25669611354102"><ele>169.5</ele><time>2026-04-25T17:07:19Z</time></trkpt><trkpt lat="45.10892112139677" lon="8.256674281101896"><ele>169.25</ele><time>2026-04-25T17:07:20Z</time></trkpt><trkpt lat="45.10880184220831" lon="8.256628159572832"><ele>169.0</ele><time>2026-04-25T17:07:21Z</time></trkpt><trkpt lat="45.10868289793253" lon="8.256581194265822"><ele>169.0</ele><time>2026-04-25T17:07:22Z</time></trkpt><trkpt lat="45.10856051040791" lon="8.256534201050084"><ele>169.0</ele><time>2026-04-25T17:07:23Z</time></trkpt><trkpt lat="45.10841128912934" lon="8.256482375788414"><ele>169.0</ele><time>2026-04-25T17:07:24Z</time></trkpt><trkpt lat="45.10826048820331" lon="8.256429251080846"><ele>169.0</ele><time>2026-04-25T17:07:25Z</time></trkpt><trkpt lat="45.10812969148585" lon="8.256387139921756"><ele>168.6</ele><time>2026-04-25T17:07:26Z</time></trkpt><trkpt lat="45.10802747909723" lon="8.256351104049442"><ele>168.2</ele><time>2026-04-25T17:07:27Z</time></trkpt><trkpt lat="45.10795264335932" lon="8.25631689721414"><ele>167.79999999999998</ele><time>2026-04-25T17:07:28Z</time></trkpt><trkpt lat="45.107871708825" lon="8.256279297741989"><ele>167.39999999999998</ele><time>2026-04-25T17:07:30Z</time></trkpt><trkpt lat="45.107885620432135" lon="8.256492540061496"><ele>167.0</ele><time>2026-04-25T17:07:32Z</time></trkpt><trkpt lat="45.10796543380521" lon="8.256600874802418"><ele>167.0</ele><time>2026-04-25T17:07:33Z</time></trkpt><trkpt lat="45.10805059653495" lon="8.256709113481332"><ele>167.0</ele><time>2026-04-25T17:07:34Z</time></trkpt><trkpt lat="45.10813447595383" lon="8.256852277741055"><ele>167.0</ele><time>2026-04-25T17:07:35Z</time></trkpt><trkpt lat="45.10825378917731" lon="8.256988653362015"><ele>167.0</ele><time>2026-04-25T17:07:36Z</time></trkpt><trkpt lat="45.108372331838936" lon="8.257143049248208"><ele>167.5</ele><time>2026-04-25T17:07:37Z</time></trkpt><trkpt lat="45.108473934953786" lon="8.257284161639625"><ele>168.0</ele><time>2026-04-25T17:07:38Z</time></trkpt><trkpt lat="45.108571146393714" lon="8.25741803358396"><ele>168.5</ele><time>2026-04-25T17:07:39Z</time></trkpt><trkpt lat="45.10865358924297" lon="8.257577063145428"><ele>169.0</ele><time>2026-04-25T17:07:40Z</time></trkpt><trkpt lat="45.10874374876469" lon="8.257708142598178"><ele>167.0</ele><time>2026-04-25T17:07:41Z</time></trkpt><trkpt lat="45.10885723429862" lon="8.257809369414264"><ele>165.0</ele><time>2026-04-25T17:07:42Z</time></trkpt><trkpt lat="45.10899122991201" lon="8.2578711834708"><ele>163.0</ele><time>2026-04-25T17:07:43Z</time></trkpt><trkpt lat="45.10913202459111" lon="8.257967928322929"><ele>161.0</ele><time>2026-04-25T17:07:44Z</time></trkpt><trkpt lat="45.10924798214028" lon="8.258104464671142"><ele>160.60000000000002</ele><time>2026-04-25T17:07:45Z</time></trkpt><trkpt lat="45.10935866211293" lon="8.258220864590799"><ele>160.20000000000002</ele><time>2026-04-25T17:07:46Z</time></trkpt><trkpt lat="45.109453276913015" lon="8.258317359926577"><ele>159.8</ele><time>2026-04-25T17:07:47Z</time></trkpt><trkpt lat="45.10952571595639" lon="8.258418648500424"><ele>159.4</ele><time>2026-04-25T17:07:48Z</time></trkpt><trkpt lat="45.10955449344043" lon="8.258542502742877"><ele>159.0</ele><time>2026-04-25T17:07:49Z</time></trkpt><trkpt lat="45.10956656519215" lon="8.258682237959354"><ele>159.0</ele><time>2026-04-25T17:07:50Z</time></trkpt><trkpt lat="45.10957660104257" lon="8.258857296590458"><ele>159.0</ele><time>2026-04-25T17:07:51Z</time></trkpt><trkpt lat="45.10962251289137" lon="8.259048199785042"><ele>159.0</ele><time>2026-04-25T17:07:52Z</time></trkpt><trkpt lat="45.109699394546595" lon="8.259243053416341"><ele>159.0</ele><time>2026-04-25T17:07:53Z</time></trkpt><trkpt lat="45.109771559123324" lon="8.259452266800885"><ele>158.33333333333334</ele><time>2026-04-25T17:07:54Z</time></trkpt><trkpt lat="45.10982821181752" lon="8.259693594749848"><ele>157.66666666666669</ele><time>2026-04-25T17:07:55Z</time></trkpt><trkpt lat="45.109895347685004" lon="8.259954328801923"><ele>157.0</ele><time>2026-04-25T17:07:56Z</time></trkpt><trkpt lat="45.10995434633353" lon="8.260198567383949"><ele>157.0</ele><time>2026-04-25T17:07:57Z</time></trkpt><trkpt lat="45.11002062229878" lon="8.260440877233147"><ele>157.0</ele><time>2026-04-25T17:07:58Z</time></trkpt><trkpt lat="45.110072830033474" lon="8.260678037071294"><ele>157.0</ele><time>2026-04-25T17:07:59Z</time></trkpt><trkpt lat="45.110107052586855" lon="8.260932554191053"><ele>157.0</ele><time>2026-04-25T17:08:00Z</time></trkpt><trkpt lat="45.11013308999757" lon="8.26114612430116"><ele>157.0</ele><time>2026-04-25T17:08:01Z</time></trkpt><trkpt lat="45.11017220981877" lon="8.261332823646583"><ele>157.0</ele><time>2026-04-25T17:08:02.001Z</time></trkpt><trkpt lat="45.11021916444214" lon="8.261481119959686"><ele>157.0</ele><time>2026-04-25T17:08:03.001Z</time></trkpt><trkpt lat="45.110261657131836" lon="8.261602772755902"><ele>156.5</ele><time>2026-04-25T17:08:04.001Z</time></trkpt><trkpt lat="45.11024360970061" lon="8.261728768753422"><ele>156.0</ele><time>2026-04-25T17:08:05.001Z</time></trkpt><trkpt lat="45.110212146167" lon="8.261864156056978"><ele>155.5</ele><time>2026-04-25T17:08:06.001Z</time></trkpt><trkpt lat="45.11016626379184" lon="8.262035363344433"><ele>155.0</ele><time>2026-04-25T17:08:07.001Z</time></trkpt><trkpt lat="45.11012872730493" lon="8.262247147718492"><ele>155.33333333333331</ele><time>2026-04-25T17:08:08.001Z</time></trkpt><trkpt lat="45.11006874231854" lon="8.26248393651254"><ele>155.66666666666666</ele><time>2026-04-25T17:08:09.001Z</time></trkpt><trkpt lat="45.1100138151711" lon="8.26273438979849"><ele>156.0</ele><time>2026-04-25T17:08:10.001Z</time></trkpt><trkpt lat="45.10993061092625" lon="8.262990729530319"><ele>157.33333333333334</ele><time>2026-04-25T17:08:11.001Z</time></trkpt><trkpt lat="45.109849496382246" lon="8.263193005683268"><ele>158.66666666666669</ele><time>2026-04-25T17:08:12.001Z</time></trkpt><trkpt lat="45.109767251404726" lon="8.263377559911392"><ele>160.0</ele><time>2026-04-25T17:08:13.001Z</time></trkpt><trkpt lat="45.109709475383156" lon="8.263545758798385"><ele>160.0</ele><time>2026-04-25T17:08:14.001Z</time></trkpt><trkpt lat="45.10965265971575" lon="8.263697926832206"><ele>160.0</ele><time>2026-04-25T17:08:15.001Z</time></trkpt><trkpt lat="45.10961989524832" lon="8.263846758960176"><ele>160.0</ele><time>2026-04-25T17:08:16.001Z</time></trkpt><trkpt lat="45.10963572186365" lon="8.264005604920804"><ele>160.0</ele><time>2026-04-25T17:08:17.001Z</time></trkpt><trkpt lat="45.10968822549045" lon="8.264176786489896"><ele>159.75</ele><time>2026-04-25T17:08:18.001Z</time></trkpt><trkpt lat="45.10975189577327" lon="8.264350364738805"><ele>159.5</ele><time>2026-04-25T17:08:19.001Z</time></trkpt><trkpt lat="45.10980747968248" lon="8.264550977744369"><ele>159.25</ele><time>2026-04-25T17:08:20.001Z</time></trkpt><trkpt lat="45.10983764852914" lon="8.264741716668976"><ele>159.0</ele><time>2026-04-25T17:08:21.001Z</time></trkpt><trkpt lat="45.10981300849511" lon="8.264915435074622"><ele>158.66666666666666</ele><time>2026-04-25T17:08:22.001Z</time></trkpt><trkpt lat="45.10979644545134" lon="8.265068944645323"><ele>158.33333333333334</ele><time>2026-04-25T17:08:23.001Z</time></trkpt><trkpt lat="45.10977496553835" lon="8.265183953367245"><ele>158.0</ele><time>2026-04-25T17:08:24.001Z</time></trkpt><trkpt lat="45.109713411991" lon="8.265261912782062"><ele>157.66666666666669</ele><time>2026-04-25T17:08:25.001Z</time></trkpt><trkpt lat="45.10969283970511" lon="8.265346292922718"><ele>157.33333333333334</ele><time>2026-04-25T17:08:26.001Z</time></trkpt><trkpt lat="45.10967995503182" lon="8.265452954809085"><ele>157.0</ele><time>2026-04-25T17:08:27.001Z</time></trkpt><trkpt lat="45.1096645229474" lon="8.265594626158949"><ele>156.33333333333334</ele><time>2026-04-25T17:08:28.001Z</time></trkpt><trkpt lat="45.10965427178768" lon="8.265790429336354"><ele>155.66666666666666</ele><time>2026-04-25T17:08:29.001Z</time></trkpt><trkpt lat="45.109640248636126" lon="8.266013710287705"><ele>155.0</ele><time>2026-04-25T17:08:30.001Z</time></trkpt><trkpt lat="45.10959298044632" lon="8.266243488824987"><ele>154.33333333333331</ele><time>2026-04-25T17:08:31.001Z</time></trkpt><trkpt lat="45.109552936891745" lon="8.266461068141782"><ele>153.66666666666666</ele><time>2026-04-25T17:08:32.001Z</time></trkpt><trkpt lat="45.10950154932208" lon="8.266691110734751"><ele>153.0</ele><time>2026-04-25T17:08:33.001Z</time></trkpt><trkpt lat="45.109444452769935" lon="8.266931395958835"><ele>153.0</ele><time>2026-04-25T17:08:34.001Z</time></trkpt><trkpt lat="45.10938973497081" lon="8.267145915380222"><ele>153.0</ele><time>2026-04-25T17:08:35.001Z</time></trkpt><trkpt lat="45.109317598728005" lon="8.26736019956066"><ele>153.0</ele><time>2026-04-25T17:08:36.001Z</time></trkpt><trkpt lat="45.10923721699943" lon="8.267556431733507"><ele>152.75</ele><time>2026-04-25T17:08:37.001Z</time></trkpt><trkpt lat="45.1091759572968" lon="8.267748229991588"><ele>152.5</ele><time>2026-04-25T17:08:38.001Z</time></trkpt><trkpt lat="45.10913594833283" lon="8.267934598372019"><ele>152.25</ele><time>2026-04-25T17:08:39.001Z</time></trkpt><trkpt lat="45.10910373328111" lon="8.268122674141463"><ele>152.0</ele><time>2026-04-25T17:08:40.001Z</time></trkpt><trkpt lat="45.109059805027094" lon="8.26834009219204"><ele>151.0</ele><time>2026-04-25T17:08:41.001Z</time></trkpt><trkpt lat="45.10902369819777" lon="8.268563401524577"><ele>150.0</ele><time>2026-04-25T17:08:42.001Z</time></trkpt><trkpt lat="45.108977231762104" lon="8.268811791542257"><ele>149.0</ele><time>2026-04-25T17:08:43.001Z</time></trkpt><trkpt lat="45.10893219717897" lon="8.269043405165469"><ele>148.66666666666666</ele><time>2026-04-25T17:08:44.001Z</time></trkpt><trkpt lat="45.108889461518494" lon="8.269277887134225"><ele>148.33333333333334</ele><time>2026-04-25T17:08:45.001Z</time></trkpt><trkpt lat="45.10884934249898" lon="8.269509659244187"><ele>148.0</ele><time>2026-04-25T17:08:46.001Z</time></trkpt><trkpt lat="45.10882444464207" lon="8.269700674717138"><ele>148.33333333333334</ele><time>2026-04-25T17:08:47Z</time></trkpt><trkpt lat="45.10879916281141" lon="8.269894618030598"><ele>148.66666666666666</ele><time>2026-04-25T17:08:48Z</time></trkpt><trkpt lat="45.108759296848504" lon="8.270103169479471"><ele>149.0</ele><time>2026-04-25T17:08:49Z</time></trkpt><trkpt lat="45.108715340073786" lon="8.270322305299468"><ele>149.0</ele><time>2026-04-25T17:08:50Z</time></trkpt><trkpt lat="45.108673150211466" lon="8.270548166299577"><ele>149.0</ele><time>2026-04-25T17:08:51Z</time></trkpt><trkpt lat="45.10864466570789" lon="8.270768362727427"><ele>149.0</ele><time>2026-04-25T17:08:52Z</time></trkpt><trkpt lat="45.10859246612622" lon="8.270995398312772"><ele>150.0</ele><time>2026-04-25T17:08:53Z</time></trkpt><trkpt lat="45.10852190875422" lon="8.27122374436263"><ele>151.0</ele><time>2026-04-25T17:08:54Z</time></trkpt><trkpt lat="45.10846906008565" lon="8.271459700410013"><ele>152.0</ele><time>2026-04-25T17:08:55Z</time></trkpt><trkpt lat="45.10842634157201" lon="8.27170925848394"><ele>152.0</ele><time>2026-04-25T17:08:56Z</time></trkpt><trkpt lat="45.10840342478857" lon="8.271943608465154"><ele>152.0</ele><time>2026-04-25T17:08:57Z</time></trkpt><trkpt lat="45.10839928754059" lon="8.272180494832497"><ele>152.0</ele><time>2026-04-25T17:08:58Z</time></trkpt><trkpt lat="45.10835469820044" lon="8.272393133997761"><ele>152.0</ele><time>2026-04-25T17:08:59Z</time></trkpt><trkpt lat="45.10831980330192" lon="8.272603068400496"><ele>152.0</ele><time>2026-04-25T17:09:00Z</time></trkpt><trkpt lat="45.10828870003056" lon="8.272788472964885"><ele>152.0</ele><time>2026-04-25T17:09:01Z</time></trkpt><trkpt lat="45.10825991047866" lon="8.272961170292369"><ele>152.0</ele><time>2026-04-25T17:09:02Z</time></trkpt><trkpt lat="45.108235283698434" lon="8.273108896753335"><ele>152.0</ele><time>2026-04-25T17:09:03Z</time></trkpt><trkpt lat="45.10823378663519" lon="8.273224717260712"><ele>152.0</ele><time>2026-04-25T17:09:04Z</time></trkpt><trkpt lat="45.10819849959398" lon="8.273345614377726"><ele>152.0</ele><time>2026-04-25T17:09:06Z</time></trkpt><trkpt lat="45.10807426087427" lon="8.273388756573603"><ele>152.0</ele><time>2026-04-25T17:09:12Z</time></trkpt><trkpt lat="45.10798953207086" lon="8.2733764597697"><ele>152.0</ele><time>2026-04-25T17:09:13Z</time></trkpt><trkpt lat="45.10785768182501" lon="8.273700052780974"><ele>152.0</ele><time>2026-04-25T17:09:15Z</time></trkpt><trkpt lat="45.10781342049252" lon="8.273899056188899"><ele>152.0</ele><time>2026-04-25T17:09:16Z</time></trkpt><trkpt lat="45.107767104813966" lon="8.274115323609236"><ele>152.0</ele><time>2026-04-25T17:09:17Z</time></trkpt><trkpt lat="45.1076902334818" lon="8.27433564697438"><ele>151.0</ele><time>2026-04-25T17:09:18Z</time></trkpt><trkpt lat="45.1076199532321" lon="8.27457330675888"><ele>150.0</ele><time>2026-04-25T17:09:19Z</time></trkpt><trkpt lat="45.10756005255318" lon="8.274824038523331"><ele>149.0</ele><time>2026-04-25T17:09:20Z</time></trkpt><trkpt lat="45.10748675008842" lon="8.27506027405781"><ele>149.0</ele><time>2026-04-25T17:09:21Z</time></trkpt><trkpt lat="45.10742072956779" lon="8.275295835431946"><ele>149.0</ele><time>2026-04-25T17:09:22Z</time></trkpt><trkpt lat="45.107333612189166" lon="8.275525446740568"><ele>149.0</ele><time>2026-04-25T17:09:23Z</time></trkpt><trkpt lat="45.10726341240919" lon="8.275764802828743"><ele>149.66666666666666</ele><time>2026-04-25T17:09:24Z</time></trkpt><trkpt lat="45.10720019004316" lon="8.275987028254159"><ele>150.33333333333334</ele><time>2026-04-25T17:09:25Z</time></trkpt><trkpt lat="45.10713765437157" lon="8.276206840010568"><ele>151.0</ele><time>2026-04-25T17:09:26Z</time></trkpt><trkpt lat="45.10707270976852" lon="8.276435119188038"><ele>150.66666666666669</ele><time>2026-04-25T17:09:27Z</time></trkpt><trkpt lat="45.10701044760655" lon="8.276656778284636"><ele>150.33333333333334</ele><time>2026-04-25T17:09:28Z</time></trkpt><trkpt lat="45.10694764885069" lon="8.27688058281763"><ele>150.0</ele><time>2026-04-25T17:09:29Z</time></trkpt><trkpt lat="45.1068836933411" lon="8.277113031990929"><ele>149.33333333333334</ele><time>2026-04-25T17:09:30Z</time></trkpt><trkpt lat="45.106837081902896" lon="8.277353132524786"><ele>148.66666666666669</ele><time>2026-04-25T17:09:31Z</time></trkpt><trkpt lat="45.10678258085649" lon="8.277598533262815"><ele>148.0</ele><time>2026-04-25T17:09:32Z</time></trkpt><trkpt lat="45.10674183117692" lon="8.277864110015775"><ele>148.66666666666669</ele><time>2026-04-25T17:09:33Z</time></trkpt><trkpt lat="45.10670581023388" lon="8.278142682424669"><ele>149.33333333333334</ele><time>2026-04-25T17:09:34Z</time></trkpt><trkpt lat="45.106653509040235" lon="8.278395800144255"><ele>150.0</ele><time>2026-04-25T17:09:35Z</time></trkpt><trkpt lat="45.10661986446872" lon="8.278650048969256"><ele>150.0</ele><time>2026-04-25T17:09:36Z</time></trkpt><trkpt lat="45.10660492194983" lon="8.278900841412984"><ele>150.0</ele><time>2026-04-25T17:09:37Z</time></trkpt><trkpt lat="45.106573983770055" lon="8.27913740553142"><ele>150.0</ele><time>2026-04-25T17:09:38Z</time></trkpt><trkpt lat="45.10653178589466" lon="8.279351680054233"><ele>149.33333333333334</ele><time>2026-04-25T17:09:39Z</time></trkpt><trkpt lat="45.106488350255304" lon="8.279565053489723"><ele>148.66666666666669</ele><time>2026-04-25T17:09:40Z</time></trkpt><trkpt lat="45.10642306972108" lon="8.279786520895412"><ele>148.0</ele><time>2026-04-25T17:09:41Z</time></trkpt><trkpt lat="45.106317376004945" lon="8.279987536249953"><ele>147.33333333333334</ele><time>2026-04-25T17:09:42Z</time></trkpt><trkpt lat="45.10623033885497" lon="8.280209304743199"><ele>146.66666666666666</ele><time>2026-04-25T17:09:43.001Z</time></trkpt><trkpt lat="45.106116394831695" lon="8.280422275376576"><ele>146.0</ele><time>2026-04-25T17:09:44.001Z</time></trkpt><trkpt lat="45.10602526191824" lon="8.280662262598062"><ele>147.66666666666666</ele><time>2026-04-25T17:09:45.001Z</time></trkpt><trkpt lat="45.10595303369951" lon="8.280887871504408"><ele>149.33333333333334</ele><time>2026-04-25T17:09:46.001Z</time></trkpt><trkpt lat="45.10588844261705" lon="8.281131819438485"><ele>151.0</ele><time>2026-04-25T17:09:47.001Z</time></trkpt><trkpt lat="45.10584344290788" lon="8.281371476697684"><ele>151.0</ele><time>2026-04-25T17:09:48.001Z</time></trkpt><trkpt lat="45.10581223753293" lon="8.281609268102718"><ele>151.0</ele><time>2026-04-25T17:09:49.001Z</time></trkpt><trkpt lat="45.10576747899687" lon="8.281839136563724"><ele>151.0</ele><time>2026-04-25T17:09:50.001Z</time></trkpt><trkpt lat="45.105716400783606" lon="8.282066254058678"><ele>150.66666666666669</ele><time>2026-04-25T17:09:51.001Z</time></trkpt><trkpt lat="45.105636349339804" lon="8.282274894482153"><ele>150.33333333333334</ele><time>2026-04-25T17:09:52.001Z</time></trkpt><trkpt lat="45.10556952488072" lon="8.282478096096575"><ele>150.0</ele><time>2026-04-25T17:09:53.001Z</time></trkpt><trkpt lat="45.10551812223936" lon="8.282654454970325"><ele>150.0</ele><time>2026-04-25T17:09:54.001Z</time></trkpt><trkpt lat="45.10549531203594" lon="8.282846941580623"><ele>150.0</ele><time>2026-04-25T17:09:55.001Z</time></trkpt><trkpt lat="45.1055171599017" lon="8.283047505258628"><ele>150.0</ele><time>2026-04-25T17:09:56.001Z</time></trkpt><trkpt lat="45.10554215036558" lon="8.28322024305775"><ele>150.0</ele><time>2026-04-25T17:09:57.001Z</time></trkpt><trkpt lat="45.105557958415105" lon="8.283383107579127"><ele>150.5</ele><time>2026-04-25T17:09:58.001Z</time></trkpt><trkpt lat="45.105544381102696" lon="8.28355132385659"><ele>151.0</ele><time>2026-04-25T17:09:59.001Z</time></trkpt><trkpt lat="45.105475303256135" lon="8.283718422177703"><ele>151.5</ele><time>2026-04-25T17:10:00.001Z</time></trkpt><trkpt lat="45.105347510954736" lon="8.28382853856467"><ele>152.0</ele><time>2026-04-25T17:10:01.001Z</time></trkpt><trkpt lat="45.10524626559671" lon="8.283991877048908"><ele>152.0</ele><time>2026-04-25T17:10:02.001Z</time></trkpt><trkpt lat="45.10512781025249" lon="8.284158986558396"><ele>152.0</ele><time>2026-04-25T17:10:03.001Z</time></trkpt><trkpt lat="45.105030393569244" lon="8.284368831356128"><ele>152.0</ele><time>2026-04-25T17:10:04.001Z</time></trkpt><trkpt lat="45.10494492001838" lon="8.284608011624188"><ele>156.0</ele><time>2026-04-25T17:10:05.001Z</time></trkpt><trkpt lat="45.104873202159375" lon="8.28486605491608"><ele>160.0</ele><time>2026-04-25T17:10:06.001Z</time></trkpt><trkpt lat="45.104830267352085" lon="8.285107266074975"><ele>164.0</ele><time>2026-04-25T17:10:07.001Z</time></trkpt><trkpt lat="45.10480083622275" lon="8.285317918718503"><ele>164.0</ele><time>2026-04-25T17:10:08.001Z</time></trkpt><trkpt lat="45.10474094032181" lon="8.285512738444968"><ele>164.0</ele><time>2026-04-25T17:10:09.001Z</time></trkpt><trkpt lat="45.10466598517747" lon="8.285684317948546"><ele>164.0</ele><time>2026-04-25T17:10:10.001Z</time></trkpt><trkpt lat="45.104574273161525" lon="8.28583028398"><ele>164.0</ele><time>2026-04-25T17:10:11.001Z</time></trkpt><trkpt lat="45.10446431160988" lon="8.28591474165352"><ele>164.75</ele><time>2026-04-25T17:10:12.001Z</time></trkpt><trkpt lat="45.104337065048746" lon="8.285979030679508"><ele>165.5</ele><time>2026-04-25T17:10:13.001Z</time></trkpt><trkpt lat="45.10420962666854" lon="8.286060203987661"><ele>166.25</ele><time>2026-04-25T17:10:14.001Z</time></trkpt><trkpt lat="45.104054091902285" lon="8.286110731110295"><ele>167.0</ele><time>2026-04-25T17:10:15.001Z</time></trkpt><trkpt lat="45.10389088719924" lon="8.286164491023786"><ele>169.5</ele><time>2026-04-25T17:10:16.001Z</time></trkpt><trkpt lat="45.103755283882364" lon="8.28623105187155"><ele>172.0</ele><time>2026-04-25T17:10:17.001Z</time></trkpt><trkpt lat="45.1036355402075" lon="8.286303042161856"><ele>174.5</ele><time>2026-04-25T17:10:18.001Z</time></trkpt><trkpt lat="45.10354098390158" lon="8.286405968458908"><ele>177.0</ele><time>2026-04-25T17:10:19.001Z</time></trkpt><trkpt lat="45.10346745775088" lon="8.286532240341913"><ele>177.25</ele><time>2026-04-25T17:10:20.001Z</time></trkpt><trkpt lat="45.103385593626946" lon="8.286642886918731"><ele>177.5</ele><time>2026-04-25T17:10:21.001Z</time></trkpt><trkpt lat="45.10328519544206" lon="8.286716687724478"><ele>177.75</ele><time>2026-04-25T17:10:22.001Z</time></trkpt><trkpt lat="45.103166712682246" lon="8.286737191234609"><ele>178.0</ele><time>2026-04-25T17:10:23.001Z</time></trkpt><trkpt lat="45.10304223962792" lon="8.286775296149106"><ele>179.25</ele><time>2026-04-25T17:10:24.001Z</time></trkpt><trkpt lat="45.102948753788425" lon="8.286894301674373"><ele>180.5</ele><time>2026-04-25T17:10:25.001Z</time></trkpt><trkpt lat="45.102864183968784" lon="8.287048302859676"><ele>181.75</ele><time>2026-04-25T17:10:26.001Z</time></trkpt><trkpt lat="45.10278304217155" lon="8.287217340352225"><ele>183.0</ele><time>2026-04-25T17:10:27.001Z</time></trkpt><trkpt lat="45.10271014892024" lon="8.287366614691773"><ele>183.0</ele><time>2026-04-25T17:10:28.001Z</time></trkpt><trkpt lat="45.102656715916694" lon="8.287492130089595"><ele>183.0</ele><time>2026-04-25T17:10:29.001Z</time></trkpt><trkpt lat="45.10262467182605" lon="8.287596332216856"><ele>183.0</ele><time>2026-04-25T17:10:30.001Z</time></trkpt><trkpt lat="45.10256837485048" lon="8.287687127856515"><ele>183.0</ele><time>2026-04-25T17:10:32.001Z</time></trkpt><trkpt lat="45.102653489622035" lon="8.28790638648655"><ele>183.0</ele><time>2026-04-25T17:10:34.001Z</time></trkpt><trkpt lat="45.102688683610715" lon="8.28802451306654"><ele>181.60000000000002</ele><time>2026-04-25T17:10:35.001Z</time></trkpt><trkpt lat="45.10270742030658" lon="8.28817127359727"><ele>180.20000000000002</ele><time>2026-04-25T17:10:36.001Z</time></trkpt><trkpt lat="45.10267862693773" lon="8.288287745039653"><ele>178.8</ele><time>2026-04-25T17:10:37.001Z</time></trkpt><trkpt lat="45.10263946480641" lon="8.288378421051917"><ele>177.4</ele><time>2026-04-25T17:10:38.001Z</time></trkpt><trkpt lat="45.10266940246092" lon="8.288535651223421"><ele>176.0</ele><time>2026-04-25T17:10:39.001Z</time></trkpt><trkpt lat="45.10268646662281" lon="8.288724774050573"><ele>174.33333333333331</ele><time>2026-04-25T17:10:40.001Z</time></trkpt><trkpt lat="45.10273176315884" lon="8.288944234094906"><ele>172.66666666666666</ele><time>2026-04-25T17:10:41.001Z</time></trkpt><trkpt lat="45.10277564818299" lon="8.28918131237443"><ele>171.0</ele><time>2026-04-25T17:10:42.001Z</time></trkpt><trkpt lat="45.102795761430876" lon="8.289385835797246"><ele>171.0</ele><time>2026-04-25T17:10:43.001Z</time></trkpt><trkpt lat="45.10280721579691" lon="8.289582284683101"><ele>171.0</ele><time>2026-04-25T17:10:44.001Z</time></trkpt><trkpt lat="45.102762326656205" lon="8.289791089063376"><ele>171.0</ele><time>2026-04-25T17:10:45.001Z</time></trkpt><trkpt lat="45.10272800668841" lon="8.290014212768552"><ele>169.33333333333334</ele><time>2026-04-25T17:10:46.001Z</time></trkpt><trkpt lat="45.10268990918094" lon="8.290251726265982"><ele>167.66666666666669</ele><time>2026-04-25T17:10:47.001Z</time></trkpt><trkpt lat="45.10265939897664" lon="8.290472555191371"><ele>166.0</ele><time>2026-04-25T17:10:48.001Z</time></trkpt><trkpt lat="45.10263615954683" lon="8.29066142512421"><ele>166.25</ele><time>2026-04-25T17:10:49.001Z</time></trkpt><trkpt lat="45.10262304384676" lon="8.290810068359521"><ele>166.5</ele><time>2026-04-25T17:10:50.001Z</time></trkpt><trkpt lat="45.1026302492097" lon="8.290919613356385"><ele>166.75</ele><time>2026-04-25T17:10:51.001Z</time></trkpt><trkpt lat="45.10259612978695" lon="8.291021397011413"><ele>167.0</ele><time>2026-04-25T17:10:53Z</time></trkpt><trkpt lat="45.102357728941" lon="8.290914910243377"><ele>167.0</ele><time>2026-04-25T17:10:56Z</time></trkpt><trkpt lat="45.10225350145376" lon="8.290889188250482"><ele>167.0</ele><time>2026-04-25T17:10:57Z</time></trkpt><trkpt lat="45.1021577959765" lon="8.290899899097418"><ele>167.0</ele><time>2026-04-25T17:10:58Z</time></trkpt><trkpt lat="45.10204139409532" lon="8.2909373638989"><ele>167.0</ele><time>2026-04-25T17:10:59Z</time></trkpt><trkpt lat="45.10193675587383" lon="8.29092926558747"><ele>167.0</ele><time>2026-04-25T17:11:00Z</time></trkpt><trkpt lat="45.10182720789614" lon="8.290915321405555"><ele>167.0</ele><time>2026-04-25T17:11:01Z</time></trkpt><trkpt lat="45.10170929386164" lon="8.29092004456176"><ele>167.0</ele><time>2026-04-25T17:11:02Z</time></trkpt><trkpt lat="45.10163448287958" lon="8.290976603327929"><ele>167.0</ele><time>2026-04-25T17:11:03Z</time></trkpt><trkpt lat="45.10154720733953" lon="8.29105309878378"><ele>167.0</ele><time>2026-04-25T17:11:04Z</time></trkpt><trkpt lat="45.10145709897744" lon="8.291104128689842"><ele>167.0</ele><time>2026-04-25T17:11:05Z</time></trkpt><trkpt lat="45.10136107551381" lon="8.291137916494186"><ele>167.2</ele><time>2026-04-25T17:11:06Z</time></trkpt><trkpt lat="45.10127070973938" lon="8.291131593641976"><ele>167.39999999999998</ele><time>2026-04-25T17:11:07Z</time></trkpt><trkpt lat="45.101175902702025" lon="8.291117301323709"><ele>167.60000000000002</ele><time>2026-04-25T17:11:08Z</time></trkpt><trkpt lat="45.10108878288418" lon="8.291092595830886"><ele>167.8</ele><time>2026-04-25T17:11:09Z</time></trkpt><trkpt lat="45.10101675428124" lon="8.291081052607433"><ele>168.0</ele><time>2026-04-25T17:11:10Z</time></trkpt><trkpt lat="45.1009051530462" lon="8.291097745443237"><ele>168.0</ele><time>2026-04-25T17:11:12Z</time></trkpt><trkpt lat="45.10085488501312" lon="8.29115402894017"><ele>168.0</ele><time>2026-04-25T17:11:13Z</time></trkpt><trkpt lat="45.100789421461265" lon="8.291217613939823"><ele>168.0</ele><time>2026-04-25T17:11:14Z</time></trkpt><trkpt lat="45.10070546205641" lon="8.291293003661961"><ele>168.0</ele><time>2026-04-25T17:11:15Z</time></trkpt><trkpt lat="45.10062852788086" lon="8.291368648697242"><ele>168.0</ele><time>2026-04-25T17:11:16Z</time></trkpt><trkpt lat="45.1005465922591" lon="8.291432733586362"><ele>168.0</ele><time>2026-04-25T17:11:17Z</time></trkpt><trkpt lat="45.10046234969411" lon="8.291498160167503"><ele>171.60000000000002</ele><time>2026-04-25T17:11:18Z</time></trkpt><trkpt lat="45.100390902432004" lon="8.291579316786633"><ele>175.20000000000002</ele><time>2026-04-25T17:11:19Z</time></trkpt><trkpt lat="45.100314913385176" lon="8.291680806048186"><ele>178.8</ele><time>2026-04-25T17:11:20Z</time></trkpt><trkpt lat="45.10024463828807" lon="8.291762628817873"><ele>182.4</ele><time>2026-04-25T17:11:21Z</time></trkpt><trkpt lat="45.100184260905664" lon="8.291863719847703"><ele>186.0</ele><time>2026-04-25T17:11:22Z</time></trkpt><trkpt lat="45.100137492682066" lon="8.292017933664075"><ele>186.0</ele><time>2026-04-25T17:11:23Z</time></trkpt><trkpt lat="45.10011843502723" lon="8.29212321213093"><ele>186.0</ele><time>2026-04-25T17:11:24Z</time></trkpt><trkpt lat="45.100120220852936" lon="8.292224853834128"><ele>186.0</ele><time>2026-04-25T17:11:25Z</time></trkpt><trkpt lat="45.10006871631127" lon="8.292295650184506"><ele>186.0</ele><time>2026-04-25T17:11:26Z</time></trkpt><trkpt lat="45.10004970096698" lon="8.292389720186964"><ele>186.0</ele><time>2026-04-25T17:11:27Z</time></trkpt><trkpt lat="45.09998436005796" lon="8.292472833239273"><ele>186.0</ele><time>2026-04-25T17:11:33.001Z</time></trkpt><trkpt lat="45.09988574452626" lon="8.292517867712586"><ele>187.0</ele><time>2026-04-25T17:11:34.001Z</time></trkpt><trkpt lat="45.09975570773896" lon="8.292569714937146"><ele>188.0</ele><time>2026-04-25T17:11:35.001Z</time></trkpt><trkpt lat="45.099597677547635" lon="8.29264458340739"><ele>189.0</ele><time>2026-04-25T17:11:36.001Z</time></trkpt><trkpt lat="45.09941487422764" lon="8.292713237160566"><ele>189.0</ele><time>2026-04-25T17:11:37.001Z</time></trkpt><trkpt lat="45.099251988161825" lon="8.292792334448626"><ele>189.0</ele><time>2026-04-25T17:11:38.001Z</time></trkpt><trkpt lat="45.099138270319266" lon="8.292851587707458"><ele>189.0</ele><time>2026-04-25T17:11:39.001Z</time></trkpt><trkpt lat="45.09906591456689" lon="8.292875061056362"><ele>189.0</ele><time>2026-04-25T17:11:40.001Z</time></trkpt><trkpt lat="45.09891965100908" lon="8.292365742390881"><ele>187.0</ele><time>2026-04-25T17:11:47.001Z</time></trkpt><trkpt lat="45.098972061678204" lon="8.292258229379508"><ele>187.0</ele><time>2026-04-25T17:11:48.001Z</time></trkpt><trkpt lat="45.09904699278066" lon="8.292159504024841"><ele>196.0</ele><time>2026-04-25T17:11:49.001Z</time></trkpt><trkpt lat="45.09911219342835" lon="8.292079811116759"><ele>195.0</ele><time>2026-04-25T17:11:50.001Z</time></trkpt><trkpt lat="45.099102464839696" lon="8.291987880893572"><ele>195.0</ele><time>2026-04-25T17:11:55.001Z</time></trkpt></trkseg></trk></gpx>